# Wetter Temperatur Luftdruck Luftfeuchtigkeit Sichtweite Windgeschwindigkeit Windrichtung Zeit
1 Clouds 26 1021 80 10000 7.72 30 16:45 01.02.2023
2 Clouds 23 1020 90 10000 4.12 360 14:21 01.02.2023
3 Clouds 23 1020 90 10000 4.12 360 14:21 01.02.2023
4 Clear 22 1020 91 10000 1.79 23 13:19 01.02.2023
5 Clouds 22 1019 90 10000 3.6 360 12:26 01.02.2023
6 Clear 22 1019 91 10000 1.79 356 11:35 01.02.2023
7 Clear 22 1019 89 10000 2.68 4 08:41 01.02.2023
8 Clouds 27 1017 72 10000 3.6 50 22:59 31.01.2023
9 Clouds 29 1017 63 10000 6.17 360 21:20 31.01.2023
10 Clouds 28 1018 70 10000 5.14 20 19:24 31.01.2023
11 Clouds 25 1019 80 8000 5.14 30 17:37 31.01.2023
12 Clouds 26 1021 81 10000 4.12 360 15:36 31.01.2023
13 Clouds 26 1021 81 10000 4.12 360 15:18 31.01.2023
14 Clouds 22 1019 90 10000 5.14 360 13:19 31.01.2023
15 Clouds 22 1019 92 10000 2.24 3 11:28 31.01.2023
16 Clouds 22 1018 89 10000 1.79 351 10:18 31.01.2023
17 Clouds 22 1018 89 10000 1.79 353 09:44 31.01.2023
18 Clouds 22 1018 89 10000 2.24 3 08:36 31.01.2023
19 Clear 22 1019 88 10000 2.24 344 06:23 31.01.2023
20 Clouds 26 1017 71 10000 3.13 31 00:54 31.01.2023
21 Clouds 27 1018 73 10000 5.14 350 23:24 30.01.2023
22 Clouds 28 1017 70 10000 6.17 60 22:47 30.01.2023
23 Clouds 30 1017 61 10000 5.14 30 21:38 30.01.2023
24 Clouds 30 1017 62 10000 6.17 60 20:43 30.01.2023
25 Clouds 28 1019 80 10000 4.12 360 18:26 30.01.2023
26 Clouds 27 1020 82 10000 5.14 360 16:58 30.01.2023
27 Clouds 24 1020 94 10000 1.79 336 14:35 30.01.2023
28 Clouds 21 1020 95 10000 2.57 10 13:37 30.01.2023
29 Clouds 22 1018 95 10000 2.68 2 11:28 30.01.2023
30 Clear 22 1018 92 10000 1.79 18 10:18 30.01.2023
31 Clear 22 1018 92 10000 2.24 9 09:49 30.01.2023
32 Clear 22 1018 93 10000 2.24 3 08:18 30.01.2023
33 Clear 24 1020 88 10000 1.79 6 01:46 30.01.2023
34 Clouds 26 1018 79 10000 5.14 30 23:35 29.01.2023
35 Clouds 26 1017 78 10000 2.57 30 22:37 29.01.2023
36 Clouds 26 1017 80 10000 5.14 30 21:41 29.01.2023
37 Clouds 26 1017 79 10000 5.14 30 20:50 29.01.2023
38 Clouds 27 1018 80 10000 5.14 30 20:18 29.01.2023
39 Clouds 27 1018 74 10000 3.6 360 19:32 29.01.2023
40 Clouds 27 1020 78 10000 3.6 30 17:50 29.01.2023
41 Clouds 25 1020 86 10000 4.12 360 16:21 29.01.2023
42 Clouds 23 1021 93 10000 2.68 352 15:29 29.01.2023
43 Clouds 21 1020 94 10000 2.57 360 13:30 29.01.2023
44 Clouds 21 1019 92 10000 2.57 360 12:45 29.01.2023
45 Clouds 21 1019 92 10000 2.57 360 12:23 29.01.2023
46 Clouds 22 1019 91 10000 2.24 3 11:54 29.01.2023
47 Clouds 22 1018 91 10000 1.79 349 11:27 29.01.2023
48 Clouds 22 1018 89 10000 1.79 359 09:59 29.01.2023
49 Clear 22 1019 89 10000 1.79 356 07:20 29.01.2023
50 Clouds 22 1020 90 10000 1.79 14 03:40 29.01.2023
51 Clouds 24 1018 82 10000 5.66 360 23:39 28.01.2023
52 Clouds 25 1018 82 10000 6.17 360 20:45 28.01.2023
53 Clouds 25 1018 78 10000 6.17 360 19:52 28.01.2023
54 Clouds 26 1019 78 10000 4.12 30 18:35 28.01.2023
55 Clouds 25 1020 73 10000 5.14 30 17:20 28.01.2023
56 Clouds 26 1021 70 10000 7.2 360 16:25 28.01.2023
57 Clouds 26 1021 68 10000 5.14 360 15:49 28.01.2023
58 Clouds 25 1021 74 10000 5.14 360 14:53 28.01.2023
59 Clouds 22 1020 88 8000 3.6 360 13:30 28.01.2023
60 Clouds 22 1019 87 10000 2.24 4 11:55 28.01.2023
61 Clouds 22 1018 87 10000 2.24 345 10:34 28.01.2023
62 Clouds 22 1018 86 10000 1.79 10 08:39 28.01.2023
63 Clear 24 1019 82 10000 2.24 30 01:45 28.01.2023
64 Clouds 26 1018 77 10000 5.66 30 00:26 28.01.2023
65 Clouds 29 1017 66 10000 6.17 360 21:48 27.01.2023
66 Clouds 26 1018 79 10000 4.12 360 18:53 27.01.2023
67 Clouds 28 1019 77 10000 4.12 360 17:58 27.01.2023
68 Clouds 27 1019 78 10000 4.12 360 17:19 27.01.2023
69 Clouds 26 1020 81 10000 5.14 40 16:35 27.01.2023
70 Clouds 24 1020 85 10000 5.14 40 14:58 27.01.2023
71 Clouds 24 1020 87 10000 5.14 40 14:25 27.01.2023
72 Clouds 22 1018 84 10000 2.57 360 13:18 27.01.2023
73 Clear 22 1018 90 10000 1.34 357 08:47 27.01.2023
74 Clear 22 1019 84 10000 2.91 344 06:20 27.01.2023
75 Clouds 27 1017 76 10000 4.12 160 22:59 26.01.2023
76 Clouds 28 1017 79 10000 3.09 90 21:43 26.01.2023
77 Clouds 28 1017 75 10000 3.09 270 20:39 26.01.2023
78 Clouds 29 1017 73 8000 3.09 30 19:54 26.01.2023
79 Clouds 27 1019 80 10000 3.09 90 17:55 26.01.2023
80 Clouds 27 1020 78 10000 3.09 90 16:29 26.01.2023
81 Clouds 26 1020 81 10000 3.09 360 15:58 26.01.2023
82 Clouds 26 1020 83 10000 3.09 360 15:32 26.01.2023
83 Clouds 25 1020 86 10000 1.79 31 14:59 26.01.2023
84 Clouds 21 1019 91 10000 0 0 13:32 26.01.2023
85 Clouds 22 1020 95 10000 2.52 353 11:53 26.01.2023
86 Clouds 23 1018 90 10000 0.89 338 10:33 26.01.2023
87 Clouds 23 1019 95 10000 2.75 343 09:44 26.01.2023
88 Clouds 23 1018 89 10000 1.34 345 08:26 26.01.2023
89 Clear 23 1020 92 10000 2.83 331 06:27 26.01.2023
90 Clouds 27 1019 87 10000 2.57 180 23:40 25.01.2023
91 Clouds 28 1017 65 10000 2.57 180 22:26 25.01.2023
92 Clouds 29 1017 62 10000 3.09 150 21:25 25.01.2023
93 Clear 29 1018 61 10000 1.34 122 19:50 25.01.2023
94 Clouds 29 1019 63 10000 2.57 90 18:24 25.01.2023
95 Clear 26 1021 77 10000 2.68 85 15:57 25.01.2023
96 Clouds 23 1020 88 10000 1.34 351 13:58 25.01.2023
97 Clouds 21 1018 90 10000 1.34 328 11:37 25.01.2023
98 Clouds 22 1018 90 10000 1.34 340 09:52 25.01.2023
99 Clear 22 1018 91 10000 1.34 345 08:59 25.01.2023
100 Clear 25 1021 86 10000 3.17 355 01:53 25.01.2023
101 Clouds 27 1019 73 10000 3.58 66 00:26 25.01.2023
102 Clouds 29 1017 69 10000 5.14 30 21:54 24.01.2023
103 Clouds 29 1017 65 10000 5.14 30 21:26 24.01.2023
104 Clouds 30 1018 61 10000 2.57 10 19:28 24.01.2023
105 Clouds 30 1019 65 10000 1.34 123 18:29 24.01.2023
106 Clouds 29 1020 70 10000 2.57 90 17:18 24.01.2023
107 Clouds 28 1021 76 10000 4.12 60 16:47 24.01.2023
108 Clouds 22 1020 92 10000 1.34 356 13:51 24.01.2023
109 Clouds 22 1019 91 10000 1.79 346 11:59 24.01.2023
110 Clouds 22 1019 91 10000 1.34 335 08:53 24.01.2023
111 Clouds 22 1019 91 10000 1.34 331 08:19 24.01.2023
112 Clouds 22 1020 95 10000 2 334 07:49 24.01.2023
113 Clouds 24 1019 94 10000 0 0 02:48 24.01.2023
114 Clouds 26 1018 80 10000 2.57 150 00:41 24.01.2023
115 Clouds 28 1017 75 10000 4.12 170 22:38 23.01.2023
116 Clouds 29 1018 69 10000 5.14 180 20:45 23.01.2023
117 Clouds 28 1019 70 10000 5.14 150 19:23 23.01.2023
118 Clouds 28 1021 68 10000 1.34 134 17:20 23.01.2023
119 Clouds 26 1021 79 10000 2.57 60 15:32 23.01.2023
120 Clouds 24 1021 87 10000 1.79 59 13:56 23.01.2023
121 Clouds 22 1021 97 10000 0 0 12:56 23.01.2023
122 Clouds 21 1020 97 10000 0 0 12:21 23.01.2023
123 Clouds 23 1020 90 10000 0.45 342 11:29 23.01.2023
124 Clouds 23 1019 91 10000 0.89 6 08:25 23.01.2023
125 Clouds 25 1017 74 10000 2.24 117 00:24 23.01.2023
126 Clouds 28 1017 68 10000 5.14 180 22:19 22.01.2023
127 Clouds 28 1016 70 10000 2.57 180 21:19 22.01.2023
128 Clouds 29 1017 67 10000 2.68 117 19:58 22.01.2023
129 Clouds 29 1017 67 10000 2.57 180 19:40 22.01.2023
130 Clouds 29 1018 71 10000 2.68 109 18:43 22.01.2023
131 Clouds 28 1019 73 10000 2.68 114 17:55 22.01.2023
132 Clouds 28 1019 75 10000 1.79 121 17:24 22.01.2023
133 Clouds 26 1020 80 10000 3.09 60 15:29 22.01.2023
134 Clouds 24 1020 84 10000 1.79 35 14:43 22.01.2023
135 Clouds 22 1019 90 10000 1.34 15 13:28 22.01.2023
136 Clouds 20 1019 92 10000 1.34 342 12:32 22.01.2023
137 Clear 22 1018 91 10000 0.89 6 11:34 22.01.2023
138 Clear 22 1018 90 10000 0.89 358 09:35 22.01.2023
139 Clear 23 1020 94 10000 2.44 340 05:41 22.01.2023
140 Clouds 27 1017 80 10000 2.57 180 23:49 21.01.2023
141 Clouds 26 1017 79 10000 2.57 180 23:29 21.01.2023
142 Clouds 28 1017 70 10000 4.12 170 21:35 21.01.2023
143 Clouds 28 1018 72 10000 1.34 164 19:23 21.01.2023
144 Clouds 27 1021 74 10000 3.09 30 16:41 21.01.2023
145 Clouds 23 1020 86 10000 1.79 350 14:24 21.01.2023
146 Clear 21 1020 92 10000 1.34 340 12:57 21.01.2023
147 Clear 21 1019 92 10000 1.34 326 11:42 21.01.2023
148 Clear 21 1018 91 10000 1.34 337 10:49 21.01.2023
149 Clear 22 1020 100 10000 1.91 341 08:50 21.01.2023
150 Clouds 22 1019 88 10000 0 0 04:31 21.01.2023
151 Clouds 28 1017 78 10000 5.14 180 22:28 20.01.2023
152 Clouds 28 1018 77 10000 4.12 160 21:38 20.01.2023
153 Clouds 28 1018 72 10000 1.34 148 20:55 20.01.2023
154 Clouds 29 1018 71 10000 4.12 90 19:20 20.01.2023
155 Clear 28 1021 79 10000 1.79 111 16:37 20.01.2023
156 Clouds 24 1021 85 10000 1.34 39 14:46 20.01.2023
157 Clouds 21 1020 91 10000 0.89 320 13:37 20.01.2023
158 Clear 22 1018 87 10000 2.47 343 10:24 20.01.2023
159 Clear 20 1018 83 10000 2.3 338 08:51 20.01.2023
160 Clouds 22 1021 93 10000 0 0 04:22 20.01.2023
161 Clouds 23 1018 78 10000 0 0 02:29 20.01.2023
162 Clear 28 1018 65 10000 0.89 153 22:32 19.01.2023
163 Clouds 29 1017 63 10000 3.6 90 20:25 19.01.2023
164 Clouds 29 1018 61 10000 4.12 60 19:28 19.01.2023
165 Clouds 26 1021 67 10000 5.14 360 16:29 19.01.2023
166 Clouds 18 1019 90 10000 0.89 7 12:50 19.01.2023
167 Clear 20 1018 87 10000 1.34 347 08:59 19.01.2023
168 Clouds 25 1017 65 10000 3.6 30 00:45 19.01.2023
169 Clouds 29 1016 58 10000 5.14 60 21:22 18.01.2023
170 Clouds 29 1016 59 10000 3.13 39 20:20 18.01.2023
171 Clouds 29 1017 60 10000 4.12 70 19:37 18.01.2023
172 Clouds 28 1019 63 10000 6.17 360 17:49 18.01.2023
173 Clouds 24 1020 74 10000 2.68 22 15:48 18.01.2023
174 Clouds 18 1018 91 10000 0 0 13:30 18.01.2023
175 Clear 20 1018 86 10000 1.34 336 11:25 18.01.2023
176 Clear 19 1019 90 10000 2.79 344 08:47 18.01.2023
177 Clear 23 1017 73 10000 3.21 14 01:28 18.01.2023
178 Clouds 24 1016 74 10000 2.57 30 00:19 18.01.2023
179 Clouds 28 1015 60 10000 3.09 330 20:40 17.01.2023
180 Clouds 28 1015 59 10000 5.14 30 19:35 17.01.2023
181 Clouds 27 1016 61 10000 2.68 53 18:36 17.01.2023
182 Clouds 26 1018 64 10000 5.14 70 17:31 17.01.2023
183 Clouds 23 1018 70 10000 2.57 360 14:57 17.01.2023
184 Clouds 22 1018 72 10000 2.57 360 14:22 17.01.2023
185 Clouds 19 1017 82 10000 0.89 348 12:48 17.01.2023
186 Clear 18 1017 86 10000 3.42 344 11:44 17.01.2023
187 Clear 20 1015 79 10000 1.34 335 09:35 17.01.2023
188 Clear 20 1015 77 10000 1.34 353 08:20 17.01.2023
189 Clear 21 1016 73 10000 1.34 350 05:51 17.01.2023
190 Clouds 24 1016 74 10000 1.79 25 00:57 17.01.2023
191 Clouds 26 1015 83 10000 5.14 30 23:38 16.01.2023
192 Clouds 27 1014 59 10000 4.12 30 21:52 16.01.2023
193 Clouds 28 1015 58 10000 5.14 30 20:46 16.01.2023
194 Clouds 28 1015 58 10000 5.14 360 19:40 16.01.2023
195 Clouds 27 1016 60 10000 4.12 20 18:54 16.01.2023
196 Clouds 27 1017 61 10000 4.12 20 18:21 16.01.2023
197 Clouds 26 1017 61 10000 8.23 20 17:35 16.01.2023
198 Clouds 24 1018 69 10000 5.14 360 15:33 16.01.2023
199 Clouds 21 1017 77 10000 3.09 360 13:39 16.01.2023
200 Clear 20 1015 77 10000 2.68 357 10:53 16.01.2023
201 Clear 20 1015 77 10000 3.13 353 10:18 16.01.2023
202 Clouds 25 1014 77 10000 6.17 30 23:38 15.01.2023
203 Clouds 26 1015 79 10000 5.14 360 22:26 15.01.2023
204 Clouds 29 1014 73 10000 5.14 360 20:40 15.01.2023
205 Clouds 29 1015 70 10000 7.2 360 19:59 15.01.2023
206 Clouds 28 1017 74 10000 5.14 360 17:55 15.01.2023
207 Clouds 27 1018 81 10000 5.14 20 16:18 15.01.2023
208 Clouds 22 1016 93 10000 1.79 22 12:34 15.01.2023
209 Clouds 22 1016 93 10000 2.68 359 11:36 15.01.2023
210 Clouds 22 1016 92 10000 1.34 20 10:28 15.01.2023
211 Clouds 22 1015 92 10000 1.79 6 09:35 15.01.2023
212 Clouds 25 1016 90 10000 1.79 276 01:48 15.01.2023
213 Clouds 26 1014 87 10000 3.09 200 22:57 14.01.2023
214 Clouds 26 1014 85 8000 5.14 180 21:58 14.01.2023
215 Clouds 26 1014 85 8000 5.14 180 21:36 14.01.2023
216 Clouds 27 1014 84 8000 5.14 180 21:18 14.01.2023
217 Clouds 27 1014 82 10000 5.14 180 20:38 14.01.2023
218 Clouds 28 1015 80 10000 3.09 150 18:40 14.01.2023
219 Clouds 27 1017 84 10000 0.89 123 16:19 14.01.2023
220 Clouds 25 1017 90 10000 0.89 122 15:27 14.01.2023
221 Clouds 23 1017 94 10000 1.34 88 14:25 14.01.2023
222 Clouds 22 1016 96 10000 0.45 29 13:41 14.01.2023
223 Clear 22 1015 95 10000 0.45 57 11:39 14.01.2023
224 Clear 22 1015 95 10000 0.89 32 10:46 14.01.2023
225 Clear 22 1015 95 10000 0.89 32 10:46 14.01.2023
226 Clear 22 1015 95 10000 0.89 32 10:46 14.01.2023
227 Clear 24 1016 91 10000 1.34 295 05:37 14.01.2023
228 Clouds 26 1014 86 10000 2.57 180 23:30 13.01.2023
229 Clouds 26 1014 83 10000 5.14 180 22:45 13.01.2023
230 Clouds 27 1014 83 10000 5.14 180 22:20 13.01.2023
231 Clouds 26 1014 85 10000 3.6 140 21:34 13.01.2023
232 Clouds 26 1014 80 10000 3.6 180 19:38 13.01.2023
233 Clouds 28 1016 79 10000 3.6 140 18:19 13.01.2023
234 Clouds 27 1018 83 10000 1.34 107 16:24 13.01.2023
235 Clouds 22 1017 94 10000 0.89 356 13:19 13.01.2023
236 Clouds 22 1016 95 10000 0.45 320 12:20 13.01.2023
237 Clear 23 1016 93 10000 0.45 341 10:26 13.01.2023
238 Clear 23 1016 93 10000 0.45 353 09:45 13.01.2023
239 Clear 23 1016 93 10000 0.45 335 08:52 13.01.2023
240 Clear 23 1017 97 10000 2.33 342 08:20 13.01.2023
241 Clear 23 1018 97 10000 2.43 340 06:52 13.01.2023
242 Clouds 23 1018 96 8000 0.89 344 03:56 13.01.2023
243 Clouds 25 1017 86 10000 3.13 46 23:58 12.01.2023
244 Clouds 28 1016 79 10000 4.12 30 22:41 12.01.2023
245 Clouds 29 1016 76 10000 1.34 119 20:55 12.01.2023
246 Clouds 29 1017 74 10000 2.24 110 19:38 12.01.2023
247 Clouds 29 1019 75 10000 3.09 360 17:34 12.01.2023
248 Clouds 27 1020 81 10000 5.14 360 16:18 12.01.2023
249 Clouds 24 1019 89 10000 2.24 2 14:44 12.01.2023
250 Clouds 24 1020 93 10000 1.79 19 14:22 12.01.2023
251 Clouds 22 1018 94 10000 1.79 355 12:48 12.01.2023
252 Clouds 23 1019 97 10000 2.64 348 10:36 12.01.2023
253 Clear 23 1018 97 10000 2.34 349 08:28 12.01.2023
254 Clouds 23 1018 90 10000 0.89 343 03:58 12.01.2023
255 Clouds 26 1016 81 10000 2.57 120 23:59 11.01.2023
256 Clouds 26 1017 88 10000 2.57 120 23:40 11.01.2023
257 Clouds 26 1016 80 10000 2.57 120 23:21 11.01.2023
258 Clouds 28 1016 82 10000 0.89 186 21:45 11.01.2023
259 Clouds 29 1016 72 10000 2.57 60 19:59 11.01.2023
260 Clouds 29 1017 73 10000 0.89 157 18:35 11.01.2023
261 Clouds 27 1019 78 10000 0.89 42 16:47 11.01.2023
262 Clouds 25 1019 92 10000 1.79 35 14:47 11.01.2023
263 Clouds 23 1018 95 10000 0 0 12:50 11.01.2023
264 Clear 23 1017 89 10000 2.08 345 11:54 11.01.2023
265 Clear 23 1015 89 10000 1.94 346 10:20 11.01.2023
266 Clear 23 1017 96 10000 1.81 338 07:59 11.01.2023
267 Clear 23 1018 96 10000 1.99 343 07:22 11.01.2023
268 Clouds 23 1018 96 10000 1.99 344 07:22 11.01.2023
269 Clouds 25 1014 84 10000 5.14 30 00:34 11.01.2023
270 Clouds 27 1014 85 10000 3.09 180 22:45 10.01.2023
271 Clouds 28 1015 83 10000 0.89 203 21:32 10.01.2023
272 Clouds 28 1014 80 10000 5.14 180 20:39 10.01.2023
273 Clouds 29 1015 77 10000 3.6 180 19:38 10.01.2023
274 Clear 28 1016 80 10000 1.34 124 18:47 10.01.2023
275 Clouds 29 1016 77 10000 3.09 170 17:58 10.01.2023
276 Clouds 28 1017 78 10000 2.06 180 16:39 10.01.2023
277 Clouds 27 1018 83 10000 0.89 157 15:24 10.01.2023
278 Clear 25 1018 93 10000 0.41 43 14:30 10.01.2023
279 Clouds 22 1016 97 10000 0 0 12:22 10.01.2023
280 Clouds 23 1016 91 10000 1 310 09:21 10.01.2023
281 Clouds 23 1016 91 10000 0.45 294 08:29 10.01.2023
282 Clouds 24 1018 96 10000 1.18 304 07:26 10.01.2023
283 Clouds 23 1018 89 10000 0 0 04:53 10.01.2023
284 Clouds 27 1016 82 10000 4.12 180 22:59 09.01.2023
285 Clouds 28 1016 77 10000 3.6 360 21:49 09.01.2023
286 Clouds 28 1016 75 10000 5.14 180 20:43 09.01.2023
287 Clouds 28 1018 76 10000 1.34 164 18:44 09.01.2023
288 Clouds 28 1019 78 10000 3.09 90 17:53 09.01.2023
289 Clouds 27 1019 79 10000 1.34 116 16:59 09.01.2023
290 Clouds 27 1019 81 10000 1.79 93 16:32 09.01.2023
291 Clouds 26 1020 88 10000 1.34 58 15:23 09.01.2023
292 Clouds 24 1020 92 10000 0.89 13 14:43 09.01.2023
293 Clouds 22 1019 96 10000 0.89 324 12:55 09.01.2023
294 Clouds 22 1018 96 10000 0.89 320 12:25 09.01.2023
295 Clear 22 1018 95 10000 1.34 343 11:20 09.01.2023
296 Clear 23 1018 94 10000 1.34 339 08:42 09.01.2023
297 Clouds 23 1019 93 10000 0.89 331 06:34 09.01.2023
298 Clouds 24 1019 92 10000 1.34 350 02:53 09.01.2023
299 Clouds 25 1017 89 8000 6.17 130 22:53 08.01.2023
300 Clouds 27 1016 85 10000 2.24 43 21:23 08.01.2023
301 Clouds 27 1016 85 10000 5.14 360 20:57 08.01.2023
302 Clouds 27 1017 84 10000 5.14 360 19:43 08.01.2023
303 Clouds 28 1019 79 10000 6.69 10 17:40 08.01.2023
304 Clouds 27 1020 81 10000 6.69 10 17:19 08.01.2023
305 Clouds 26 1020 81 10000 5.14 360 15:38 08.01.2023
306 Clouds 24 1019 83 10000 3.6 350 14:20 08.01.2023
307 Clouds 23 1019 89 10000 3.09 360 13:32 08.01.2023
308 Clouds 22 1019 95 10000 1.34 354 12:59 08.01.2023
309 Clear 22 1019 93 10000 1.79 1 11:37 08.01.2023
310 Clear 23 1018 93 10000 1.34 350 09:37 08.01.2023
311 Clear 23 1018 93 10000 1.79 357 08:31 08.01.2023
312 Clouds 24 1019 85 10000 1.79 2 02:43 08.01.2023
313 Clouds 26 1017 83 10000 5.36 72 22:55 07.01.2023
314 Clouds 27 1017 81 10000 1.34 116 22:34 07.01.2023
315 Clouds 28 1017 75 10000 3.6 90 21:51 07.01.2023
316 Clouds 28 1017 82 10000 3.6 20 20:58 07.01.2023
317 Clouds 28 1017 80 10000 3.6 20 20:25 07.01.2023
318 Clouds 28 1017 77 10000 5.14 360 19:19 07.01.2023
319 Clouds 29 1018 71 8000 2.57 360 18:18 07.01.2023
320 Clouds 29 1019 72 10000 2.57 90 17:39 07.01.2023
321 Clouds 28 1020 75 10000 3.09 90 16:39 07.01.2023
322 Clouds 27 1020 80 10000 3.6 60 15:52 07.01.2023
323 Clouds 27 1020 82 10000 3.6 60 15:31 07.01.2023
324 Clouds 26 1020 84 10000 1.79 358 14:50 07.01.2023
325 Clouds 24 1020 90 10000 1.34 9 13:58 07.01.2023
326 Clouds 24 1020 90 10000 1.34 6 13:39 07.01.2023
327 Clouds 22 1019 93 10000 0.89 347 12:35 07.01.2023
328 Clear 22 1019 93 10000 0.89 355 11:58 07.01.2023
329 Clear 23 1018 92 10000 0.89 9 10:26 07.01.2023
330 Clear 23 1019 96 10000 2.45 338 08:46 07.01.2023
331 Clear 23 1020 96 10000 2.2 345 07:47 07.01.2023
332 Clouds 23 1019 91 10000 0.89 338 07:20 07.01.2023
333 Clouds 22 1021 94 10000 0 0 04:51 07.01.2023
334 Clouds 25 1018 80 10000 3.6 30 22:44 06.01.2023
335 Clouds 26 1018 81 10000 3.6 30 22:19 06.01.2023
336 Clouds 28 1017 76 10000 6.17 180 21:28 06.01.2023
337 Clouds 29 1018 73 10000 1.34 140 19:59 06.01.2023
338 Clouds 29 1018 74 10000 1.34 147 19:41 06.01.2023
339 Clouds 29 1018 73 10000 1.79 120 19:23 06.01.2023
340 Clouds 29 1019 70 10000 2.57 120 18:50 06.01.2023
341 Clouds 29 1020 75 10000 2.57 30 17:31 06.01.2023
342 Clouds 28 1020 76 10000 2.57 30 16:50 06.01.2023
343 Clouds 27 1020 77 10000 2.57 30 16:20 06.01.2023
344 Clouds 26 1020 83 10000 2.68 63 15:50 06.01.2023
345 Clouds 24 1020 92 10000 2.57 10 14:55 06.01.2023
346 Clouds 22 1019 93 10000 1.34 8 12:50 06.01.2023
347 Clouds 23 1018 94 10000 0.89 9 10:59 06.01.2023
348 Clouds 23 1019 97 10000 2.91 342 09:27 06.01.2023
349 Clear 23 1019 96 10000 2.78 341 07:46 06.01.2023
350 Clouds 24 1020 88 10000 1.34 349 01:45 06.01.2023
351 Clouds 26 1018 83 7000 6.17 10 22:55 05.01.2023
352 Clouds 28 1018 76 10000 5.14 180 21:54 05.01.2023
353 Clouds 28 1018 73 10000 2.57 90 19:46 05.01.2023
354 Clouds 27 1020 76 10000 5.14 30 17:28 05.01.2023
355 Clouds 27 1021 78 10000 3.6 360 16:28 05.01.2023
356 Clouds 26 1021 84 10000 2.57 360 15:46 05.01.2023
357 Clouds 25 1021 88 10000 2.57 350 14:51 05.01.2023
358 Thunderstorm 22 1020 92 10000 1.34 341 12:44 05.01.2023
359 Clouds 22 1020 93 10000 1.34 358 11:53 05.01.2023
360 Clouds 22 1018 87 10000 2.68 2 09:55 05.01.2023
361 Clouds 22 1020 97 10000 3.58 338 08:31 05.01.2023
362 Clouds 22 1020 97 10000 2.93 337 07:20 05.01.2023
363 Clouds 22 1020 94 10000 1.79 347 04:57 05.01.2023
364 Clouds 25 1018 87 10000 2.57 360 23:19 04.01.2023
365 Clouds 26 1018 83 8000 5.14 360 21:33 04.01.2023
366 Clouds 27 1018 78 10000 3.09 360 20:47 04.01.2023
367 Clouds 26 1018 77 10000 5.14 30 19:56 04.01.2023
368 Clouds 27 1019 79 10000 5.14 30 19:32 04.01.2023
369 Clouds 27 1020 79 7000 3.6 120 18:37 04.01.2023
370 Clouds 27 1021 72 10000 5.14 40 16:32 04.01.2023
371 Clouds 27 1021 72 10000 5.14 40 16:32 04.01.2023
372 Clouds 27 1021 72 10000 5.14 40 16:32 04.01.2023
373 Clouds 26 1021 75 10000 5.14 360 15:48 04.01.2023
374 Clouds 24 1021 82 10000 3.09 340 14:22 04.01.2023
375 Clear 21 1019 90 10000 1.79 354 11:41 04.01.2023
376 Clear 21 1019 90 10000 1.79 342 11:20 04.01.2023
377 Clear 21 1019 90 10000 1.34 357 10:42 04.01.2023
378 Clear 21 1019 89 10000 1.34 346 10:21 04.01.2023
379 Clear 22 1019 89 10000 1.34 344 07:40 04.01.2023
380 Clear 25 1020 86 10000 2.68 3 01:48 04.01.2023
381 Clouds 26 1018 78 10000 2.57 30 23:59 03.01.2023
382 Clouds 26 1018 76 10000 2.68 44 23:32 03.01.2023
383 Clouds 28 1018 70 10000 3.13 35 22:40 03.01.2023
384 Clouds 29 1017 64 10000 5.14 360 20:52 03.01.2023
385 Clouds 29 1018 67 10000 4.02 69 19:20 03.01.2023
386 Clouds 28 1020 74 10000 3.13 26 16:55 03.01.2023
387 Clouds 26 1021 82 10000 5.14 360 15:51 03.01.2023
388 Clouds 23 1020 92 10000 2.24 354 13:52 03.01.2023
389 Clouds 23 1020 93 10000 2.24 6 13:29 03.01.2023
390 Clouds 22 1019 93 10000 2.24 2 12:57 03.01.2023
391 Clouds 22 1019 93 10000 2.06 350 12:29 03.01.2023
392 Clear 22 1019 93 10000 1.79 353 10:25 03.01.2023
393 Clouds 23 1019 93 10000 2.24 353 06:21 03.01.2023
394 Clouds 22 1020 93 10000 1.79 13 03:56 03.01.2023
395 Clouds 22 1020 93 10000 2.68 6 03:35 03.01.2023
396 Clouds 23 1018 93 6000 1.34 337 23:56 02.01.2023
397 Clouds 24 1017 92 6000 3.09 360 22:41 02.01.2023
398 Clouds 26 1017 89 5000 3.09 360 21:52 02.01.2023
399 Clouds 30 1007 70 8000 4.63 70 20:38 02.01.2023
400 Clouds 27 1018 81 10000 3.09 60 19:27 02.01.2023
401 Clouds 28 1020 78 10000 4.12 60 16:54 02.01.2023
402 Clouds 25 1020 88 10000 4.12 360 14:31 02.01.2023
403 Clouds 23 1019 94 10000 1.34 331 12:57 02.01.2023
404 Clear 23 1019 92 10000 1.34 341 11:40 02.01.2023
405 Clear 23 1019 97 10000 2.95 347 09:42 02.01.2023
406 Clear 23 1019 96 10000 2.89 341 07:30 02.01.2023
407 Clouds 25 1018 88 10000 1.34 330 00:39 02.01.2023
408 Clouds 29 1016 71 10000 5.14 360 21:55 01.01.2023
409 Clouds 29 1016 73 10000 5.14 360 21:22 01.01.2023
410 Clouds 29 1016 74 10000 2.57 360 20:42 01.01.2023
411 Clouds 29 1017 74 10000 3.09 360 19:35 01.01.2023
412 Clouds 27 1018 78 10000 3.09 360 17:40 01.01.2023
413 Clouds 27 1018 78 10000 3.09 360 17:20 01.01.2023
414 Clouds 26 1020 84 8000 2.68 5 16:31 01.01.2023
415 Clouds 26 1020 85 10000 2.57 360 14:37 01.01.2023
416 Clouds 23 1019 92 10000 0.89 8 13:21 01.01.2023
417 Clouds 22 1018 94 10000 0.89 353 12:29 01.01.2023
418 Clear 23 1018 92 10000 0.89 341 11:35 01.01.2023
419 Clear 23 1017 92 10000 0.89 352 09:49 01.01.2023
420 Clear 23 1018 96 10000 3.09 345 08:45 01.01.2023
421 Clear 23 1018 96 10000 3.16 345 08:18 01.01.2023
422 Clear 23 1018 92 10000 1.79 357 06:51 01.01.2023
423 Clouds 25 1018 91 7000 0.89 340 00:33 01.01.2023
424 Clouds 26 1017 87 6000 5.14 180 23:40 31.12.2022
425 Clouds 27 1017 81 8000 2.57 90 22:30 31.12.2022
426 Clouds 28 1017 78 10000 4.12 60 21:25 31.12.2022
427 Clouds 29 1017 73 10000 2.06 360 20:34 31.12.2022
428 Clouds 30 1018 70 10000 5.14 30 18:59 31.12.2022
429 Clouds 29 1018 70 10000 5.14 30 18:38 31.12.2022
430 Clear 29 1019 74 10000 1.79 90 17:58 31.12.2022
431 Clear 29 1020 75 10000 2.24 94 17:34 31.12.2022
432 Clouds 28 1020 76 10000 2.57 90 16:32 31.12.2022
433 Clouds 27 1021 81 10000 2.68 54 15:43 31.12.2022
434 Clouds 25 1021 87 10000 1.79 16 14:34 31.12.2022
435 Clouds 23 1020 91 10000 1.34 23 13:27 31.12.2022
436 Clouds 22 1019 95 10000 0.89 4 12:24 31.12.2022
437 Clouds 23 1019 94 10000 0.45 1 11:56 31.12.2022
438 Clouds 23 1019 94 10000 0.89 352 11:38 31.12.2022
439 Clouds 23 1018 94 10000 1.34 343 10:18 31.12.2022
440 Clouds 23 1018 95 10000 0.89 348 09:50 31.12.2022
441 Clouds 23 1018 95 10000 1.34 7 08:30 31.12.2022
442 Clouds 23 1019 88 10000 3.09 360 04:52 31.12.2022
443 Clouds 26 1017 84 10000 2.57 30 00:33 31.12.2022
444 Clouds 27 1016 81 10000 2.57 30 23:20 30.12.2022
445 Clouds 27 1016 81 8000 5.14 30 22:18 30.12.2022
446 Clouds 29 1016 76 10000 5.14 30 21:38 30.12.2022
447 Clouds 29 1016 74 10000 5.14 30 21:18 30.12.2022
448 Clouds 29 1018 76 10000 5.14 360 18:28 30.12.2022
449 Clouds 29 1019 75 10000 3.09 10 17:34 30.12.2022
450 Clouds 28 1020 77 10000 2.24 37 16:48 30.12.2022
451 Clouds 26 1021 84 10000 3.6 360 14:55 30.12.2022
452 Clouds 26 1021 84 10000 3.6 360 14:55 30.12.2022
453 Clouds 22 1020 91 10000 1.79 4 12:54 30.12.2022
454 Clear 23 1020 100 10000 3.39 345 08:24 30.12.2022
455 Clouds 24 1021 94 10000 0 0 03:55 30.12.2022
456 Clouds 24 1020 89 10000 1.79 49 02:26 30.12.2022
457 Clouds 27 1019 87 7000 5.14 30 23:45 29.12.2022
458 Clouds 28 1018 74 10000 4.12 140 21:55 29.12.2022
459 Clouds 29 1018 74 10000 4.12 140 21:20 29.12.2022
460 Clouds 29 1018 73 10000 2.57 60 20:45 29.12.2022
461 Clouds 29 1019 73 10000 6.17 30 18:49 29.12.2022
462 Clouds 29 1020 73 10000 2.57 60 17:53 29.12.2022
463 Clouds 29 1020 73 10000 3.13 68 17:25 29.12.2022
464 Clouds 28 1021 76 10000 2.68 73 16:54 29.12.2022
465 Clouds 27 1021 80 10000 4.12 360 15:49 29.12.2022
466 Clouds 22 1020 86 10000 1.34 351 13:41 29.12.2022
467 Clear 23 1020 92 10000 0.89 8 11:51 29.12.2022
468 Clear 23 1019 92 10000 1.34 354 09:36 29.12.2022
469 Clouds 24 1020 90 10000 1.34 19 03:34 29.12.2022
470 Clouds 27 1018 84 10000 3.09 90 23:28 28.12.2022
471 Clouds 28 1017 77 10000 4.12 150 21:55 28.12.2022
472 Clouds 29 1017 74 10000 4.12 150 21:19 28.12.2022
473 Clouds 30 1018 64 10000 2.57 60 19:52 28.12.2022
474 Clouds 29 1019 71 10000 1.79 132 18:25 28.12.2022
475 Clouds 28 1020 77 10000 1.79 85 16:20 28.12.2022
476 Clouds 21 1019 92 10000 1.34 8 13:46 28.12.2022
477 Clouds 21 1019 91 10000 1.34 339 12:48 28.12.2022
478 Clear 22 1018 90 10000 0.89 4 11:33 28.12.2022
479 Clear 23 1018 90 10000 1.34 339 09:28 28.12.2022
480 Clear 23 1018 90 10000 0.89 338 07:30 28.12.2022
481 Clear 23 1020 95 10000 2.16 327 06:44 28.12.2022
482 Clouds 27 1017 76 10000 0 0 00:29 28.12.2022
483 Clouds 29 1017 72 10000 5.14 150 20:59 27.12.2022
484 Clouds 29 1017 74 10000 5.14 150 19:41 27.12.2022
485 Clouds 28 1019 80 10000 2.57 270 17:58 27.12.2022
486 Clouds 26 1020 86 10000 2.57 270 16:44 27.12.2022
487 Clouds 24 1020 93 10000 1.34 47 15:49 27.12.2022
488 Clouds 23 1019 93 10000 1.34 39 13:57 27.12.2022
489 Clear 23 1019 95 10000 1.75 338 11:30 27.12.2022
490 Clear 23 1019 95 10000 1.75 338 11:30 27.12.2022
491 Clear 23 1018 95 10000 2.3 335 09:47 27.12.2022
492 Clear 23 1018 95 10000 2.47 335 09:23 27.12.2022
493 Clear 23 1018 94 10000 2.68 338 08:20 27.12.2022
494 Clouds 22 1019 100 10000 0 0 04:32 27.12.2022
495 Clouds 28 1016 75 10000 4.12 170 22:28 26.12.2022
496 Clouds 29 1016 71 10000 3.6 150 21:24 26.12.2022
497 Clouds 29 1016 70 10000 5.14 190 20:39 26.12.2022
498 Clouds 29 1018 70 10000 2.68 123 18:44 26.12.2022
499 Clouds 29 1019 72 10000 2.24 121 17:51 26.12.2022
500 Clouds 28 1020 74 10000 2.68 108 16:21 26.12.2022
501 Clouds 25 1020 86 10000 1.79 358 14:30 26.12.2022
502 Clouds 22 1019 91 10000 0.89 333 12:47 26.12.2022
503 Clear 22 1019 93 10000 2.79 327 07:59 26.12.2022
504 Clouds 28 1016 65 10000 2.57 180 23:56 25.12.2022
505 Clouds 27 1017 79 10000 2.57 180 23:38 25.12.2022
506 Clouds 28 1016 71 10000 5.14 150 22:27 25.12.2022
507 Clouds 28 1016 72 10000 4.12 150 21:48 25.12.2022
508 Clouds 29 1017 70 10000 2.57 60 18:50 25.12.2022
509 Clouds 28 1018 72 10000 2.57 90 17:52 25.12.2022
510 Clouds 28 1018 71 10000 2.57 90 17:34 25.12.2022
511 Clouds 26 1019 82 10000 2.68 72 15:23 25.12.2022
512 Clouds 21 1018 92 10000 0.89 331 12:42 25.12.2022
513 Clear 22 1017 90 10000 0.89 359 08:44 25.12.2022
514 Clouds 27 1017 80 10000 2.57 150 23:40 24.12.2022
515 Clouds 28 1017 73 10000 5.14 180 21:41 24.12.2022
516 Clouds 29 1018 73 10000 2.24 122 18:18 24.12.2022
517 Clouds 28 1020 77 10000 2.57 60 16:38 24.12.2022
518 Clouds 25 1020 86 10000 1.34 337 14:52 24.12.2022
519 Clouds 20 1019 94 10000 1.34 343 12:42 24.12.2022
520 Clouds 22 1018 94 10000 0.89 334 10:39 24.12.2022
521 Clouds 22 1018 94 10000 0.89 342 10:20 24.12.2022
522 Clouds 22 1017 94 10000 0.89 325 09:36 24.12.2022
523 Clear 23 1020 100 10000 1.53 350 05:46 24.12.2022
524 Clouds 24 1018 94 10000 0 0 02:20 24.12.2022
525 Clouds 26 1017 86 10000 0.45 148 23:35 23.12.2022
526 Clouds 28 1017 80 10000 5.14 200 21:58 23.12.2022
527 Clouds 27 1017 88 10000 0.89 179 20:31 23.12.2022
528 Clouds 27 1017 82 10000 4.12 180 19:39 23.12.2022
529 Clouds 27 1017 81 10000 4.12 180 19:21 23.12.2022
530 Clouds 27 1018 80 10000 3.6 180 18:38 23.12.2022
531 Clouds 27 1018 81 10000 3.6 180 18:19 23.12.2022
532 Clouds 28 1020 79 10000 2.57 20 16:33 23.12.2022
533 Clouds 25 1020 87 10000 1.79 359 14:51 23.12.2022
534 Clear 22 1018 92 10000 1.34 337 11:42 23.12.2022
535 Clear 23 1018 92 10000 1.34 345 09:37 23.12.2022
536 Clear 23 1019 95 10000 1.63 345 07:52 23.12.2022
537 Clear 23 1020 100 10000 1.76 339 06:51 23.12.2022
538 Clear 23 1018 91 10000 1.59 327 05:27 23.12.2022
539 Clouds 27 1017 82 10000 2.57 170 23:21 22.12.2022
540 Clouds 28 1016 80 10000 5.14 180 22:34 22.12.2022
541 Clouds 29 1016 76 10000 4.12 180 20:25 22.12.2022
542 Clouds 29 1017 74 10000 5.14 180 19:23 22.12.2022
543 Clouds 29 1017 75 10000 3.6 90 18:37 22.12.2022
544 Clouds 29 1019 73 10000 2.57 90 16:58 22.12.2022
545 Clouds 28 1019 75 10000 2.57 90 16:37 22.12.2022
546 Clear 27 1020 81 10000 1.79 116 15:32 22.12.2022
547 Clouds 25 1019 78 10000 1.34 40 14:45 22.12.2022
548 Clouds 22 1018 86 10000 1.34 349 13:32 22.12.2022
549 Clouds 21 1018 93 10000 0.89 354 12:32 22.12.2022
550 Clear 23 1017 90 10000 0.89 5 10:32 22.12.2022
551 Clear 23 1017 90 10000 0.89 341 09:59 22.12.2022
552 Clear 23 1017 90 10000 1.34 340 09:19 22.12.2022
553 Clear 22 1018 95 10000 2.07 337 07:54 22.12.2022
554 Clouds 20 1019 100 10000 0 0 04:19 22.12.2022
555 Clouds 27 1015 74 10000 2.57 160 00:51 22.12.2022
556 Clouds 28 1015 72 10000 3.09 160 22:42 21.12.2022
557 Clouds 29 1015 69 10000 2.57 210 21:51 21.12.2022
558 Clouds 29 1015 68 10000 2.57 210 21:21 21.12.2022
559 Clouds 29 1016 66 10000 0.89 165 20:45 21.12.2022
560 Clouds 29 1016 66 10000 2.57 150 19:58 21.12.2022
561 Clouds 29 1016 66 10000 2.57 150 19:39 21.12.2022
562 Clouds 29 1017 68 10000 2.57 150 19:20 21.12.2022
563 Clouds 29 1018 69 10000 2.57 90 18:43 21.12.2022
564 Clouds 28 1019 71 10000 1.79 109 17:34 21.12.2022
565 Clouds 24 1019 81 10000 1.34 358 14:24 21.12.2022
566 Clouds 22 1018 92 10000 1.34 335 12:30 21.12.2022
567 Clear 23 1018 90 10000 0.89 354 11:21 21.12.2022
568 Clear 23 1018 91 10000 1.79 18 10:50 21.12.2022
569 Clear 23 1018 95 10000 3.01 347 08:50 21.12.2022
570 Clear 23 1020 100 10000 2.6 338 06:35 21.12.2022
571 Clouds 26 1017 76 10000 3.09 30 00:28 21.12.2022
572 Clouds 29 1017 68 10000 3.6 360 21:58 20.12.2022
573 Clouds 30 1017 59 10000 2.68 32 20:58 20.12.2022
574 Clouds 29 1017 60 10000 2.57 360 19:59 20.12.2022
575 Clouds 29 1018 62 10000 3.09 360 18:48 20.12.2022
576 Clouds 29 1018 63 10000 3.09 360 18:23 20.12.2022
577 Clouds 29 1019 67 10000 2.57 30 17:50 20.12.2022
578 Clouds 28 1020 70 10000 2.68 51 17:25 20.12.2022
579 Clouds 27 1021 74 10000 3.6 360 16:19 20.12.2022
580 Clouds 26 1021 82 10000 1.79 30 14:56 20.12.2022
581 Clouds 25 1021 83 10000 1.79 31 14:36 20.12.2022
582 Clouds 22 1019 88 10000 0 0 13:30 20.12.2022
583 Clouds 21 1019 92 10000 1.34 347 12:37 20.12.2022
584 Clear 22 1019 91 10000 1.34 346 11:55 20.12.2022
585 Clear 22 1018 91 10000 0.89 1 10:29 20.12.2022
586 Clouds 23 1019 95 10000 2.57 341 07:28 20.12.2022
587 Clouds 26 1017 75 10000 1.79 117 00:20 20.12.2022
588 Clouds 28 1018 76 10000 4.12 170 22:29 19.12.2022
589 Clouds 28 1017 75 10000 3.6 180 21:24 19.12.2022
590 Clouds 29 1018 71 10000 3.6 30 19:41 19.12.2022
591 Clouds 29 1019 71 10000 1.79 154 18:57 19.12.2022
592 Clouds 29 1019 70 10000 2.24 120 17:58 19.12.2022
593 Clouds 28 1021 73 10000 1.79 117 16:20 19.12.2022
594 Clouds 24 1019 90 10000 1.34 329 13:20 19.12.2022
595 Clear 23 1019 96 10000 2.92 338 11:37 19.12.2022
596 Clear 23 1019 96 10000 2.92 338 11:37 19.12.2022
597 Clear 23 1017 89 10000 2.36 342 08:23 19.12.2022
598 Clear 23 1017 91 10000 2.13 352 06:58 19.12.2022
599 Clouds 27 1015 78 10000 0 0 00:50 19.12.2022
600 Clouds 28 1015 78 10000 5.14 180 21:49 18.12.2022
601 Clouds 28 1015 78 10000 5.14 180 21:27 18.12.2022
602 Clouds 29 1015 75 10000 5.14 150 20:54 18.12.2022
603 Clouds 29 1015 72 10000 2.57 360 19:44 18.12.2022
604 Clouds 29 1016 72 10000 1.34 164 18:59 18.12.2022
605 Clouds 30 1016 72 10000 1.34 140 17:52 18.12.2022
606 Clouds 27 1019 80 10000 2.57 30 15:43 18.12.2022
607 Clouds 27 1018 81 10000 2.57 30 15:24 18.12.2022
608 Clouds 26 1019 86 10000 1.34 354 14:58 18.12.2022
609 Clouds 22 1017 87 10000 1.34 3 13:29 18.12.2022
610 Clouds 22 1017 92 10000 1.34 347 12:50 18.12.2022
611 Clouds 23 1018 96 10000 1.91 348 11:49 18.12.2022
612 Clouds 23 1017 95 10000 1.99 341 09:34 18.12.2022
613 Clouds 24 1017 95 10000 2.22 346 08:46 18.12.2022
614 Clear 24 1018 100 10000 2.46 336 06:36 18.12.2022
615 Clear 24 1018 100 10000 2.27 333 06:18 18.12.2022
616 Clear 24 1017 84 10000 2.03 2 01:53 18.12.2022
617 Clouds 27 1014 80 10000 1.34 119 22:57 17.12.2022
618 Clouds 28 1014 77 10000 1.34 120 20:46 17.12.2022
619 Clouds 28 1016 74 10000 2.68 75 17:21 17.12.2022
620 Clouds 28 1016 74 10000 2.68 75 17:21 17.12.2022
621 Clouds 27 1018 81 10000 1.79 53 15:32 17.12.2022
622 Clouds 21 1016 92 10000 1.34 338 13:18 17.12.2022
623 Clear 22 1015 92 10000 0.89 355 11:19 17.12.2022
624 Clear 22 1016 96 10000 2.51 332 10:40 17.12.2022
625 Clear 23 1016 100 10000 2.38 343 08:37 17.12.2022
626 Clouds 24 1017 100 10000 2.01 353 06:47 17.12.2022
627 Clouds 24 1015 94 10000 0 0 02:19 17.12.2022
628 Clouds 28 1014 80 10000 5.14 180 22:34 16.12.2022
629 Clouds 29 1014 74 10000 2.57 180 20:27 16.12.2022
630 Clouds 29 1015 65 10000 2.57 180 18:22 16.12.2022
631 Clouds 26 1017 74 10000 0.89 36 15:28 16.12.2022
632 Clouds 24 1017 76 10000 1.34 16 14:36 16.12.2022
633 Clouds 21 1016 87 10000 1.34 338 12:38 16.12.2022
634 Clear 22 1016 83 10000 0.89 324 11:55 16.12.2022
635 Clear 22 1015 86 10000 2.49 347 09:40 16.12.2022
636 Clear 22 1015 85 10000 2.42 348 08:39 16.12.2022
637 Clear 20 1016 89 10000 2.3 346 07:54 16.12.2022
638 Clouds 25 1017 88 10000 0 0 02:43 16.12.2022
639 Clouds 28 1016 74 10000 0.89 135 22:33 15.12.2022
640 Clouds 29 1016 70 10000 2.57 120 21:30 15.12.2022
641 Clouds 29 1016 65 10000 4.12 20 19:46 15.12.2022
642 Clouds 29 1017 65 10000 2.57 90 18:53 15.12.2022
643 Clouds 28 1018 69 10000 5.14 30 17:27 15.12.2022
644 Clouds 26 1020 77 10000 2.68 63 15:46 15.12.2022
645 Clouds 26 1020 80 10000 1.79 5 14:57 15.12.2022
646 Clouds 21 1018 91 10000 0.89 321 12:54 15.12.2022
647 Clouds 21 1018 91 10000 0.89 338 12:22 15.12.2022
648 Clear 22 1018 95 10000 2.79 347 08:55 15.12.2022
649 Clear 22 1018 95 10000 2.76 346 08:18 15.12.2022
650 Clear 23 1020 100 10000 2.6 345 05:43 15.12.2022
651 Clouds 27 1015 67 10000 0.89 128 22:59 14.12.2022
652 Clouds 28 1015 72 10000 2.57 30 21:24 14.12.2022
653 Clouds 29 1015 70 10000 3.6 30 20:44 14.12.2022
654 Clouds 29 1015 71 10000 2.06 90 19:51 14.12.2022
655 Clouds 28 1017 71 10000 3.09 60 17:19 14.12.2022
656 Clouds 27 1018 72 10000 3.09 60 16:53 14.12.2022
657 Clouds 24 1019 82 10000 1.79 6 14:55 14.12.2022
658 Clouds 20 1018 94 10000 0 0 13:19 14.12.2022
659 Clear 20 1018 95 10000 2.81 350 10:46 14.12.2022
660 Clear 20 1018 95 10000 2.71 349 10:22 14.12.2022
661 Clear 22 1018 100 10000 2.39 352 06:37 14.12.2022
662 Clouds 28 1014 66 10000 2.06 360 21:57 13.12.2022
663 Clouds 28 1014 67 10000 2.06 360 21:37 13.12.2022
664 Clouds 28 1014 66 10000 3.09 60 20:47 13.12.2022
665 Clouds 28 1015 66 10000 3.09 90 19:21 13.12.2022
666 Clouds 27 1017 69 10000 2.06 90 16:36 13.12.2022
667 Clouds 24 1017 83 10000 1.34 54 14:57 13.12.2022
668 Clear 22 1016 88 10000 1.34 1 13:33 13.12.2022
669 Clear 21 1016 100 10000 1.55 353 10:42 13.12.2022
670 Clear 21 1015 100 10000 1.75 354 09:48 13.12.2022
671 Clear 21 1015 95 10000 1.92 357 07:53 13.12.2022
672 Clouds 28 1013 74 10000 2.57 60 22:36 12.12.2022
673 Clouds 28 1013 71 10000 3.6 60 21:58 12.12.2022
674 Clouds 29 1014 65 10000 2.06 60 19:34 12.12.2022
675 Clouds 28 1016 68 10000 1.79 52 17:52 12.12.2022
676 Clouds 26 1017 78 10000 4.12 20 15:29 12.12.2022
677 Clouds 21 1016 85 10000 1.34 1 13:37 12.12.2022
678 Clear 21 1016 90 10000 1.34 343 09:20 12.12.2022
679 Clear 21 1015 90 10000 1.34 334 08:56 12.12.2022
680 Clouds 22 1017 94 10000 0 0 04:34 12.12.2022
681 Clear 23 1017 100 10000 2.9 354 01:50 12.12.2022
682 Clouds 27 1014 77 10000 3.58 34 22:18 11.12.2022
683 Clouds 28 1015 72 10000 5.14 360 20:34 11.12.2022
684 Clouds 28 1015 71 10000 6.69 360 19:38 11.12.2022
685 Clouds 29 1015 70 10000 5.14 180 18:31 11.12.2022
686 Clouds 29 1016 70 10000 5.14 360 17:33 11.12.2022
687 Clouds 28 1016 71 10000 5.14 360 16:53 11.12.2022
688 Clouds 28 1017 73 10000 5.14 360 16:20 11.12.2022
689 Clouds 27 1017 77 10000 4.12 360 15:43 11.12.2022
690 Clouds 22 1016 85 10000 1.34 359 13:35 11.12.2022
691 Clouds 22 1016 88 10000 2.24 4 12:41 11.12.2022
692 Clear 22 1017 95 10000 2.94 345 10:19 11.12.2022
693 Clouds 26 1014 78 10000 3.6 360 00:49 11.12.2022
694 Clouds 26 1014 78 10000 3.6 360 00:21 11.12.2022
695 Clouds 29 1014 73 10000 5.14 60 22:34 10.12.2022
696 Clouds 29 1014 65 10000 5.14 30 21:29 10.12.2022
697 Clouds 29 1014 63 10000 5.14 360 20:41 10.12.2022
698 Clouds 29 1014 63 10000 6.17 360 19:55 10.12.2022
699 Clouds 28 1016 70 10000 5.14 360 17:33 10.12.2022
700 Clouds 27 1017 74 10000 3.13 357 16:37 10.12.2022
701 Clouds 26 1017 79 10000 3.13 24 15:40 10.12.2022
702 Clouds 26 1017 79 10000 3.13 24 15:40 10.12.2022
703 Clouds 26 1017 79 10000 3.13 24 15:40 10.12.2022
704 Clouds 26 1017 79 10000 2.57 360 15:20 10.12.2022
705 Clouds 23 1014 90 10000 0 0 13:33 10.12.2022
706 Clear 21 1016 96 10000 2.69 345 11:55 10.12.2022
707 Clear 21 1015 96 10000 2.5 347 10:46 10.12.2022
708 Clear 22 1015 96 10000 2.53 341 09:41 10.12.2022
709 Clouds 22 1015 89 10000 0.89 326 07:22 10.12.2022
710 Clouds 23 1016 93 10000 0 0 04:56 10.12.2022
711 Clouds 27 1014 75 10000 2.57 360 23:34 09.12.2022
712 Clouds 28 1013 74 10000 3.6 360 22:41 09.12.2022
713 Clouds 28 1013 70 10000 5.14 360 21:27 09.12.2022
714 Clouds 29 1013 71 10000 2.57 360 20:57 09.12.2022
715 Clouds 28 1013 71 10000 2.57 360 19:41 09.12.2022
716 Clouds 28 1015 72 10000 5.14 360 17:56 09.12.2022
717 Clouds 27 1015 69 10000 3.6 360 16:37 09.12.2022
718 Clouds 27 1015 70 10000 3.6 360 16:18 09.12.2022
719 Clouds 25 1016 82 10000 3.6 60 15:19 09.12.2022
720 Clear 21 1015 90 10000 1.34 348 11:36 09.12.2022
721 Clear 21 1015 90 10000 1.34 349 10:45 09.12.2022
722 Clear 21 1015 90 10000 0.89 328 09:25 09.12.2022
723 Clouds 23 1016 89 10000 3.09 360 03:33 09.12.2022
724 Clouds 24 1015 83 10000 5.14 360 00:56 09.12.2022
725 Clouds 26 1014 75 10000 5.14 360 22:20 08.12.2022
726 Clouds 26 1014 75 10000 5.14 360 20:51 08.12.2022
727 Clear 27 1016 71 10000 3.13 7 17:51 08.12.2022
728 Clouds 25 1016 72 10000 5.14 360 15:39 08.12.2022
729 Clouds 24 1016 77 10000 2.24 9 14:25 08.12.2022
730 Clouds 21 1016 90 10000 0.89 331 11:32 08.12.2022
731 Clouds 22 1016 89 10000 1.34 352 09:51 08.12.2022
732 Clouds 22 1016 88 10000 1.79 351 09:23 08.12.2022
733 Clouds 23 1017 90 10000 2.24 356 02:26 08.12.2022
734 Clouds 25 1016 81 10000 2.68 6 22:19 07.12.2022
735 Clouds 25 1016 79 10000 2.57 350 21:49 07.12.2022
736 Clouds 25 1016 79 10000 2.57 350 21:29 07.12.2022
737 Clouds 28 1016 68 10000 3.13 357 19:35 07.12.2022
738 Clouds 26 1018 76 10000 3.6 360 17:22 07.12.2022
739 Clouds 23 1018 83 10000 2.24 352 14:41 07.12.2022
740 Clear 21 1016 88 10000 1.34 5 11:41 07.12.2022
741 Clear 21 1016 88 10000 0.89 348 10:39 07.12.2022
742 Clear 21 1016 89 10000 1.34 341 09:41 07.12.2022
743 Clear 21 1016 89 10000 1.34 349 08:46 07.12.2022
744 Clear 22 1017 88 10000 2.24 350 06:46 07.12.2022
745 Clouds 22 1017 89 10000 1.34 340 04:44 07.12.2022
746 Clouds 25 1015 82 10000 3.09 30 22:39 06.12.2022
747 Clouds 27 1014 76 10000 5.14 360 20:24 06.12.2022
748 Clouds 27 1016 75 10000 5.14 20 17:52 06.12.2022
749 Clouds 26 1016 69 10000 5.14 360 16:41 06.12.2022
750 Clouds 26 1016 71 10000 3.6 360 15:49 06.12.2022
751 Clouds 26 1016 72 10000 3.6 360 15:20 06.12.2022
752 Clouds 25 1016 76 10000 2.57 360 14:25 06.12.2022
753 Clouds 22 1015 87 10000 0.89 343 12:54 06.12.2022
754 Clouds 22 1014 87 10000 0.89 337 12:36 06.12.2022
755 Clouds 22 1013 84 10000 2.24 34 07:59 06.12.2022
756 Clear 22 1014 84 10000 1.79 331 05:55 06.12.2022
757 Clear 24 1013 74 10000 2.24 1 01:25 06.12.2022
758 Clear 27 1011 64 10000 4.47 39 22:26 05.12.2022
759 Clouds 29 1010 62 10000 4.12 30 20:55 05.12.2022
760 Clouds 29 1010 61 10000 4.12 30 20:25 05.12.2022
761 Clouds 29 1010 63 10000 5.14 360 19:43 05.12.2022
762 Clouds 28 1012 66 10000 6.17 360 17:44 05.12.2022
763 Clouds 27 1012 68 10000 6.17 360 16:26 05.12.2022
764 Clouds 26 1013 74 10000 5.14 360 15:22 05.12.2022
765 Clouds 22 1012 84 10000 1.79 346 12:59 05.12.2022
766 Clouds 22 1012 84 10000 2.24 357 12:40 05.12.2022
767 Clear 21 1012 84 10000 3.54 338 11:46 05.12.2022
768 Clear 21 1011 83 10000 3.42 344 10:53 05.12.2022
769 Clouds 25 1011 79 10000 3.09 30 00:19 05.12.2022
770 Clouds 27 1010 71 10000 6.17 360 22:44 04.12.2022
771 Clouds 27 1010 68 10000 6.17 360 22:20 04.12.2022
772 Clouds 28 1010 65 10000 6.17 360 21:41 04.12.2022
773 Clear 28 1010 60 10000 4.02 23 20:27 04.12.2022
774 Clouds 29 1010 63 10000 7.72 30 19:26 04.12.2022
775 Clouds 29 1010 62 10000 7.72 20 18:40 04.12.2022
776 Clouds 28 1012 67 10000 5.14 360 17:23 04.12.2022
777 Clouds 28 1013 71 10000 5.14 360 16:37 04.12.2022
778 Clouds 28 1013 73 10000 5.14 360 16:19 04.12.2022
779 Clouds 26 1013 75 10000 5.14 360 15:57 04.12.2022
780 Clouds 25 1014 80 10000 5.14 360 14:43 04.12.2022
781 Clouds 23 1014 88 10000 1.34 337 13:26 04.12.2022
782 Clouds 22 1013 89 10000 2.06 360 12:42 04.12.2022
783 Clear 22 1013 87 10000 1.34 10 11:46 04.12.2022
784 Clear 22 1013 91 10000 3.6 351 09:20 04.12.2022
785 Clear 23 1013 86 10000 1.34 342 07:21 04.12.2022
786 Clouds 24 1014 84 10000 2.57 30 00:44 04.12.2022
787 Clouds 24 1013 84 10000 2.68 5 23:30 03.12.2022
788 Clouds 27 1013 74 10000 4.12 360 21:55 03.12.2022
789 Clouds 27 1013 72 10000 4.12 360 21:21 03.12.2022
790 Clouds 27 1014 75 10000 7.72 60 19:34 03.12.2022
791 Clouds 28 1015 70 10000 4.12 360 18:39 03.12.2022
792 Clouds 26 1017 76 10000 5.14 10 15:53 03.12.2022
793 Clouds 25 1017 81 10000 1.79 11 14:23 03.12.2022
794 Clouds 22 1016 88 10000 0.89 353 12:54 03.12.2022
795 Clouds 22 1016 88 10000 1.79 9 12:22 03.12.2022
796 Clear 23 1015 86 10000 1.79 345 10:20 03.12.2022
797 Clear 23 1016 88 10000 3.22 351 06:53 03.12.2022
798 Clouds 25 1015 78 10000 3.09 360 00:31 03.12.2022
799 Clouds 28 1014 75 10000 7.2 360 22:22 02.12.2022
800 Clouds 29 1014 72 10000 7.2 360 20:53 02.12.2022
801 Clouds 29 1015 71 10000 5.14 360 18:21 02.12.2022
802 Clouds 28 1017 76 10000 5.14 360 15:58 02.12.2022
803 Clouds 26 1016 76 10000 4.12 360 14:40 02.12.2022
804 Clouds 25 1016 77 10000 4.12 360 14:22 02.12.2022
805 Clouds 23 1015 83 10000 3.6 360 12:55 02.12.2022
806 Clear 23 1016 90 10000 1.79 355 11:31 02.12.2022
807 Clear 23 1015 92 10000 1.79 344 08:35 02.12.2022
808 Clear 23 1015 92 10000 1.34 343 07:23 02.12.2022
809 Clouds 27 1014 82 10000 4.12 360 22:54 01.12.2022
810 Clouds 28 1014 75 10000 4.12 350 21:45 01.12.2022
811 Clouds 29 1014 75 10000 4.12 350 21:26 01.12.2022
812 Clouds 26 1014 81 8000 3.58 8 19:22 01.12.2022
813 Clouds 29 1015 75 10000 5.14 360 17:46 01.12.2022
814 Clouds 27 1017 80 10000 5.14 60 15:38 01.12.2022
815 Clouds 23 1015 94 10000 1.79 4 11:23 01.12.2022
816 Clouds 23 1015 95 10000 1.79 11 09:55 01.12.2022
817 Clouds 23 1015 95 10000 1.34 2 09:37 01.12.2022
818 Clouds 23 1015 95 10000 0.89 353 08:18 01.12.2022
819 Clouds 25 1014 91 10000 1.34 331 23:59 30.11.2022
820 Rain 25 1014 91 7000 5.14 60 22:28 30.11.2022
821 Rain 25 1013 87 10000 1.79 97 21:19 30.11.2022
822 Rain 27 1013 83 7000 1.34 12 20:25 30.11.2022
823 Clouds 28 1013 78 10000 5.14 360 19:35 30.11.2022
824 Clouds 29 1013 77 10000 5.14 360 18:33 30.11.2022
825 Clouds 29 1015 75 10000 5.14 10 17:33 30.11.2022
826 Clouds 26 1016 84 10000 2.57 360 14:47 30.11.2022
827 Clouds 26 1016 84 10000 2.57 360 14:27 30.11.2022
828 Clouds 23 1015 93 10000 1.79 359 12:32 30.11.2022
829 Clear 24 1014 90 10000 1.34 351 10:24 30.11.2022
830 Clear 24 1014 90 10000 2.68 5 08:38 30.11.2022
831 Clear 24 1015 92 10000 2.24 4 07:25 30.11.2022
832 Clouds 28 1013 75 10000 4.12 30 23:33 29.11.2022
833 Clouds 30 1013 69 10000 3.6 360 22:25 29.11.2022
834 Clouds 31 1013 66 10000 3.09 330 20:53 29.11.2022
835 Clouds 31 1013 66 10000 3.09 330 20:33 29.11.2022
836 Clouds 30 1014 69 10000 5.14 360 18:57 29.11.2022
837 Clouds 29 1016 74 10000 5.14 30 16:58 29.11.2022
838 Clouds 28 1017 76 10000 5.14 30 16:22 29.11.2022
839 Clouds 26 1016 80 10000 2.57 360 14:49 29.11.2022
840 Clouds 23 1015 93 10000 1.34 355 12:45 29.11.2022
841 Clear 23 1015 93 10000 1.34 4 11:32 29.11.2022
842 Clear 23 1015 93 10000 1.34 353 10:52 29.11.2022
843 Clear 24 1015 92 10000 1.34 4 09:37 29.11.2022
844 Clear 24 1016 92 10000 1.34 10 07:48 29.11.2022
845 Clouds 25 1015 90 10000 0.45 111 00:35 29.11.2022
846 Clouds 25 1015 90 10000 0.45 111 00:35 29.11.2022
847 Clouds 26 1014 87 10000 2.68 72 23:29 28.11.2022
848 Clouds 29 1013 79 10000 0.89 120 22:28 28.11.2022
849 Clouds 30 1014 75 10000 0.89 153 21:43 28.11.2022
850 Clouds 30 1013 73 10000 2.57 30 20:33 28.11.2022
851 Clouds 31 1014 70 10000 2.57 90 19:37 28.11.2022
852 Clouds 30 1014 71 10000 2.57 30 18:29 28.11.2022
853 Clouds 30 1015 73 10000 2.57 90 17:44 28.11.2022
854 Clouds 27 1017 83 10000 5.14 360 15:22 28.11.2022
855 Clouds 25 1017 89 10000 1.79 331 13:59 28.11.2022
856 Clouds 24 1016 86 10000 1.79 331 13:37 28.11.2022
857 Clouds 23 1016 92 10000 0.89 347 11:49 28.11.2022
858 Clear 24 1016 92 10000 1.34 3 09:27 28.11.2022
859 Clouds 24 1018 95 10000 2.23 341 04:58 28.11.2022
860 Clear 24 1018 95 10000 2.34 343 04:40 28.11.2022
861 Clouds 24 1017 92 10000 0 0 03:23 28.11.2022
862 Clouds 27 1015 78 10000 2.57 20 00:42 28.11.2022
863 Clouds 29 1015 78 10000 3.6 60 22:24 27.11.2022
864 Clouds 31 1014 69 10000 2.57 360 20:49 27.11.2022
865 Clouds 30 1016 67 10000 4.12 40 18:52 27.11.2022
866 Clouds 29 1018 73 10000 3.6 50 16:39 27.11.2022
867 Clouds 26 1017 82 10000 2.57 360 14:22 27.11.2022
868 Clouds 24 1017 94 10000 1.79 351 12:27 27.11.2022
869 Clouds 24 1016 94 10000 0.89 334 10:36 27.11.2022
870 Clouds 24 1017 97 10000 2.63 344 07:55 27.11.2022
871 Clouds 28 1015 90 10000 0 0 23:39 26.11.2022
872 Clouds 29 1014 78 10000 0.89 129 21:44 26.11.2022
873 Clouds 30 1015 76 10000 3.09 180 20:20 26.11.2022
874 Clouds 30 1016 75 10000 2.57 90 18:57 26.11.2022
875 Clouds 30 1017 77 10000 4.12 60 16:47 26.11.2022
876 Clouds 28 1017 84 10000 2.57 360 15:37 26.11.2022
877 Clouds 24 1017 94 10000 0.45 335 12:54 26.11.2022
878 Clear 24 1017 93 10000 1.34 349 11:23 26.11.2022
879 Clear 24 1016 93 10000 0.89 338 09:43 26.11.2022
880 Clear 25 1016 93 10000 0.89 347 08:39 26.11.2022
881 Clouds 27 1014 90 10000 2.57 360 22:59 25.11.2022
882 Clouds 29 1013 82 10000 2.57 20 21:38 25.11.2022
883 Clouds 29 1014 82 6000 3.6 60 20:33 25.11.2022
884 Clouds 29 1016 82 10000 4.12 360 16:59 25.11.2022
885 Clouds 28 1017 83 10000 2.57 360 15:40 25.11.2022
886 Clouds 23 1015 93 10000 0.89 350 10:29 25.11.2022
887 Clouds 23 1015 94 10000 0.89 334 08:53 25.11.2022
888 Clouds 24 1015 93 10000 1.34 333 08:33 25.11.2022
889 Clear 24 1016 93 10000 1.34 352 06:42 25.11.2022
890 Clouds 25 1015 94 10000 2.57 20 01:25 25.11.2022
891 Clouds 25 1014 91 7000 0.45 30 23:22 24.11.2022
892 Clouds 26 1014 91 7000 0.45 4 22:29 24.11.2022
893 Clouds 26 1013 85 10000 4.12 30 21:35 24.11.2022
894 Clouds 29 1013 75 10000 3.09 360 19:48 24.11.2022
895 Clouds 29 1015 79 10000 4.12 60 17:47 24.11.2022
896 Clouds 30 1016 78 10000 4.12 60 17:23 24.11.2022
897 Clouds 29 1016 80 10000 2.57 60 16:39 24.11.2022
898 Clouds 27 1015 82 10000 2.57 360 14:23 24.11.2022
899 Clouds 23 1014 97 10000 2.57 360 12:40 24.11.2022
900 Clouds 24 1016 97 10000 2.58 352 10:52 24.11.2022
901 Clouds 24 1013 90 10000 2.58 354 08:45 24.11.2022
902 Clouds 24 1018 95 10000 0 0 04:42 24.11.2022
903 Clouds 26 1013 83 10000 0 0 23:49 23.11.2022
904 Clouds 26 1013 83 10000 0 0 23:31 23.11.2022
905 Clouds 30 1013 78 10000 3.09 90 21:44 23.11.2022
906 Clouds 30 1012 67 10000 2.06 70 20:49 23.11.2022
907 Clouds 31 1013 66 10000 1.34 138 19:34 23.11.2022
908 Clouds 31 1015 72 10000 2.06 360 18:48 23.11.2022
909 Clouds 30 1016 73 10000 3.09 60 17:29 23.11.2022
910 Clouds 30 1016 73 10000 3.09 60 17:29 23.11.2022
911 Clouds 25 1015 86 10000 1.79 1 13:42 23.11.2022
912 Clouds 25 1016 91 10000 1.79 350 13:21 23.11.2022
913 Clouds 23 1016 95 10000 0 0 12:22 23.11.2022
914 Clouds 24 1015 91 10000 1.34 333 11:44 23.11.2022
915 Clouds 24 1015 92 10000 1.79 358 10:45 23.11.2022
916 Clouds 24 1015 92 10000 1.34 352 09:45 23.11.2022
917 Clear 24 1015 92 10000 1.34 352 09:26 23.11.2022
918 Clear 24 1015 92 10000 1.34 351 08:37 23.11.2022
919 Clear 24 1016 91 10000 1.79 7 07:19 23.11.2022
920 Clear 24 1018 95 10000 2.95 338 05:19 23.11.2022
921 Clouds 27 1015 92 10000 2.57 360 23:47 22.11.2022
922 Clouds 29 1014 88 10000 2.06 360 22:36 22.11.2022
923 Clear 28 1014 85 10000 1.34 92 21:34 22.11.2022
924 Clear 29 1013 72 10000 2.68 114 20:50 22.11.2022
925 Clear 30 1015 82 10000 2.24 112 20:20 22.11.2022
926 Clouds 30 1013 68 10000 2.57 60 19:34 22.11.2022
927 Clouds 30 1015 69 10000 3.6 60 17:48 22.11.2022
928 Clouds 29 1018 79 10000 3.09 60 16:24 22.11.2022
929 Clouds 27 1017 83 10000 3.6 360 14:20 22.11.2022
930 Clouds 24 1015 94 10000 0 0 12:26 22.11.2022
931 Clear 25 1015 93 9233 1.79 5 09:26 22.11.2022
932 Clear 25 1015 92 10000 1.34 358 07:58 22.11.2022
933 Clear 25 1016 92 10000 2.24 350 06:36 22.11.2022
934 Clouds 26 1015 93 10000 2.57 40 23:42 21.11.2022
935 Clouds 27 1014 93 8000 0.45 296 22:50 21.11.2022
936 Clouds 27 1014 89 10000 2.57 360 21:59 21.11.2022
937 Clouds 27 1014 86 10000 3.09 20 20:56 21.11.2022
938 Clouds 27 1014 85 10000 4.12 40 19:44 21.11.2022
939 Clouds 28 1015 82 10000 4.12 40 19:26 21.11.2022
940 Clouds 30 1015 78 10000 4.12 30 18:44 21.11.2022
941 Clouds 29 1017 81 10000 5.14 30 16:58 21.11.2022
942 Clouds 29 1017 80 10000 5.14 30 16:40 21.11.2022
943 Clouds 28 1017 82 10000 6.17 360 15:53 21.11.2022
944 Clouds 27 1018 86 10000 4.12 30 14:58 21.11.2022
945 Clouds 25 1017 91 10000 2.68 349 13:52 21.11.2022
946 Clear 24 1016 93 10000 2.24 354 11:39 21.11.2022
947 Clear 24 1015 93 10000 1.79 354 09:19 21.11.2022
948 Clear 24 1016 92 10000 1.34 336 07:42 21.11.2022
949 Clouds 27 1014 87 10000 2.57 360 22:43 20.11.2022
950 Clouds 28 1013 85 10000 5.14 360 21:36 20.11.2022
951 Clouds 28 1013 85 10000 2.06 360 20:33 20.11.2022
952 Clouds 29 1015 76 10000 2.24 47 18:46 20.11.2022
953 Clouds 30 1017 73 10000 4.12 60 16:46 20.11.2022
954 Clouds 28 1018 81 10000 3.6 30 15:30 20.11.2022
955 Clouds 27 1017 85 10000 3.6 350 14:54 20.11.2022
956 Clouds 24 1016 87 10000 2.24 358 13:34 20.11.2022
957 Clouds 23 1017 93 10000 1.34 356 12:42 20.11.2022
958 Clouds 23 1016 92 10000 1.34 348 11:31 20.11.2022
959 Clouds 24 1016 93 10000 0.89 347 10:49 20.11.2022
960 Clouds 24 1016 92 10000 1.34 13 09:29 20.11.2022
961 Clouds 24 1016 92 10000 1.34 358 08:41 20.11.2022
962 Clouds 24 1018 96 10000 2.95 343 07:30 20.11.2022
963 Clouds 25 1017 90 10000 2.24 356 04:26 20.11.2022
964 Clouds 25 1016 90 10000 3.6 360 01:22 20.11.2022
965 Clouds 25 1016 91 10000 1.79 353 00:42 20.11.2022
966 Clouds 25 1015 91 10000 2.24 2 00:23 20.11.2022
967 Clouds 26 1015 89 10000 2.24 2 23:51 19.11.2022
968 Clouds 26 1015 89 10000 1.34 355 23:25 19.11.2022
969 Clouds 27 1015 86 8000 5.14 20 22:40 19.11.2022
970 Clouds 29 1014 78 10000 2.57 150 21:32 19.11.2022
971 Clouds 30 1014 75 10000 2.57 60 20:57 19.11.2022
972 Clouds 30 1014 75 10000 2.57 60 20:33 19.11.2022
973 Clouds 31 1015 73 10000 2.57 30 19:22 19.11.2022
974 Clouds 30 1018 73 10000 2.57 60 17:41 19.11.2022
975 Clouds 30 1018 74 10000 2.57 60 17:20 19.11.2022
976 Clouds 28 1018 80 10000 3.09 360 15:59 19.11.2022
977 Clouds 27 1018 81 10000 2.57 300 14:38 19.11.2022
978 Clouds 23 1017 92 10000 0.89 331 12:18 19.11.2022
979 Clouds 24 1017 92 10000 1.79 351 10:56 19.11.2022
980 Clouds 24 1016 92 10000 1.34 337 08:43 19.11.2022
981 Clouds 24 1017 90 10000 0.89 340 04:55 19.11.2022
982 Clouds 24 1017 90 10000 0.89 337 02:56 19.11.2022
983 Clouds 25 1015 87 7000 3.09 120 23:46 18.11.2022
984 Clouds 28 1016 83 10000 2.57 330 22:38 18.11.2022
985 Clouds 29 1014 76 10000 1.34 119 21:37 18.11.2022
986 Clouds 29 1014 76 10000 5.14 180 20:59 18.11.2022
987 Clouds 29 1014 77 10000 5.14 180 20:30 18.11.2022
988 Clouds 28 1015 77 10000 2.57 120 19:46 18.11.2022
989 Clouds 29 1015 77 10000 4.12 60 18:36 18.11.2022
990 Clouds 29 1016 76 10000 3.6 100 17:42 18.11.2022
991 Clouds 26 1017 89 10000 1.34 5 13:57 18.11.2022
992 Clouds 24 1016 94 10000 1.79 21 11:31 18.11.2022
993 Clouds 25 1015 93 10000 1.34 350 08:46 18.11.2022
994 Clouds 25 1016 93 10000 1.34 2 07:51 18.11.2022
995 Clouds 25 1017 92 10000 1.34 352 05:18 18.11.2022
996 Clouds 25 1015 93 10000 1.34 340 00:47 18.11.2022
997 Clouds 26 1013 91 8000 0.89 10 21:52 17.11.2022
998 Clouds 26 1013 89 8000 4.12 60 20:46 17.11.2022
999 Clouds 28 1014 84 10000 4.12 60 19:51 17.11.2022
1000 Clouds 30 1014 79 10000 4.12 60 18:35 17.11.2022
1001 Clouds 29 1016 82 10000 3.6 360 17:32 17.11.2022
1002 Clouds 30 1016 77 10000 5.14 360 16:53 17.11.2022
1003 Clouds 26 1016 82 10000 2.68 23 14:40 17.11.2022
1004 Clouds 24 1016 92 10000 1.79 354 11:21 17.11.2022
1005 Clouds 24 1016 92 10000 1.79 4 08:23 17.11.2022
1006 Clouds 25 1018 93 10000 1.34 12 03:51 17.11.2022
1007 Clouds 26 1017 94 10000 0 0 00:21 17.11.2022
1008 Clear 27 1016 86 10000 3.13 72 22:30 16.11.2022
1009 Clouds 31 1015 72 10000 2.57 60 20:36 16.11.2022
1010 Clouds 31 1016 72 10000 3.09 60 19:49 16.11.2022
1011 Clouds 31 1016 69 10000 2.57 50 18:43 16.11.2022
1012 Clouds 30 1018 72 10000 3.6 60 17:20 16.11.2022
1013 Clouds 26 1019 93 10000 0 0 13:54 16.11.2022
1014 Clear 24 1016 94 10000 0.89 358 09:38 16.11.2022
1015 Clouds 25 1017 95 6000 1.34 326 02:32 16.11.2022
1016 Clouds 25 1016 93 8000 0.45 350 01:25 16.11.2022
1017 Clouds 27 1015 90 8000 1.34 350 22:22 15.11.2022
1018 Clouds 26 1015 91 6000 4.12 90 20:32 15.11.2022
1019 Clouds 28 1015 83 10000 3.09 360 19:34 15.11.2022
1020 Clouds 30 1016 77 10000 1.34 87 17:39 15.11.2022
1021 Clouds 30 1017 79 10000 5.14 30 16:53 15.11.2022
1022 Clouds 29 1017 81 10000 5.14 30 16:18 15.11.2022
1023 Clouds 27 1017 81 10000 5.14 360 14:42 15.11.2022
1024 Clouds 25 1017 96 10000 0 0 12:59 15.11.2022
1025 Clear 24 1017 98 10000 2.89 345 11:42 15.11.2022
1026 Clear 24 1016 97 10000 2.93 349 10:35 15.11.2022
1027 Clear 25 1016 93 10000 1.34 355 06:57 15.11.2022
1028 Clouds 26 1014 90 10000 3.09 30 00:34 15.11.2022
1029 Clouds 27 1014 87 10000 5.14 90 22:54 14.11.2022
1030 Clouds 31 1013 81 10000 1.79 118 21:18 14.11.2022
1031 Clouds 31 1013 73 10000 2.57 60 20:37 14.11.2022
1032 Clouds 31 1014 75 10000 1.79 124 18:29 14.11.2022
1033 Clouds 29 1016 80 10000 2.24 67 15:40 14.11.2022
1034 Clouds 24 1014 93 10000 1.34 335 11:50 14.11.2022
1035 Clouds 24 1015 97 10000 2.53 344 11:28 14.11.2022
1036 Clouds 24 1015 97 10000 2.53 344 11:28 14.11.2022
1037 Clouds 24 1015 97 10000 2.53 344 11:28 14.11.2022
1038 Clouds 24 1015 97 10000 2.53 344 11:28 14.11.2022
1039 Clouds 24 1015 97 10000 2.53 344 11:28 14.11.2022
1040 Clouds 25 1015 97 10000 2.24 350 08:48 14.11.2022
1041 Clouds 25 1015 97 10000 2.24 350 08:48 14.11.2022
1042 Clouds 25 1015 97 10000 2.24 350 08:48 14.11.2022
1043 Clear 25 1015 96 10000 2.34 348 07:53 14.11.2022
1044 Clouds 25 1015 92 10000 1.79 1 05:59 14.11.2022
1045 Clouds 27 1011 83 10000 0 0 23:51 13.11.2022
1046 Clouds 29 1012 82 10000 2.57 30 21:46 13.11.2022
1047 Clouds 30 1012 80 10000 2.57 30 20:55 13.11.2022
1048 Clouds 31 1012 75 10000 2.06 30 19:24 13.11.2022
1049 Clouds 30 1014 74 10000 2.57 30 17:51 13.11.2022
1050 Clouds 30 1015 78 10000 2.24 59 16:56 13.11.2022
1051 Clouds 28 1015 85 10000 2.24 35 14:54 13.11.2022
1052 Clouds 25 1014 86 10000 1.79 357 13:24 13.11.2022
1053 Clouds 24 1014 94 10000 0.89 347 12:34 13.11.2022
1054 Clouds 24 1014 94 10000 0.89 347 12:34 13.11.2022
1055 Clouds 24 1014 94 10000 0.89 347 12:34 13.11.2022
1056 Clouds 24 1014 94 10000 0.89 347 12:34 13.11.2022
1057 Clouds 24 1014 94 10000 0.89 347 12:34 13.11.2022
1058 Clouds 24 1014 93 10000 1.34 3 10:48 13.11.2022
1059 Clouds 24 1016 97 10000 2.64 349 06:31 13.11.2022
1060 Clouds 25 1015 93 10000 0.45 347 00:34 13.11.2022
1061 Clouds 26 1013 94 8000 2.57 90 21:59 12.11.2022
1062 Clouds 26 1012 94 8000 2.57 90 21:23 12.11.2022
1063 Clouds 31 1013 73 10000 0.89 140 19:53 12.11.2022
1064 Clouds 31 1014 74 10000 1.34 117 17:53 12.11.2022
1065 Clouds 30 1016 79 10000 1.34 58 16:21 12.11.2022
1066 Clouds 28 1016 84 10000 1.79 19 14:50 12.11.2022
1067 Clear 24 1016 96 10000 2.64 339 11:23 12.11.2022
1068 Clear 25 1014 91 10000 1.34 349 08:28 12.11.2022
1069 Clouds 27 1013 83 10000 0 0 00:41 12.11.2022
1070 Clouds 30 1013 74 10000 2.57 180 21:35 11.11.2022
1071 Clouds 30 1013 74 10000 4.12 180 20:45 11.11.2022
1072 Clouds 31 1014 75 10000 4.12 90 19:29 11.11.2022
1073 Clouds 30 1014 77 10000 1.79 122 18:41 11.11.2022
1074 Clouds 30 1016 79 10000 2.57 40 17:41 11.11.2022
1075 Clouds 29 1016 83 10000 3.6 60 15:36 11.11.2022
1076 Clouds 28 1016 86 10000 1.79 52 14:20 11.11.2022
1077 Clouds 24 1014 93 10000 1.34 350 12:46 11.11.2022
1078 Clear 25 1014 94 10000 0.89 326 09:36 11.11.2022
1079 Clear 25 1014 93 10000 0.89 344 08:27 11.11.2022
1080 Clouds 25 1016 97 10000 0 0 03:55 11.11.2022
1081 Clouds 29 1013 85 10000 4.12 190 22:55 10.11.2022
1082 Clouds 30 1013 81 10000 5.14 190 21:51 10.11.2022
1083 Clouds 30 1013 81 10000 5.14 190 21:30 10.11.2022
1084 Clouds 30 1013 78 10000 5.14 180 20:48 10.11.2022
1085 Clouds 31 1013 78 10000 5.14 180 20:20 10.11.2022
1086 Clouds 31 1014 79 10000 5.14 190 18:59 10.11.2022
1087 Clouds 30 1015 81 10000 3.09 180 17:59 10.11.2022
1088 Clouds 30 1016 82 10000 3.09 180 16:25 10.11.2022
1089 Mist 24 1015 94 2000 0.89 4 13:41 10.11.2022
1090 Clear 25 1013 94 10000 1.33 249 11:29 10.11.2022
1091 Clear 26 1013 100 10000 0.89 222 08:21 10.11.2022
1092 Clear 28 1012 85 10000 1.34 158 01:27 10.11.2022
1093 Clouds 28 1011 86 10000 2.57 160 23:21 09.11.2022
1094 Clouds 28 1011 84 10000 4.12 160 21:59 09.11.2022
1095 Clouds 30 1011 80 10000 5.14 180 20:47 09.11.2022
1096 Clouds 30 1011 80 10000 5.14 180 20:29 09.11.2022
1097 Clouds 30 1011 79 10000 5.14 180 19:30 09.11.2022
1098 Clouds 30 1012 80 10000 3.6 180 18:39 09.11.2022
1099 Clouds 30 1012 80 10000 3.6 180 18:39 09.11.2022
1100 Clouds 28 1013 87 10000 0.45 353 15:53 09.11.2022
1101 Clouds 26 1013 89 10000 1.34 323 14:42 09.11.2022
1102 Clouds 25 1013 90 10000 1.34 12 14:23 09.11.2022
1103 Clouds 23 1012 95 10000 1.34 342 12:58 09.11.2022
1104 Clear 26 1011 94 10000 0.89 262 09:52 09.11.2022
1105 Clear 26 1011 93 10000 1.34 253 07:47 09.11.2022
1106 Clear 27 1010 84 10000 0.89 194 06:55 09.11.2022
1107 Clouds 27 1011 87 10000 7.72 190 23:27 08.11.2022
1108 Clouds 29 1010 78 10000 6.17 180 21:44 08.11.2022
1109 Clouds 30 1010 77 10000 6.17 180 21:22 08.11.2022
1110 Clouds 30 1011 77 10000 7.2 180 20:39 08.11.2022
1111 Clouds 30 1011 75 10000 6.17 200 19:36 08.11.2022
1112 Clouds 30 1012 73 10000 3.09 180 18:20 08.11.2022
1113 Clouds 30 1013 75 10000 4.12 180 16:19 08.11.2022
1114 Clouds 28 1013 82 10000 1.34 183 14:55 08.11.2022
1115 Clouds 23 1012 93 10000 0.89 6 13:36 08.11.2022
1116 Clouds 22 1012 95 10000 1.34 332 12:38 08.11.2022
1117 Clear 25 1011 92 10000 0.45 326 08:32 08.11.2022
1118 Clear 25 1012 91 10000 1.34 295 06:53 08.11.2022
1119 Clouds 28 1010 85 10000 4.12 180 23:52 07.11.2022
1120 Clouds 29 1008 72 10000 6.17 210 22:23 07.11.2022
1121 Clouds 29 1008 72 10000 5.14 210 21:21 07.11.2022
1122 Clouds 30 1008 69 10000 6.17 180 20:18 07.11.2022
1123 Clouds 29 1010 73 10000 6.17 180 17:51 07.11.2022
1124 Clouds 29 1011 75 10000 4.12 210 16:27 07.11.2022
1125 Clouds 27 1011 79 10000 2.24 218 15:34 07.11.2022
1126 Clouds 26 1011 78 10000 1.79 221 14:18 07.11.2022
1127 Clouds 22 1009 94 10000 0.45 317 12:33 07.11.2022
1128 Clouds 23 1008 88 10000 0.45 312 10:48 07.11.2022
1129 Clouds 24 1008 86 10000 0.89 227 09:25 07.11.2022
1130 Clouds 24 1009 84 10000 2.96 228 07:29 07.11.2022
1131 Clouds 25 1010 84 10000 1.79 4 03:27 07.11.2022
1132 Clear 27 1008 80 10000 1.79 239 01:18 07.11.2022
1133 Clouds 29 1007 76 10000 4.12 170 21:53 06.11.2022
1134 Clouds 29 1006 76 10000 4.12 170 21:19 06.11.2022
1135 Clouds 30 1007 73 10000 5.14 150 19:59 06.11.2022
1136 Clouds 29 1007 73 10000 5.14 150 19:32 06.11.2022
1137 Clouds 29 1008 70 10000 2.57 120 18:21 06.11.2022
1138 Clouds 29 1009 71 10000 1.79 167 17:46 06.11.2022
1139 Clouds 29 1009 70 10000 0.89 160 17:19 06.11.2022
1140 Clouds 29 1009 71 10000 2.57 240 16:30 06.11.2022
1141 Clouds 27 1010 77 10000 0.89 153 15:39 06.11.2022
1142 Clouds 22 1009 92 10000 1.34 336 12:48 06.11.2022
1143 Clear 23 1009 87 10000 0.89 333 11:56 06.11.2022
1144 Clear 22 1008 95 10000 1.49 334 10:35 06.11.2022
1145 Clear 24 1008 86 10000 1.34 13 07:44 06.11.2022
1146 Clouds 26 1009 85 10000 2.57 90 00:46 06.11.2022
1147 Clouds 29 1007 61 10000 3.09 90 22:49 05.11.2022
1148 Clouds 28 1009 75 10000 3.6 90 19:20 05.11.2022
1149 Clouds 27 1011 78 10000 2.24 124 16:57 05.11.2022
1150 Clouds 25 1011 82 10000 2.06 60 15:28 05.11.2022
1151 Clouds 23 1012 87 10000 1.79 48 14:33 05.11.2022
1152 Clouds 22 1012 92 10000 1.79 63 12:30 05.11.2022
1153 Clouds 23 1010 90 5204 1.79 3 09:33 05.11.2022
1154 Clouds 22 1010 90 2726 1.79 337 07:23 05.11.2022
1155 Clouds 22 1011 91 10000 1.79 307 06:56 05.11.2022
1156 Clouds 23 1012 94 7000 2.57 60 00:46 05.11.2022
1157 Clouds 23 1011 93 7000 6.17 50 23:32 04.11.2022
1158 Clouds 28 1010 85 10000 6.17 90 21:40 04.11.2022
1159 Clouds 30 1010 77 10000 5.14 150 19:39 04.11.2022
1160 Clouds 30 1013 74 10000 3.6 170 17:44 04.11.2022
1161 Clouds 26 1014 81 10000 2.57 30 14:38 04.11.2022
1162 Clear 26 1013 84 10000 0.89 331 13:19 04.11.2022
1163 Clouds 24 1013 94 10000 0.89 12 12:19 04.11.2022
1164 Clouds 24 1013 100 10000 2.45 346 09:31 04.11.2022
1165 Clouds 24 1013 100 10000 0.45 346 08:20 04.11.2022
1166 Clouds 25 1015 100 10000 2.14 347 06:40 04.11.2022
1167 Clouds 25 1014 93 6000 1.34 116 00:56 04.11.2022
1168 Clouds 30 1012 81 10000 5.14 150 21:48 03.11.2022
1169 Clouds 31 1012 79 10000 3.09 30 20:46 03.11.2022
1170 Clouds 31 1013 77 10000 5.14 360 19:41 03.11.2022
1171 Clouds 32 1014 72 10000 3.09 30 18:27 03.11.2022
1172 Clouds 31 1015 74 10000 5.14 360 17:37 03.11.2022
1173 Clouds 30 1018 93 10000 2.24 43 15:20 03.11.2022
1174 Clouds 26 1015 85 10000 1.79 350 13:33 03.11.2022
1175 Clouds 24 1016 93 10000 1.34 357 12:34 03.11.2022
1176 Clouds 24 1016 93 10000 0.89 344 11:36 03.11.2022
1177 Clouds 25 1016 93 10000 1.34 342 07:48 03.11.2022
1178 Clouds 28 1014 87 10000 2.57 60 22:20 02.11.2022
1179 Clouds 29 1016 99 10000 2.8 52 20:55 02.11.2022
1180 Clouds 31 1014 81 10000 0.45 132 20:24 02.11.2022
1181 Clouds 31 1016 72 10000 3.6 320 18:28 02.11.2022
1182 Clouds 30 1018 76 10000 2.57 60 16:28 02.11.2022
1183 Clouds 29 1019 81 10000 2.57 40 15:30 02.11.2022
1184 Clouds 25 1017 90 10000 0.89 348 12:52 02.11.2022
1185 Clouds 25 1018 96 10000 0 0 12:22 02.11.2022
1186 Clouds 25 1018 97 10000 2.85 348 09:50 02.11.2022
1187 Clouds 25 1016 93 10000 1.34 356 08:18 02.11.2022
1188 Clouds 26 1017 93 10000 1.79 7 01:46 02.11.2022
1189 Clouds 27 1015 92 8000 1.34 353 22:21 01.11.2022
1190 Clouds 28 1015 89 8000 3.09 90 21:42 01.11.2022
1191 Clouds 28 1015 91 10000 1.34 16 20:28 01.11.2022
1192 Clouds 28 1015 84 10000 5.14 70 19:59 01.11.2022
1193 Clouds 29 1015 84 10000 5.14 70 19:40 01.11.2022
1194 Clouds 31 1016 81 10000 1.34 159 18:21 01.11.2022
1195 Clouds 30 1018 77 10000 2.57 40 16:23 01.11.2022
1196 Clouds 30 1018 77 10000 2.57 40 16:23 01.11.2022
1197 Clouds 27 1017 83 10000 2.24 30 14:34 01.11.2022
1198 Clouds 24 1017 95 10000 1.34 340 12:33 01.11.2022
1199 Clouds 24 1016 94 10000 1.34 349 11:40 01.11.2022
1200 Clouds 24 1016 94 10000 0.89 358 11:20 01.11.2022
1201 Clouds 24 1016 94 10000 0.89 358 11:20 01.11.2022
1202 Clouds 25 1015 94 10000 0.89 354 08:51 01.11.2022
1203 Clouds 25 1016 93 10000 0.89 339 07:48 01.11.2022
1204 Clouds 25 1016 93 10000 1.66 336 07:27 01.11.2022
1205 Clouds 25 1017 93 10000 1.66 336 06:45 01.11.2022
1206 Clouds 24 1016 95 10000 0.89 334 04:18 01.11.2022
1207 Clouds 26 1013 93 10000 5.14 30 22:24 31.10.2022
1208 Thunderstorm 28 1013 89 10000 2.68 104 21:26 31.10.2022
1209 Clouds 29 1013 83 10000 1.79 115 19:56 31.10.2022
1210 Clouds 30 1012 73 10000 3.09 60 18:35 31.10.2022
1211 Clouds 30 1015 79 10000 2.24 81 16:44 31.10.2022
1212 Clouds 26 1014 92 10000 2.57 30 14:20 31.10.2022
1213 Clouds 24 1013 96 10000 1.34 355 11:57 31.10.2022
1214 Clouds 24 1013 95 10000 1.34 65 09:28 31.10.2022
1215 Clouds 24 1014 93 10000 0.89 344 05:40 31.10.2022
1216 Clouds 25 1014 95 10000 1.34 358 02:34 31.10.2022
1217 Clouds 25 1013 92 10000 3.09 360 00:34 31.10.2022
1218 Clouds 28 1011 88 10000 3.09 360 21:45 30.10.2022
1219 Clouds 30 1011 82 10000 2.57 90 20:37 30.10.2022
1220 Clouds 29 1011 65 10000 2.57 90 18:56 30.10.2022
1221 Clouds 29 1014 83 10000 2.57 90 16:19 30.10.2022
1222 Clouds 26 1013 83 10000 0 0 14:23 30.10.2022
1223 Clouds 24 1013 96 10000 0 0 13:23 30.10.2022
1224 Clouds 24 1013 98 10000 2.45 3 11:48 30.10.2022
1225 Clouds 23 1013 97 10000 2.48 357 09:51 30.10.2022
1226 Clouds 24 1013 97 10000 2.53 351 08:40 30.10.2022
1227 Clouds 24 1014 97 10000 2.64 347 07:24 30.10.2022
1228 Clouds 23 1014 96 6000 0 0 00:29 30.10.2022
1229 Clouds 24 1013 96 6000 0 0 23:45 29.10.2022
1230 Clouds 27 1012 83 6000 3.09 60 21:32 29.10.2022
1231 Clouds 31 1015 75 10000 3.09 33 18:34 29.10.2022
1232 Clouds 30 1015 77 10000 3.09 40 17:21 29.10.2022
1233 Clouds 26 1013 83 10000 0 0 15:38 29.10.2022
1234 Clouds 26 1015 94 10000 0 0 14:51 29.10.2022
1235 Clouds 24 1014 97 10000 2.63 341 12:36 29.10.2022
1236 Clouds 24 1014 96 10000 2.45 344 11:54 29.10.2022
1237 Clouds 24 1014 96 10000 2.21 346 07:38 29.10.2022
1238 Clouds 24 1015 96 10000 2.16 345 06:45 29.10.2022
1239 Clouds 23 1015 95 10000 0 0 05:53 29.10.2022
1240 Clouds 23 1014 98 6000 2.57 30 23:43 28.10.2022
1241 Clouds 29 1013 82 10000 0 0 21:29 28.10.2022
1242 Clouds 27 1014 91 10000 2.57 330 19:36 28.10.2022
1243 Clouds 26 1015 95 10000 0 0 18:32 28.10.2022
1244 Clouds 24 1016 100 7000 0 0 16:46 28.10.2022
1245 Clouds 24 1015 96 8000 3.6 210 14:45 28.10.2022
1246 Clouds 23 1014 99 10000 0 0 13:19 28.10.2022
1247 Clouds 24 1014 98 5426 1.39 19 11:53 28.10.2022
1248 Clouds 24 1014 98 5426 1.39 19 11:31 28.10.2022
1249 Clouds 24 1014 97 10000 1.68 11 10:28 28.10.2022
1250 Clouds 25 1014 96 10000 2.08 348 08:40 28.10.2022
1251 Clouds 25 1014 95 10000 0 0 05:40 28.10.2022
1252 Clouds 27 1009 77 8000 3.09 90 23:50 27.10.2022
1253 Clouds 28 1010 84 8000 3.09 90 23:22 27.10.2022
1254 Clouds 31 1009 65 10000 2.57 40 21:56 27.10.2022
1255 Clouds 32 1011 72 10000 2.57 40 20:47 27.10.2022
1256 Clouds 31 1013 73 10000 0 0 18:23 27.10.2022
1257 Clouds 27 1013 86 10000 2.57 360 15:42 27.10.2022
1258 Clouds 24 1011 97 10000 2.55 341 11:33 27.10.2022
1259 Clouds 24 1010 87 10000 2.59 340 07:31 27.10.2022
1260 Clouds 28 1010 78 10000 2.57 40 00:22 27.10.2022
1261 Clouds 31 1008 62 10000 2.57 60 23:49 26.10.2022
1262 Clouds 31 1009 72 10000 0 0 22:38 26.10.2022
1263 Clouds 31 1010 66 10000 5.14 10 20:46 26.10.2022
1264 Clouds 29 1013 71 10000 5.14 30 17:36 26.10.2022
1265 Clouds 24 1013 91 10000 1.34 355 14:53 26.10.2022
1266 Clouds 23 1011 92 10000 0.89 353 12:56 26.10.2022
1267 Clouds 23 1011 94 10000 1.34 338 12:18 26.10.2022
1268 Clouds 24 1012 93 10000 0.45 35 09:19 26.10.2022
1269 Clouds 24 1013 93 10000 0.45 316 08:51 26.10.2022
1270 Clouds 25 1013 94 7000 0.89 274 00:51 26.10.2022
1271 Clouds 25 1012 94 7000 0.45 133 00:30 26.10.2022
1272 Clouds 26 1013 91 10000 0.45 201 22:23 25.10.2022
1273 Clouds 27 1012 85 10000 0 0 21:44 25.10.2022
1274 Clouds 28 1013 85 10000 0.89 345 20:27 25.10.2022
1275 Clouds 27 1014 90 10000 0.89 12 18:52 25.10.2022
1276 Clouds 26 1015 88 10000 1.34 357 16:30 25.10.2022
1277 Clouds 24 1013 93 10000 1.34 3 11:41 25.10.2022
1278 Clouds 25 1013 93 10000 0.89 26 10:47 25.10.2022
1279 Clouds 25 1013 94 10000 0.89 342 10:29 25.10.2022
1280 Rain 25 1014 95 10000 1.34 31 08:38 25.10.2022
1281 Rain 25 1014 95 10000 0.89 10 08:18 25.10.2022
1282 Rain 26 1015 100 10000 0.89 30 07:44 25.10.2022
1283 Clouds 27 1014 91 10000 1.34 358 06:41 25.10.2022
1284 Clouds 26 1013 85 10000 0.45 178 03:25 25.10.2022
1285 Clouds 28 1012 84 10000 0.45 188 00:32 25.10.2022
1286 Clouds 30 1012 78 10000 4.12 180 22:26 24.10.2022
1287 Clouds 31 1012 76 10000 2.57 180 21:34 24.10.2022
1288 Clouds 30 1013 77 10000 0.89 157 20:44 24.10.2022
1289 Clouds 29 1013 78 10000 0.89 196 20:19 24.10.2022
1290 Clouds 30 1016 82 10000 1.79 122 17:53 24.10.2022
1291 Clouds 30 1016 81 10000 1.79 139 16:54 24.10.2022
1292 Clouds 25 1015 81 10000 1.85 9 14:50 24.10.2022
1293 Clouds 26 1016 100 10000 2 354 13:53 24.10.2022
1294 Clouds 22 1013 95 10000 2.25 341 12:26 24.10.2022
1295 Clouds 23 1013 94 10000 2.04 344 08:51 24.10.2022
1296 Clouds 28 1013 85 10000 1.34 24 00:58 24.10.2022
1297 Clouds 31 1012 79 10000 1.34 124 21:43 23.10.2022
1298 Clouds 31 1013 80 10000 2.24 115 20:21 23.10.2022
1299 Clouds 32 1016 85 10000 1.34 120 18:26 23.10.2022
1300 Clouds 30 1015 81 10000 2.68 75 17:27 23.10.2022
1301 Clouds 28 1015 87 10000 1.79 346 15:22 23.10.2022
1302 Clouds 25 1014 92 10000 1.34 346 13:24 23.10.2022
1303 Clouds 26 1013 92 10000 1.34 5 11:21 23.10.2022
1304 Clouds 26 1015 100 10000 2.14 352 08:59 23.10.2022
1305 Clouds 29 1011 71 10000 0.89 110 00:33 23.10.2022
1306 Clouds 31 1011 74 10000 1.34 126 22:32 22.10.2022
1307 Clouds 31 1012 71 10000 1.34 168 21:42 22.10.2022
1308 Clouds 32 1012 73 10000 1.34 161 20:55 22.10.2022
1309 Clear 31 1013 75 10000 1.79 129 19:45 22.10.2022
1310 Clear 31 1013 75 10000 1.79 125 19:24 22.10.2022
1311 Clear 31 1015 73 10000 1.79 148 17:37 22.10.2022
1312 Clear 30 1016 80 10000 2.68 43 15:57 22.10.2022
1313 Clear 28 1015 86 10000 1.79 359 14:44 22.10.2022
1314 Clear 26 1015 90 10000 1.79 350 13:45 22.10.2022
1315 Clear 25 1013 91 10000 0.89 358 10:25 22.10.2022
1316 Clear 25 1014 96 10000 2.21 341 09:36 22.10.2022
1317 Clouds 26 1015 100 10000 2.18 339 07:58 22.10.2022
1318 Clouds 26 1014 83 10000 1.85 9 03:42 22.10.2022
1319 Clouds 32 1012 76 10000 1.82 145 23:51 21.10.2022
1320 Clouds 31 1012 76 10000 1.34 159 21:35 21.10.2022
1321 Clear 31 1013 74 10000 2.24 144 20:59 21.10.2022
1322 Clouds 32 1013 77 10000 1.34 150 19:33 21.10.2022
1323 Clear 30 1015 73 10000 2.24 110 16:51 21.10.2022
1324 Clear 27 1014 84 10000 0.89 355 13:57 21.10.2022
1325 Clouds 26 1013 88 10000 0.89 9 12:57 21.10.2022
1326 Clouds 25 1013 90 10000 1.45 338 10:59 21.10.2022
1327 Clouds 26 1012 88 10000 0.89 338 09:50 21.10.2022
1328 Clouds 26 1012 87 10000 0.89 340 08:39 21.10.2022
1329 Clear 26 1013 86 10000 1.34 42 07:26 21.10.2022
1330 Clear 28 1012 78 10000 0.89 142 00:59 21.10.2022
1331 Clouds 31 1012 73 10000 1.34 162 22:25 20.10.2022
1332 Clouds 31 1012 71 10000 1.79 160 20:37 20.10.2022
1333 Clear 31 1013 71 10000 1.79 145 19:35 20.10.2022
1334 Clear 31 1015 71 10000 1.34 149 17:52 20.10.2022
1335 Clear 31 1015 71 10000 1.79 127 16:57 20.10.2022
1336 Clear 25 1015 90 10000 1.41 352 12:37 20.10.2022
1337 Clear 25 1014 90 10000 1.43 342 12:18 20.10.2022
1338 Clear 24 1014 93 10000 1.35 336 10:59 20.10.2022
1339 Clear 25 1014 90 10000 1.46 348 10:29 20.10.2022
1340 Clouds 26 1014 89 10000 1.4 359 07:46 20.10.2022
1341 Clear 24 1015 87 10000 1.17 346 05:18 20.10.2022
1342 Clouds 30 1013 71 10000 2.57 180 00:58 20.10.2022
1343 Clouds 31 1012 67 10000 3.09 170 22:45 19.10.2022
1344 Clouds 31 1012 66 10000 2.57 190 21:55 19.10.2022
1345 Clouds 32 1013 65 10000 5.14 180 20:52 19.10.2022
1346 Clouds 30 1014 69 10000 2.57 180 18:36 19.10.2022
1347 Clouds 30 1016 68 10000 1.34 152 17:38 19.10.2022
1348 Clouds 28 1016 76 10000 1.34 83 15:41 19.10.2022
1349 Clouds 25 1014 88 10000 0.89 328 12:58 19.10.2022
1350 Clear 26 1013 89 10000 1.26 353 09:34 19.10.2022
1351 Clear 27 1013 81 10000 0.89 349 08:28 19.10.2022
1352 Clouds 25 1014 88 10000 0 0 04:56 19.10.2022
1353 Clouds 28 1012 80 10000 0.45 168 01:25 19.10.2022
1354 Clouds 31 1011 69 10000 5.14 180 22:57 18.10.2022
1355 Clouds 31 1011 69 10000 5.14 180 21:38 18.10.2022
1356 Clouds 32 1011 67 10000 4.12 180 20:44 18.10.2022
1357 Clouds 31 1012 68 10000 1.79 141 19:51 18.10.2022
1358 Clouds 31 1014 67 10000 3.09 190 17:34 18.10.2022
1359 Clouds 30 1014 69 10000 1.34 127 16:20 18.10.2022
1360 Clouds 26 1013 83 10000 0 0 14:26 18.10.2022
1361 Clear 25 1012 86 10000 1.34 345 12:32 18.10.2022
1362 Clouds 25 1011 87 10000 0.89 319 11:21 18.10.2022
1363 Clouds 26 1011 84 10000 0.89 344 09:28 18.10.2022
1364 Clear 26 1011 84 10000 0.45 73 07:54 18.10.2022
1365 Clouds 27 1011 80 10000 1.34 51 02:29 18.10.2022
1366 Clouds 30 1010 79 10000 5.14 180 22:19 17.10.2022
1367 Clouds 32 1010 69 10000 3.6 180 20:51 17.10.2022
1368 Clouds 32 1011 67 10000 3.6 180 20:30 17.10.2022
1369 Clouds 32 1012 67 10000 1.34 149 19:51 17.10.2022
1370 Clouds 32 1012 69 10000 1.34 108 18:51 17.10.2022
1371 Clouds 31 1014 74 10000 2.57 60 16:49 17.10.2022
1372 Clouds 28 1014 82 10000 1.34 102 15:29 17.10.2022
1373 Clouds 25 1012 88 10000 0.89 345 14:34 17.10.2022
1374 Clouds 25 1012 91 10000 1.34 327 10:30 17.10.2022
1375 Clouds 26 1013 92 10000 0.89 51 05:26 17.10.2022
1376 Clouds 30 1011 75 10000 5.14 160 23:30 16.10.2022
1377 Clouds 31 1011 71 10000 5.14 180 21:47 16.10.2022
1378 Clouds 32 1011 71 10000 1.79 125 20:41 16.10.2022
1379 Clouds 31 1012 73 10000 1.79 156 19:46 16.10.2022
1380 Clouds 31 1013 70 10000 2.06 70 17:51 16.10.2022
1381 Clouds 30 1015 74 10000 1.79 39 16:33 16.10.2022
1382 Clouds 30 1015 77 10000 1.34 35 15:57 16.10.2022
1383 Clouds 26 1014 88 10000 0.89 325 14:26 16.10.2022
1384 Clouds 25 1014 91 10000 0.89 336 12:21 16.10.2022
1385 Clouds 25 1015 95 10000 1.72 345 10:27 16.10.2022
1386 Clear 26 1015 94 10000 1.42 346 08:36 16.10.2022
1387 Clouds 29 1013 75 10000 1.34 116 01:26 16.10.2022
1388 Clouds 31 1013 68 10000 2.57 210 22:42 15.10.2022
1389 Clouds 31 1014 68 10000 3.09 110 21:25 15.10.2022
1390 Clouds 32 1014 67 10000 3.6 130 20:43 15.10.2022
1391 Clouds 31 1016 71 10000 2.57 30 18:44 15.10.2022
1392 Clouds 28 1017 80 10000 1.79 21 15:49 15.10.2022
1393 Clouds 28 1017 88 10000 0.89 341 14:39 15.10.2022
1394 Clouds 24 1016 97 10000 1.71 343 11:57 15.10.2022
1395 Clouds 25 1015 92 10000 1.34 8 10:32 15.10.2022
1396 Clouds 26 1015 91 10000 1.34 35 08:34 15.10.2022
1397 Clouds 26 1015 83 10000 0.42 189 02:42 15.10.2022
1398 Clouds 30 1013 77 10000 5.14 180 23:56 14.10.2022
1399 Clouds 31 1013 75 10000 5.14 150 22:23 14.10.2022
1400 Clouds 31 1014 74 10000 5.14 150 21:29 14.10.2022
1401 Clouds 31 1015 73 10000 5.14 170 19:54 14.10.2022
1402 Clouds 30 1017 76 10000 1.79 109 16:38 14.10.2022
1403 Clouds 24 1016 97 10000 0 0 13:28 14.10.2022
1404 Clouds 25 1015 93 10000 0.45 75 12:19 14.10.2022
1405 Clouds 25 1015 96 10000 1.11 338 09:31 14.10.2022
1406 Clouds 26 1016 95 10000 1.03 4 07:22 14.10.2022
1407 Clouds 26 1014 87 10000 1.17 3 06:18 14.10.2022
1408 Clouds 24 1013 94 10000 0 0 05:42 14.10.2022
1409 Clouds 25 1013 88 10000 0 0 03:44 14.10.2022
1410 Clouds 30 1012 78 10000 5.14 180 23:54 13.10.2022
1411 Clouds 31 1012 74 10000 5.14 180 22:22 13.10.2022
1412 Clouds 31 1013 74 10000 3.6 180 21:25 13.10.2022
1413 Clouds 32 1014 71 10000 2.24 148 19:43 13.10.2022
1414 Clouds 31 1014 70 10000 1.79 115 19:18 13.10.2022
1415 Clouds 32 1015 72 10000 2.06 60 18:41 13.10.2022
1416 Clouds 29 1016 83 10000 1.79 96 16:31 13.10.2022
1417 Clouds 28 1015 83 10000 1.34 75 15:43 13.10.2022
1418 Clouds 26 1015 93 10000 0 0 14:18 13.10.2022
1419 Clouds 24 1016 97 10000 2.28 342 12:49 13.10.2022
1420 Clouds 24 1016 97 10000 2.41 348 11:35 13.10.2022
1421 Clouds 24 1015 97 10000 2.3 346 09:37 13.10.2022
1422 Clouds 25 1016 97 10000 2.26 335 07:39 13.10.2022
1423 Clouds 24 1017 97 10000 2.45 342 06:29 13.10.2022
1424 Clouds 26 1014 89 10000 1.34 327 01:47 13.10.2022
1425 Clouds 27 1014 86 10000 3.09 30 00:45 13.10.2022
1426 Clouds 28 1014 86 10000 0.89 94 22:46 12.10.2022
1427 Clouds 27 1014 90 10000 3.09 360 21:51 12.10.2022
1428 Clouds 28 1014 85 10000 3.09 360 21:20 12.10.2022
1429 Clouds 30 1014 81 10000 3.09 90 20:46 12.10.2022
1430 Clouds 32 1015 71 10000 3.6 30 19:24 12.10.2022
1431 Clouds 31 1016 73 10000 3.09 30 18:19 12.10.2022
1432 Clouds 31 1016 73 10000 3.09 30 18:19 12.10.2022
1433 Clouds 31 1017 74 10000 3.6 30 17:43 12.10.2022
1434 Clouds 27 1017 89 10000 2.68 19 14:52 12.10.2022
1435 Clouds 25 1017 93 10000 2.24 346 13:54 12.10.2022
1436 Clouds 25 1018 96 10000 2.65 354 12:31 12.10.2022
1437 Clouds 25 1017 96 10000 2.62 352 09:37 12.10.2022
1438 Clouds 25 1015 88 10000 2.56 345 07:42 12.10.2022
1439 Clouds 26 1019 95 10000 2.49 338 06:44 12.10.2022
1440 Clouds 24 1018 95 10000 0 0 05:33 12.10.2022
1441 Clouds 25 1016 95 8000 3.09 360 00:38 12.10.2022
1442 Clouds 32 1015 71 10000 1.79 147 21:26 11.10.2022
1443 Clouds 32 1016 70 10000 1.79 168 20:32 11.10.2022
1444 Clouds 31 1018 74 10000 0 0 18:27 11.10.2022
1445 Clouds 29 1020 82 10000 4.12 30 16:27 11.10.2022
1446 Clouds 25 1018 98 10000 0 0 13:52 11.10.2022
1447 Clear 25 1018 97 10000 2.11 347 11:32 11.10.2022
1448 Clear 25 1018 97 10000 2 342 10:27 11.10.2022
1449 Clear 25 1018 96 10000 1.64 341 08:46 11.10.2022
1450 Clouds 25 1018 95 10000 0 0 05:26 11.10.2022
1451 Clouds 27 1015 84 10000 0 0 01:55 11.10.2022
1452 Clouds 29 1015 74 10000 0 0 00:24 11.10.2022
1453 Clouds 32 1015 71 10000 2.57 120 21:21 10.10.2022
1454 Clouds 32 1016 73 10000 4.12 90 19:45 10.10.2022
1455 Clouds 31 1017 74 10000 3.6 60 18:18 10.10.2022
1456 Clouds 30 1018 83 10000 2.57 360 16:43 10.10.2022
1457 Clouds 25 1016 97 10000 0 0 14:46 10.10.2022
1458 Clear 24 1018 97 10000 2.29 338 12:24 10.10.2022
1459 Clear 24 1017 97 10000 2.16 335 10:57 10.10.2022
1460 Clear 25 1017 97 10000 2.01 344 07:47 10.10.2022
1461 Clouds 24 1017 96 10000 0 0 05:38 10.10.2022
1462 Clear 26 1017 94 10000 1.7 0 02:42 10.10.2022
1463 Clouds 27 1014 90 10000 5.14 30 00:25 10.10.2022
1464 Clouds 29 1014 82 10000 4.12 30 22:27 09.10.2022
1465 Clouds 29 1014 82 10000 4.12 30 22:27 09.10.2022
1466 Clouds 29 1014 83 10000 4.12 90 21:50 09.10.2022
1467 Clouds 29 1015 84 10000 2.57 120 20:54 09.10.2022
1468 Clouds 30 1015 81 10000 3.09 20 19:53 09.10.2022
1469 Clouds 30 1015 82 10000 3.09 20 19:20 09.10.2022
1470 Clouds 30 1016 80 10000 3.09 30 18:27 09.10.2022
1471 Clouds 30 1016 82 10000 4.12 360 16:56 09.10.2022
1472 Clouds 29 1016 83 10000 4.12 360 16:25 09.10.2022
1473 Clouds 28 1016 87 10000 2.57 360 15:33 09.10.2022
1474 Clouds 26 1015 95 10000 0 0 14:28 09.10.2022
1475 Clouds 26 1015 95 10000 0 0 14:28 09.10.2022
1476 Clear 24 1015 97 10000 3.1 342 12:54 09.10.2022
1477 Clear 24 1015 97 10000 2.9 345 11:42 09.10.2022
1478 Clear 25 1015 97 10000 2.85 355 09:57 09.10.2022
1479 Clear 25 1015 97 10000 2.53 347 07:52 09.10.2022
1480 Clouds 24 1015 95 10000 0 0 03:32 09.10.2022
1481 Clouds 25 1015 96 10000 2.87 358 02:23 09.10.2022
1482 Clouds 26 1013 92 10000 2.57 350 23:56 08.10.2022
1483 Clouds 27 1013 91 10000 3.09 360 22:53 08.10.2022
1484 Thunderstorm 30 1013 83 10000 2.57 240 21:18 08.10.2022
1485 Clouds 28 1015 93 10000 4.14 77 19:56 08.10.2022
1486 Clouds 30 1015 79 8000 0 0 18:22 08.10.2022
1487 Clouds 28 1015 87 10000 5.14 30 15:50 08.10.2022
1488 Clouds 27 1015 92 10000 0 0 14:24 08.10.2022
1489 Clear 26 1015 100 10000 3.09 346 12:31 08.10.2022
1490 Clear 25 1014 97 10000 2.92 346 10:36 08.10.2022
1491 Clear 26 1014 97 10000 2.93 343 09:50 08.10.2022
1492 Clear 26 1015 96 10000 3.23 345 07:50 08.10.2022
1493 Clear 27 1016 95 10000 2.79 2 02:53 08.10.2022
1494 Clouds 28 1014 92 10000 0 0 00:32 08.10.2022
1495 Clouds 28 1013 86 10000 2.57 270 23:20 07.10.2022
1496 Clouds 28 1014 87 10000 3.09 300 22:24 07.10.2022
1497 Clouds 30 1014 82 7000 6.17 30 20:42 07.10.2022
1498 Clouds 32 1015 72 10000 3.09 60 19:18 07.10.2022
1499 Clouds 30 1017 79 10000 0 0 16:59 07.10.2022
1500 Clouds 29 1017 86 10000 0 0 15:56 07.10.2022
1501 Clouds 27 1016 94 10000 0 0 14:44 07.10.2022
1502 Clouds 25 1016 97 10000 2.75 350 12:25 07.10.2022
1503 Clouds 25 1015 97 10000 2.6 355 09:28 07.10.2022
1504 Clouds 25 1015 97 10000 2.6 355 08:56 07.10.2022
1505 Clouds 25 1017 96 10000 2.91 343 06:23 07.10.2022
1506 Clouds 26 1014 93 10000 0 0 00:46 07.10.2022
1507 Clouds 27 1013 89 8000 0 0 22:50 06.10.2022
1508 Clouds 27 1012 89 8000 0 0 21:44 06.10.2022
1509 Clouds 27 1012 89 8000 0 0 21:25 06.10.2022
1510 Clouds 32 1015 76 10000 3.09 360 19:55 06.10.2022
1511 Clouds 32 1016 72 10000 0 0 18:37 06.10.2022
1512 Clouds 31 1016 75 10000 0 0 18:18 06.10.2022
1513 Clouds 27 1016 92 10000 0 0 14:42 06.10.2022
1514 Clouds 25 1014 97 10000 2.27 342 11:30 06.10.2022
1515 Clouds 26 1016 96 10000 2.33 349 06:53 06.10.2022
1516 Clouds 26 1015 95 10000 0 0 03:34 06.10.2022
1517 Clouds 28 1013 92 10000 3.09 30 23:20 05.10.2022
1518 Clouds 31 1014 79 10000 4.12 60 19:58 05.10.2022
1519 Clouds 30 1014 78 10000 0 0 18:42 05.10.2022
1520 Clouds 31 1016 82 10000 2.84 87 17:34 05.10.2022
1521 Clouds 29 1015 86 10000 0 0 15:54 05.10.2022
1522 Clouds 28 1015 91 10000 0 0 14:47 05.10.2022
1523 Clouds 26 1014 97 10000 0 0 13:55 05.10.2022
1524 Clouds 26 1012 88 10000 1.92 345 12:20 05.10.2022
1525 Clouds 27 1014 96 10000 1.64 357 08:53 05.10.2022
1526 Clouds 25 1012 95 10000 1.7 357 07:35 05.10.2022
1527 Clouds 26 1013 89 10000 0 0 05:35 05.10.2022
1528 Clouds 27 1013 90 10000 0.67 52 02:47 05.10.2022
1529 Clouds 31 1010 74 10000 2.57 150 00:45 05.10.2022
1530 Clouds 31 1010 75 10000 2.57 150 00:24 05.10.2022
1531 Clouds 32 1011 72 10000 2.57 90 22:22 04.10.2022
1532 Clouds 33 1013 72 10000 0 0 20:31 04.10.2022
1533 Clouds 33 1015 70 10000 3.09 60 18:58 04.10.2022
1534 Clouds 33 1015 70 10000 3.09 60 18:35 04.10.2022
1535 Clouds 32 1015 74 10000 2.06 30 17:43 04.10.2022
1536 Clouds 31 1016 81 10000 0 0 16:28 04.10.2022
1537 Clouds 25 1015 97 10000 1.36 342 12:41 04.10.2022
1538 Clouds 26 1015 97 10000 0.48 314 08:52 04.10.2022
1539 Clouds 27 1015 96 10000 0.97 347 06:28 04.10.2022
1540 Clouds 29 1014 87 10000 0 0 01:28 04.10.2022
1541 Clouds 30 1013 82 10000 5.14 180 23:37 03.10.2022
1542 Clouds 31 1014 78 10000 5.14 180 21:52 03.10.2022
1543 Clouds 32 1014 77 10000 5.14 180 20:52 03.10.2022
1544 Clouds 32 1016 79 10000 5.14 180 18:57 03.10.2022
1545 Clouds 31 1016 81 10000 5.14 180 17:48 03.10.2022
1546 Clouds 30 1016 85 10000 0 0 16:43 03.10.2022
1547 Clouds 29 1016 88 10000 0 0 15:27 03.10.2022
1548 Clouds 25 1016 96 10000 0 0 13:44 03.10.2022
1549 Clouds 25 1016 98 10000 1.42 221 12:20 03.10.2022
1550 Clouds 25 1016 98 10000 1.34 215 10:38 03.10.2022
1551 Clouds 25 1016 98 10000 1.34 210 09:33 03.10.2022
1552 Clouds 26 1017 96 10000 0 0 05:34 03.10.2022
1553 Clouds 28 1016 90 10000 0.45 173 02:36 03.10.2022
1554 Clouds 29 1015 80 10000 0 0 22:24 02.10.2022
1555 Clouds 29 1016 84 10000 2.57 180 20:37 02.10.2022
1556 Clouds 29 1017 89 10000 3.09 180 18:30 02.10.2022
1557 Clouds 29 1017 89 10000 3.09 180 17:35 02.10.2022
1558 Clouds 28 1017 90 10000 0 0 16:33 02.10.2022
1559 Clouds 26 1017 96 10000 0 0 15:40 02.10.2022
1560 Clouds 24 1016 96 7000 0 0 13:51 02.10.2022
1561 Clouds 24 1017 98 10000 1.14 239 12:51 02.10.2022
1562 Clouds 24 1017 98 10000 1.76 221 12:24 02.10.2022
1563 Clouds 25 1017 98 10000 1.76 221 11:36 02.10.2022
1564 Clouds 25 1016 98 10000 1.87 210 10:36 02.10.2022
1565 Clouds 25 1016 97 10000 1.48 224 08:40 02.10.2022
1566 Clouds 25 1017 96 10000 1.68 213 06:38 02.10.2022
1567 Clouds 27 1016 94 10000 2.07 204 02:54 02.10.2022
1568 Clouds 28 1014 89 8000 5.14 180 00:45 02.10.2022
1569 Clouds 28 1013 87 8000 5.14 180 23:43 01.10.2022
1570 Clouds 29 1013 84 10000 5.14 180 22:31 01.10.2022
1571 Clouds 30 1012 74 10000 5.14 180 19:58 01.10.2022
1572 Clouds 29 1015 85 10000 0 0 17:49 01.10.2022
1573 Clouds 27 1015 91 10000 3.09 180 16:29 01.10.2022
1574 Clouds 24 1014 96 8000 0 0 14:19 01.10.2022
1575 Clouds 24 1014 97 10000 1.28 262 12:57 01.10.2022
1576 Clouds 24 1014 97 10000 1.07 254 12:29 01.10.2022
1577 Clouds 24 1013 98 10000 1.14 267 11:19 01.10.2022
1578 Clouds 24 1013 96 10000 1.14 267 10:30 01.10.2022
1579 Clouds 24 1012 96 10000 1.01 268 09:27 01.10.2022
1580 Clouds 24 1013 96 10000 1.05 228 08:41 01.10.2022
1581 Clouds 26 1010 82 10000 0.45 167 03:55 01.10.2022
1582 Clouds 27 1010 80 10000 0.45 167 03:28 01.10.2022
1583 Clouds 30 1009 73 10000 4.12 180 23:30 30.09.2022
1584 Clouds 30 1009 73 10000 5.14 180 22:19 30.09.2022
1585 Clouds 30 1009 72 10000 6.17 180 21:22 30.09.2022
1586 Clouds 30 1009 71 10000 5.14 180 20:42 30.09.2022
1587 Clouds 30 1010 77 10000 5.14 180 19:30 30.09.2022
1588 Clouds 29 1011 79 10000 0 0 17:27 30.09.2022
1589 Clouds 25 1011 91 10000 0 0 14:55 30.09.2022
1590 Clouds 24 1010 95 10000 0 0 13:24 30.09.2022
1591 Clouds 24 1011 95 10000 1.11 269 11:56 30.09.2022
1592 Clouds 24 1010 97 10000 1.53 252 09:50 30.09.2022
1593 Clouds 25 1012 97 10000 1.34 252 08:20 30.09.2022
1594 Clouds 25 1012 96 8000 2.57 90 04:24 30.09.2022
1595 Clouds 27 1009 86 10000 1.45 153 02:22 30.09.2022
1596 Clouds 31 1009 77 10000 5.14 180 22:23 29.09.2022
1597 Clouds 31 1009 76 10000 5.14 180 21:25 29.09.2022
1598 Clouds 31 1011 77 10000 5.14 180 19:58 29.09.2022
1599 Clouds 31 1012 78 10000 0 0 18:30 29.09.2022
1600 Clouds 31 1012 78 10000 0 0 18:30 29.09.2022
1601 Clouds 30 1011 76 10000 0 0 16:29 29.09.2022
1602 Clouds 27 1011 79 10000 0 0 15:51 29.09.2022
1603 Clouds 27 1011 81 10000 0 0 15:27 29.09.2022
1604 Clear 24 1013 97 10000 2.01 339 12:54 29.09.2022
1605 Clear 25 1013 96 10000 1.56 347 08:51 29.09.2022
1606 Clouds 25 1014 95 10000 0 0 05:35 29.09.2022
1607 Clouds 26 1013 95 10000 0 0 02:41 29.09.2022
1608 Clouds 27 1012 94 10000 0 0 23:29 28.09.2022
1609 Thunderstorm 30 1012 81 10000 2.57 150 22:24 28.09.2022
1610 Clouds 31 1013 74 10000 5.14 180 21:28 28.09.2022
1611 Clouds 32 1013 72 10000 2.57 60 19:58 28.09.2022
1612 Clouds 31 1015 79 10000 0 0 17:19 28.09.2022
1613 Clouds 25 1013 90 10000 0 0 14:45 28.09.2022
1614 Clear 24 1013 90 10000 2.43 341 12:31 28.09.2022
1615 Clear 24 1013 89 10000 2.11 348 10:22 28.09.2022
1616 Clear 25 1013 88 10000 1.69 328 07:53 28.09.2022
1617 Clear 24 1014 89 10000 1.61 346 06:27 28.09.2022
1618 Clouds 26 1013 89 10000 2.57 30 01:47 28.09.2022
1619 Clouds 26 1013 90 10000 2.57 30 01:25 28.09.2022
1620 Thunderstorm 29 1012 80 10000 2.57 210 22:49 27.09.2022
1621 Thunderstorm 29 1012 74 10000 0 0 21:20 27.09.2022
1622 Thunderstorm 30 1013 68 10000 0 0 20:35 27.09.2022
1623 Clouds 28 1014 79 10000 2.57 240 19:45 27.09.2022
1624 Clouds 30 1015 74 10000 0 0 17:47 27.09.2022
1625 Clouds 30 1015 74 10000 0 0 17:29 27.09.2022
1626 Clouds 27 1014 80 10000 0 0 15:18 27.09.2022
1627 Clouds 26 1014 89 10000 0 0 14:21 27.09.2022
1628 Clear 22 1015 73 10000 1.76 355 12:39 27.09.2022
1629 Clear 22 1015 73 10000 1.76 355 12:39 27.09.2022
1630 Clear 23 1015 72 10000 1.86 359 10:45 27.09.2022
1631 Clouds 23 1015 72 10000 1.58 347 08:36 27.09.2022
1632 Clouds 24 1015 79 10000 0 0 05:22 27.09.2022
1633 Clouds 27 1013 86 10000 0.7 111 01:40 27.09.2022
1634 Clouds 29 1012 77 10000 2.57 150 00:28 27.09.2022
1635 Clouds 29 1011 77 10000 2.57 180 23:24 26.09.2022
1636 Clouds 32 1012 63 10000 4.12 160 21:37 26.09.2022
1637 Clouds 32 1012 62 10000 5.14 150 20:18 26.09.2022
1638 Clouds 32 1013 67 10000 4.12 180 19:19 26.09.2022
1639 Clouds 32 1014 66 10000 0 0 17:26 26.09.2022
1640 Clouds 28 1014 78 10000 0 0 15:25 26.09.2022
1641 Clouds 25 1013 89 10000 1.77 347 12:42 26.09.2022
1642 Clouds 26 1012 88 10000 1.48 346 11:28 26.09.2022
1643 Clouds 26 1012 89 10000 1.48 346 10:36 26.09.2022
1644 Clouds 26 1012 88 10000 1.36 343 10:18 26.09.2022
1645 Clouds 26 1012 88 10000 1.36 343 09:51 26.09.2022
1646 Clouds 26 1012 88 10000 1.35 352 09:21 26.09.2022
1647 Clouds 25 1014 90 10000 0 0 05:30 26.09.2022
1648 Clouds 27 1013 85 10000 0.15 44 02:35 26.09.2022
1649 Clouds 31 1010 68 10000 4.12 180 23:24 25.09.2022
1650 Clouds 32 1012 74 10000 4.12 180 21:47 25.09.2022
1651 Clouds 32 1012 74 10000 4.12 180 21:25 25.09.2022
1652 Clouds 32 1012 74 10000 4.12 180 20:36 25.09.2022
1653 Clouds 31 1013 66 10000 3.09 150 18:57 25.09.2022
1654 Clouds 31 1013 66 10000 3.09 150 18:26 25.09.2022
1655 Clouds 30 1013 68 10000 3.09 30 17:24 25.09.2022
1656 Clouds 28 1013 77 10000 0 0 16:21 25.09.2022
1657 Clouds 24 1013 90 10000 0 0 14:49 25.09.2022
1658 Clouds 24 1013 91 10000 0 0 14:19 25.09.2022
1659 Clouds 24 1012 92 10000 2.07 344 11:34 25.09.2022
1660 Clouds 24 1011 93 10000 1.85 7 09:44 25.09.2022
1661 Clouds 24 1012 93 10000 1.57 4 07:42 25.09.2022
1662 Clouds 24 1013 96 10000 0 0 05:22 25.09.2022
1663 Clouds 28 1011 80 10000 2.57 190 23:37 24.09.2022
1664 Clouds 32 1014 79 10000 2.57 190 21:20 24.09.2022
1665 Clouds 31 1014 76 10000 7.2 190 19:45 24.09.2022
1666 Clouds 32 1014 75 10000 7.2 190 19:20 24.09.2022
1667 Clouds 29 1014 75 10000 2.57 90 16:51 24.09.2022
1668 Clouds 27 1014 86 10000 5.14 90 15:29 24.09.2022
1669 Clouds 26 1013 90 10000 2.57 30 14:37 24.09.2022
1670 Clouds 25 1013 92 10000 1.34 43 13:22 24.09.2022
1671 Clouds 25 1012 91 10000 1.34 56 12:23 24.09.2022
1672 Clouds 26 1012 91 8310 1.34 40 09:59 24.09.2022
1673 Clouds 26 1012 91 9284 0.45 62 08:58 24.09.2022
1674 Clouds 26 1013 90 10000 0.45 164 07:41 24.09.2022
1675 Clouds 26 1014 91 10000 0.89 19 04:53 24.09.2022
1676 Clouds 26 1014 91 10000 0.45 59 04:19 24.09.2022
1677 Clouds 29 1012 77 10000 1.79 112 22:54 23.09.2022
1678 Clouds 30 1013 82 10000 2.57 70 21:33 23.09.2022
1679 Thunderstorm 30 1013 83 10000 2.57 60 20:57 23.09.2022
1680 Thunderstorm 30 1013 83 10000 2.57 60 20:37 23.09.2022
1681 Clouds 32 1014 75 10000 3.09 180 19:19 23.09.2022
1682 Clouds 27 1014 81 10000 1.79 1 15:31 23.09.2022
1683 Clouds 26 1013 88 10000 0.89 325 12:39 23.09.2022
1684 Clouds 26 1012 88 10000 1.34 352 09:36 23.09.2022
1685 Clouds 26 1013 87 10000 1.34 343 06:51 23.09.2022
1686 Clouds 29 1011 77 10000 2.57 180 00:42 23.09.2022
1687 Clouds 30 1010 74 10000 5.14 180 23:23 22.09.2022
1688 Clouds 31 1011 80 10000 5.14 200 22:27 22.09.2022
1689 Clouds 31 1012 80 10000 5.14 180 21:19 22.09.2022
1690 Clouds 30 1012 80 10000 5.14 180 19:58 22.09.2022
1691 Clouds 29 1014 88 8000 0.89 228 17:41 22.09.2022
1692 Clouds 26 1012 91 10000 2.06 360 13:38 22.09.2022
1693 Clouds 27 1011 89 10000 0.89 194 10:37 22.09.2022
1694 Clouds 27 1011 89 10000 0.89 194 10:37 22.09.2022
1695 Clouds 27 1011 88 10000 0.45 191 08:58 22.09.2022
1696 Clouds 28 1012 83 10000 2.41 220 07:27 22.09.2022
1697 Clouds 27 1012 85 10000 0.89 233 04:37 22.09.2022
1698 Clouds 29 1009 79 10000 7.2 190 23:33 21.09.2022
1699 Clouds 31 1010 82 10000 2.68 204 21:52 21.09.2022
1700 Clouds 31 1010 80 10000 7.72 210 20:53 21.09.2022
1701 Clouds 30 1011 82 10000 6.17 180 17:55 21.09.2022
1702 Clouds 30 1012 84 10000 6.17 180 17:21 21.09.2022
1703 Clouds 27 1011 92 10000 5.14 180 15:18 21.09.2022
1704 Clouds 26 1010 95 6000 5.14 180 13:38 21.09.2022
1705 Clouds 27 1010 93 10000 1.34 238 11:34 21.09.2022
1706 Clouds 27 1010 93 10000 2.24 222 10:34 21.09.2022
1707 Clouds 27 1009 93 10000 3.13 188 09:36 21.09.2022
1708 Clouds 27 1010 94 10000 0.45 172 08:23 21.09.2022
1709 Clouds 27 1010 90 10000 3.13 243 02:51 21.09.2022
1710 Clouds 28 1010 91 10000 2.68 219 02:32 21.09.2022
1711 Clouds 28 1009 91 10000 3.09 180 01:49 21.09.2022
1712 Clouds 28 1009 91 6000 7.2 180 23:19 20.09.2022
1713 Clouds 28 1009 90 5000 7.2 180 21:33 20.09.2022
1714 Clouds 30 1010 85 8000 12 180 19:57 20.09.2022
1715 Clouds 30 1011 86 8000 6.17 200 17:38 20.09.2022
1716 Clouds 25 1010 95 10000 3.09 190 14:59 20.09.2022
1717 Clouds 25 1009 95 10000 1.79 232 13:58 20.09.2022
1718 Clouds 26 1009 97 10000 2.68 222 10:41 20.09.2022
1719 Clouds 26 1008 97 10000 1.79 205 08:29 20.09.2022
1720 Clouds 26 1009 96 10000 4.47 221 07:27 20.09.2022
1721 Clouds 26 1007 96 10000 2.68 229 04:29 20.09.2022
1722 Clouds 26 1004 94 10000 2.24 253 23:49 19.09.2022
1723 Clouds 25 1005 94 10000 1.34 250 22:29 19.09.2022
1724 Clouds 25 1005 93 6000 0.89 234 20:59 19.09.2022
1725 Clouds 26 1005 93 6000 1.34 287 20:39 19.09.2022
1726 Clouds 25 1006 93 10000 5.14 270 18:41 19.09.2022
1727 Clouds 24 1007 95 10000 4.02 253 15:56 19.09.2022
1728 Clouds 24 1006 95 7172 3.13 283 13:39 19.09.2022
1729 Clouds 24 1006 94 6000 7.72 360 11:33 19.09.2022
1730 Clouds 25 1007 92 9307 2.24 301 09:33 19.09.2022
1731 Clouds 25 1008 90 10000 6.17 360 08:20 19.09.2022
1732 Clouds 26 1010 89 7000 5.14 360 02:31 19.09.2022
1733 Clouds 28 1010 88 10000 3.13 351 23:24 18.09.2022
1734 Clouds 27 1010 91 8000 5.14 360 21:47 18.09.2022
1735 Clouds 26 1011 92 7000 5.14 60 20:34 18.09.2022
1736 Clouds 29 1011 88 8000 5.14 360 18:42 18.09.2022
1737 Clouds 29 1013 82 8000 10.29 30 17:45 18.09.2022
1738 Clouds 29 1012 81 8000 6.69 30 16:32 18.09.2022
1739 Clouds 27 1011 85 10000 4.12 330 14:35 18.09.2022
1740 Clouds 27 1011 90 10000 2.68 351 12:55 18.09.2022
1741 Clouds 27 1011 90 10000 2.68 9 11:46 18.09.2022
1742 Clouds 27 1013 89 10000 2.24 5 06:30 18.09.2022
1743 Clouds 29 1013 75 10000 3.6 360 01:30 18.09.2022
1744 Clouds 30 1012 74 10000 3.6 30 00:42 18.09.2022
1745 Clouds 32 1012 66 10000 4.47 55 22:23 17.09.2022
1746 Clouds 33 1013 65 10000 8.23 70 20:48 17.09.2022
1747 Clouds 32 1012 62 10000 6.17 360 19:19 17.09.2022
1748 Clouds 31 1014 68 10000 5.14 30 17:19 17.09.2022
1749 Clouds 25 1014 92 10000 2.57 360 13:59 17.09.2022
1750 Clouds 25 1013 95 10000 2.99 350 12:29 17.09.2022
1751 Clouds 25 1013 94 10000 2.83 351 10:28 17.09.2022
1752 Clouds 26 1014 89 4823 2.54 355 06:29 17.09.2022
1753 Clouds 26 1014 91 10000 5.14 360 03:34 17.09.2022
1754 Clouds 29 1012 82 10000 3.6 360 23:23 16.09.2022
1755 Clouds 28 1012 86 8000 2.24 23 21:33 16.09.2022
1756 Clouds 28 1013 84 8000 2.57 30 20:41 16.09.2022
1757 Clouds 31 1014 76 10000 4.12 30 18:18 16.09.2022
1758 Clouds 29 1015 78 10000 5.14 360 15:57 16.09.2022
1759 Clouds 26 1015 87 10000 5.14 360 14:39 16.09.2022
1760 Clouds 26 1014 86 10000 2.24 349 12:31 16.09.2022
1761 Clouds 25 1014 86 10000 3.96 345 09:34 16.09.2022
1762 Clouds 24 1015 84 10000 3.28 338 07:21 16.09.2022
1763 Clouds 25 1015 84 10000 3.28 338 06:47 16.09.2022
1764 Clouds 25 1015 86 10000 0 0 04:42 16.09.2022
1765 Clouds 31 1013 68 10000 5.14 60 23:50 15.09.2022
1766 Clouds 33 1014 70 10000 5.14 360 21:24 15.09.2022
1767 Clouds 33 1015 69 10000 4.12 90 20:25 15.09.2022
1768 Clouds 32 1016 70 10000 6.69 30 18:53 15.09.2022
1769 Clouds 31 1017 76 10000 4.12 60 17:33 15.09.2022
1770 Clouds 30 1017 79 10000 4.12 60 16:54 15.09.2022
1771 Clouds 27 1016 82 10000 3.09 360 14:42 15.09.2022
1772 Clouds 27 1016 81 10000 1.79 3 12:48 15.09.2022
1773 Clouds 23 1015 93 10000 2.84 345 10:34 15.09.2022
1774 Clouds 23 1015 94 10000 2.81 335 08:57 15.09.2022
1775 Clouds 27 1016 83 10000 2.36 12 04:24 15.09.2022
1776 Clouds 28 1014 84 10000 2.57 60 01:57 15.09.2022
1777 Clouds 31 1014 75 10000 5.14 90 22:26 14.09.2022
1778 Clouds 33 1015 67 10000 3.09 330 19:59 14.09.2022
1779 Clouds 33 1016 68 10000 3.09 330 19:26 14.09.2022
1780 Clouds 31 1017 74 10000 2.68 115 17:25 14.09.2022
1781 Clouds 28 1017 85 10000 2.57 360 15:56 14.09.2022
1782 Clouds 26 1016 90 10000 1.34 357 14:34 14.09.2022
1783 Clouds 26 1014 84 10000 0.89 328 11:40 14.09.2022
1784 Clouds 26 1014 84 10000 0.45 352 09:48 14.09.2022
1785 Clouds 26 1015 83 10000 0.89 337 07:39 14.09.2022
1786 Clouds 26 1015 85 10000 0.89 344 06:47 14.09.2022
1787 Clouds 27 1016 91 10000 1.34 359 04:33 14.09.2022
1788 Clouds 28 1014 84 10000 0.45 222 01:48 14.09.2022
1789 Clouds 28 1014 84 10000 0 0 01:29 14.09.2022
1790 Clouds 29 1014 81 10000 0.45 222 00:50 14.09.2022
1791 Clouds 29 1014 78 10000 0.45 222 23:54 13.09.2022
1792 Clouds 29 1014 78 10000 0 0 23:36 13.09.2022
1793 Clouds 29 1014 78 10000 0.45 222 23:18 13.09.2022
1794 Clouds 30 1013 69 10000 0.89 214 22:20 13.09.2022
1795 Clouds 27 1015 86 10000 0.45 233 19:52 13.09.2022
1796 Thunderstorm 27 1015 84 10000 0.45 277 18:18 13.09.2022
1797 Clouds 27 1016 91 10000 0.45 30 15:55 13.09.2022
1798 Clouds 25 1015 93 10000 1.34 348 14:36 13.09.2022
1799 Thunderstorm 25 1013 89 10000 1.34 18 13:20 13.09.2022
1800 Clouds 26 1012 84 10000 0.89 335 09:23 13.09.2022
1801 Clouds 27 1015 89 10000 1.34 19 06:24 13.09.2022
1802 Clouds 29 1013 83 7000 5.14 60 00:22 13.09.2022
1803 Clouds 30 1013 79 10000 1.34 147 22:50 12.09.2022
1804 Clouds 31 1012 75 10000 5.14 150 21:55 12.09.2022
1805 Clouds 31 1014 78 10000 3.09 120 20:25 12.09.2022
1806 Clouds 32 1015 73 10000 2.57 60 18:44 12.09.2022
1807 Clouds 30 1017 79 10000 2.57 20 16:38 12.09.2022
1808 Clouds 27 1015 88 10000 1.34 11 14:37 12.09.2022
1809 Clouds 26 1013 86 10000 1.34 10 11:30 12.09.2022
1810 Clouds 27 1015 93 10000 0.89 31 09:56 12.09.2022
1811 Clouds 27 1017 91 10000 1.34 6 04:51 12.09.2022
1812 Clouds 27 1017 91 10000 1.34 6 04:24 12.09.2022
1813 Clouds 30 1015 81 10000 3.09 180 23:34 11.09.2022
1814 Clouds 29 1015 81 10000 4.12 350 22:18 11.09.2022
1815 Clouds 31 1016 73 10000 3.09 40 20:48 11.09.2022
1816 Clouds 31 1017 74 10000 5.14 360 19:57 11.09.2022
1817 Clouds 31 1017 76 10000 5.14 360 19:24 11.09.2022
1818 Clouds 30 1018 78 10000 5.14 360 18:21 11.09.2022
1819 Clouds 28 1019 80 10000 3.13 16 16:46 11.09.2022
1820 Clouds 26 1019 90 10000 1.34 350 14:39 11.09.2022
1821 Clouds 26 1018 92 10000 1.34 1 12:42 11.09.2022
1822 Clouds 26 1017 92 10000 0.89 327 08:59 11.09.2022
1823 Clouds 26 1018 92 10000 1.79 345 07:18 11.09.2022
1824 Clouds 26 1016 90 10000 1.79 325 00:50 11.09.2022
1825 Clouds 27 1016 81 7000 2.57 300 22:55 10.09.2022
1826 Clouds 33 1015 62 10000 2.57 180 21:33 10.09.2022
1827 Clouds 33 1016 63 10000 3.09 90 19:47 10.09.2022
1828 Clouds 33 1016 64 10000 3.09 90 19:29 10.09.2022
1829 Clouds 32 1017 65 10000 2.57 60 18:54 10.09.2022
1830 Clouds 31 1017 65 10000 2.57 70 16:39 10.09.2022
1831 Clouds 27 1017 80 10000 1.79 23 14:42 10.09.2022
1832 Clouds 26 1016 86 10000 1.34 331 12:52 10.09.2022
1833 Clouds 27 1015 84 10000 0.89 357 10:58 10.09.2022
1834 Clouds 27 1015 83 10000 1.34 10 09:50 10.09.2022
1835 Clouds 27 1015 83 10000 1.34 11 08:37 10.09.2022
1836 Clouds 27 1015 84 10000 1.34 339 07:22 10.09.2022
1837 Clouds 29 1013 80 10000 3.09 150 00:41 10.09.2022
1838 Clouds 31 1012 72 10000 4.12 160 23:33 09.09.2022
1839 Clouds 32 1012 69 10000 4.12 160 22:18 09.09.2022
1840 Clouds 32 1012 69 10000 5.14 160 20:46 09.09.2022
1841 Clouds 32 1013 70 10000 5.14 180 19:24 09.09.2022
1842 Clouds 31 1013 70 10000 1.79 144 18:47 09.09.2022
1843 Clouds 30 1014 74 10000 1.34 108 16:23 09.09.2022
1844 Clouds 26 1013 91 10000 0.89 349 13:49 09.09.2022
1845 Clear 27 1012 86 10000 0.45 321 12:30 09.09.2022
1846 Clear 28 1011 84 10000 0.45 253 09:53 09.09.2022
1847 Clouds 26 1011 94 10000 0 0 04:57 09.09.2022
1848 Clouds 28 1010 83 10000 0 0 02:54 09.09.2022
1849 Clouds 32 1009 69 10000 5.14 180 21:52 08.09.2022
1850 Clouds 32 1010 67 10000 7.72 180 20:51 08.09.2022
1851 Clouds 32 1010 67 10000 7.72 180 20:31 08.09.2022
1852 Clouds 32 1011 68 10000 5.14 180 19:49 08.09.2022
1853 Clouds 31 1012 71 10000 5.14 180 17:48 08.09.2022
1854 Clouds 30 1012 77 10000 2.57 180 16:19 08.09.2022
1855 Clouds 27 1012 85 10000 0.89 96 14:40 08.09.2022
1856 Clouds 26 1011 88 10000 0 0 13:23 08.09.2022
1857 Clouds 24 1011 93 10000 0.9 312 11:39 08.09.2022
1858 Clouds 26 1010 86 10000 0.87 304 10:48 08.09.2022
1859 Clouds 27 1011 88 10000 0.89 308 07:57 08.09.2022
1860 Clouds 27 1012 88 10000 0.45 184 06:41 08.09.2022
1861 Clouds 26 1012 89 10000 1.12 238 02:36 08.09.2022
1862 Clouds 26 1011 87 9483 1.63 188 02:18 08.09.2022
1863 Clouds 30 1010 75 10000 3.09 180 00:27 08.09.2022
1864 Clouds 30 1010 74 8000 4.12 180 22:36 07.09.2022
1865 Clouds 32 1010 68 10000 5.14 180 21:41 07.09.2022
1866 Clouds 31 1011 72 10000 3.6 200 20:38 07.09.2022
1867 Clouds 32 1012 68 10000 3.09 150 19:30 07.09.2022
1868 Clouds 31 1014 69 10000 0.89 168 17:22 07.09.2022
1869 Clouds 26 1012 88 10000 0.89 328 12:49 07.09.2022
1870 Clouds 27 1012 86 10000 0.89 5 10:46 07.09.2022
1871 Clouds 26 1013 87 10000 0.89 336 08:36 07.09.2022
1872 Clouds 27 1014 86 10000 0.45 33 06:51 07.09.2022
1873 Clouds 25 1014 91 6000 1.79 71 01:50 07.09.2022
1874 Clouds 32 1012 69 10000 2.57 90 22:35 06.09.2022
1875 Clouds 32 1012 67 10000 3.6 30 21:38 06.09.2022
1876 Clouds 33 1013 63 10000 1.79 120 19:57 06.09.2022
1877 Clouds 32 1014 63 10000 2.68 67 18:42 06.09.2022
1878 Clouds 32 1014 63 10000 3.6 360 17:51 06.09.2022
1879 Clouds 31 1014 66 10000 3.6 30 16:53 06.09.2022
1880 Clouds 30 1015 68 10000 3.6 30 16:26 06.09.2022
1881 Clouds 27 1014 79 10000 1.79 15 14:54 06.09.2022
1882 Clouds 26 1013 87 10000 1.34 2 13:44 06.09.2022
1883 Clouds 26 1013 87 10000 1.34 2 13:44 06.09.2022
1884 Clouds 26 1013 87 10000 1.34 2 13:44 06.09.2022
1885 Clouds 25 1013 89 10000 1.34 337 13:20 06.09.2022
1886 Clouds 24 1013 92 10000 1.77 351 10:57 06.09.2022
1887 Clouds 24 1013 92 10000 1.77 351 10:33 06.09.2022
1888 Clouds 24 1013 90 10000 2.44 319 08:29 06.09.2022
1889 Clouds 25 1014 91 10000 2.49 325 06:58 06.09.2022
1890 Clouds 29 1013 78 10000 2.97 355 01:23 06.09.2022
1891 Clouds 32 1012 68 10000 5.14 360 23:21 05.09.2022
1892 Clouds 33 1012 66 10000 3.09 30 21:50 05.09.2022
1893 Clouds 34 1012 61 10000 5.14 360 20:32 05.09.2022
1894 Clouds 32 1013 65 10000 5.14 30 18:59 05.09.2022
1895 Clouds 32 1013 64 10000 5.14 30 18:38 05.09.2022
1896 Clouds 32 1013 64 10000 5.14 30 18:19 05.09.2022
1897 Clouds 30 1014 72 10000 3.6 20 16:25 05.09.2022
1898 Clouds 29 1014 76 10000 5.14 360 15:23 05.09.2022
1899 Clouds 25 1012 88 10000 1.34 350 13:21 05.09.2022
1900 Clouds 27 1011 83 10000 1.34 344 11:53 05.09.2022
1901 Clear 27 1011 83 10000 1.79 341 08:58 05.09.2022
1902 Clouds 26 1011 94 10000 2.75 347 06:38 05.09.2022
1903 Clouds 28 1011 81 10000 6.17 360 01:35 05.09.2022
1904 Clouds 32 1009 68 10000 5.14 60 22:29 04.09.2022
1905 Clouds 30 1009 74 10000 5.14 30 21:59 04.09.2022
1906 Clouds 31 1010 70 10000 7.72 360 20:35 04.09.2022
1907 Clouds 32 1011 66 10000 6.17 360 18:55 04.09.2022
1908 Clouds 31 1012 69 10000 5.66 20 17:43 04.09.2022
1909 Clouds 30 1012 76 10000 5.14 360 16:28 04.09.2022
1910 Clouds 27 1012 85 10000 3.09 360 14:25 04.09.2022
1911 Clear 27 1011 80 10000 2.24 6 12:52 04.09.2022
1912 Clear 23 1010 86 10000 2.82 352 11:28 04.09.2022
1913 Clear 27 1010 81 10000 1.79 354 09:38 04.09.2022
1914 Clear 27 1012 84 10000 2.68 359 06:40 04.09.2022
1915 Clouds 27 1013 84 10000 3.58 20 03:18 04.09.2022
1916 Clouds 31 1011 67 10000 5.14 360 22:56 03.09.2022
1917 Clouds 31 1010 67 10000 5.14 360 22:18 03.09.2022
1918 Clouds 31 1011 67 8000 5.14 360 21:22 03.09.2022
1919 Clouds 31 1012 70 10000 6.17 360 18:49 03.09.2022
1920 Clouds 30 1013 72 10000 6.17 360 17:22 03.09.2022
1921 Clouds 27 1014 80 10000 4.12 360 15:54 03.09.2022
1922 Clouds 27 1013 83 10000 4.12 360 14:42 03.09.2022
1923 Clouds 25 1013 88 10000 1.34 355 13:50 03.09.2022
1924 Clear 26 1012 85 10000 1.34 346 11:33 03.09.2022
1925 Clear 26 1012 87 10000 1.34 351 09:36 03.09.2022
1926 Clear 26 1013 86 10000 1.79 7 07:54 03.09.2022
1927 Clouds 25 1014 87 10000 4.12 360 04:55 03.09.2022
1928 Clear 26 1014 86 10000 1.34 354 02:49 03.09.2022
1929 Clouds 26 1012 90 6000 5.14 90 23:46 02.09.2022
1930 Clouds 28 1012 81 8000 1.79 99 22:23 02.09.2022
1931 Clouds 30 1012 70 8000 3.09 30 20:42 02.09.2022
1932 Clouds 32 1012 62 8000 3.09 30 20:18 02.09.2022
1933 Clouds 32 1013 66 10000 4.12 360 18:50 02.09.2022
1934 Clouds 31 1013 66 10000 4.12 360 18:25 02.09.2022
1935 Clouds 30 1014 68 10000 3.13 39 17:25 02.09.2022
1936 Clouds 30 1014 73 10000 4.12 360 16:31 02.09.2022
1937 Clouds 24 1013 91 10000 0 0 13:42 02.09.2022
1938 Clouds 24 1012 93 10000 2.87 343 10:57 02.09.2022
1939 Clouds 24 1012 94 10000 2.84 341 09:45 02.09.2022
1940 Clear 22 1012 94 10000 2.7 341 08:46 02.09.2022
1941 Clouds 24 1013 95 10000 2.85 340 06:46 02.09.2022
1942 Clouds 24 1013 95 10000 2.77 346 06:21 02.09.2022
1943 Clouds 29 1012 76 8000 5.14 10 00:20 02.09.2022
1944 Thunderstorm 31 1012 68 10000 3.09 340 21:56 01.09.2022
1945 Thunderstorm 30 1012 69 10000 3.09 340 21:37 01.09.2022
1946 Thunderstorm 30 1013 72 10000 3.09 340 21:18 01.09.2022
1947 Clouds 29 1014 67 10000 1.79 88 19:32 01.09.2022
1948 Clouds 31 1014 68 10000 4.12 360 18:18 01.09.2022
1949 Clouds 30 1015 71 10000 3.6 60 16:51 01.09.2022
1950 Clouds 27 1014 84 10000 1.79 29 14:51 01.09.2022
1951 Clouds 24 1013 93 10000 0 0 13:21 01.09.2022
1952 Clouds 26 1013 85 10000 1.34 10 12:42 01.09.2022
1953 Clouds 26 1013 86 10000 1.34 3 11:50 01.09.2022
1954 Clouds 26 1012 86 10000 1.79 9 11:19 01.09.2022
1955 Clouds 26 1012 84 10000 1.79 344 09:20 01.09.2022
1956 Clouds 26 1014 84 10000 1.79 8 06:28 01.09.2022
1957 Clouds 26 1014 85 10000 1.34 329 02:32 01.09.2022
1958 Clouds 26 1014 85 10000 1.34 344 01:29 01.09.2022
1959 Clouds 28 1014 72 8000 3.6 330 22:22 31.08.2022
1960 Clouds 32 1014 67 10000 2.57 20 20:27 31.08.2022
1961 Clouds 32 1015 62 10000 1.79 110 18:19 31.08.2022
1962 Clouds 30 1017 71 10000 3.09 360 16:32 31.08.2022
1963 Clouds 27 1016 84 10000 1.34 23 14:58 31.08.2022
1964 Clouds 27 1015 83 10000 0.89 351 12:30 31.08.2022
1965 Clouds 27 1015 83 10000 1.34 9 11:38 31.08.2022
1966 Clouds 24 1014 95 10000 1.08 16 09:25 31.08.2022
1967 Clouds 27 1015 79 10000 1.06 7 06:35 31.08.2022
1968 Clouds 29 1014 77 10000 1.34 119 01:25 31.08.2022
1969 Clouds 32 1014 66 10000 5.14 180 21:49 30.08.2022
1970 Clouds 32 1014 65 10000 5.14 180 21:21 30.08.2022
1971 Clouds 31 1016 69 10000 5.14 360 18:53 30.08.2022
1972 Clouds 28 1017 86 10000 1.79 359 15:43 30.08.2022
1973 Clouds 25 1016 88 10000 1.79 352 13:25 30.08.2022
1974 Clouds 27 1015 83 10000 0.89 357 11:22 30.08.2022
1975 Clouds 27 1015 83 10000 0.89 341 10:57 30.08.2022
1976 Clouds 27 1015 83 10000 0.89 341 10:57 30.08.2022
1977 Clouds 24 1015 92 10000 1.44 352 08:46 30.08.2022
1978 Clouds 26 1016 88 10000 0 0 03:33 30.08.2022
1979 Clouds 31 1015 70 10000 3.09 160 23:28 29.08.2022
1980 Clouds 32 1014 67 10000 3.6 120 22:32 29.08.2022
1981 Clouds 32 1014 66 10000 2.57 120 21:27 29.08.2022
1982 Clouds 32 1014 66 10000 2.57 120 21:27 29.08.2022
1983 Clouds 32 1015 64 10000 4.12 90 20:19 29.08.2022
1984 Clouds 31 1016 68 10000 0.89 138 17:58 29.08.2022
1985 Clouds 31 1017 68 10000 1.79 108 17:25 29.08.2022
1986 Clouds 30 1016 70 10000 2.57 360 16:40 29.08.2022
1987 Clouds 28 1016 75 10000 2.24 42 15:18 29.08.2022
1988 Clouds 24 1015 91 10000 0 0 13:23 29.08.2022
1989 Clouds 23 1014 90 10000 2.37 344 11:20 29.08.2022
1990 Clouds 24 1014 91 10000 2.62 346 10:19 29.08.2022
1991 Clouds 24 1014 92 10000 2.41 341 08:37 29.08.2022
1992 Clouds 24 1015 90 10000 0 0 05:36 29.08.2022
1993 Clouds 29 1013 75 8000 5.14 180 00:22 29.08.2022
1994 Clouds 32 1013 66 10000 5.14 190 22:47 28.08.2022
1995 Clouds 32 1013 63 10000 6.69 180 21:44 28.08.2022
1996 Clouds 32 1014 67 10000 5.14 180 20:55 28.08.2022
1997 Clouds 32 1015 68 10000 5.14 120 19:26 28.08.2022
1998 Clouds 32 1016 65 10000 1.79 117 18:21 28.08.2022
1999 Clouds 30 1016 69 10000 1.79 78 17:22 28.08.2022
2000 Clouds 29 1016 75 10000 3.6 60 16:27 28.08.2022
2001 Clouds 26 1015 88 10000 1.34 13 14:41 28.08.2022
2002 Clouds 26 1013 86 10000 0.89 325 12:32 28.08.2022
2003 Clouds 24 1013 94 10000 1.98 340 10:43 28.08.2022
2004 Clouds 26 1013 86 10000 0.89 330 09:49 28.08.2022
2005 Clouds 27 1013 86 10000 0.89 355 08:37 28.08.2022
2006 Clouds 27 1014 86 10000 0.89 329 07:43 28.08.2022
2007 Clouds 26 1013 88 10000 0.89 6 02:39 28.08.2022
2008 Clouds 27 1012 86 10000 0.89 33 00:26 28.08.2022
2009 Clouds 29 1013 78 10000 1.34 120 22:34 27.08.2022
2010 Thunderstorm 29 1013 77 10000 1.79 118 21:28 27.08.2022
2011 Thunderstorm 30 1014 75 10000 2.57 330 19:44 27.08.2022
2012 Clouds 29 1015 78 10000 3.09 140 17:29 27.08.2022
2013 Clouds 27 1015 86 10000 1.34 64 15:53 27.08.2022
2014 Clouds 27 1015 84 10000 1.79 47 15:24 27.08.2022
2015 Clouds 26 1013 83 10000 0.89 355 12:23 27.08.2022
2016 Clouds 26 1013 84 10000 1.34 344 11:25 27.08.2022
2017 Clouds 27 1013 84 10000 1.34 2 09:48 27.08.2022
2018 Clouds 27 1014 84 10000 0.89 11 07:37 27.08.2022
2019 Clouds 27 1014 85 10000 2.57 354 02:34 27.08.2022
2020 Clouds 28 1012 81 8000 1.79 12 23:57 26.08.2022
2021 Clouds 29 1013 77 10000 1.79 15 22:37 26.08.2022
2022 Clouds 29 1013 76 7000 7.2 360 20:42 26.08.2022
2023 Clouds 32 1014 67 10000 3.09 90 19:23 26.08.2022
2024 Clouds 29 1015 73 10000 4.12 360 16:50 26.08.2022
2025 Clouds 28 1015 77 10000 4.12 360 15:31 26.08.2022
2026 Clouds 26 1015 86 10000 0 0 14:29 26.08.2022
2027 Clear 27 1014 83 10000 1.34 353 12:49 26.08.2022
2028 Clear 24 1014 95 10000 2.6 344 11:27 26.08.2022
2029 Clear 24 1014 95 10000 2.5 345 10:29 26.08.2022
2030 Clear 24 1015 94 10000 2.37 346 07:28 26.08.2022
2031 Clouds 29 1015 84 10000 0 0 01:40 26.08.2022
2032 Clouds 30 1014 72 10000 3.6 90 23:32 25.08.2022
2033 Clouds 33 1014 62 10000 2.57 90 21:27 25.08.2022
2034 Clouds 33 1015 61 10000 5.14 60 20:26 25.08.2022
2035 Clouds 31 1015 67 10000 1.79 165 18:53 25.08.2022
2036 Clouds 31 1016 63 10000 2.68 61 17:44 25.08.2022
2037 Clouds 31 1016 64 10000 2.24 72 17:24 25.08.2022
2038 Clouds 28 1016 76 10000 3.13 27 15:39 25.08.2022
2039 Clouds 27 1015 83 10000 1.34 17 14:33 25.08.2022
2040 Clear 23 1015 90 10000 2.54 340 11:53 25.08.2022
2041 Clear 23 1015 90 10000 2.3 339 10:46 25.08.2022
2042 Clear 27 1015 82 10000 0.89 349 08:54 25.08.2022
2043 Clouds 26 1016 86 10000 1.34 5 05:20 25.08.2022
2044 Clouds 30 1015 73 10000 5.14 60 00:59 25.08.2022
2045 Clouds 31 1014 67 10000 6.17 150 23:26 24.08.2022
2046 Clouds 31 1014 69 10000 5.14 180 22:22 24.08.2022
2047 Clouds 32 1014 67 10000 5.14 180 21:34 24.08.2022
2048 Clouds 32 1014 68 10000 5.14 180 20:32 24.08.2022
2049 Clouds 30 1015 72 10000 5.14 150 18:46 24.08.2022
2050 Clouds 29 1016 79 10000 1.79 101 16:28 24.08.2022
2051 Clouds 27 1016 82 10000 0.89 48 15:51 24.08.2022
2052 Clouds 26 1014 87 10000 0.45 200 12:55 24.08.2022
2053 Clouds 26 1014 84 10000 1.34 18 11:24 24.08.2022
2054 Clouds 26 1013 88 10000 0.89 336 09:20 24.08.2022
2055 Clouds 26 1014 87 10000 0.89 327 07:43 24.08.2022
2056 Clouds 27 1013 82 8000 3.09 90 01:43 24.08.2022
2057 Clouds 31 1011 69 10000 5.14 90 22:53 23.08.2022
2058 Clouds 32 1012 68 10000 5.14 90 22:24 23.08.2022
2059 Clouds 31 1012 68 10000 5.14 180 21:22 23.08.2022
2060 Clouds 31 1013 68 10000 2.57 180 19:54 23.08.2022
2061 Clouds 31 1013 66 10000 1.79 158 18:30 23.08.2022
2062 Clouds 31 1014 66 10000 1.34 119 17:46 23.08.2022
2063 Clouds 30 1013 71 10000 2.57 60 16:35 23.08.2022
2064 Clouds 28 1013 81 10000 2.57 40 15:20 23.08.2022
2065 Clouds 24 1012 89 10000 1.34 358 13:25 23.08.2022
2066 Clouds 23 1012 93 10000 1 356 11:21 23.08.2022
2067 Clouds 24 1012 93 10000 1 356 10:35 23.08.2022
2068 Clouds 23 1012 93 10000 1.25 341 09:46 23.08.2022
2069 Clouds 23 1012 94 10000 1.5 357 08:48 23.08.2022
2070 Clouds 26 1013 82 10000 0.89 332 08:20 23.08.2022
2071 Clouds 26 1013 82 10000 1.34 344 07:34 23.08.2022
2072 Clouds 26 1014 84 10000 0.89 358 06:26 23.08.2022
2073 Clouds 26 1013 86 10000 0.89 45 01:55 23.08.2022
2074 Clouds 26 1013 86 10000 0.89 45 01:55 23.08.2022
2075 Clouds 29 1012 77 7000 5.14 60 00:27 23.08.2022
2076 Clouds 32 1012 67 10000 5.14 130 23:32 22.08.2022
2077 Clouds 32 1011 68 10000 5.14 150 22:32 22.08.2022
2078 Clouds 32 1012 63 10000 3.09 180 21:22 22.08.2022
2079 Clouds 31 1013 64 10000 2.57 90 19:47 22.08.2022
2080 Clouds 31 1014 64 10000 2.57 90 18:38 22.08.2022
2081 Clouds 31 1014 64 10000 2.57 90 18:38 22.08.2022
2082 Clouds 29 1014 72 10000 1.79 99 16:26 22.08.2022
2083 Clouds 28 1014 78 10000 2.57 60 15:38 22.08.2022
2084 Clouds 26 1013 85 10000 0.89 357 12:57 22.08.2022
2085 Clouds 24 1013 93 10000 2.54 341 10:20 22.08.2022
2086 Clouds 26 1014 85 10000 2.24 354 07:40 22.08.2022
2087 Clouds 25 1014 87 10000 2.24 9 02:50 22.08.2022
2088 Clouds 26 1014 88 6000 5.14 360 00:37 22.08.2022
2089 Clouds 26 1014 88 6000 5.14 360 00:37 22.08.2022
2090 Clouds 26 1014 89 6000 5.14 360 23:43 21.08.2022
2091 Clouds 30 1013 73 10000 0.89 118 21:57 21.08.2022
2092 Clouds 30 1013 73 10000 0.89 118 21:21 21.08.2022
2093 Clouds 31 1014 72 10000 0.89 104 20:26 21.08.2022
2094 Clouds 29 1015 78 8000 7.2 140 19:18 21.08.2022
2095 Clouds 29 1016 72 10000 4.12 60 16:52 21.08.2022
2096 Clouds 29 1016 76 10000 2.68 46 15:53 21.08.2022
2097 Clouds 27 1015 83 10000 1.34 3 14:59 21.08.2022
2098 Clouds 26 1015 87 10000 2.57 360 13:51 21.08.2022
2099 Clouds 27 1015 83 10000 1.34 336 12:57 21.08.2022
2100 Clouds 27 1014 81 10000 1.34 27 10:48 21.08.2022
2101 Clouds 27 1014 82 10000 1.79 12 09:21 21.08.2022
2102 Clouds 27 1014 82 10000 1.79 15 08:56 21.08.2022
2103 Clouds 27 1014 82 10000 1.79 33 08:38 21.08.2022
2104 Clouds 24 1015 93 10000 2.75 336 06:59 21.08.2022
2105 Clouds 27 1015 84 10000 1.79 354 02:35 21.08.2022
2106 Clouds 30 1014 74 10000 2.57 360 23:35 20.08.2022
2107 Clouds 31 1014 68 10000 5.14 150 21:57 20.08.2022
2108 Clouds 32 1014 66 10000 2.68 123 20:56 20.08.2022
2109 Clouds 31 1015 67 10000 3.09 60 19:49 20.08.2022
2110 Clouds 31 1015 68 10000 2.57 90 18:50 20.08.2022
2111 Clouds 31 1015 67 10000 2.57 90 18:26 20.08.2022
2112 Clouds 30 1016 69 10000 2.68 66 17:21 20.08.2022
2113 Clouds 29 1016 76 10000 2.57 30 16:20 20.08.2022
2114 Clouds 26 1016 87 10000 1.79 6 14:26 20.08.2022
2115 Clear 27 1015 83 10000 1.79 350 11:58 20.08.2022
2116 Clear 27 1015 83 10000 1.79 350 11:58 20.08.2022
2117 Clear 27 1014 83 10000 1.79 353 11:37 20.08.2022
2118 Clear 26 1014 85 10000 1.79 347 09:20 20.08.2022
2119 Clouds 27 1015 84 10000 1.79 4 07:31 20.08.2022
2120 Clouds 25 1015 90 10000 2.24 17 05:22 20.08.2022
2121 Clouds 28 1014 82 10000 2.57 360 00:58 20.08.2022
2122 Clouds 28 1014 78 10000 2.57 60 23:51 19.08.2022
2123 Clouds 29 1014 78 10000 5.14 360 22:45 19.08.2022
2124 Clouds 31 1014 67 7000 2.57 180 21:30 19.08.2022
2125 Clouds 31 1015 66 10000 5.14 180 19:22 19.08.2022
2126 Clouds 30 1016 72 10000 3.6 360 16:23 19.08.2022
2127 Clouds 27 1016 84 10000 1.34 1 13:56 19.08.2022
2128 Clouds 24 1015 94 10000 2.63 344 11:51 19.08.2022
2129 Clouds 27 1015 84 10000 1.34 25 10:33 19.08.2022
2130 Clouds 25 1014 94 10000 2.31 351 08:48 19.08.2022
2131 Thunderstorm 25 1016 92 10000 3.6 20 04:43 19.08.2022
2132 Clouds 29 1013 80 10000 4.12 60 00:42 19.08.2022
2133 Clouds 29 1013 79 10000 4.12 60 00:19 19.08.2022
2134 Clouds 31 1012 75 8000 5.14 180 22:57 18.08.2022
2135 Clouds 31 1012 74 8000 5.14 180 22:23 18.08.2022
2136 Clouds 32 1012 71 10000 5.14 160 21:49 18.08.2022
2137 Clouds 32 1013 70 10000 5.14 170 20:47 18.08.2022
2138 Clouds 31 1013 74 10000 1.34 172 19:35 18.08.2022
2139 Clouds 31 1014 72 10000 2.57 360 18:43 18.08.2022
2140 Clouds 31 1014 70 10000 3.09 30 17:32 18.08.2022
2141 Clouds 29 1015 77 10000 5.14 130 15:53 18.08.2022
2142 Clouds 27 1014 81 10000 2.24 2 14:21 18.08.2022
2143 Clouds 25 1014 88 10000 0 0 13:44 18.08.2022
2144 Clouds 25 1014 93 10000 3 345 12:28 18.08.2022
2145 Clouds 25 1014 94 10000 3.18 344 11:18 18.08.2022
2146 Clouds 25 1013 95 10000 3.17 343 09:43 18.08.2022
2147 Clouds 25 1014 94 10000 3.1 347 07:27 18.08.2022
2148 Clouds 25 1015 88 10000 0 0 05:33 18.08.2022
2149 Clouds 28 1014 76 7000 1.34 105 00:45 18.08.2022
2150 Clouds 32 1013 66 10000 5.14 180 22:28 17.08.2022
2151 Clouds 32 1014 64 10000 2.24 166 20:21 17.08.2022
2152 Clouds 32 1014 64 10000 1.79 160 19:34 17.08.2022
2153 Clouds 32 1016 64 10000 1.34 139 18:32 17.08.2022
2154 Clouds 30 1016 71 10000 2.06 80 16:50 17.08.2022
2155 Clouds 28 1016 75 10000 0.89 20 15:41 17.08.2022
2156 Clouds 26 1015 79 10000 1.34 329 14:29 17.08.2022
2157 Clouds 26 1015 75 10000 0.89 341 12:21 17.08.2022
2158 Clouds 26 1014 80 10000 0.89 321 10:25 17.08.2022
2159 Clouds 26 1014 80 10000 0.89 321 10:25 17.08.2022
2160 Clouds 24 1015 90 10000 1.99 355 08:25 17.08.2022
2161 Clouds 25 1016 85 10000 0.89 313 05:22 17.08.2022
2162 Clouds 30 1014 75 10000 3.09 180 00:46 17.08.2022
2163 Clouds 31 1014 71 10000 5.14 180 22:53 16.08.2022
2164 Clear 31 1014 75 10000 2.24 168 20:59 16.08.2022
2165 Clouds 32 1014 68 10000 5.14 180 19:55 16.08.2022
2166 Clouds 32 1015 67 10000 5.14 180 19:22 16.08.2022
2167 Clouds 31 1016 73 10000 4.12 180 17:54 16.08.2022
2168 Clouds 29 1016 75 10000 1.34 147 16:35 16.08.2022
2169 Clouds 28 1015 81 10000 1.34 120 15:44 16.08.2022
2170 Clouds 28 1015 81 10000 1.34 120 15:44 16.08.2022
2171 Clouds 27 1015 86 10000 0.45 83 14:54 16.08.2022
2172 Clouds 27 1015 86 10000 0.45 345 14:36 16.08.2022
2173 Clear 23 1014 93 10000 1.19 314 11:40 16.08.2022
2174 Clear 24 1014 93 10000 0.94 344 09:58 16.08.2022
2175 Clear 24 1014 93 10000 0.87 348 08:49 16.08.2022
2176 Clear 24 1014 91 10000 0.85 327 08:19 16.08.2022
2177 Clouds 26 1015 85 10000 0.89 7 05:28 16.08.2022
2178 Clouds 30 1013 73 10000 3.09 20 23:27 15.08.2022
2179 Clouds 31 1013 68 10000 5.14 150 22:20 15.08.2022
2180 Clouds 32 1013 64 10000 5.14 180 21:43 15.08.2022
2181 Clouds 32 1013 62 10000 2.57 180 20:31 15.08.2022
2182 Clouds 32 1014 66 10000 2.57 360 18:57 15.08.2022
2183 Clouds 32 1015 65 10000 2.57 360 17:59 15.08.2022
2184 Clouds 30 1015 75 10000 3.09 20 16:24 15.08.2022
2185 Clouds 27 1015 82 10000 0.89 345 14:49 15.08.2022
2186 Clear 26 1014 83 10000 0.89 349 13:23 15.08.2022
2187 Clear 23 1013 91 10000 1.74 347 10:37 15.08.2022
2188 Clear 24 1014 89 10000 1.26 350 08:54 15.08.2022
2189 Clouds 27 1015 82 10000 1.63 30 06:49 15.08.2022
2190 Clouds 26 1015 89 10000 0 0 03:56 15.08.2022
2191 Clouds 32 1013 65 10000 5.14 180 23:38 14.08.2022
2192 Clouds 32 1013 65 10000 2.06 90 21:48 14.08.2022
2193 Clouds 32 1014 63 10000 3.09 360 20:41 14.08.2022
2194 Clouds 32 1015 63 10000 3.6 40 19:45 14.08.2022
2195 Clouds 32 1015 63 10000 6.17 360 18:32 14.08.2022
2196 Clouds 32 1015 63 10000 6.17 360 18:32 14.08.2022
2197 Clouds 31 1016 65 10000 1.79 27 17:37 14.08.2022
2198 Clouds 30 1016 69 10000 3.6 360 16:23 14.08.2022
2199 Clouds 29 1016 74 10000 4.12 360 15:43 14.08.2022
2200 Clouds 26 1015 86 10000 1.79 11 13:52 14.08.2022
2201 Clouds 25 1015 87 10000 1.34 335 13:33 14.08.2022
2202 Clouds 26 1015 84 10000 1.34 328 12:45 14.08.2022
2203 Clouds 26 1015 81 10000 1.34 1 11:30 14.08.2022
2204 Clouds 24 1015 90 10000 1.89 357 09:34 14.08.2022
2205 Clear 25 1016 88 10000 1.51 1 06:53 14.08.2022
2206 Clouds 26 1016 83 10000 0 0 05:45 14.08.2022
2207 Clouds 29 1015 72 10000 2.57 150 01:43 14.08.2022
2208 Clouds 31 1014 65 10000 2.57 180 23:22 13.08.2022
2209 Clouds 32 1014 66 10000 2.57 180 22:28 13.08.2022
2210 Clouds 32 1015 64 10000 2.57 90 20:51 13.08.2022
2211 Clouds 32 1016 67 10000 1.79 139 19:49 13.08.2022
2212 Clouds 32 1017 66 10000 1.79 148 19:18 13.08.2022
2213 Clouds 31 1017 69 10000 1.79 120 17:21 13.08.2022
2214 Clouds 27 1017 83 10000 1.34 52 14:51 13.08.2022
2215 Clouds 26 1017 85 10000 1.79 41 14:24 13.08.2022
2216 Clouds 25 1016 91 10000 0 0 13:34 13.08.2022
2217 Clouds 24 1016 94 10000 1.85 344 11:33 13.08.2022
2218 Clear 23 1015 92 10000 1.36 341 09:26 13.08.2022
2219 Clouds 25 1015 91 10000 1.26 350 07:43 13.08.2022
2220 Clouds 26 1014 83 10000 0 0 01:52 13.08.2022
2221 Clouds 28 1014 75 10000 4.12 160 23:32 12.08.2022
2222 Clouds 29 1015 75 10000 4.12 90 21:39 12.08.2022
2223 Clouds 29 1016 73 10000 3.09 30 19:49 12.08.2022
2224 Clouds 29 1016 70 10000 3.09 30 19:23 12.08.2022
2225 Clouds 30 1016 73 10000 1.79 70 18:26 12.08.2022
2226 Clouds 28 1017 77 9867 1.34 90 16:27 12.08.2022
2227 Clouds 27 1016 80 10000 3.09 360 15:21 12.08.2022
2228 Clouds 25 1016 87 10000 2.24 21 13:47 12.08.2022
2229 Clouds 26 1015 84 10000 1.34 13 12:32 12.08.2022
2230 Clouds 26 1015 83 10000 1.34 324 08:57 12.08.2022
2231 Clouds 24 1015 93 10000 2.26 335 07:46 12.08.2022
2232 Clouds 26 1016 84 10000 1.34 339 06:23 12.08.2022
2233 Clouds 28 1014 81 10000 5.14 90 00:32 12.08.2022
2234 Clouds 29 1014 77 10000 5.14 90 23:58 11.08.2022
2235 Clouds 30 1014 72 10000 5.14 90 23:22 11.08.2022
2236 Clouds 32 1014 64 10000 4.12 30 21:53 11.08.2022
2237 Clouds 32 1014 62 10000 4.12 30 21:28 11.08.2022
2238 Clouds 33 1014 58 10000 1.34 147 20:31 11.08.2022
2239 Clouds 32 1015 62 10000 1.79 153 19:33 11.08.2022
2240 Clouds 32 1016 64 10000 1.34 144 18:56 11.08.2022
2241 Clouds 30 1016 70 10000 3.6 60 16:47 11.08.2022
2242 Clouds 28 1016 76 10000 2.57 360 15:43 11.08.2022
2243 Clouds 27 1016 82 10000 1.34 353 14:36 11.08.2022
2244 Clouds 26 1015 84 10000 1.34 346 11:59 11.08.2022
2245 Clouds 24 1015 93 10000 2.43 341 09:22 11.08.2022
2246 Clouds 26 1016 87 10000 2.29 345 06:49 11.08.2022
2247 Clouds 26 1017 85 10000 3.73 11 02:38 11.08.2022
2248 Clouds 31 1015 65 10000 3.6 90 23:41 10.08.2022
2249 Clouds 28 1016 80 10000 1.79 76 21:47 10.08.2022
2250 Clouds 30 1016 63 10000 2.57 360 20:56 10.08.2022
2251 Clouds 33 1016 55 10000 2.57 360 20:35 10.08.2022
2252 Clouds 31 1017 66 10000 3.6 30 18:48 10.08.2022
2253 Clouds 30 1018 70 10000 4.12 20 17:27 10.08.2022
2254 Clouds 27 1018 80 10000 1.34 352 14:36 10.08.2022
2255 Clouds 26 1017 83 10000 0.89 353 13:32 10.08.2022
2256 Clear 26 1016 80 10000 1.79 2 10:47 10.08.2022
2257 Clear 26 1016 81 10000 1.79 6 08:37 10.08.2022
2258 Clouds 27 1017 81 10000 2.24 3 07:23 10.08.2022
2259 Clouds 26 1017 82 10000 3.09 360 04:50 10.08.2022
2260 Clouds 30 1015 69 10000 6.69 50 00:50 10.08.2022
2261 Clouds 32 1015 62 10000 5.14 60 23:29 09.08.2022
2262 Clouds 32 1015 65 10000 4.12 30 21:41 09.08.2022
2263 Clouds 32 1015 66 10000 4.12 30 21:22 09.08.2022
2264 Clouds 32 1016 64 10000 5.14 30 19:18 09.08.2022
2265 Clouds 31 1018 68 10000 5.14 30 17:37 09.08.2022
2266 Clouds 31 1018 69 10000 5.14 30 17:19 09.08.2022
2267 Clouds 30 1018 73 10000 4.12 360 16:22 09.08.2022
2268 Clouds 28 1018 77 10000 2.68 31 15:23 09.08.2022
2269 Clouds 25 1017 92 10000 3.08 343 11:30 09.08.2022
2270 Clouds 25 1016 94 10000 3.46 11 08:53 09.08.2022
2271 Clouds 27 1015 82 10000 2.24 4 07:58 09.08.2022
2272 Clouds 26 1016 87 10000 1.79 6 05:24 09.08.2022
2273 Thunderstorm 28 1014 80 10000 2.24 14 00:59 09.08.2022
2274 Clouds 27 1014 79 8000 1.79 338 23:24 08.08.2022
2275 Thunderstorm 31 1014 75 10000 2.57 360 22:40 08.08.2022
2276 Clouds 31 1014 75 8000 5.14 180 21:44 08.08.2022
2277 Clouds 30 1014 78 8000 4.12 150 20:39 08.08.2022
2278 Clouds 32 1015 71 10000 3.09 90 19:35 08.08.2022
2279 Clouds 31 1015 67 10000 3.6 60 18:18 08.08.2022
2280 Clouds 28 1016 81 10000 2.57 360 15:48 08.08.2022
2281 Clouds 28 1016 83 10000 2.57 360 15:28 08.08.2022
2282 Clouds 24 1016 93 10000 2.98 351 12:30 08.08.2022
2283 Clouds 27 1013 85 10000 2.24 15 10:28 08.08.2022
2284 Clouds 27 1014 84 10000 2.24 1 07:51 08.08.2022
2285 Clouds 25 1015 88 10000 4.12 30 03:42 08.08.2022
2286 Clouds 28 1014 79 10000 5.14 10 23:28 07.08.2022
2287 Clouds 29 1014 74 10000 3.6 350 21:41 07.08.2022
2288 Clouds 29 1015 74 10000 5.14 40 20:55 07.08.2022
2289 Clouds 29 1015 73 10000 5.14 40 20:18 07.08.2022
2290 Clouds 29 1016 73 10000 5.14 30 19:51 07.08.2022
2291 Clouds 30 1017 70 10000 6.17 360 18:41 07.08.2022
2292 Clouds 28 1017 76 10000 5.14 360 17:21 07.08.2022
2293 Clouds 28 1017 77 10000 5.14 10 16:41 07.08.2022
2294 Clouds 28 1017 80 10000 5.14 360 15:26 07.08.2022
2295 Clouds 25 1016 89 8000 2.68 353 13:47 07.08.2022
2296 Clouds 26 1016 85 10000 2.24 359 12:19 07.08.2022
2297 Clouds 26 1015 85 10000 1.34 351 10:42 07.08.2022
2298 Clouds 26 1015 85 10000 2.24 357 09:35 07.08.2022
2299 Clouds 25 1017 89 10000 1.79 20 04:33 07.08.2022
2300 Clouds 26 1015 88 8000 1.34 342 01:58 07.08.2022
2301 Clouds 29 1015 77 8000 0 0 22:30 06.08.2022
2302 Clouds 28 1015 81 8000 0.45 310 21:43 06.08.2022
2303 Clouds 30 1016 71 8000 5.14 280 19:42 06.08.2022
2304 Clouds 31 1016 69 10000 5.14 60 18:33 06.08.2022
2305 Clouds 31 1017 66 10000 5.14 30 17:39 06.08.2022
2306 Clouds 28 1017 79 10000 3.09 30 15:21 06.08.2022
2307 Clouds 26 1016 88 10000 1.79 357 13:50 06.08.2022
2308 Clouds 26 1015 85 10000 1.34 5 12:21 06.08.2022
2309 Clouds 26 1015 84 10000 1.34 356 10:37 06.08.2022
2310 Clouds 26 1015 83 10000 1.79 357 09:21 06.08.2022
2311 Clouds 25 1016 87 10000 3.09 360 03:55 06.08.2022
2312 Clouds 27 1014 84 10000 1.79 350 00:27 06.08.2022
2313 Clouds 28 1014 82 10000 2.57 330 22:34 05.08.2022
2314 Clouds 30 1015 74 8000 6.17 30 20:30 05.08.2022
2315 Clouds 29 1015 73 10000 2.57 60 18:53 05.08.2022
2316 Clouds 31 1016 66 10000 2.57 60 18:35 05.08.2022
2317 Clouds 29 1016 72 10000 5.14 360 16:51 05.08.2022
2318 Clouds 28 1016 79 10000 5.14 20 15:23 05.08.2022
2319 Clouds 27 1016 84 10000 2.68 17 14:34 05.08.2022
2320 Clouds 25 1015 89 10000 0 0 13:26 05.08.2022
2321 Clouds 26 1015 85 10000 1.79 4 12:45 05.08.2022
2322 Clouds 26 1015 86 10000 1.34 357 10:59 05.08.2022
2323 Clouds 23 1015 95 10000 3.33 334 08:46 05.08.2022
2324 Clouds 24 1015 95 10000 3.38 339 07:33 05.08.2022
2325 Clouds 25 1016 92 8000 1.79 342 01:52 05.08.2022
2326 Clouds 28 1015 77 10000 1.34 289 22:43 04.08.2022
2327 Clouds 28 1015 79 8000 0.89 157 21:28 04.08.2022
2328 Clouds 29 1016 72 10000 0.45 313 20:53 04.08.2022
2329 Clouds 29 1016 71 10000 1.34 327 20:33 04.08.2022
2330 Clouds 31 1016 71 10000 5.14 60 18:57 04.08.2022
2331 Clouds 31 1017 65 10000 5.14 60 18:33 04.08.2022
2332 Clouds 27 1017 85 10000 2.68 55 14:50 04.08.2022
2333 Clouds 24 1016 91 10000 0 0 13:23 04.08.2022
2334 Clouds 23 1015 91 10000 2.73 339 11:38 04.08.2022
2335 Clouds 23 1015 91 10000 2.64 340 10:20 04.08.2022
2336 Clouds 24 1015 91 10000 1.87 334 07:44 04.08.2022
2337 Clouds 27 1016 77 10000 2.24 37 02:46 04.08.2022
2338 Clouds 29 1014 69 10000 4.12 50 23:58 03.08.2022
2339 Clouds 29 1014 68 10000 4.12 50 23:36 03.08.2022
2340 Clouds 29 1015 68 8000 6.17 20 21:26 03.08.2022
2341 Clouds 32 1015 63 10000 5.14 190 20:20 03.08.2022
2342 Clouds 31 1016 66 10000 2.57 150 18:53 03.08.2022
2343 Clouds 30 1016 68 10000 2.57 60 16:27 03.08.2022
2344 Clouds 28 1016 77 10000 2.24 57 15:53 03.08.2022
2345 Clouds 25 1015 88 10000 1.34 2 13:38 03.08.2022
2346 Clouds 23 1014 92 10000 2.24 359 10:44 03.08.2022
2347 Clouds 24 1015 93 10000 1.92 325 07:21 03.08.2022
2348 Clouds 24 1015 91 10000 0 0 04:22 03.08.2022
2349 Clouds 27 1015 80 10000 1.34 351 03:22 03.08.2022
2350 Clouds 26 1014 80 10000 0 0 00:46 03.08.2022
2351 Clouds 27 1015 83 8000 0 0 22:33 02.08.2022
2352 Clouds 28 1015 78 7000 4.12 360 21:50 02.08.2022
2353 Clouds 32 1015 62 10000 0 0 20:27 02.08.2022
2354 Clouds 29 1017 72 10000 4.12 360 16:52 02.08.2022
2355 Clouds 26 1017 86 10000 4.12 20 14:33 02.08.2022
2356 Clouds 24 1016 79 10000 3.12 341 10:44 02.08.2022
2357 Clouds 25 1016 80 10000 3.41 342 08:36 02.08.2022
2358 Clouds 26 1016 80 10000 3.05 343 07:51 02.08.2022
2359 Clouds 26 1017 87 10000 0 0 04:56 02.08.2022
2360 Clear 28 1017 77 10000 4.01 16 02:30 02.08.2022
2361 Clouds 33 1016 62 10000 5.14 30 23:26 01.08.2022
2362 Clouds 32 1017 65 10000 3.09 20 21:48 01.08.2022
2363 Clouds 34 1018 58 10000 3.6 360 20:27 01.08.2022
2364 Clouds 31 1019 64 10000 5.14 360 18:56 01.08.2022
2365 Clouds 29 1019 73 10000 5.14 10 16:59 01.08.2022
2366 Clouds 29 1019 73 10000 5.14 10 16:39 01.08.2022
2367 Clouds 28 1019 78 10000 2.57 330 15:45 01.08.2022
2368 Clouds 26 1019 87 10000 5.14 360 14:57 01.08.2022
2369 Clouds 25 1020 92 10000 2.57 360 13:32 01.08.2022
2370 Clouds 25 1018 93 10000 3.07 352 11:18 01.08.2022
2371 Clouds 25 1018 92 10000 3.22 353 08:55 01.08.2022
2372 Clouds 25 1018 92 10000 3.46 355 07:37 01.08.2022
2373 Clouds 25 1020 91 10000 0 0 04:37 01.08.2022
2374 Clouds 25 1018 89 10000 0 0 01:33 01.08.2022
2375 Clouds 32 1017 65 10000 5.14 180 22:47 31.07.2022
2376 Clouds 32 1017 64 10000 5.14 180 22:29 31.07.2022
2377 Clouds 33 1018 60 10000 4.12 90 20:39 31.07.2022
2378 Clouds 32 1019 65 10000 4.12 40 18:40 31.07.2022
2379 Clouds 30 1019 71 10000 3.09 60 16:55 31.07.2022
2380 Clouds 27 1019 84 10000 3.09 10 14:38 31.07.2022
2381 Clouds 23 1018 96 10000 2.47 352 12:59 31.07.2022
2382 Clouds 23 1018 96 10000 2.61 349 11:39 31.07.2022
2383 Clouds 25 1017 96 10000 2.8 344 08:47 31.07.2022
2384 Clouds 25 1018 92 10000 0 0 05:38 31.07.2022
2385 Clouds 25 1017 90 10000 0 0 01:21 31.07.2022
2386 Clouds 25 1016 94 10000 2.63 38 22:49 30.07.2022
2387 Thunderstorm 27 1016 85 10000 0 0 21:52 30.07.2022
2388 Thunderstorm 27 1016 86 10000 0 0 21:33 30.07.2022
2389 Clouds 28 1017 80 6000 3.09 30 20:33 30.07.2022
2390 Clouds 30 1017 79 8000 5.14 360 19:50 30.07.2022
2391 Clouds 31 1018 67 8000 5.14 350 18:19 30.07.2022
2392 Clouds 30 1018 75 10000 4.88 31 16:38 30.07.2022
2393 Clouds 28 1018 78 10000 6.17 60 15:33 30.07.2022
2394 Clouds 25 1017 88 10000 2.57 360 13:23 30.07.2022
2395 Clear 24 1017 93 10000 3.35 337 12:22 30.07.2022
2396 Clear 24 1017 93 10000 3.35 337 11:51 30.07.2022
2397 Clear 24 1016 94 10000 3.22 339 10:19 30.07.2022
2398 Clear 24 1016 94 10000 3.25 338 08:54 30.07.2022
2399 Clear 24 1018 94 10000 3.01 342 06:58 30.07.2022
2400 Clear 27 1017 82 10000 3.48 18 02:33 30.07.2022
2401 Clouds 27 1015 86 8000 2.57 270 23:57 29.07.2022
2402 Clouds 29 1016 74 8000 0 0 21:37 29.07.2022
2403 Clouds 32 1016 61 10000 5.14 20 20:50 29.07.2022
2404 Clouds 31 1017 65 10000 5.66 30 19:46 29.07.2022
2405 Clouds 31 1018 66 10000 2.57 60 17:25 29.07.2022
2406 Clouds 26 1017 82 10000 0 0 14:48 29.07.2022
2407 Clear 23 1017 86 10000 2.89 347 12:42 29.07.2022
2408 Clear 23 1016 86 10000 2.83 343 08:52 29.07.2022
2409 Clouds 23 1016 86 10000 2.65 343 08:23 29.07.2022
2410 Clouds 25 1017 85 10000 2.24 2 05:19 29.07.2022
2411 Clouds 27 1015 78 8000 3.09 360 23:59 28.07.2022
2412 Clouds 30 1015 69 7000 5.14 80 21:39 28.07.2022
2413 Clouds 30 1015 68 8000 5.14 160 20:54 28.07.2022
2414 Clouds 30 1015 66 8000 5.14 160 20:18 28.07.2022
2415 Clouds 30 1015 65 10000 5.14 90 19:40 28.07.2022
2416 Clouds 30 1016 67 10000 3.09 90 18:19 28.07.2022
2417 Clear 30 1016 68 10000 2.68 94 17:36 28.07.2022
2418 Clouds 28 1016 73 10000 5.14 360 16:41 28.07.2022
2419 Clouds 24 1016 86 10000 0 0 14:28 28.07.2022
2420 Clouds 25 1015 83 10000 1.79 350 12:41 28.07.2022
2421 Clouds 23 1015 92 10000 2.89 343 09:21 28.07.2022
2422 Clouds 24 1017 88 10000 0 0 05:41 28.07.2022
2423 Clouds 24 1017 88 10000 0 0 05:21 28.07.2022
2424 Clouds 29 1015 70 10000 5.14 90 23:41 27.07.2022
2425 Clouds 29 1015 67 10000 2.24 9 21:31 27.07.2022
2426 Clouds 27 1017 74 7000 2.57 30 20:19 27.07.2022
2427 Clouds 30 1016 62 10000 5.14 60 19:26 27.07.2022
2428 Clear 29 1017 72 10000 1.79 59 16:32 27.07.2022
2429 Clouds 28 1017 74 10000 5.14 360 15:51 27.07.2022
2430 Clouds 27 1017 84 10000 2.68 26 14:42 27.07.2022
2431 Clouds 25 1016 87 10000 2.24 6 13:45 27.07.2022
2432 Clear 26 1016 84 10000 1.79 338 10:39 27.07.2022
2433 Clouds 27 1017 82 10000 2.68 1 07:53 27.07.2022
2434 Clouds 25 1018 90 10000 0 0 04:54 27.07.2022
2435 Clouds 31 1015 69 10000 1.34 130 23:25 26.07.2022
2436 Clouds 32 1015 66 10000 5.14 180 22:19 26.07.2022
2437 Clouds 32 1016 65 10000 5.14 40 20:58 26.07.2022
2438 Clouds 33 1017 58 10000 2.68 66 19:32 26.07.2022
2439 Clouds 31 1017 62 10000 5.14 60 18:40 26.07.2022
2440 Clouds 31 1018 64 10000 4.12 360 17:54 26.07.2022
2441 Clouds 29 1018 77 10000 2.57 30 15:43 26.07.2022
2442 Clouds 27 1017 83 10000 4.12 360 14:43 26.07.2022
2443 Clouds 23 1018 93 10000 2.8 350 12:33 26.07.2022
2444 Clouds 23 1017 96 10000 2.59 335 10:20 26.07.2022
2445 Clouds 24 1017 97 10000 2.26 349 08:27 26.07.2022
2446 Clouds 26 1016 87 10000 3.58 22 01:52 26.07.2022
2447 Clouds 26 1016 87 10000 3.13 17 00:20 26.07.2022
2448 Clouds 29 1015 78 10000 2.57 90 22:40 25.07.2022
2449 Clouds 29 1015 78 10000 2.57 90 22:40 25.07.2022
2450 Clouds 30 1015 75 10000 1.79 122 21:43 25.07.2022
2451 Clouds 30 1015 75 8000 3.09 360 20:43 25.07.2022
2452 Clouds 30 1015 73 8000 3.09 360 20:23 25.07.2022
2453 Clouds 31 1016 68 8000 2.57 90 19:24 25.07.2022
2454 Clouds 30 1016 71 10000 2.57 20 17:37 25.07.2022
2455 Clouds 29 1016 75 10000 3.09 30 16:44 25.07.2022
2456 Clouds 24 1016 89 10000 0.89 1 13:22 25.07.2022
2457 Clear 25 1015 85 10000 0.89 325 10:48 25.07.2022
2458 Clouds 26 1015 86 10000 1.79 44 07:32 25.07.2022
2459 Clouds 25 1014 87 10000 4.12 360 00:57 25.07.2022
2460 Clouds 26 1014 83 10000 2.57 30 23:45 24.07.2022
2461 Clouds 27 1014 77 10000 1.79 5 22:44 24.07.2022
2462 Clouds 27 1014 77 7000 2.57 330 21:41 24.07.2022
2463 Clouds 28 1014 75 10000 5.14 30 20:58 24.07.2022
2464 Clouds 28 1014 74 10000 5.14 30 20:37 24.07.2022
2465 Clouds 29 1014 71 10000 3.6 300 19:18 24.07.2022
2466 Clouds 29 1015 70 10000 3.6 60 17:56 24.07.2022
2467 Clouds 28 1016 75 10000 2.68 7 15:54 24.07.2022
2468 Clouds 27 1016 79 10000 2.24 22 14:41 24.07.2022
2469 Clouds 26 1015 85 10000 2.24 4 13:47 24.07.2022
2470 Clouds 26 1015 81 10000 1.34 336 12:27 24.07.2022
2471 Clouds 26 1015 81 10000 1.79 336 11:30 24.07.2022
2472 Clouds 24 1015 93 10000 3.16 335 09:44 24.07.2022
2473 Clouds 24 1015 93 10000 3.23 346 07:53 24.07.2022
2474 Clouds 24 1015 91 10000 3.31 349 07:26 24.07.2022
2475 Clouds 28 1015 74 10000 3.09 30 02:57 24.07.2022
2476 Clouds 31 1014 59 10000 4.02 44 22:52 23.07.2022
2477 Clouds 32 1015 60 10000 6.17 30 20:47 23.07.2022
2478 Clouds 30 1016 68 10000 4.92 65 19:25 23.07.2022
2479 Clouds 31 1016 63 10000 5.14 60 18:18 23.07.2022
2480 Clouds 30 1016 66 10000 6.69 60 17:27 23.07.2022
2481 Clouds 30 1017 71 10000 5.14 20 16:22 23.07.2022
2482 Clouds 29 1017 74 10000 5.14 360 15:21 23.07.2022
2483 Clouds 27 1017 81 10000 2.57 360 14:52 23.07.2022
2484 Clouds 27 1017 83 10000 2.57 360 14:21 23.07.2022
2485 Clouds 24 1016 95 10000 2.9 341 11:56 23.07.2022
2486 Clouds 24 1016 95 10000 2.97 345 10:41 23.07.2022
2487 Clouds 24 1016 95 10000 3.04 351 09:38 23.07.2022
2488 Clouds 26 1017 87 10000 2.9 355 07:18 23.07.2022
2489 Clouds 25 1017 91 10000 0 0 03:37 23.07.2022
2490 Clouds 28 1016 80 8000 0.89 331 00:34 23.07.2022
2491 Clouds 31 1016 67 10000 5.14 180 21:33 22.07.2022
2492 Clouds 31 1016 68 10000 5.14 180 20:31 22.07.2022
2493 Clouds 31 1017 73 10000 3.13 117 18:42 22.07.2022
2494 Clouds 31 1017 71 10000 2.24 118 17:40 22.07.2022
2495 Clouds 28 1017 80 10000 1.79 96 15:48 22.07.2022
2496 Clouds 25 1017 95 4618 1.79 8 12:47 22.07.2022
2497 Clouds 26 1015 87 10000 1.34 1 10:22 22.07.2022
2498 Clouds 26 1015 87 10000 1.34 5 09:21 22.07.2022
2499 Clouds 26 1015 86 10000 1.34 355 07:57 22.07.2022
2500 Clouds 24 1017 93 10000 1.34 18 04:23 22.07.2022
2501 Clouds 26 1016 89 10000 2.57 330 23:43 21.07.2022
2502 Clouds 26 1014 90 10000 2.28 56 21:51 21.07.2022
2503 Clouds 28 1016 80 6000 5.14 120 19:45 21.07.2022
2504 Clouds 32 1016 62 10000 5.14 50 18:36 21.07.2022
2505 Clouds 31 1016 68 10000 2.57 60 17:22 21.07.2022
2506 Clouds 30 1016 73 10000 5.14 30 16:23 21.07.2022
2507 Clouds 27 1016 84 10000 2.24 18 14:46 21.07.2022
2508 Clouds 26 1016 87 10000 2.24 5 13:53 21.07.2022
2509 Clouds 24 1016 93 10000 2.74 341 11:54 21.07.2022
2510 Clouds 24 1015 92 10000 2.47 346 10:20 21.07.2022
2511 Clouds 25 1015 92 10000 2.6 344 08:53 21.07.2022
2512 Clouds 25 1015 92 10000 2.6 344 08:53 21.07.2022
2513 Clouds 27 1016 83 10000 1.79 340 07:50 21.07.2022
2514 Clouds 27 1017 83 10000 1.79 15 06:27 21.07.2022
2515 Clouds 27 1015 79 10000 3.6 360 02:49 21.07.2022
2516 Clouds 31 1014 63 10000 5.14 180 22:47 20.07.2022
2517 Clouds 32 1014 63 10000 5.14 180 22:19 20.07.2022
2518 Clouds 31 1014 65 8000 2.57 150 20:46 20.07.2022
2519 Clouds 32 1015 66 10000 3.6 360 19:46 20.07.2022
2520 Clouds 32 1016 64 10000 1.34 171 18:54 20.07.2022
2521 Clouds 32 1016 64 10000 1.79 119 18:31 20.07.2022
2522 Clouds 31 1016 67 10000 2.57 90 17:25 20.07.2022
2523 Clouds 28 1016 76 10000 2.57 360 15:33 20.07.2022
2524 Clouds 26 1016 83 10000 2.68 15 14:36 20.07.2022
2525 Clouds 26 1016 80 10000 1.34 11 12:54 20.07.2022
2526 Clouds 27 1016 81 10000 1.34 31 10:57 20.07.2022
2527 Clouds 26 1017 85 10000 1.79 2 06:21 20.07.2022
2528 Clouds 27 1016 83 10000 1.34 351 01:40 20.07.2022
2529 Clouds 28 1016 78 10000 2.06 30 00:41 20.07.2022
2530 Clouds 28 1016 79 10000 2.57 360 22:36 19.07.2022
2531 Clouds 30 1016 72 10000 3.6 30 21:54 19.07.2022
2532 Clouds 32 1016 66 10000 1.34 135 20:49 19.07.2022
2533 Clouds 31 1017 62 10000 1.79 151 19:22 19.07.2022
2534 Clouds 31 1017 65 10000 1.34 156 18:41 19.07.2022
2535 Clouds 31 1018 65 10000 3.6 60 17:53 19.07.2022
2536 Clouds 28 1018 76 10000 2.24 74 15:27 19.07.2022
2537 Clouds 25 1018 89 10000 1.79 12 13:37 19.07.2022
2538 Clear 26 1017 83 10000 1.34 356 11:33 19.07.2022
2539 Clear 26 1017 84 10000 1.34 357 09:52 19.07.2022
2540 Clear 26 1017 84 10000 1.34 353 08:47 19.07.2022
2541 Clouds 26 1017 83 10000 1.34 3 07:46 19.07.2022
2542 Clouds 26 1017 83 10000 1.34 345 07:18 19.07.2022
2543 Clouds 25 1017 87 10000 1.34 342 05:18 19.07.2022
2544 Clouds 26 1017 82 10000 1.79 344 02:38 19.07.2022
2545 Clouds 27 1016 85 7000 4.12 360 23:54 18.07.2022
2546 Clouds 27 1016 85 7000 4.12 360 23:20 18.07.2022
2547 Clouds 28 1016 79 6000 5.14 360 22:26 18.07.2022
2548 Clouds 30 1015 62 10000 3.66 151 21:24 18.07.2022
2549 Clouds 31 1017 66 8000 6.17 180 20:34 18.07.2022
2550 Clouds 30 1017 69 10000 3.09 30 18:31 18.07.2022
2551 Clouds 29 1018 73 10000 5.14 360 16:34 18.07.2022
2552 Clouds 28 1018 78 10000 4.12 360 15:28 18.07.2022
2553 Clouds 25 1018 87 10000 3.6 360 13:32 18.07.2022
2554 Clouds 26 1017 81 10000 2.24 12 11:43 18.07.2022
2555 Clouds 23 1017 89 10000 3.33 344 09:55 18.07.2022
2556 Clear 27 1018 81 10000 2.68 6 07:58 18.07.2022
2557 Clouds 25 1018 83 10000 0 0 05:25 18.07.2022
2558 Clouds 32 1015 60 10000 5.14 60 22:57 17.07.2022
2559 Clouds 32 1015 60 10000 5.14 60 22:31 17.07.2022
2560 Clouds 32 1015 61 10000 3.13 112 21:39 17.07.2022
2561 Clouds 32 1016 62 10000 5.14 40 20:46 17.07.2022
2562 Clouds 31 1016 64 10000 5.14 30 19:50 17.07.2022
2563 Clouds 31 1016 63 10000 5.14 30 19:21 17.07.2022
2564 Clouds 31 1018 64 10000 5.14 30 17:43 17.07.2022
2565 Clouds 31 1017 65 10000 5.14 30 17:25 17.07.2022
2566 Clouds 30 1017 71 10000 5.14 360 16:32 17.07.2022
2567 Clouds 28 1017 76 10000 5.14 20 15:49 17.07.2022
2568 Clouds 26 1017 87 10000 2.57 300 13:51 17.07.2022
2569 Clouds 25 1017 94 10000 2.63 346 12:42 17.07.2022
2570 Clouds 25 1016 95 10000 2.62 344 10:19 17.07.2022
2571 Clear 26 1017 93 10000 2.54 338 06:59 17.07.2022
2572 Clouds 29 1016 75 10000 1.79 41 02:34 17.07.2022
2573 Clouds 29 1016 75 10000 1.79 41 02:34 17.07.2022
2574 Clouds 31 1014 65 10000 4.12 180 23:23 16.07.2022
2575 Clouds 32 1014 63 10000 3.6 180 22:20 16.07.2022
2576 Clouds 32 1015 64 10000 5.14 180 20:29 16.07.2022
2577 Clouds 31 1016 67 10000 3.13 111 18:54 16.07.2022
2578 Clouds 31 1017 67 10000 3.58 114 17:38 16.07.2022
2579 Clouds 28 1016 80 10000 2.57 60 15:54 16.07.2022
2580 Clouds 24 1016 95 10000 2.24 348 12:26 16.07.2022
2581 Clouds 24 1015 94 10000 2.71 352 10:18 16.07.2022
2582 Clouds 24 1015 94 10000 2.75 348 09:25 16.07.2022
2583 Clouds 24 1015 94 10000 2.75 348 08:40 16.07.2022
2584 Clouds 25 1017 95 10000 2.52 349 06:57 16.07.2022
2585 Clouds 26 1016 86 10000 1.79 12 03:32 16.07.2022
2586 Clouds 29 1014 72 10000 1.34 77 23:54 15.07.2022
2587 Clouds 31 1014 67 10000 1.79 163 22:54 15.07.2022
2588 Clouds 30 1015 71 10000 1.34 154 21:55 15.07.2022
2589 Clouds 29 1015 72 10000 1.34 116 20:35 15.07.2022
2590 Clouds 29 1017 75 10000 3.6 360 18:55 15.07.2022
2591 Clouds 30 1017 72 10000 3.6 360 18:22 15.07.2022
2592 Clouds 29 1017 74 10000 4.12 80 16:46 15.07.2022
2593 Clouds 25 1017 88 10000 2.24 357 13:58 15.07.2022
2594 Clouds 26 1016 81 10000 2.24 355 12:22 15.07.2022
2595 Clouds 26 1016 80 10000 2.24 7 10:52 15.07.2022
2596 Clouds 26 1016 81 10000 1.79 358 07:47 15.07.2022
2597 Clouds 26 1017 83 10000 2.24 6 02:51 15.07.2022
2598 Clouds 27 1016 83 10000 2.57 60 00:39 15.07.2022
2599 Clouds 27 1016 83 10000 2.57 60 00:39 15.07.2022
2600 Clouds 27 1016 78 10000 2.57 330 22:56 14.07.2022
2601 Clouds 28 1016 75 10000 2.57 330 22:19 14.07.2022
2602 Clouds 27 1017 85 10000 5.14 330 21:37 14.07.2022
2603 Clouds 27 1017 83 10000 5.14 330 21:18 14.07.2022
2604 Clouds 28 1017 76 10000 6.17 90 20:42 14.07.2022
2605 Clouds 29 1017 74 10000 6.17 90 20:18 14.07.2022
2606 Clouds 30 1018 70 10000 1.79 112 17:59 14.07.2022
2607 Clouds 30 1018 71 10000 3.09 60 16:19 14.07.2022
2608 Clouds 27 1017 81 10000 2.57 360 14:55 14.07.2022
2609 Clouds 26 1017 85 10000 1.34 6 13:51 14.07.2022
2610 Clouds 24 1018 91 10000 2 340 12:34 14.07.2022
2611 Clouds 24 1017 92 10000 2.33 340 11:26 14.07.2022
2612 Clouds 24 1017 92 10000 2.33 340 10:51 14.07.2022
2613 Clouds 24 1016 92 10000 2.19 337 08:45 14.07.2022
2614 Clouds 26 1018 78 10000 0 0 04:18 14.07.2022
2615 Clouds 29 1016 71 10000 2.68 33 00:55 14.07.2022
2616 Clouds 29 1016 69 10000 2.68 60 00:18 14.07.2022
2617 Clouds 31 1017 55 10000 5.14 90 22:28 13.07.2022
2618 Clouds 31 1016 63 10000 3.6 60 21:37 13.07.2022
2619 Clouds 32 1016 61 10000 5.14 130 20:38 13.07.2022
2620 Clouds 31 1018 60 10000 5.14 40 18:23 13.07.2022
2621 Clouds 30 1018 65 10000 2.57 30 17:22 13.07.2022
2622 Clouds 28 1019 74 10000 5.14 360 15:59 13.07.2022
2623 Clouds 25 1018 86 10000 1.79 355 13:50 13.07.2022
2624 Clear 23 1018 90 10000 2.15 342 11:30 13.07.2022
2625 Clear 24 1018 89 10000 1.87 347 10:44 13.07.2022
2626 Clear 27 1017 81 10000 1.34 335 09:29 13.07.2022
2627 Clouds 27 1017 80 10000 2.24 6 08:23 13.07.2022
2628 Clouds 26 1017 85 10000 0 0 04:50 13.07.2022
2629 Clouds 29 1017 74 10000 3.09 180 00:47 13.07.2022
2630 Clouds 31 1016 73 10000 5.14 180 22:47 12.07.2022
2631 Clouds 32 1016 70 10000 4.12 70 21:49 12.07.2022
2632 Clouds 32 1016 69 10000 5.14 30 20:53 12.07.2022
2633 Clouds 31 1017 69 10000 4.12 30 19:54 12.07.2022
2634 Clouds 31 1017 66 10000 1.34 145 18:43 12.07.2022
2635 Clouds 29 1018 71 10000 5.14 30 16:36 12.07.2022
2636 Clouds 26 1018 83 10000 1.34 1 14:32 12.07.2022
2637 Clouds 25 1017 87 10000 1.34 3 13:43 12.07.2022
2638 Clear 26 1017 84 10000 1.34 316 11:54 12.07.2022
2639 Clear 27 1016 81 10000 0.89 330 10:27 12.07.2022
2640 Clear 24 1016 85 10000 1.74 338 08:57 12.07.2022
2641 Clouds 27 1017 79 10000 0.89 351 07:48 12.07.2022
2642 Clouds 24 1018 89 10000 0 0 05:45 12.07.2022
2643 Clouds 25 1017 89 10000 0 0 04:57 12.07.2022
2644 Clouds 28 1015 79 10000 3.6 180 01:31 12.07.2022
2645 Clouds 30 1015 75 10000 3.6 180 22:43 11.07.2022
2646 Clouds 31 1016 71 10000 5.66 180 21:34 11.07.2022
2647 Clouds 32 1016 67 10000 5.14 180 20:32 11.07.2022
2648 Clouds 31 1016 67 10000 5.14 160 19:18 11.07.2022
2649 Clouds 31 1017 69 10000 2.24 114 18:29 11.07.2022
2650 Clouds 29 1017 77 10000 2.24 97 16:30 11.07.2022
2651 Clouds 28 1016 80 10000 3.09 360 15:28 11.07.2022
2652 Clouds 25 1016 89 10000 1.34 336 13:19 11.07.2022
2653 Clouds 26 1015 84 10000 0.89 4 11:23 11.07.2022
2654 Clouds 26 1015 82 10000 0.89 8 09:55 11.07.2022
2655 Clouds 26 1015 83 10000 1.34 320 09:27 11.07.2022
2656 Clouds 26 1015 82 10000 0.89 328 08:31 11.07.2022
2657 Clouds 25 1016 87 10000 3.09 30 01:20 11.07.2022
2658 Clouds 27 1016 84 7000 3.6 30 23:54 10.07.2022
2659 Clouds 28 1015 80 6000 6.69 60 22:45 10.07.2022
2660 Clouds 29 1016 75 6000 1.34 146 20:56 10.07.2022
2661 Clouds 30 1016 73 6000 1.79 177 20:36 10.07.2022
2662 Clouds 31 1017 66 8000 5.14 180 19:30 10.07.2022
2663 Clouds 31 1017 66 8000 5.14 180 19:30 10.07.2022
2664 Clouds 30 1018 75 10000 0.89 351 18:25 10.07.2022
2665 Clouds 31 1018 57 10000 1.34 119 17:33 10.07.2022
2666 Clouds 30 1018 70 10000 2.57 30 16:21 10.07.2022
2667 Clouds 27 1018 86 10000 1.79 60 14:47 10.07.2022
2668 Clouds 24 1018 96 10000 0 0 13:31 10.07.2022
2669 Clouds 23 1017 88 10000 2.63 343 11:57 10.07.2022
2670 Clouds 26 1017 85 10000 0.89 2 09:46 10.07.2022
2671 Clouds 26 1017 84 10000 0.89 334 08:44 10.07.2022
2672 Clouds 26 1018 84 10000 1.34 333 07:20 10.07.2022
2673 Clouds 31 1017 68 10000 5.14 150 23:53 09.07.2022
2674 Clouds 32 1017 67 10000 5.14 150 22:26 09.07.2022
2675 Clouds 32 1018 67 10000 6.17 180 21:47 09.07.2022
2676 Clouds 31 1019 66 10000 4.12 180 19:50 09.07.2022
2677 Clouds 31 1020 67 10000 2.68 103 18:28 09.07.2022
2678 Clouds 30 1020 72 10000 2.06 90 17:32 09.07.2022
2679 Clouds 29 1020 76 10000 1.79 64 16:36 09.07.2022
2680 Clouds 28 1020 79 10000 0.89 356 15:39 09.07.2022
2681 Clouds 26 1020 85 10000 1.34 353 14:24 09.07.2022
2682 Clouds 25 1020 84 10000 1.34 358 13:48 09.07.2022
2683 Clouds 25 1019 85 10000 0.89 2 12:22 09.07.2022
2684 Clouds 26 1019 84 10000 0.89 339 10:27 09.07.2022
2685 Clouds 26 1019 84 10000 0.89 337 09:57 09.07.2022
2686 Clouds 26 1019 85 10000 1.34 327 07:44 09.07.2022
2687 Clouds 26 1020 82 10000 3.6 20 04:50 09.07.2022
2688 Clouds 30 1017 67 10000 3.09 150 00:43 09.07.2022
2689 Clouds 31 1017 62 10000 5.14 180 22:41 08.07.2022
2690 Clouds 31 1017 64 10000 5.14 180 21:31 08.07.2022
2691 Clouds 31 1017 64 10000 5.14 180 20:40 08.07.2022
2692 Clouds 31 1018 64 10000 4.12 140 19:48 08.07.2022
2693 Clouds 29 1019 69 10000 3.6 90 17:57 08.07.2022
2694 Clouds 29 1019 73 10000 3.09 90 16:37 08.07.2022
2695 Clouds 26 1018 83 10000 2.68 51 14:51 08.07.2022
2696 Clear 24 1017 86 10000 1.34 6 12:42 08.07.2022
2697 Clouds 24 1017 85 10000 0.89 337 11:25 08.07.2022
2698 Clouds 25 1016 85 10000 0.45 354 10:26 08.07.2022
2699 Clouds 25 1017 84 10000 0.89 324 08:24 08.07.2022
2700 Clouds 25 1017 87 8228 0.89 332 06:47 08.07.2022
2701 Clouds 24 1016 89 8000 1.79 350 01:19 08.07.2022
2702 Clouds 26 1014 94 2000 5.14 90 22:57 07.07.2022
2703 Clouds 26 1014 94 2000 5.14 90 22:57 07.07.2022
2704 Clouds 32 1015 62 10000 5.14 180 21:57 07.07.2022
2705 Clouds 31 1016 68 10000 5.14 120 19:47 07.07.2022
2706 Clouds 30 1017 71 10000 3.09 160 17:56 07.07.2022
2707 Clouds 28 1017 74 10000 1.79 98 16:43 07.07.2022
2708 Clouds 25 1016 88 10000 0.45 300 14:32 07.07.2022
2709 Clear 24 1016 88 10000 0.89 19 12:46 07.07.2022
2710 Clouds 24 1015 89 10000 0.89 329 12:23 07.07.2022
2711 Clouds 24 1015 89 10000 1.34 6 11:34 07.07.2022
2712 Clouds 25 1015 83 10000 0.89 31 10:46 07.07.2022
2713 Clouds 25 1015 83 10000 0.45 66 10:28 07.07.2022
2714 Clouds 24 1015 88 10000 1.34 75 09:32 07.07.2022
2715 Clouds 25 1016 89 10000 0.89 353 06:32 07.07.2022
2716 Clear 29 1014 76 10000 1.34 115 00:31 07.07.2022
2717 Clear 29 1014 74 10000 1.79 111 23:36 06.07.2022
2718 Clear 29 1014 74 10000 1.79 137 23:18 06.07.2022
2719 Clouds 30 1014 67 10000 5.14 150 22:52 06.07.2022
2720 Clouds 30 1014 66 10000 5.14 150 22:33 06.07.2022
2721 Clouds 31 1015 65 10000 5.14 180 20:23 06.07.2022
2722 Clouds 30 1015 67 10000 5.14 160 19:22 06.07.2022
2723 Clouds 30 1016 69 10000 1.79 81 17:21 06.07.2022
2724 Clouds 28 1016 74 10000 3.09 90 15:57 06.07.2022
2725 Clear 26 1015 84 10000 1.79 24 12:44 06.07.2022
2726 Clear 26 1015 84 10000 1.79 346 11:52 06.07.2022
2727 Clear 25 1014 84 10000 1.34 349 10:54 06.07.2022
2728 Clear 26 1014 82 10000 1.34 334 09:25 06.07.2022
2729 Clear 26 1015 82 10000 0.89 339 07:44 06.07.2022
2730 Clear 25 1016 81 10000 1.79 358 06:44 06.07.2022
2731 Clouds 27 1015 79 10000 5.14 360 00:24 06.07.2022
2732 Clouds 30 1014 65 10000 3.6 360 22:43 05.07.2022
2733 Clouds 31 1015 68 10000 5.14 330 20:49 05.07.2022
2734 Clouds 31 1015 68 10000 5.14 330 20:21 05.07.2022
2735 Clouds 32 1016 64 10000 5.14 60 19:37 05.07.2022
2736 Clouds 30 1017 66 10000 6.17 20 17:50 05.07.2022
2737 Clouds 30 1017 67 10000 6.17 20 17:19 05.07.2022
2738 Clouds 29 1017 70 10000 3.6 30 16:18 05.07.2022
2739 Clouds 27 1017 83 10000 1.79 22 14:54 05.07.2022
2740 Clouds 25 1017 88 10000 1.34 346 12:59 05.07.2022
2741 Clouds 25 1017 86 10000 1.34 342 12:22 05.07.2022
2742 Clouds 26 1016 86 10000 0.89 359 10:45 05.07.2022
2743 Clouds 26 1016 84 10000 1.34 12 09:52 05.07.2022
2744 Clouds 26 1017 85 10000 0.89 353 08:21 05.07.2022
2745 Clouds 26 1017 86 10000 1.34 6 06:48 05.07.2022
2746 Clouds 25 1018 88 10000 2.24 19 04:30 05.07.2022
2747 Clouds 27 1017 81 10000 3.09 40 01:25 05.07.2022
2748 Clouds 28 1016 78 10000 0.89 159 23:37 04.07.2022
2749 Clouds 28 1016 78 10000 0 0 22:55 04.07.2022
2750 Clouds 27 1017 84 7000 5.14 180 21:56 04.07.2022
2751 Clouds 26 1017 83 6000 2.57 270 20:55 04.07.2022
2752 Clouds 27 1017 85 6000 2.57 270 20:35 04.07.2022
2753 Clouds 31 1017 69 10000 5.14 360 19:56 04.07.2022
2754 Clouds 30 1018 72 10000 5.14 360 19:37 04.07.2022
2755 Clouds 30 1018 70 10000 4.12 40 18:34 04.07.2022
2756 Clouds 28 1019 83 10000 5.14 30 16:42 04.07.2022
2757 Clouds 26 1018 88 10000 3.09 30 15:34 04.07.2022
2758 Clouds 24 1018 93 10000 0.89 325 13:41 04.07.2022
2759 Clouds 25 1017 88 10000 1.79 358 12:38 04.07.2022
2760 Clouds 25 1016 90 10000 0.89 16 10:39 04.07.2022
2761 Clouds 25 1017 90 10000 0.45 329 10:18 04.07.2022
2762 Clouds 24 1017 90 10000 0.89 344 08:31 04.07.2022
2763 Clouds 24 1019 92 10000 0.89 334 05:34 04.07.2022
2764 Clouds 24 1017 93 10000 2.68 295 00:43 04.07.2022
2765 Clouds 24 1017 93 10000 1.34 281 23:27 03.07.2022
2766 Clouds 24 1017 92 10000 1.34 157 21:58 03.07.2022
2767 Clouds 25 1017 92 10000 3.09 330 20:41 03.07.2022
2768 Clouds 26 1017 86 5361 1.34 61 19:42 03.07.2022
2769 Clouds 26 1018 86 7529 1.79 63 19:23 03.07.2022
2770 Clouds 25 1018 92 10000 1.34 323 17:45 03.07.2022
2771 Clouds 24 1018 95 4616 0.89 298 16:58 03.07.2022
2772 Clouds 24 1018 95 7000 0.89 30 15:25 03.07.2022
2773 Clouds 24 1018 92 8000 2.57 60 14:37 03.07.2022
2774 Clouds 24 1017 91 7000 4.12 60 13:49 03.07.2022
2775 Clouds 25 1016 89 6365 2.68 69 12:41 03.07.2022
2776 Clouds 24 1016 92 4532 1.79 60 11:39 03.07.2022
2777 Clouds 25 1015 91 4468 1.79 51 10:39 03.07.2022
2778 Clouds 24 1015 92 6234 1.79 95 09:59 03.07.2022
2779 Clouds 25 1015 91 2486 1.79 32 07:37 03.07.2022
2780 Clouds 24 1016 92 6000 0.89 60 05:22 03.07.2022
2781 Clouds 28 1013 83 7000 6.17 360 00:24 03.07.2022
2782 Clouds 29 1013 74 8000 5.14 360 22:36 02.07.2022
2783 Clouds 32 1013 61 8000 5.14 30 21:38 02.07.2022
2784 Clouds 32 1014 60 10000 5.14 60 19:53 02.07.2022
2785 Clouds 32 1014 60 10000 5.14 60 19:31 02.07.2022
2786 Clouds 31 1015 67 10000 3.58 49 17:58 02.07.2022
2787 Clouds 31 1015 68 10000 3.09 60 17:36 02.07.2022
2788 Clouds 28 1016 76 10000 2.68 16 15:28 02.07.2022
2789 Clouds 25 1015 82 10000 1.79 2 12:22 02.07.2022
2790 Clouds 26 1015 82 10000 2.24 2 11:27 02.07.2022
2791 Clouds 26 1015 82 10000 1.79 353 10:46 02.07.2022
2792 Clouds 26 1015 82 10000 1.79 355 09:37 02.07.2022
2793 Clouds 26 1015 82 10000 1.79 7 08:36 02.07.2022
2794 Clouds 26 1015 82 10000 1.79 356 08:18 02.07.2022
2795 Clouds 27 1016 80 10000 3.36 13 02:52 02.07.2022
2796 Clouds 29 1014 73 10000 1.79 76 00:27 02.07.2022
2797 Clouds 28 1014 68 10000 5.14 150 22:59 01.07.2022
2798 Clouds 31 1014 66 10000 2.06 210 21:56 01.07.2022
2799 Clouds 31 1014 69 10000 2.06 210 21:37 01.07.2022
2800 Clouds 31 1015 71 10000 6.17 60 20:56 01.07.2022
2801 Clouds 30 1016 73 10000 6.17 360 19:47 01.07.2022
2802 Clouds 31 1016 63 10000 5.14 360 17:58 01.07.2022
2803 Clouds 30 1017 71 10000 3.6 20 16:24 01.07.2022
2804 Clouds 25 1017 91 10000 2.24 17 13:55 01.07.2022
2805 Clouds 25 1016 88 10000 0.89 345 12:59 01.07.2022
2806 Clouds 26 1015 86 10000 1.34 358 10:46 01.07.2022
2807 Clouds 26 1015 86 10000 1.34 354 10:18 01.07.2022
2808 Clouds 23 1018 92 10000 1.34 336 05:27 01.07.2022
2809 Clouds 25 1016 90 10000 0.45 41 01:27 01.07.2022
2810 Clouds 25 1015 88 10000 2.57 330 23:26 30.06.2022
2811 Thunderstorm 25 1015 91 10000 2.57 360 22:44 30.06.2022
2812 Thunderstorm 24 1015 89 10000 2.57 360 22:26 30.06.2022
2813 Clouds 25 1016 90 6000 5.14 90 21:48 30.06.2022
2814 Clouds 26 1016 89 10000 0.89 18 20:30 30.06.2022
2815 Clouds 26 1017 87 10000 0.89 258 19:55 30.06.2022
2816 Clouds 26 1018 78 10000 0 0 19:26 30.06.2022
2817 Clouds 29 1017 76 10000 6.17 20 18:42 30.06.2022
2818 Clouds 28 1018 74 10000 3.13 90 17:44 30.06.2022
2819 Clouds 30 1018 70 10000 3.13 36 16:55 30.06.2022
2820 Clouds 28 1017 75 10000 4.12 10 15:44 30.06.2022
2821 Clouds 27 1018 84 10000 3.26 355 13:49 30.06.2022
2822 Clouds 25 1018 93 10000 2.77 344 12:36 30.06.2022
2823 Clouds 25 1017 94 10000 2.9 345 11:55 30.06.2022
2824 Clouds 25 1017 94 10000 2.58 344 09:55 30.06.2022
2825 Clouds 25 1017 94 10000 2.58 344 09:35 30.06.2022
2826 Clouds 25 1018 93 8127 2.79 359 08:19 30.06.2022
2827 Clouds 25 1018 93 10000 2.67 357 07:23 30.06.2022
2828 Clouds 30 1016 65 10000 4.47 56 01:47 30.06.2022
2829 Clouds 32 1016 62 10000 1.34 77 23:35 29.06.2022
2830 Clouds 32 1016 62 10000 3.09 180 22:41 29.06.2022
2831 Clouds 31 1017 65 8000 4.12 150 21:43 29.06.2022
2832 Clouds 33 1017 59 10000 3.6 60 20:34 29.06.2022
2833 Clouds 32 1018 61 10000 5.14 60 19:48 29.06.2022
2834 Clouds 32 1018 61 10000 5.14 90 17:54 29.06.2022
2835 Clouds 30 1019 67 10000 4.12 60 16:51 29.06.2022
2836 Clouds 29 1018 73 10000 2.68 51 15:32 29.06.2022
2837 Clouds 24 1018 91 10000 0 0 13:20 29.06.2022
2838 Clouds 23 1018 93 10000 2.59 339 11:57 29.06.2022
2839 Clouds 23 1018 94 10000 2.67 346 09:35 29.06.2022
2840 Clouds 25 1018 94 10000 2.84 344 08:46 29.06.2022
2841 Clouds 26 1020 89 10000 2.06 30 05:42 29.06.2022
2842 Clouds 29 1018 77 10000 1.34 116 02:21 29.06.2022
2843 Clouds 31 1017 66 10000 3.09 180 00:38 29.06.2022
2844 Clouds 31 1017 63 10000 5.14 150 23:55 28.06.2022
2845 Clouds 32 1016 62 10000 5.14 150 22:48 28.06.2022
2846 Clouds 32 1017 60 10000 2.57 180 21:55 28.06.2022
2847 Clouds 32 1017 60 10000 2.57 180 21:33 28.06.2022
2848 Clouds 32 1017 58 10000 3.6 150 20:55 28.06.2022
2849 Clouds 32 1018 60 10000 1.79 131 19:48 28.06.2022
2850 Clouds 32 1018 59 10000 1.79 148 19:24 28.06.2022
2851 Clouds 31 1019 66 10000 5.14 70 17:49 28.06.2022
2852 Clouds 30 1019 66 10000 3.09 60 16:29 28.06.2022
2853 Clouds 29 1019 74 10000 2.68 84 15:53 28.06.2022
2854 Clouds 27 1018 85 10000 1.79 14 14:22 28.06.2022
2855 Clouds 26 1018 86 10000 1.79 6 13:55 28.06.2022
2856 Clouds 25 1017 87 10000 1.79 15 13:26 28.06.2022
2857 Clouds 26 1017 84 10000 1.34 357 11:37 28.06.2022
2858 Clouds 26 1016 83 10000 0.89 349 09:41 28.06.2022
2859 Clouds 26 1016 84 10000 1.34 348 08:45 28.06.2022
2860 Clouds 26 1017 82 10000 0.89 341 07:58 28.06.2022
2861 Clouds 26 1017 81 10000 1.34 340 07:19 28.06.2022
2862 Clouds 28 1016 76 10000 0.45 149 01:36 28.06.2022
2863 Clouds 30 1015 70 10000 5.14 180 23:45 27.06.2022
2864 Clouds 31 1015 67 10000 5.14 150 22:55 27.06.2022
2865 Clouds 31 1015 67 10000 5.14 150 21:38 27.06.2022
2866 Clouds 31 1016 67 10000 6.17 180 20:54 27.06.2022
2867 Clouds 31 1016 65 10000 2.24 113 19:40 27.06.2022
2868 Clouds 31 1017 66 8000 3.09 330 18:33 27.06.2022
2869 Clouds 30 1017 71 10000 1.79 83 16:44 27.06.2022
2870 Clouds 28 1017 76 10000 3.09 30 15:42 27.06.2022
2871 Clouds 25 1016 85 10000 1.79 358 13:39 27.06.2022
2872 Clouds 26 1015 84 10000 1.79 333 12:57 27.06.2022
2873 Clouds 23 1016 94 10000 1.52 339 10:41 27.06.2022
2874 Clouds 23 1016 92 10000 1.1 345 09:23 27.06.2022
2875 Clouds 23 1016 91 10000 1.11 360 08:32 27.06.2022
2876 Clouds 24 1016 90 10000 0.92 4 07:38 27.06.2022
2877 Clouds 27 1017 85 10000 1.79 116 04:21 27.06.2022
2878 Clouds 28 1016 75 10000 4.12 150 01:18 27.06.2022
2879 Clouds 31 1015 67 10000 6.17 150 22:27 26.06.2022
2880 Clouds 31 1015 65 10000 5.14 180 20:53 26.06.2022
2881 Clouds 31 1016 69 10000 5.14 180 19:44 26.06.2022
2882 Clouds 31 1016 67 10000 5.14 150 18:32 26.06.2022
2883 Clouds 31 1017 66 10000 4.12 170 17:22 26.06.2022
2884 Clouds 29 1016 73 10000 2.24 80 15:31 26.06.2022
2885 Clouds 26 1016 85 10000 1.34 4 13:55 26.06.2022
2886 Clouds 25 1016 88 10000 1.79 31 13:23 26.06.2022
2887 Clouds 27 1015 81 10000 0.89 336 11:27 26.06.2022
2888 Clouds 23 1015 90 10000 0.86 355 10:28 26.06.2022
2889 Clouds 25 1015 90 10000 0.86 355 09:39 26.06.2022
2890 Clouds 25 1015 90 10000 1.2 340 07:45 26.06.2022
2891 Clouds 28 1015 78 10000 1.34 115 02:52 26.06.2022
2892 Clouds 30 1014 70 10000 5.14 180 00:21 26.06.2022
2893 Clouds 30 1014 67 10000 5.14 180 23:51 25.06.2022
2894 Clouds 31 1014 67 10000 5.14 180 23:24 25.06.2022
2895 Clouds 31 1014 66 10000 6.69 180 22:27 25.06.2022
2896 Clouds 32 1014 66 10000 5.14 180 21:46 25.06.2022
2897 Clouds 32 1014 65 10000 5.14 180 21:20 25.06.2022
2898 Clouds 32 1015 65 10000 5.14 180 20:28 25.06.2022
2899 Clouds 31 1015 64 10000 5.14 180 19:42 25.06.2022
2900 Clouds 31 1016 65 10000 2.57 170 18:19 25.06.2022
2901 Clouds 31 1016 68 10000 2.57 180 17:24 25.06.2022
2902 Clouds 28 1016 74 10000 2.57 360 15:36 25.06.2022
2903 Clouds 25 1016 86 10000 1.79 40 13:41 25.06.2022
2904 Clouds 26 1015 82 10000 0.89 7 12:38 25.06.2022
2905 Clouds 23 1015 89 10000 2.13 344 10:45 25.06.2022
2906 Clouds 23 1014 87 10000 1.63 342 09:20 25.06.2022
2907 Clouds 24 1014 87 10000 1.63 342 08:37 25.06.2022
2908 Clouds 24 1015 86 10000 1.35 348 08:18 25.06.2022
2909 Clouds 28 1016 80 10000 1.34 120 03:34 25.06.2022
2910 Clouds 30 1013 71 10000 5.14 150 00:38 25.06.2022
2911 Clouds 31 1012 66 10000 5.14 180 22:55 24.06.2022
2912 Clouds 32 1013 64 10000 5.14 150 21:42 24.06.2022
2913 Clouds 32 1013 64 10000 6.17 180 20:48 24.06.2022
2914 Clouds 32 1013 63 10000 6.17 180 20:19 24.06.2022
2915 Clouds 31 1014 65 10000 6.17 180 19:21 24.06.2022
2916 Clouds 31 1014 65 10000 3.6 50 18:49 24.06.2022
2917 Clouds 31 1014 64 10000 3.6 50 18:30 24.06.2022
2918 Clouds 31 1014 66 10000 3.09 30 17:20 24.06.2022
2919 Clouds 29 1014 74 10000 1.79 119 15:29 24.06.2022
2920 Clouds 27 1014 82 10000 1.34 36 14:27 24.06.2022
2921 Clouds 26 1014 88 10000 1.34 44 13:55 24.06.2022
2922 Clouds 23 1014 96 10000 1.56 353 11:44 24.06.2022
2923 Clouds 24 1014 96 10000 1.62 350 10:55 24.06.2022
2924 Clouds 24 1013 94 10000 1.18 0 09:49 24.06.2022
2925 Clouds 27 1013 81 10000 0.45 81 09:28 24.06.2022
2926 Clouds 27 1012 81 10000 0.89 103 08:51 24.06.2022
2927 Clouds 25 1013 90 10000 0.55 22 06:48 24.06.2022
2928 Clouds 25 1013 90 10000 0.55 22 06:30 24.06.2022
2929 Clouds 24 1014 94 10000 0 0 05:52 24.06.2022
2930 Clouds 28 1012 77 10000 1.34 160 01:21 24.06.2022
2931 Clouds 31 1011 65 10000 2.57 180 22:44 23.06.2022
2932 Clouds 31 1011 64 10000 5.14 170 21:52 23.06.2022
2933 Clouds 32 1011 63 10000 5.14 180 20:53 23.06.2022
2934 Clouds 32 1012 62 10000 5.14 180 20:31 23.06.2022
2935 Clouds 31 1013 67 10000 1.79 128 18:43 23.06.2022
2936 Clouds 31 1015 69 10000 2.24 122 17:44 23.06.2022
2937 Clouds 30 1013 70 10000 2.57 90 16:34 23.06.2022
2938 Clouds 29 1013 74 10000 2.57 30 15:27 23.06.2022
2939 Clouds 27 1013 79 10000 1.34 109 14:51 23.06.2022
2940 Clouds 27 1012 82 10000 0.89 58 11:54 23.06.2022
2941 Clouds 27 1012 83 10000 0.89 66 10:56 23.06.2022
2942 Clouds 27 1012 80 10000 0.89 52 09:20 23.06.2022
2943 Clouds 26 1013 83 10000 0.45 90 05:48 23.06.2022
2944 Clouds 28 1012 77 10000 0.89 165 01:21 23.06.2022
2945 Clouds 29 1012 72 10000 5.14 180 00:18 23.06.2022
2946 Clouds 30 1011 69 10000 5.14 180 23:22 22.06.2022
2947 Clouds 31 1011 67 10000 1.79 162 21:44 22.06.2022
2948 Clouds 31 1012 67 10000 4.12 180 20:52 22.06.2022
2949 Clouds 31 1012 66 10000 4.12 180 20:20 22.06.2022
2950 Clouds 31 1012 67 10000 5.14 180 19:43 22.06.2022
2951 Clouds 30 1013 70 10000 4.12 80 17:40 22.06.2022
2952 Clouds 29 1013 71 10000 4.12 80 16:43 22.06.2022
2953 Clouds 28 1013 76 10000 1.79 86 15:29 22.06.2022
2954 Clouds 27 1014 79 10000 2.24 122 14:51 22.06.2022
2955 Clouds 26 1014 85 10000 0.89 6 13:48 22.06.2022
2956 Clouds 24 1013 91 10000 0 0 13:24 22.06.2022
2957 Clouds 26 1013 84 10000 1.34 9 12:31 22.06.2022
2958 Clouds 26 1013 83 10000 0.89 354 11:45 22.06.2022
2959 Clouds 26 1013 83 10000 0.89 354 11:45 22.06.2022
2960 Clouds 23 1013 93 10000 1.41 2 10:47 22.06.2022
2961 Clouds 23 1013 92 10000 1.43 19 09:40 22.06.2022
2962 Clouds 26 1015 82 10000 1.79 36 06:55 22.06.2022
2963 Clouds 27 1014 83 10000 1.79 48 02:39 22.06.2022
2964 Clouds 29 1014 75 10000 2.57 150 00:57 22.06.2022
2965 Clouds 29 1014 75 10000 2.57 150 00:57 22.06.2022
2966 Clouds 30 1013 69 10000 5.14 180 22:53 21.06.2022
2967 Clouds 31 1013 64 10000 5.14 180 20:58 21.06.2022
2968 Clouds 31 1014 61 10000 3.09 180 19:30 21.06.2022
2969 Clouds 31 1014 61 10000 3.09 180 19:30 21.06.2022
2970 Clouds 30 1015 66 10000 1.79 137 17:56 21.06.2022
2971 Clouds 30 1016 69 10000 2.57 60 16:47 21.06.2022
2972 Clouds 24 1016 90 10000 2.62 342 11:59 21.06.2022
2973 Clouds 26 1015 81 10000 1.79 2 10:46 21.06.2022
2974 Clouds 26 1015 81 10000 1.34 2 09:24 21.06.2022
2975 Clouds 23 1016 89 10000 3.04 344 07:49 21.06.2022
2976 Clouds 27 1017 84 10000 2.68 48 04:57 21.06.2022
2977 Clouds 30 1015 69 10000 2.57 360 00:23 21.06.2022
2978 Clouds 31 1015 67 10000 5.14 160 22:21 20.06.2022
2979 Clouds 31 1016 68 10000 2.24 116 21:37 20.06.2022
2980 Clouds 32 1016 64 10000 3.6 150 20:29 20.06.2022
2981 Clouds 32 1017 65 10000 3.6 60 19:36 20.06.2022
2982 Clouds 31 1017 64 10000 2.57 90 18:26 20.06.2022
2983 Clouds 31 1018 61 10000 3.09 90 17:49 20.06.2022
2984 Clouds 30 1018 66 10000 4.12 60 16:36 20.06.2022
2985 Clouds 28 1018 73 10000 2.68 57 15:30 20.06.2022
2986 Clear 26 1017 82 10000 1.34 357 12:32 20.06.2022
2987 Clear 26 1016 81 10000 1.34 350 10:21 20.06.2022
2988 Clear 26 1016 81 10000 1.34 350 10:21 20.06.2022
2989 Clear 23 1017 87 10000 3.53 343 08:56 20.06.2022
2990 Clouds 27 1017 79 10000 2.24 13 07:52 20.06.2022
2991 Clouds 26 1018 81 10000 1.79 52 05:21 20.06.2022
2992 Clouds 29 1016 68 10000 3.09 180 01:33 20.06.2022
2993 Clouds 30 1015 64 10000 5.14 180 23:57 19.06.2022
2994 Clouds 31 1015 62 10000 5.14 180 22:43 19.06.2022
2995 Clouds 31 1015 60 10000 5.14 180 21:45 19.06.2022
2996 Clouds 31 1016 60 10000 5.14 180 21:26 19.06.2022
2997 Clouds 32 1016 62 10000 3.09 130 20:30 19.06.2022
2998 Clouds 31 1016 67 10000 2.24 142 19:46 19.06.2022
2999 Clouds 31 1017 64 10000 4.12 90 18:43 19.06.2022
3000 Clouds 30 1017 65 10000 3.09 60 17:48 19.06.2022
3001 Clouds 30 1017 69 10000 3.09 60 17:21 19.06.2022
3002 Clouds 30 1017 71 10000 3.09 100 16:34 19.06.2022
3003 Clouds 28 1017 76 10000 1.79 46 15:38 19.06.2022
3004 Clouds 26 1017 86 10000 1.34 340 14:55 19.06.2022
3005 Clouds 24 1017 89 10000 1.34 334 13:58 19.06.2022
3006 Clouds 25 1016 86 10000 0.89 343 12:56 19.06.2022
3007 Clouds 26 1015 85 10000 0.89 325 10:54 19.06.2022
3008 Clouds 26 1016 83 10000 0.89 323 09:40 19.06.2022
3009 Clouds 27 1016 82 10000 0.89 328 08:47 19.06.2022
3010 Clouds 23 1016 87 10000 0.86 329 07:47 19.06.2022
3011 Clouds 25 1017 94 10000 0 0 04:41 19.06.2022
3012 Clouds 29 1015 75 10000 2.57 180 01:28 19.06.2022
3013 Clouds 29 1015 71 10000 2.57 180 00:24 19.06.2022
3014 Clouds 30 1014 68 10000 5.66 180 23:35 18.06.2022
3015 Clouds 31 1015 65 10000 6.17 180 22:36 18.06.2022
3016 Clouds 32 1015 65 10000 5.14 160 20:55 18.06.2022
3017 Clouds 31 1015 65 10000 5.14 160 20:26 18.06.2022
3018 Clouds 32 1015 65 10000 5.14 150 19:25 18.06.2022
3019 Clouds 31 1016 67 10000 5.14 150 18:44 18.06.2022
3020 Clouds 31 1016 68 10000 5.14 180 17:30 18.06.2022
3021 Clouds 30 1016 74 10000 5.14 180 16:23 18.06.2022
3022 Clouds 28 1016 79 10000 1.34 143 15:18 18.06.2022
3023 Clouds 27 1015 84 10000 1.34 145 14:42 18.06.2022
3024 Clouds 26 1014 87 10000 0.45 43 12:51 18.06.2022
3025 Clouds 27 1014 86 10000 0.89 16 11:33 18.06.2022
3026 Clouds 27 1014 87 10000 0.45 116 10:26 18.06.2022
3027 Clouds 27 1014 88 10000 1.19 202 09:19 18.06.2022
3028 Clouds 27 1014 86 10000 0.89 117 08:18 18.06.2022
3029 Clouds 27 1015 83 10000 0.45 103 06:26 18.06.2022
3030 Clouds 27 1015 84 10000 0.89 105 03:24 18.06.2022
3031 Clouds 28 1013 80 10000 1.79 122 01:24 18.06.2022
3032 Clouds 29 1013 76 10000 4.12 180 00:42 18.06.2022
3033 Clouds 29 1013 76 10000 5.14 160 23:45 17.06.2022
3034 Clouds 30 1013 74 10000 5.14 160 22:56 17.06.2022
3035 Clouds 30 1014 72 10000 3.09 120 20:42 17.06.2022
3036 Clouds 30 1014 72 10000 1.34 148 19:29 17.06.2022
3037 Clouds 30 1014 71 10000 3.09 360 18:25 17.06.2022
3038 Clouds 29 1015 75 10000 4.12 30 17:34 17.06.2022
3039 Clouds 28 1015 77 10000 4.12 30 16:38 17.06.2022
3040 Clouds 27 1015 80 10000 1.34 7 15:42 17.06.2022
3041 Clouds 26 1015 83 10000 1.34 341 14:46 17.06.2022
3042 Clouds 25 1015 84 10000 1.34 332 14:19 17.06.2022
3043 Clouds 24 1015 88 10000 0.89 9 13:42 17.06.2022
3044 Clouds 24 1015 86 10000 1.34 323 12:42 17.06.2022
3045 Clouds 24 1014 85 10000 1.34 344 11:56 17.06.2022
3046 Clouds 25 1014 83 10000 0.89 334 11:35 17.06.2022
3047 Clouds 26 1014 82 10000 0.45 326 09:59 17.06.2022
3048 Clouds 25 1015 84 10000 0.89 328 08:27 17.06.2022
3049 Clouds 24 1016 86 10000 0.89 334 06:57 17.06.2022
3050 Clouds 23 1017 86 10000 0 0 04:52 17.06.2022
3051 Clouds 23 1015 91 10000 3.09 330 02:41 17.06.2022
3052 Clouds 24 1016 89 8000 1.79 294 00:33 17.06.2022
3053 Clouds 25 1016 83 8000 4.12 60 22:43 16.06.2022
3054 Thunderstorm 30 1015 74 10000 3.09 170 21:23 16.06.2022
3055 Clouds 29 1015 74 10000 4.12 180 20:56 16.06.2022
3056 Clouds 30 1015 71 10000 4.12 180 20:36 16.06.2022
3057 Clouds 30 1015 71 10000 4.12 180 20:36 16.06.2022
3058 Clouds 30 1015 69 10000 5.14 220 19:45 16.06.2022
3059 Clouds 30 1017 69 10000 4.12 210 18:27 16.06.2022
3060 Clouds 31 1017 70 10000 3.09 90 17:43 16.06.2022
3061 Clouds 29 1016 71 10000 4.12 30 16:39 16.06.2022
3062 Clouds 28 1016 78 10000 0 0 15:22 16.06.2022
3063 Clouds 26 1016 78 10000 0 0 14:37 16.06.2022
3064 Clouds 25 1015 85 10000 0.89 359 13:22 16.06.2022
3065 Clouds 26 1015 79 10000 1.34 333 12:36 16.06.2022
3066 Clouds 23 1015 86 10000 2.07 343 11:52 16.06.2022
3067 Clouds 23 1015 86 10000 1.99 346 10:56 16.06.2022
3068 Clouds 23 1015 86 10000 1.53 355 10:20 16.06.2022
3069 Clouds 24 1015 85 10000 1.49 356 09:21 16.06.2022
3070 Clouds 27 1016 76 10000 0.89 347 08:30 16.06.2022
3071 Clouds 27 1016 76 10000 1.34 341 07:26 16.06.2022
3072 Clouds 26 1018 81 10000 1.34 15 04:50 16.06.2022
3073 Clouds 27 1016 75 10000 1.38 150 02:20 16.06.2022
3074 Clouds 29 1016 71 10000 2.57 180 01:35 16.06.2022
3075 Clouds 30 1015 69 10000 3.09 150 00:56 16.06.2022
3076 Clouds 31 1014 63 10000 6.17 180 23:43 15.06.2022
3077 Clouds 31 1015 62 10000 6.69 150 22:35 15.06.2022
3078 Clouds 31 1015 60 10000 5.14 180 21:22 15.06.2022
3079 Clouds 31 1015 59 10000 4.12 150 20:42 15.06.2022
3080 Clouds 31 1015 60 10000 4.12 150 20:23 15.06.2022
3081 Clouds 31 1015 61 10000 2.57 170 19:20 15.06.2022
3082 Clouds 29 1015 75 10000 2.24 111 17:56 15.06.2022
3083 Clouds 29 1015 73 10000 1.34 95 17:25 15.06.2022
3084 Clouds 26 1016 85 10000 0.89 7 15:37 15.06.2022
3085 Clouds 24 1016 95 10000 0.89 53 14:18 15.06.2022
3086 Clouds 24 1015 90 10000 0.89 85 12:54 15.06.2022
3087 Clouds 24 1016 89 10000 0.89 139 11:53 15.06.2022
3088 Clouds 25 1015 83 10000 0.89 326 10:24 15.06.2022
3089 Clouds 25 1015 83 10000 1.34 339 09:42 15.06.2022
3090 Clouds 23 1015 90 10000 1.98 338 08:40 15.06.2022
3091 Clouds 25 1016 88 10000 1.34 354 06:34 15.06.2022
3092 Clouds 24 1016 85 10000 1.34 358 04:34 15.06.2022
3093 Clouds 26 1015 79 10000 0.89 337 01:54 15.06.2022
3094 Clouds 25 1015 80 10000 1.79 342 00:50 15.06.2022
3095 Clouds 25 1015 80 8000 1.34 347 23:39 14.06.2022
3096 Clouds 25 1015 79 8000 1.79 354 23:19 14.06.2022
3097 Clouds 26 1015 77 10000 1.79 345 22:21 14.06.2022
3098 Clouds 24 1015 80 10000 6.17 360 21:36 14.06.2022
3099 Clouds 29 1015 69 10000 7.2 130 20:54 14.06.2022
3100 Clouds 29 1014 72 10000 7.2 130 20:28 14.06.2022
3101 Clouds 30 1015 66 10000 3.13 118 19:18 14.06.2022
3102 Clouds 31 1015 62 10000 2.06 60 17:54 14.06.2022
3103 Clouds 30 1016 67 10000 5.14 70 16:43 14.06.2022
3104 Clouds 28 1016 72 10000 5.14 360 15:50 14.06.2022
3105 Clouds 28 1016 73 10000 5.14 360 15:24 14.06.2022
3106 Clouds 27 1016 78 10000 2.57 20 14:33 14.06.2022
3107 Clouds 25 1016 85 10000 2.24 5 13:42 14.06.2022
3108 Clouds 26 1016 79 10000 1.79 357 12:44 14.06.2022
3109 Clouds 24 1016 91 10000 2.36 343 11:32 14.06.2022
3110 Clouds 24 1016 91 10000 2.84 334 10:47 14.06.2022
3111 Clouds 24 1016 92 10000 2.98 333 10:20 14.06.2022
3112 Clouds 24 1016 93 10000 2.89 339 08:47 14.06.2022
3113 Clouds 25 1016 95 10000 2.68 343 07:34 14.06.2022
3114 Clouds 24 1018 90 10000 0 0 05:22 14.06.2022
3115 Clouds 27 1017 78 10000 3.66 23 02:57 14.06.2022
3116 Clouds 28 1016 71 10000 0.45 46 00:53 14.06.2022
3117 Clouds 27 1016 74 7000 6.17 60 23:39 13.06.2022
3118 Clouds 31 1016 65 10000 5.14 150 22:26 13.06.2022
3119 Clouds 32 1016 62 10000 3.6 120 21:50 13.06.2022
3120 Clouds 32 1016 59 10000 2.68 115 20:42 13.06.2022
3121 Clouds 32 1017 60 10000 2.24 116 19:34 13.06.2022
3122 Clouds 32 1018 61 10000 4.12 30 18:25 13.06.2022
3123 Clouds 32 1018 61 10000 2.57 60 17:46 13.06.2022
3124 Clouds 31 1018 62 10000 1.79 64 16:52 13.06.2022
3125 Clouds 29 1018 72 10000 4.12 360 15:38 13.06.2022
3126 Clouds 27 1018 78 10000 2.24 28 14:43 13.06.2022
3127 Clouds 26 1018 82 10000 1.79 13 13:53 13.06.2022
3128 Clouds 26 1018 79 10000 1.79 6 12:48 13.06.2022
3129 Clouds 27 1017 78 10000 1.34 29 11:26 13.06.2022
3130 Clouds 27 1017 78 10000 1.34 19 10:27 13.06.2022
3131 Clouds 27 1017 78 10000 1.34 22 09:38 13.06.2022
3132 Clouds 25 1018 88 10000 2.02 349 07:51 13.06.2022
3133 Clouds 25 1018 84 10000 0 0 05:49 13.06.2022
3134 Clouds 29 1019 84 10000 0.65 190 02:55 13.06.2022
3135 Clouds 29 1016 73 10000 2.06 160 01:37 13.06.2022
3136 Clouds 30 1017 68 10000 5.14 180 00:21 13.06.2022
3137 Clouds 31 1016 68 10000 5.14 180 23:25 12.06.2022
3138 Clouds 32 1016 65 10000 6.17 180 22:22 12.06.2022
3139 Clouds 32 1017 65 10000 6.17 180 21:27 12.06.2022
3140 Clouds 31 1018 66 10000 4.12 150 20:33 12.06.2022
3141 Clouds 31 1018 66 10000 2.68 114 19:30 12.06.2022
3142 Clouds 30 1018 68 10000 4.12 150 17:53 12.06.2022
3143 Clouds 30 1019 72 10000 4.12 80 16:34 12.06.2022
3144 Clouds 28 1019 77 10000 5.14 60 15:18 12.06.2022
3145 Clouds 27 1018 80 10000 2.68 53 14:29 12.06.2022
3146 Clouds 26 1018 88 10000 1.79 43 13:55 12.06.2022
3147 Clouds 27 1017 82 10000 1.34 41 12:43 12.06.2022
3148 Clouds 24 1017 90 10000 1.49 334 11:40 12.06.2022
3149 Clouds 24 1017 89 10000 1.37 333 10:38 12.06.2022
3150 Clouds 24 1017 88 10000 1.77 320 09:19 12.06.2022
3151 Clouds 24 1017 88 10000 1.77 320 08:45 12.06.2022
3152 Clouds 25 1017 91 10000 1.94 306 07:38 12.06.2022
3153 Clouds 25 1016 82 10000 0 0 04:52 12.06.2022
3154 Clouds 26 1016 82 10000 0 0 03:29 12.06.2022
3155 Clouds 28 1014 74 10000 0 0 01:42 12.06.2022
3156 Clouds 29 1014 71 10000 2.57 180 00:58 12.06.2022
3157 Clouds 30 1014 71 10000 3.13 118 00:21 12.06.2022
3158 Clouds 31 1014 68 10000 3.09 180 23:44 11.06.2022
3159 Clouds 31 1013 68 10000 5.14 150 22:39 11.06.2022
3160 Clouds 31 1013 69 10000 3.09 180 21:53 11.06.2022
3161 Clouds 32 1014 64 10000 3.09 90 20:38 11.06.2022
3162 Clouds 31 1014 66 10000 1.79 138 19:46 11.06.2022
3163 Clouds 31 1015 67 10000 1.34 128 19:26 11.06.2022
3164 Clouds 31 1016 67 10000 1.79 135 18:34 11.06.2022
3165 Clouds 30 1016 67 10000 1.79 125 17:51 11.06.2022
3166 Clouds 31 1016 66 10000 1.79 129 17:27 11.06.2022
3167 Clouds 30 1016 58 10000 4.12 60 16:56 11.06.2022
3168 Clouds 29 1017 60 10000 4.12 60 16:29 11.06.2022
3169 Clouds 29 1016 74 10000 4.12 40 15:42 11.06.2022
3170 Clouds 25 1016 87 10000 1.79 37 13:53 11.06.2022
3171 Clouds 26 1016 80 10000 1.34 340 12:51 11.06.2022
3172 Clouds 26 1015 80 10000 1.79 1 10:48 11.06.2022
3173 Clouds 27 1016 80 10000 1.34 6 09:51 11.06.2022
3174 Clear 27 1016 80 10000 1.79 3 09:18 11.06.2022
3175 Clouds 23 1016 90 10000 2 333 07:40 11.06.2022
3176 Clouds 26 1016 80 10000 1.92 343 06:30 11.06.2022
3177 Clouds 27 1016 81 10000 1.79 98 04:30 11.06.2022
3178 Clouds 29 1014 74 10000 2.57 180 01:53 11.06.2022
3179 Clouds 29 1014 74 10000 2.57 180 01:32 11.06.2022
3180 Clouds 30 1013 67 10000 5.14 120 23:49 10.06.2022
3181 Clouds 31 1014 63 10000 5.14 180 22:31 10.06.2022
3182 Clouds 31 1014 63 10000 5.14 190 21:50 10.06.2022
3183 Clouds 31 1014 64 10000 3.09 180 20:40 10.06.2022
3184 Clouds 31 1015 63 10000 3.09 180 20:21 10.06.2022
3185 Clouds 31 1015 63 10000 3.09 180 20:21 10.06.2022
3186 Clouds 32 1016 64 10000 5.14 180 19:19 10.06.2022
3187 Clouds 31 1016 67 10000 4.12 110 18:55 10.06.2022
3188 Clouds 31 1017 66 10000 3.09 60 17:55 10.06.2022
3189 Clouds 30 1017 69 10000 3.13 111 17:33 10.06.2022
3190 Clouds 30 1017 72 10000 1.34 122 16:47 10.06.2022
3191 Clouds 28 1016 76 10000 2.57 60 15:40 10.06.2022
3192 Clouds 27 1016 83 10000 1.79 70 14:34 10.06.2022
3193 Clouds 25 1016 85 10000 1.79 62 13:26 10.06.2022
3194 Clouds 23 1016 91 10000 1.37 331 11:59 10.06.2022
3195 Clouds 23 1015 90 10000 1.12 356 11:25 10.06.2022
3196 Clouds 24 1015 90 10000 1.12 356 10:35 10.06.2022
3197 Clouds 24 1015 87 10000 1.52 351 09:21 10.06.2022
3198 Clouds 25 1015 87 10000 1.38 17 07:51 10.06.2022
3199 Clouds 26 1016 81 10000 1.61 37 06:47 10.06.2022
3200 Clouds 27 1016 79 10000 1.34 42 06:28 10.06.2022
3201 Clouds 27 1016 84 10000 1.79 88 04:55 10.06.2022
3202 Clouds 28 1015 78 10000 0.89 119 02:31 10.06.2022
3203 Clouds 29 1015 75 10000 3.09 150 01:37 10.06.2022
3204 Clouds 30 1014 69 10000 5.14 180 23:58 09.06.2022
3205 Clouds 31 1014 67 10000 5.14 150 22:43 09.06.2022
3206 Clouds 31 1014 63 10000 1.79 149 21:43 09.06.2022
3207 Clouds 31 1014 62 10000 1.79 133 21:24 09.06.2022
3208 Clouds 32 1015 62 10000 3.09 180 20:38 09.06.2022
3209 Clouds 31 1016 63 10000 1.79 118 19:43 09.06.2022
3210 Clouds 31 1017 65 10000 1.34 148 18:37 09.06.2022
3211 Clouds 31 1017 64 10000 1.79 142 17:31 09.06.2022
3212 Clouds 29 1017 72 10000 1.34 28 16:28 09.06.2022
3213 Clouds 26 1017 85 10000 1.34 47 14:52 09.06.2022
3214 Clouds 26 1017 85 10000 0.89 34 14:27 09.06.2022
3215 Clouds 23 1016 90 10000 0 0 13:30 09.06.2022
3216 Clouds 26 1016 81 10000 0.89 38 12:55 09.06.2022
3217 Clouds 23 1016 93 10000 1.27 355 11:33 09.06.2022
3218 Clouds 24 1015 93 10000 1.43 9 09:55 09.06.2022
3219 Clouds 24 1015 93 10000 1.43 9 09:55 09.06.2022
3220 Clouds 24 1015 93 10000 1.43 9 09:37 09.06.2022
3221 Clouds 25 1015 92 10000 1.45 5 08:33 09.06.2022
3222 Clouds 25 1016 93 10000 1.71 329 07:24 09.06.2022
3223 Clouds 25 1016 88 10000 0 0 03:31 09.06.2022
3224 Clouds 29 1014 74 10000 2.57 90 00:34 09.06.2022
3225 Clouds 31 1015 67 10000 1.79 128 23:18 08.06.2022
3226 Clouds 31 1015 68 10000 2.57 120 22:42 08.06.2022
3227 Clouds 31 1014 68 10000 2.57 120 22:23 08.06.2022
3228 Clouds 31 1014 67 10000 5.14 180 21:32 08.06.2022
3229 Clouds 32 1015 64 10000 5.14 160 20:25 08.06.2022
3230 Clouds 31 1016 66 10000 2.06 120 19:40 08.06.2022
3231 Clouds 31 1016 66 10000 2.57 90 18:48 08.06.2022
3232 Clouds 31 1017 66 10000 1.79 175 17:38 08.06.2022
3233 Clouds 28 1017 77 10000 1.34 61 15:53 08.06.2022
3234 Clouds 26 1016 85 10000 1.34 329 14:31 08.06.2022
3235 Clear 26 1016 82 10000 1.79 340 12:46 08.06.2022
3236 Clear 24 1015 90 10000 1.42 325 11:35 08.06.2022
3237 Clear 24 1015 90 10000 1.48 331 10:37 08.06.2022
3238 Clouds 24 1015 89 10000 1.44 336 09:28 08.06.2022
3239 Clouds 24 1015 89 10000 1.44 336 08:52 08.06.2022
3240 Clouds 25 1016 91 10000 1.22 321 06:43 08.06.2022
3241 Clouds 25 1016 88 10000 0 0 04:35 08.06.2022
3242 Clouds 29 1015 73 10000 4.12 180 00:57 08.06.2022
3243 Clouds 30 1015 72 10000 4.12 180 23:31 07.06.2022
3244 Clouds 30 1015 73 10000 5.14 180 22:50 07.06.2022
3245 Clouds 30 1015 72 10000 5.14 180 22:31 07.06.2022
3246 Clouds 32 1015 68 10000 5.14 180 21:37 07.06.2022
3247 Clouds 32 1015 68 10000 5.14 180 21:18 07.06.2022
3248 Clouds 32 1016 68 10000 5.14 180 20:37 07.06.2022
3249 Clouds 31 1016 69 10000 5.14 180 19:49 07.06.2022
3250 Clouds 31 1017 70 10000 6.17 180 18:25 07.06.2022
3251 Clouds 30 1017 74 10000 5.14 90 17:31 07.06.2022
3252 Clouds 29 1017 75 10000 3.09 90 16:43 07.06.2022
3253 Clouds 28 1017 79 10000 1.79 72 15:57 07.06.2022
3254 Clouds 27 1017 83 10000 0 0 15:27 07.06.2022
3255 Clouds 27 1016 83 10000 1.34 87 14:52 07.06.2022
3256 Clouds 26 1017 86 10000 0 0 14:34 07.06.2022
3257 Clouds 26 1016 90 10000 1.34 49 13:32 07.06.2022
3258 Clouds 26 1016 89 10000 0.59 31 12:52 07.06.2022
3259 Clouds 24 1016 91 10000 0.72 9 11:48 07.06.2022
3260 Clouds 24 1015 90 10000 1.29 309 10:27 07.06.2022
3261 Clouds 25 1015 90 10000 1.32 312 08:53 07.06.2022
3262 Clouds 25 1015 91 10000 1.24 308 07:35 07.06.2022
3263 Clouds 27 1016 83 10000 0.91 292 06:38 07.06.2022
3264 Clouds 27 1016 83 10000 0.91 292 06:38 07.06.2022
3265 Clouds 26 1016 85 10000 0 0 04:20 07.06.2022
3266 Clouds 29 1015 77 10000 1.34 131 01:27 07.06.2022
3267 Clouds 30 1015 68 10000 5.14 180 23:52 06.06.2022
3268 Clouds 31 1014 68 10000 5.14 160 22:54 06.06.2022
3269 Clouds 31 1014 68 10000 5.14 160 22:29 06.06.2022
3270 Clouds 31 1015 66 10000 5.14 180 20:43 06.06.2022
3271 Clouds 31 1016 68 10000 4.12 180 19:24 06.06.2022
3272 Clouds 31 1016 68 10000 5.14 180 18:48 06.06.2022
3273 Clouds 31 1016 71 10000 5.14 180 17:59 06.06.2022
3274 Clouds 30 1016 71 10000 2.57 180 16:57 06.06.2022
3275 Clouds 28 1016 76 10000 2.24 113 15:57 06.06.2022
3276 Clouds 27 1016 84 10000 1.34 86 14:59 06.06.2022
3277 Clouds 27 1016 85 10000 1.34 125 14:26 06.06.2022
3278 Clouds 26 1016 87 10000 1.34 106 13:20 06.06.2022
3279 Clouds 25 1015 90 10000 1.42 172 12:35 06.06.2022
3280 Clouds 27 1015 80 10000 1.34 117 11:49 06.06.2022
3281 Clouds 25 1014 90 10000 1.58 191 09:53 06.06.2022
3282 Clouds 25 1014 91 10000 1.59 178 09:18 06.06.2022
3283 Clouds 25 1014 91 10000 1.59 178 08:31 06.06.2022
3284 Clouds 28 1015 81 10000 0.89 122 07:20 06.06.2022
3285 Clouds 26 1016 89 10000 0 0 04:42 06.06.2022
3286 Clouds 29 1015 79 10000 0.89 140 02:19 06.06.2022
3287 Clouds 29 1014 77 10000 5.14 180 00:57 06.06.2022
3288 Clouds 29 1014 76 10000 5.14 180 00:34 06.06.2022
3289 Clouds 30 1014 73 10000 4.12 180 23:25 05.06.2022
3290 Clouds 31 1014 70 10000 6.17 180 22:26 05.06.2022
3291 Clouds 31 1015 69 10000 5.14 190 20:29 05.06.2022
3292 Clouds 31 1016 72 10000 1.79 184 19:26 05.06.2022
3293 Clouds 31 1016 69 10000 5.14 180 18:20 05.06.2022
3294 Clouds 30 1016 70 10000 7.2 180 17:39 05.06.2022
3295 Clouds 30 1016 71 10000 7.2 180 17:21 05.06.2022
3296 Clouds 30 1016 76 10000 7.72 180 16:47 05.06.2022
3297 Clouds 28 1016 83 8000 2.57 120 15:28 05.06.2022
3298 Clouds 28 1015 81 10000 0.89 172 14:21 05.06.2022
3299 Clouds 27 1014 86 10000 0.89 133 11:59 05.06.2022
3300 Clouds 27 1013 88 10000 0.89 151 10:45 05.06.2022
3301 Clouds 28 1013 87 10000 1.34 142 10:24 05.06.2022
3302 Clouds 28 1013 83 10000 0.89 173 09:42 05.06.2022
3303 Clouds 28 1014 84 10000 0.89 152 08:25 05.06.2022
3304 Clouds 28 1014 83 10000 1.34 134 06:47 05.06.2022
3305 Clouds 27 1015 87 10000 0.89 137 05:20 05.06.2022
3306 Clouds 28 1013 81 10000 0.45 168 02:57 05.06.2022
3307 Clouds 29 1013 78 10000 5.14 180 01:24 05.06.2022
3308 Clouds 29 1013 78 10000 5.14 180 01:24 05.06.2022
3309 Clouds 31 1012 69 10000 5.66 150 23:43 04.06.2022
3310 Clouds 31 1013 68 10000 6.17 180 21:31 04.06.2022
3311 Clouds 31 1014 67 10000 6.17 180 19:46 04.06.2022
3312 Clouds 30 1015 69 10000 5.14 180 17:28 04.06.2022
3313 Clouds 30 1015 70 10000 5.14 160 16:22 04.06.2022
3314 Clouds 29 1014 75 10000 4.12 170 15:51 04.06.2022
3315 Clouds 29 1014 76 10000 1.34 162 14:22 04.06.2022
3316 Clouds 27 1013 81 10000 0.89 134 11:45 04.06.2022
3317 Clouds 27 1014 80 10000 0.89 147 10:55 04.06.2022
3318 Clouds 27 1014 80 10000 0.89 148 10:19 04.06.2022
3319 Clouds 27 1014 80 10000 0.89 135 09:39 04.06.2022
3320 Clouds 24 1014 91 10000 1.61 167 08:39 04.06.2022
3321 Clouds 28 1015 80 10000 0.89 137 07:18 04.06.2022
3322 Clouds 27 1016 81 10000 1.34 134 04:33 04.06.2022
3323 Clouds 30 1013 72 10000 5.14 170 00:37 04.06.2022
3324 Clouds 31 1013 69 10000 5.14 180 23:28 03.06.2022
3325 Clouds 31 1013 66 10000 5.14 180 22:20 03.06.2022
3326 Clouds 31 1014 66 10000 4.12 180 20:42 03.06.2022
3327 Clouds 31 1014 66 10000 4.12 180 20:42 03.06.2022
3328 Clouds 31 1014 67 10000 5.14 180 19:58 03.06.2022
3329 Clouds 30 1015 72 10000 2.57 180 16:59 03.06.2022
3330 Clouds 30 1015 72 10000 2.57 180 16:30 03.06.2022
3331 Clouds 27 1015 77 10000 1.34 185 14:47 03.06.2022
3332 Clouds 27 1014 81 10000 0.89 189 12:28 03.06.2022
3333 Clouds 27 1014 82 10000 0.45 173 10:18 03.06.2022
3334 Clouds 27 1014 80 10000 0.45 178 09:29 03.06.2022
3335 Clouds 27 1014 80 10000 1.34 179 07:53 03.06.2022
3336 Clouds 24 1015 85 10000 1.48 200 07:19 03.06.2022
3337 Clouds 28 1015 81 10000 0.45 174 06:30 03.06.2022
3338 Clouds 26 1015 85 10000 0.45 171 04:35 03.06.2022
3339 Clouds 29 1013 76 10000 4.12 180 00:21 03.06.2022
3340 Clouds 30 1013 69 10000 5.14 180 22:34 02.06.2022
3341 Clouds 31 1013 69 10000 4.12 180 20:58 02.06.2022
3342 Clouds 30 1014 70 10000 4.12 180 19:59 02.06.2022
3343 Clouds 30 1014 70 10000 4.12 180 19:40 02.06.2022
3344 Clouds 30 1015 72 10000 3.09 270 18:59 02.06.2022
3345 Clouds 28 1015 78 10000 0.89 166 16:30 02.06.2022
3346 Clouds 27 1015 80 8000 1.79 104 15:47 02.06.2022
3347 Clouds 24 1014 91 10000 0.89 62 13:32 02.06.2022
3348 Clouds 26 1013 86 10000 1.34 67 12:51 02.06.2022
3349 Clouds 26 1013 84 10000 1.79 68 10:48 02.06.2022
3350 Clouds 26 1012 84 10000 1.34 65 09:45 02.06.2022
3351 Clouds 26 1012 85 10000 1.34 66 09:26 02.06.2022
3352 Clouds 24 1013 90 10000 0.68 100 08:23 02.06.2022
3353 Clouds 27 1013 82 10000 0.45 89 06:21 02.06.2022
3354 Clouds 27 1014 83 10000 0.89 160 03:51 02.06.2022
3355 Clouds 28 1013 80 10000 0.45 167 01:33 02.06.2022
3356 Clouds 29 1012 71 10000 5.14 180 23:22 01.06.2022
3357 Clouds 30 1012 69 10000 5.14 180 22:18 01.06.2022
3358 Clouds 30 1012 67 10000 4.12 180 21:24 01.06.2022
3359 Clouds 30 1012 66 10000 5.14 180 20:39 01.06.2022
3360 Clouds 30 1013 65 10000 3.6 180 19:52 01.06.2022
3361 Clouds 30 1013 69 10000 4.12 120 18:41 01.06.2022
3362 Clouds 29 1014 76 10000 2.57 120 16:58 01.06.2022
3363 Clouds 27 1015 78 10000 3.09 90 15:56 01.06.2022
3364 Clouds 26 1014 84 10000 2.24 62 14:50 01.06.2022
3365 Clouds 22 1014 91 10000 0 0 13:26 01.06.2022
3366 Clouds 26 1013 82 10000 1.34 3 11:23 01.06.2022
3367 Clouds 22 1013 93 10000 1.41 359 09:30 01.06.2022
3368 Clouds 22 1013 89 10000 1.08 351 08:19 01.06.2022
3369 Clouds 27 1014 81 10000 0.89 85 07:20 01.06.2022
3370 Clouds 26 1015 86 10000 0.45 126 04:41 01.06.2022
3371 Clouds 29 1013 69 10000 4.12 180 23:50 31.05.2022
3372 Clouds 30 1013 68 10000 5.14 160 22:43 31.05.2022
3373 Clouds 30 1013 68 10000 5.14 160 22:24 31.05.2022
3374 Clouds 30 1013 65 10000 6.17 180 21:44 31.05.2022
3375 Clouds 31 1014 64 10000 1.34 144 20:44 31.05.2022
3376 Clouds 31 1014 65 10000 2.06 140 19:46 31.05.2022
3377 Clouds 30 1015 66 10000 1.79 121 18:32 31.05.2022
3378 Clouds 29 1016 73 10000 3.6 30 17:38 31.05.2022
3379 Clouds 27 1016 82 10000 2.57 330 15:55 31.05.2022
3380 Clouds 27 1015 83 10000 2.57 330 15:34 31.05.2022
3381 Clouds 24 1015 91 10000 0.45 93 12:56 31.05.2022
3382 Clouds 24 1015 91 10000 1.79 56 12:18 31.05.2022
3383 Clouds 24 1015 89 10000 1.79 101 10:25 31.05.2022
3384 Clouds 26 1015 82 10000 1.79 18 08:26 31.05.2022
3385 Clouds 26 1016 82 10000 1.79 45 06:21 31.05.2022
3386 Clouds 27 1016 84 10000 2.24 58 04:31 31.05.2022
3387 Clouds 30 1014 72 10000 2.06 90 23:45 30.05.2022
3388 Clouds 30 1014 72 10000 2.24 114 23:24 30.05.2022
3389 Thunderstorm 30 1014 69 10000 2.57 150 22:37 30.05.2022
3390 Clouds 31 1014 69 10000 3.09 150 21:40 30.05.2022
3391 Clouds 31 1014 69 10000 3.09 150 20:52 30.05.2022
3392 Clouds 31 1015 66 10000 2.57 180 19:44 30.05.2022
3393 Clouds 30 1016 67 10000 3.09 60 18:18 30.05.2022
3394 Clouds 30 1016 71 10000 1.79 150 17:23 30.05.2022
3395 Clouds 30 1016 68 10000 3.09 90 16:22 30.05.2022
3396 Clouds 25 1015 87 10000 2.57 360 13:32 30.05.2022
3397 Clouds 23 1015 95 10000 2.37 354 11:40 30.05.2022
3398 Clouds 26 1014 81 10000 1.34 340 09:52 30.05.2022
3399 Clouds 26 1015 81 10000 1.34 353 07:51 30.05.2022
3400 Clouds 26 1016 82 10000 1.34 1 06:22 30.05.2022
3401 Clouds 25 1016 89 10000 0 0 04:46 30.05.2022
3402 Clouds 28 1014 76 10000 1.79 119 00:18 30.05.2022
3403 Clouds 30 1014 72 10000 1.34 152 22:40 29.05.2022
3404 Clouds 28 1014 74 10000 1.34 156 21:44 29.05.2022
3405 Clouds 28 1015 82 10000 1.34 150 20:23 29.05.2022
3406 Clouds 30 1016 70 10000 0.89 84 19:29 29.05.2022
3407 Clouds 28 1016 75 10000 1.34 125 17:56 29.05.2022
3408 Clouds 27 1017 80 10000 0.89 275 16:22 29.05.2022
3409 Clouds 26 1017 81 10000 2.24 83 15:43 29.05.2022
3410 Clouds 27 1016 79 10000 2.24 90 14:54 29.05.2022
3411 Clouds 24 1016 84 10000 2.21 350 12:33 29.05.2022
3412 Clouds 26 1015 81 10000 1.79 8 11:19 29.05.2022
3413 Clouds 26 1014 80 10000 1.34 5 09:54 29.05.2022
3414 Clouds 26 1015 81 10000 1.34 329 07:59 29.05.2022
3415 Clouds 26 1016 80 10000 1.66 334 04:58 29.05.2022
3416 Clouds 25 1016 83 10000 1.66 334 04:33 29.05.2022
3417 Clouds 28 1015 74 10000 0.89 130 01:23 29.05.2022
3418 Clouds 30 1014 67 10000 5.14 160 23:47 28.05.2022
3419 Clouds 30 1014 67 10000 5.14 160 23:19 28.05.2022
3420 Clouds 30 1014 70 10000 5.14 180 21:53 28.05.2022
3421 Clouds 30 1015 71 10000 5.14 150 20:53 28.05.2022
3422 Clouds 29 1016 71 10000 2.24 124 19:20 28.05.2022
3423 Clouds 30 1017 66 8000 5.14 180 18:24 28.05.2022
3424 Clouds 30 1017 71 10000 2.57 90 17:33 28.05.2022
3425 Clouds 28 1017 77 10000 1.79 103 15:50 28.05.2022
3426 Clouds 27 1017 78 10000 1.79 82 15:20 28.05.2022
3427 Clouds 25 1016 86 10000 0.89 354 13:36 28.05.2022
3428 Clouds 25 1015 82 10000 0.89 355 12:42 28.05.2022
3429 Clouds 25 1015 82 10000 1.34 12 11:37 28.05.2022
3430 Clouds 22 1015 93 10000 1.87 347 10:39 28.05.2022
3431 Clouds 22 1015 93 10000 1.71 349 09:54 28.05.2022
3432 Clouds 23 1016 93 10000 1.51 346 08:24 28.05.2022
3433 Clouds 24 1017 85 10000 1.72 347 06:34 28.05.2022
3434 Clouds 24 1017 86 10000 1.34 35 05:18 28.05.2022
3435 Clouds 26 1016 78 10000 1.34 351 02:26 28.05.2022
3436 Clouds 26 1016 79 8000 1.34 15 23:57 27.05.2022
3437 Clouds 27 1015 76 8000 3.09 40 22:38 27.05.2022
3438 Clouds 28 1015 73 8000 5.14 180 21:28 27.05.2022
3439 Clouds 30 1016 70 10000 7.2 70 20:44 27.05.2022
3440 Clouds 30 1016 69 10000 7.2 70 20:19 27.05.2022
3441 Clouds 30 1016 70 10000 1.79 152 19:38 27.05.2022
3442 Clouds 30 1017 69 10000 1.79 147 19:19 27.05.2022
3443 Clouds 30 1017 67 10000 3.09 30 17:19 27.05.2022
3444 Clouds 28 1018 73 10000 2.24 123 15:56 27.05.2022
3445 Clouds 26 1017 82 10000 2.24 68 14:53 27.05.2022
3446 Clouds 24 1016 87 10000 0.89 337 13:40 27.05.2022
3447 Clouds 21 1016 92 10000 1.94 340 12:20 27.05.2022
3448 Clouds 21 1016 92 10000 1.94 340 11:30 27.05.2022
3449 Clouds 21 1015 92 10000 2.1 343 10:41 27.05.2022
3450 Clouds 25 1015 81 10000 0.89 339 09:59 27.05.2022
3451 Clouds 22 1016 91 10000 2.01 358 09:29 27.05.2022
3452 Clouds 25 1017 79 10000 1.34 340 07:39 27.05.2022
3453 Clouds 24 1017 86 10000 2.24 335 03:59 27.05.2022
3454 Clouds 25 1016 81 10000 2.57 360 01:27 27.05.2022
3455 Clouds 27 1016 76 10000 4.12 60 23:23 26.05.2022
3456 Clouds 29 1016 67 10000 5.14 180 21:57 26.05.2022
3457 Clouds 29 1016 66 10000 5.14 180 21:27 26.05.2022
3458 Clouds 31 1017 65 10000 1.79 156 19:34 26.05.2022
3459 Clouds 31 1017 66 10000 3.6 30 18:46 26.05.2022
3460 Clouds 31 1018 66 10000 2.57 60 17:36 26.05.2022
3461 Clouds 29 1018 73 10000 2.57 60 16:18 26.05.2022
3462 Clouds 27 1018 78 10000 3.09 350 15:24 26.05.2022
3463 Clouds 25 1017 85 10000 0.89 343 13:58 26.05.2022
3464 Clouds 24 1016 83 10000 0.89 4 11:59 26.05.2022
3465 Clouds 25 1016 82 10000 1.34 3 11:18 26.05.2022
3466 Clouds 25 1016 82 10000 0.89 339 09:38 26.05.2022
3467 Clouds 25 1016 82 10000 1.79 4 08:40 26.05.2022
3468 Clouds 25 1016 82 10000 1.79 4 08:40 26.05.2022
3469 Clouds 24 1018 89 8000 1.34 3 05:30 26.05.2022
3470 Clouds 25 1015 79 10000 1.79 327 02:23 26.05.2022
3471 Clouds 24 1015 86 8000 1.79 358 23:53 25.05.2022
3472 Clouds 24 1015 81 8000 2.24 37 22:52 25.05.2022
3473 Clouds 28 1015 72 7000 7.72 90 21:42 25.05.2022
3474 Clouds 30 1015 68 10000 3.09 180 20:49 25.05.2022
3475 Clouds 31 1015 66 10000 5.14 180 19:42 25.05.2022
3476 Clouds 30 1016 69 10000 3.09 30 18:47 25.05.2022
3477 Clouds 29 1017 73 10000 2.57 90 16:58 25.05.2022
3478 Clouds 28 1017 73 10000 2.57 90 16:27 25.05.2022
3479 Clouds 27 1017 79 10000 4.12 30 15:36 25.05.2022
3480 Clouds 26 1017 83 10000 2.24 11 14:50 25.05.2022
3481 Clouds 25 1017 84 10000 1.79 27 14:31 25.05.2022
3482 Clouds 24 1016 89 10000 2.24 355 13:23 25.05.2022
3483 Clear 24 1016 83 10000 1.34 2 11:49 25.05.2022
3484 Clear 25 1015 83 10000 1.34 347 10:24 25.05.2022
3485 Clear 25 1016 83 10000 1.79 329 09:29 25.05.2022
3486 Clouds 26 1016 83 10000 1.79 357 07:26 25.05.2022
3487 Clouds 24 1016 86 8000 1.34 3 05:41 25.05.2022
3488 Clouds 26 1015 78 10000 0.89 32 01:51 25.05.2022
3489 Clouds 26 1015 79 8000 1.34 56 23:48 24.05.2022
3490 Clouds 26 1014 79 8000 5.14 30 22:58 24.05.2022
3491 Clouds 27 1014 75 8000 5.14 90 21:47 24.05.2022
3492 Clouds 27 1014 75 8000 5.14 90 21:23 24.05.2022
3493 Clouds 29 1015 71 10000 4.12 180 20:59 24.05.2022
3494 Clouds 28 1015 86 8000 5.14 90 19:20 24.05.2022
3495 Clouds 29 1016 70 10000 3.09 90 17:50 24.05.2022
3496 Clouds 29 1016 71 10000 1.79 102 16:36 24.05.2022
3497 Clouds 27 1016 79 10000 3.09 360 15:31 24.05.2022
3498 Clouds 26 1016 84 10000 1.34 59 14:37 24.05.2022
3499 Clouds 25 1016 87 10000 1.34 2 13:35 24.05.2022
3500 Clouds 25 1015 82 10000 1.34 313 12:19 24.05.2022
3501 Clouds 23 1015 92 10000 2.14 347 09:51 24.05.2022
3502 Clouds 23 1015 92 10000 2.19 347 08:51 24.05.2022
3503 Clouds 26 1016 81 10000 1.79 15 07:44 24.05.2022
3504 Clouds 26 1017 80 10000 1.34 352 06:34 24.05.2022
3505 Clouds 25 1017 84 10000 1.79 336 03:32 24.05.2022
3506 Clouds 25 1016 82 10000 1.79 18 01:46 24.05.2022
3507 Clouds 27 1015 78 10000 1.34 51 00:30 24.05.2022
3508 Clouds 29 1014 72 10000 5.14 180 22:24 23.05.2022
3509 Clouds 30 1014 70 10000 5.14 180 21:50 23.05.2022
3510 Clouds 31 1014 66 10000 3.09 210 20:46 23.05.2022
3511 Clouds 30 1016 67 10000 3.09 160 19:51 23.05.2022
3512 Clouds 30 1016 67 10000 3.09 160 19:22 23.05.2022
3513 Clouds 30 1017 68 10000 5.14 180 18:40 23.05.2022
3514 Clouds 30 1017 66 10000 3.09 60 17:56 23.05.2022
3515 Clouds 30 1018 70 10000 1.79 106 16:29 23.05.2022
3516 Clouds 26 1018 82 10000 1.79 53 14:18 23.05.2022
3517 Clouds 23 1017 93 10000 2.09 352 11:53 23.05.2022
3518 Clouds 26 1017 82 10000 0.89 353 10:49 23.05.2022
3519 Clouds 26 1017 81 10000 0.89 359 09:48 23.05.2022
3520 Clouds 26 1017 81 10000 0.89 338 08:46 23.05.2022
3521 Clouds 26 1017 81 10000 0.89 338 08:46 23.05.2022
3522 Clouds 26 1018 80 10000 0.89 13 07:31 23.05.2022
3523 Clouds 26 1019 80 10000 2.24 25 06:40 23.05.2022
3524 Clouds 25 1019 85 10000 2.24 13 03:41 23.05.2022
3525 Clouds 25 1019 84 10000 1.34 359 01:52 23.05.2022
3526 Clouds 25 1018 82 10000 1.79 355 01:29 23.05.2022
3527 Clouds 26 1018 82 10000 0.89 106 23:18 22.05.2022
3528 Clouds 27 1018 80 8000 2.24 115 22:27 22.05.2022
3529 Clouds 29 1018 70 10000 5.14 60 21:51 22.05.2022
3530 Clouds 31 1019 66 10000 5.14 180 20:43 22.05.2022
3531 Clouds 31 1019 64 10000 5.14 180 20:22 22.05.2022
3532 Clouds 31 1019 66 10000 3.6 180 19:34 22.05.2022
3533 Clouds 31 1020 68 10000 2.24 115 18:50 22.05.2022
3534 Clouds 30 1020 69 10000 2.24 112 18:21 22.05.2022
3535 Clouds 30 1020 68 10000 2.68 98 16:57 22.05.2022
3536 Clouds 28 1020 75 10000 1.34 78 15:34 22.05.2022
3537 Clouds 27 1020 80 10000 1.34 39 14:47 22.05.2022
3538 Clouds 26 1020 81 10000 1.34 28 12:55 22.05.2022
3539 Clouds 26 1019 82 10000 0.89 346 12:33 22.05.2022
3540 Clouds 26 1019 81 10000 1.79 26 10:55 22.05.2022
3541 Clouds 26 1019 81 10000 1.34 20 09:38 22.05.2022
3542 Clouds 26 1019 85 10000 2.33 354 07:52 22.05.2022
3543 Clouds 26 1020 83 10000 1.79 21 07:20 22.05.2022
3544 Clouds 26 1021 83 10000 2.24 12 04:49 22.05.2022
3545 Clouds 28 1020 74 10000 1.34 126 01:20 22.05.2022
3546 Clouds 29 1019 71 10000 5.14 180 23:57 21.05.2022
3547 Clouds 30 1019 70 10000 5.14 180 23:32 21.05.2022
3548 Clouds 30 1018 67 10000 3.09 180 22:22 21.05.2022
3549 Clouds 31 1019 67 10000 5.14 180 21:39 21.05.2022
3550 Clouds 31 1019 68 10000 5.14 180 20:48 21.05.2022
3551 Clouds 31 1020 68 10000 2.57 240 19:59 21.05.2022
3552 Clouds 31 1020 67 10000 2.57 240 19:21 21.05.2022
3553 Clouds 30 1020 70 10000 2.57 90 17:29 21.05.2022
3554 Clouds 27 1021 82 10000 1.79 49 14:58 21.05.2022
3555 Clouds 27 1020 85 10000 1.79 45 14:24 21.05.2022
3556 Clouds 26 1021 84 10000 3.26 356 13:34 21.05.2022
3557 Clouds 26 1020 87 10000 2.48 352 12:39 21.05.2022
3558 Clouds 23 1020 91 10000 2.1 351 11:45 21.05.2022
3559 Clouds 24 1019 90 10000 1.67 347 10:22 21.05.2022
3560 Clouds 26 1019 87 10000 1.62 351 09:18 21.05.2022
3561 Clouds 24 1019 89 10000 1.62 351 08:39 21.05.2022
3562 Clouds 24 1020 90 10000 1.58 355 06:21 21.05.2022
3563 Clouds 28 1019 78 10000 2.57 180 01:59 21.05.2022
3564 Clouds 30 1018 73 10000 3.6 180 23:36 20.05.2022
3565 Clouds 30 1017 70 10000 5.14 180 22:41 20.05.2022
3566 Clouds 31 1017 69 10000 5.14 180 22:18 20.05.2022
3567 Clouds 31 1017 70 10000 4.12 180 21:19 20.05.2022
3568 Clouds 31 1017 69 10000 4.12 170 20:47 20.05.2022
3569 Clouds 31 1018 70 10000 4.12 180 19:47 20.05.2022
3570 Clouds 30 1018 70 10000 5.14 180 18:53 20.05.2022
3571 Clouds 30 1019 70 10000 5.14 180 18:18 20.05.2022
3572 Clouds 29 1019 77 10000 3.09 90 16:23 20.05.2022
3573 Clouds 28 1019 80 10000 2.24 99 15:54 20.05.2022
3574 Clouds 27 1018 86 10000 1.34 97 14:44 20.05.2022
3575 Clouds 26 1018 87 10000 1.79 62 14:26 20.05.2022
3576 Clouds 26 1017 87 10000 1.34 58 12:37 20.05.2022
3577 Clouds 25 1017 90 10000 1.7 346 10:47 20.05.2022
3578 Clouds 26 1017 89 10000 1.03 13 09:27 20.05.2022
3579 Clouds 26 1017 88 10000 0.7 2 08:24 20.05.2022
3580 Clouds 27 1017 84 10000 1.34 106 06:42 20.05.2022
3581 Clouds 24 1019 94 10000 0 0 05:39 20.05.2022
3582 Clouds 28 1017 80 10000 3.09 180 01:29 20.05.2022
3583 Clouds 30 1016 72 10000 4.12 150 23:46 19.05.2022
3584 Clouds 31 1016 70 10000 5.14 170 22:35 19.05.2022
3585 Clouds 31 1016 71 10000 6.17 180 21:50 19.05.2022
3586 Clouds 31 1016 70 10000 6.17 180 21:23 19.05.2022
3587 Clouds 31 1016 71 10000 5.14 180 20:43 19.05.2022
3588 Clouds 30 1017 72 10000 5.14 180 19:54 19.05.2022
3589 Clouds 30 1017 72 10000 3.09 180 18:59 19.05.2022
3590 Clouds 30 1018 75 10000 5.14 190 17:36 19.05.2022
3591 Clouds 28 1018 79 10000 1.79 137 15:43 19.05.2022
3592 Clouds 27 1018 83 10000 1.34 170 14:39 19.05.2022
3593 Clouds 27 1017 83 10000 1.34 99 14:19 19.05.2022
3594 Clouds 26 1016 89 10000 0.89 328 11:54 19.05.2022
3595 Clouds 27 1016 86 10000 1.34 70 10:30 19.05.2022
3596 Clouds 27 1016 83 10000 0.89 113 08:39 19.05.2022
3597 Clouds 28 1017 84 10000 1.34 108 07:18 19.05.2022
3598 Clouds 27 1017 82 10000 0.89 149 03:26 19.05.2022
3599 Clouds 29 1015 79 10000 5.14 180 00:57 19.05.2022
3600 Clouds 30 1015 75 10000 4.12 180 23:35 18.05.2022
3601 Clouds 30 1015 74 10000 5.14 180 22:43 18.05.2022
3602 Clouds 30 1015 71 10000 3.6 180 21:42 18.05.2022
3603 Clouds 31 1016 71 10000 3.6 180 21:20 18.05.2022
3604 Clouds 31 1016 70 10000 5.14 180 20:19 18.05.2022
3605 Clouds 30 1017 72 10000 5.14 180 18:53 18.05.2022
3606 Clouds 30 1017 72 10000 5.14 180 18:53 18.05.2022
3607 Clouds 30 1018 73 10000 4.12 180 17:42 18.05.2022
3608 Clouds 29 1018 73 10000 4.12 180 17:24 18.05.2022
3609 Clouds 29 1018 75 10000 2.57 150 16:52 18.05.2022
3610 Clouds 28 1018 77 10000 1.34 107 15:45 18.05.2022
3611 Clouds 28 1018 78 10000 1.79 70 15:20 18.05.2022
3612 Clouds 26 1018 88 10000 1.34 84 13:59 18.05.2022
3613 Clouds 26 1017 84 10000 0.89 11 12:53 18.05.2022
3614 Clouds 26 1017 87 10000 1.07 344 11:48 18.05.2022
3615 Clouds 26 1017 87 10000 0.8 344 11:29 18.05.2022
3616 Clouds 26 1017 85 10000 0.89 42 10:36 18.05.2022
3617 Clouds 27 1017 84 10000 0.45 106 07:56 18.05.2022
3618 Clouds 27 1018 85 10000 1.33 330 06:52 18.05.2022
3619 Clouds 28 1017 83 10000 0.45 106 02:47 18.05.2022
3620 Clouds 29 1016 78 10000 3.09 180 00:41 18.05.2022
3621 Clouds 30 1015 73 10000 5.14 180 22:59 17.05.2022
3622 Clouds 30 1016 71 10000 5.14 180 21:21 17.05.2022
3623 Clouds 30 1016 71 10000 5.14 180 21:21 17.05.2022
3624 Clouds 31 1016 70 10000 6.17 180 20:38 17.05.2022
3625 Clouds 30 1017 75 10000 1.79 124 19:29 17.05.2022
3626 Clouds 30 1017 75 10000 6.17 180 18:22 17.05.2022
3627 Clouds 29 1018 76 10000 6.17 150 17:31 17.05.2022
3628 Clouds 29 1018 77 8000 7.2 180 16:53 17.05.2022
3629 Clouds 28 1018 82 8000 3.13 122 15:45 17.05.2022
3630 Clouds 26 1017 86 10000 1.79 100 14:48 17.05.2022
3631 Clouds 25 1017 87 10000 1.34 110 14:23 17.05.2022
3632 Clouds 26 1016 90 10000 1.34 96 12:36 17.05.2022
3633 Clouds 25 1015 91 10000 0.3 349 10:23 17.05.2022
3634 Clouds 26 1016 89 10000 0.15 266 08:45 17.05.2022
3635 Clouds 24 1016 90 10000 0.55 247 07:40 17.05.2022
3636 Clouds 26 1017 82 10000 0.89 137 04:33 17.05.2022
3637 Clouds 29 1014 72 10000 4.12 190 00:47 17.05.2022
3638 Clouds 30 1014 67 10000 5.14 180 22:45 16.05.2022
3639 Clouds 30 1014 68 10000 5.14 180 22:18 16.05.2022
3640 Clouds 30 1015 67 10000 6.17 180 20:50 16.05.2022
3641 Clouds 30 1015 70 10000 5.14 150 19:59 16.05.2022
3642 Clouds 29 1016 72 10000 5.14 180 18:39 16.05.2022
3643 Clouds 27 1016 81 10000 1.34 96 16:37 16.05.2022
3644 Clouds 24 1016 90 10000 1.79 57 14:46 16.05.2022
3645 Clouds 23 1016 91 10000 0 0 13:26 16.05.2022
3646 Clouds 23 1015 87 10000 1.47 335 11:42 16.05.2022
3647 Clouds 24 1015 85 10000 1.37 343 10:30 16.05.2022
3648 Clouds 26 1015 83 10000 0.89 72 07:45 16.05.2022
3649 Clouds 24 1016 88 10000 0 0 05:40 16.05.2022
3650 Clouds 29 1013 70 10000 6.17 180 23:59 15.05.2022
3651 Clouds 29 1013 68 10000 6.17 180 22:36 15.05.2022
3652 Clouds 29 1014 71 10000 2.24 132 21:48 15.05.2022
3653 Clouds 30 1014 71 10000 2.24 153 21:21 15.05.2022
3654 Clouds 30 1014 66 10000 5.66 160 20:34 15.05.2022
3655 Clouds 29 1016 72 10000 2.68 114 17:56 15.05.2022
3656 Clouds 28 1016 75 10000 2.57 90 16:36 15.05.2022
3657 Clouds 24 1016 87 10000 0.89 5 14:18 15.05.2022
3658 Clouds 23 1015 91 10000 0.89 337 13:35 15.05.2022
3659 Clouds 24 1015 87 10000 0.89 339 11:55 15.05.2022
3660 Clouds 24 1014 85 10000 1.79 9 10:40 15.05.2022
3661 Clouds 25 1014 80 10000 1.79 82 08:52 15.05.2022
3662 Clouds 26 1015 80 10000 1.79 68 06:59 15.05.2022
3663 Clouds 26 1015 80 10000 1.34 66 06:39 15.05.2022
3664 Clouds 27 1015 77 10000 1.79 119 02:24 15.05.2022
3665 Clouds 29 1014 71 10000 5.14 180 23:56 14.05.2022
3666 Clouds 29 1014 71 10000 5.14 180 23:34 14.05.2022
3667 Clouds 30 1014 69 10000 6.69 180 21:45 14.05.2022
3668 Clouds 30 1014 69 10000 6.69 180 21:19 14.05.2022
3669 Clouds 30 1015 67 10000 5.14 100 19:54 14.05.2022
3670 Clouds 30 1015 67 10000 5.14 100 19:20 14.05.2022
3671 Clouds 29 1016 71 10000 2.68 108 18:51 14.05.2022
3672 Clouds 29 1016 71 10000 2.68 108 18:51 14.05.2022
3673 Clouds 29 1016 72 10000 4.02 112 17:42 14.05.2022
3674 Clouds 28 1016 78 10000 5.14 90 15:55 14.05.2022
3675 Clouds 26 1016 85 10000 3.09 60 14:37 14.05.2022
3676 Clouds 25 1015 86 10000 2.24 69 12:51 14.05.2022
3677 Clouds 25 1014 87 10000 1.79 59 11:37 14.05.2022
3678 Clouds 26 1014 83 10000 1.34 59 10:24 14.05.2022
3679 Clouds 25 1014 85 10000 2.24 58 09:56 14.05.2022
3680 Clouds 25 1014 84 10000 2.24 64 08:59 14.05.2022
3681 Clouds 26 1015 84 10000 1.79 70 07:21 14.05.2022
3682 Clouds 25 1015 82 10000 0 0 03:45 14.05.2022
3683 Clouds 28 1014 72 10000 5.14 150 00:21 14.05.2022
3684 Clouds 29 1014 69 10000 2.57 150 23:23 13.05.2022
3685 Clouds 29 1014 68 10000 5.14 180 22:52 13.05.2022
3686 Clouds 29 1014 67 10000 5.14 180 22:20 13.05.2022
3687 Clouds 29 1014 65 10000 6.17 180 20:57 13.05.2022
3688 Clouds 29 1014 66 10000 6.17 180 20:30 13.05.2022
3689 Clouds 29 1015 66 10000 5.14 180 19:44 13.05.2022
3690 Clouds 29 1015 66 10000 5.14 140 18:44 13.05.2022
3691 Clouds 28 1015 70 10000 5.14 130 17:29 13.05.2022
3692 Clouds 27 1016 78 10000 2.68 85 16:23 13.05.2022
3693 Clouds 26 1016 81 10000 2.57 150 15:45 13.05.2022
3694 Clouds 25 1016 86 10000 1.79 77 14:24 13.05.2022
3695 Clouds 25 1014 91 10000 2.24 66 12:46 13.05.2022
3696 Clouds 25 1014 90 10000 1.34 46 11:36 13.05.2022
3697 Clouds 25 1013 91 10000 0.89 40 09:43 13.05.2022
3698 Clouds 25 1014 90 10000 0.89 359 08:51 13.05.2022
3699 Clouds 25 1014 90 10000 1.34 69 07:49 13.05.2022
3700 Clouds 25 1015 90 10000 0.89 29 06:44 13.05.2022
3701 Clouds 24 1015 91 6000 1.34 341 04:48 13.05.2022
3702 Clouds 26 1013 85 10000 1.34 104 00:42 13.05.2022
3703 Clouds 28 1013 77 10000 5.14 160 22:47 12.05.2022
3704 Clouds 28 1012 75 10000 5.14 160 22:29 12.05.2022
3705 Clouds 29 1013 75 8000 1.79 129 20:41 12.05.2022
3706 Clouds 28 1014 78 10000 5.14 180 19:24 12.05.2022
3707 Clouds 30 1014 73 10000 5.14 180 18:19 12.05.2022
3708 Clouds 28 1015 76 10000 3.09 180 16:34 12.05.2022
3709 Clouds 27 1014 84 10000 1.34 108 14:51 12.05.2022
3710 Clouds 25 1014 93 10000 0.89 15 13:48 12.05.2022
3711 Clouds 26 1012 87 10000 0.89 70 11:31 12.05.2022
3712 Clouds 26 1012 86 10000 0.45 39 10:22 12.05.2022
3713 Clouds 26 1012 87 10000 2.41 206 08:52 12.05.2022
3714 Clouds 26 1013 86 10000 0.89 5 07:58 12.05.2022
3715 Clouds 26 1013 86 10000 0.89 357 06:58 12.05.2022
3716 Clouds 25 1014 92 8000 0.45 196 03:46 12.05.2022
3717 Clouds 29 1012 76 10000 5.14 150 00:50 12.05.2022
3718 Clouds 29 1012 73 10000 6.17 150 22:53 11.05.2022
3719 Clouds 30 1012 72 10000 6.17 180 21:59 11.05.2022
3720 Clouds 30 1012 70 10000 6.17 180 21:24 11.05.2022
3721 Clouds 30 1012 70 10000 5.14 180 19:42 11.05.2022
3722 Clouds 29 1014 75 10000 2.57 180 17:24 11.05.2022
3723 Clouds 29 1014 77 10000 5.14 180 16:19 11.05.2022
3724 Clouds 26 1014 86 10000 1.34 133 14:45 11.05.2022
3725 Clouds 26 1013 87 10000 0.89 142 14:24 11.05.2022
3726 Clouds 26 1012 84 10000 0.86 173 12:23 11.05.2022
3727 Clouds 27 1012 84 10000 0.45 179 11:47 11.05.2022
3728 Clouds 27 1012 83 10000 0.89 172 09:29 11.05.2022
3729 Clouds 23 1014 90 10000 0.91 199 06:27 11.05.2022
3730 Clouds 28 1013 75 10000 2.57 180 01:29 11.05.2022
3731 Clouds 30 1012 69 10000 5.14 180 22:56 10.05.2022
3732 Clouds 30 1012 69 10000 5.14 180 22:20 10.05.2022
3733 Clouds 30 1013 67 10000 5.66 180 21:21 10.05.2022
3734 Clouds 31 1014 67 10000 5.14 180 20:21 10.05.2022
3735 Clouds 30 1014 70 10000 5.14 180 18:36 10.05.2022
3736 Clouds 29 1015 70 10000 5.14 180 17:37 10.05.2022
3737 Clouds 27 1015 79 10000 0.89 162 15:49 10.05.2022
3738 Clouds 26 1014 84 10000 0.45 335 12:48 10.05.2022
3739 Clouds 26 1013 84 10000 0.63 184 11:53 10.05.2022
3740 Clouds 25 1013 84 10000 0.89 336 11:28 10.05.2022
3741 Clouds 25 1013 84 10000 0.89 296 10:55 10.05.2022
3742 Clouds 26 1013 83 10000 0.45 249 09:27 10.05.2022
3743 Clear 23 1013 89 10000 1.11 272 07:51 10.05.2022
3744 Clouds 25 1015 86 10000 0.45 158 05:43 10.05.2022
3745 Clouds 27 1013 76 10000 5.14 180 01:37 10.05.2022
3746 Clouds 29 1012 68 10000 3.6 180 23:42 09.05.2022
3747 Clouds 29 1012 68 10000 3.6 180 23:42 09.05.2022
3748 Clouds 31 1012 65 10000 5.14 150 22:33 09.05.2022
3749 Clouds 31 1013 63 10000 5.14 180 21:36 09.05.2022
3750 Clouds 30 1014 68 10000 5.14 180 19:52 09.05.2022
3751 Clouds 30 1014 68 10000 5.14 180 19:52 09.05.2022
3752 Clouds 30 1014 69 10000 5.14 150 18:22 09.05.2022
3753 Clouds 29 1015 74 10000 1.79 125 16:55 09.05.2022
3754 Clouds 28 1015 77 10000 1.34 112 15:54 09.05.2022
3755 Clouds 28 1015 77 10000 1.79 119 15:35 09.05.2022
3756 Clouds 25 1015 83 10000 1.34 344 14:33 09.05.2022
3757 Clouds 24 1015 85 10000 1.34 338 13:51 09.05.2022
3758 Clouds 25 1014 78 10000 1.34 359 12:51 09.05.2022
3759 Clouds 24 1014 81 10000 1.36 338 11:52 09.05.2022
3760 Clouds 24 1013 87 10000 1.13 335 10:46 09.05.2022
3761 Clear 22 1013 85 10000 1.6 319 09:59 09.05.2022
3762 Clouds 26 1013 80 10000 0.89 291 07:56 09.05.2022
3763 Clouds 25 1015 83 10000 0 0 04:33 09.05.2022
3764 Clouds 25 1015 83 10000 0 0 04:33 09.05.2022
3765 Clouds 29 1012 66 10000 3.6 180 00:22 09.05.2022
3766 Clouds 30 1013 64 10000 5.14 150 22:58 08.05.2022
3767 Clouds 30 1013 64 10000 5.14 150 22:27 08.05.2022
3768 Clouds 30 1013 64 10000 5.14 190 20:41 08.05.2022
3769 Clouds 30 1014 63 10000 5.14 190 20:18 08.05.2022
3770 Clouds 30 1014 63 10000 5.14 180 19:27 08.05.2022
3771 Clouds 30 1014 63 10000 5.14 180 19:27 08.05.2022
3772 Clouds 29 1015 67 10000 3.6 180 18:25 08.05.2022
3773 Clouds 29 1016 70 10000 5.14 160 17:21 08.05.2022
3774 Clouds 27 1015 76 10000 1.34 112 15:43 08.05.2022
3775 Clouds 27 1015 76 10000 0.89 184 15:20 08.05.2022
3776 Clouds 24 1015 86 10000 0.45 213 12:45 08.05.2022
3777 Clouds 25 1014 85 10000 0.45 249 10:46 08.05.2022
3778 Clouds 25 1014 84 10000 0.89 204 10:21 08.05.2022
3779 Clouds 24 1014 89 10000 1.52 211 09:46 08.05.2022
3780 Clouds 26 1015 82 10000 0.45 164 07:33 08.05.2022
3781 Clouds 26 1016 83 10000 0.45 175 04:24 08.05.2022
3782 Clouds 26 1015 81 10000 0.89 155 03:20 08.05.2022
3783 Clouds 28 1014 74 10000 5.14 180 00:29 08.05.2022
3784 Clouds 29 1013 72 10000 7.2 180 23:53 07.05.2022
3785 Clouds 29 1013 72 10000 7.72 180 22:57 07.05.2022
3786 Clouds 29 1013 72 10000 7.72 180 22:33 07.05.2022
3787 Clouds 30 1014 69 10000 7.72 180 21:43 07.05.2022
3788 Clouds 30 1014 69 10000 7.2 180 20:55 07.05.2022
3789 Clouds 30 1015 69 10000 7.72 170 19:58 07.05.2022
3790 Clouds 29 1016 74 10000 5.14 180 17:51 07.05.2022
3791 Clouds 27 1017 81 10000 1.34 125 15:53 07.05.2022
3792 Clouds 26 1016 87 10000 1.79 107 14:20 07.05.2022
3793 Clouds 25 1015 88 10000 0.89 79 10:57 07.05.2022
3794 Clouds 24 1015 89 10000 1.11 206 09:22 07.05.2022
3795 Clouds 26 1015 85 10000 0.45 165 07:52 07.05.2022
3796 Clouds 26 1016 83 10000 0.89 147 06:43 07.05.2022
3797 Clouds 25 1017 87 10000 0.45 142 05:22 07.05.2022
3798 Clear 27 1016 81 10000 0.89 172 02:21 07.05.2022
3799 Clouds 29 1014 73 10000 3.6 180 23:38 06.05.2022
3800 Clouds 29 1014 72 10000 6.17 180 22:31 06.05.2022
3801 Clouds 30 1014 70 10000 6.17 180 21:43 06.05.2022
3802 Clouds 30 1015 70 10000 6.69 150 20:35 06.05.2022
3803 Clouds 30 1015 68 10000 5.14 180 19:31 06.05.2022
3804 Clouds 29 1016 76 10000 1.79 148 19:00 06.05.2022
3805 Clouds 29 1016 72 10000 3.09 150 18:19 06.05.2022
3806 Clouds 29 1017 75 10000 2.06 90 16:53 06.05.2022
3807 Clouds 27 1017 82 10000 2.57 110 15:42 06.05.2022
3808 Clouds 25 1017 85 10000 1.79 117 14:53 06.05.2022
3809 Clouds 25 1016 86 10000 0.89 68 12:56 06.05.2022
3810 Clouds 25 1016 86 10000 1.34 68 12:37 06.05.2022
3811 Clouds 25 1016 86 10000 1.34 68 11:42 06.05.2022
3812 Clouds 25 1015 87 10000 0.89 99 10:30 06.05.2022
3813 Clear 25 1015 87 10000 0.89 70 09:45 06.05.2022
3814 Clear 25 1016 87 10000 1.34 80 08:33 06.05.2022
3815 Clouds 25 1016 85 10000 1.34 100 06:48 06.05.2022
3816 Clouds 25 1017 86 10000 1.34 83 05:23 06.05.2022
3817 Clear 27 1016 79 10000 0.89 90 02:47 06.05.2022
3818 Clouds 28 1015 74 10000 5.14 170 00:19 06.05.2022
3819 Clouds 30 1014 67 10000 5.14 180 21:56 05.05.2022
3820 Clouds 30 1014 67 10000 5.14 180 21:19 05.05.2022
3821 Clouds 29 1016 71 10000 2.06 180 19:54 05.05.2022
3822 Clouds 29 1017 71 10000 2.57 90 18:31 05.05.2022
3823 Clouds 28 1017 71 10000 2.06 90 16:20 05.05.2022
3824 Clouds 26 1017 81 10000 1.79 52 14:49 05.05.2022
3825 Clouds 24 1016 86 10000 0.89 40 13:22 05.05.2022
3826 Clouds 25 1016 82 10000 0.89 358 12:25 05.05.2022
3827 Clouds 25 1015 83 10000 0.89 343 10:48 05.05.2022
3828 Clouds 24 1015 85 10000 1.34 6 09:39 05.05.2022
3829 Clouds 25 1016 83 10000 1.34 10 07:35 05.05.2022
3830 Clouds 25 1017 81 10000 3.09 60 04:28 05.05.2022
3831 Clouds 27 1015 76 10000 2.57 180 01:53 05.05.2022
3832 Clouds 27 1015 76 10000 2.57 180 01:24 05.05.2022
3833 Clouds 29 1015 67 10000 5.14 180 23:47 04.05.2022
3834 Clouds 30 1014 65 10000 4.12 150 22:30 04.05.2022
3835 Clouds 30 1015 65 10000 5.14 150 21:49 04.05.2022
3836 Clouds 29 1015 67 10000 5.14 150 21:26 04.05.2022
3837 Clouds 30 1015 65 10000 2.57 150 20:23 04.05.2022
3838 Clouds 29 1016 66 10000 2.57 150 19:53 04.05.2022
3839 Clouds 29 1016 67 10000 3.09 90 18:54 04.05.2022
3840 Clouds 29 1016 69 10000 3.09 90 18:22 04.05.2022
3841 Clouds 28 1017 72 10000 1.79 151 17:30 04.05.2022
3842 Clouds 27 1017 75 10000 3.13 101 15:38 04.05.2022
3843 Clouds 26 1017 77 10000 2.57 60 15:20 04.05.2022
3844 Clouds 25 1017 83 10000 2.68 57 14:20 04.05.2022
3845 Clouds 24 1017 89 10000 1.79 25 13:20 04.05.2022
3846 Clear 24 1016 86 10000 1.79 1 12:29 04.05.2022
3847 Clear 24 1016 87 10000 1.34 337 10:40 04.05.2022
3848 Clear 25 1016 87 10000 1.34 356 09:40 04.05.2022
3849 Clear 25 1017 87 10000 1.34 349 08:34 04.05.2022
3850 Clouds 25 1018 87 10000 1.79 66 05:53 04.05.2022
3851 Clear 27 1017 83 10000 0.89 130 02:49 04.05.2022
3852 Clouds 28 1016 74 10000 5.14 180 23:58 03.05.2022
3853 Clouds 29 1016 73 10000 5.14 180 22:30 03.05.2022
3854 Clouds 30 1016 69 10000 5.14 90 21:36 03.05.2022
3855 Clouds 30 1016 69 10000 4.12 180 20:53 03.05.2022
3856 Clouds 30 1017 68 10000 3.09 160 19:45 03.05.2022
3857 Clouds 30 1017 70 10000 1.79 142 18:50 03.05.2022
3858 Clouds 30 1017 70 10000 1.79 142 18:50 03.05.2022
3859 Clouds 29 1018 69 10000 1.79 92 17:45 03.05.2022
3860 Clouds 28 1018 73 10000 2.24 109 16:37 03.05.2022
3861 Clouds 27 1018 78 10000 2.24 114 15:32 03.05.2022
3862 Clouds 25 1017 87 10000 0.89 45 12:47 03.05.2022
3863 Clouds 25 1017 88 10000 0.89 30 12:27 03.05.2022
3864 Clouds 25 1016 86 10000 1.34 15 10:57 03.05.2022
3865 Clouds 25 1016 86 10000 0.89 358 09:21 03.05.2022
3866 Clouds 26 1017 85 10000 0.89 34 06:46 03.05.2022
3867 Clouds 25 1018 86 10000 1.34 63 05:56 03.05.2022
3868 Clouds 28 1016 77 10000 1.34 101 00:19 03.05.2022
3869 Clouds 29 1016 72 10000 5.14 180 22:36 02.05.2022
3870 Clouds 29 1016 71 10000 3.6 180 21:51 02.05.2022
3871 Clouds 30 1016 73 10000 5.14 180 20:51 02.05.2022
3872 Clouds 28 1017 79 10000 1.34 88 18:37 02.05.2022
3873 Clouds 29 1018 75 10000 0.89 100 17:53 02.05.2022
3874 Clouds 28 1018 75 10000 1.34 134 17:33 02.05.2022
3875 Clouds 26 1018 82 10000 1.34 14 16:20 02.05.2022
3876 Clouds 24 1017 87 10000 0.89 336 15:19 02.05.2022
3877 Clouds 22 1016 89 10000 0.89 352 13:48 02.05.2022
3878 Clouds 22 1015 89 10000 0.45 335 12:18 02.05.2022
3879 Clouds 23 1014 88 10000 0.89 354 10:25 02.05.2022
3880 Clouds 23 1015 87 10000 0.89 6 08:46 02.05.2022
3881 Clouds 23 1015 90 10000 1.79 350 07:39 02.05.2022
3882 Clouds 23 1016 90 8000 1.34 234 01:58 02.05.2022
3883 Clouds 23 1015 94 8000 2.24 178 00:23 02.05.2022
3884 Clouds 23 1016 96 8000 1.34 230 23:47 01.05.2022
3885 Clouds 23 1015 96 8000 0.45 271 22:20 01.05.2022
3886 Clouds 23 1015 96 7000 0.45 133 20:58 01.05.2022
3887 Clouds 23 1015 94 8000 0.89 127 19:49 01.05.2022
3888 Clouds 24 1016 92 8000 3.09 60 18:55 01.05.2022
3889 Clouds 24 1016 91 8000 3.09 60 18:18 01.05.2022
3890 Clouds 23 1016 93 7000 3.09 360 16:55 01.05.2022
3891 Clouds 23 1016 94 7000 3.09 360 16:23 01.05.2022
3892 Clouds 23 1016 94 7000 2.57 360 15:22 01.05.2022
3893 Clouds 22 1015 93 10000 2.24 350 13:42 01.05.2022
3894 Clouds 22 1013 93 7009 2.24 358 10:50 01.05.2022
3895 Rain 22 1014 93 10000 2.68 350 08:51 01.05.2022
3896 Clouds 23 1015 93 10000 1.79 353 07:42 01.05.2022
3897 Clouds 23 1015 90 10000 3.13 3 02:51 01.05.2022
3898 Clouds 26 1012 74 10000 2.57 330 22:58 30.04.2022
3899 Clouds 26 1013 73 10000 3.09 330 21:35 30.04.2022
3900 Clouds 26 1013 73 10000 3.09 330 21:35 30.04.2022
3901 Clouds 26 1014 78 8000 4.12 360 20:35 30.04.2022
3902 Clouds 27 1014 72 9794 1.79 343 19:36 30.04.2022
3903 Clouds 28 1015 66 10000 2.57 360 17:40 30.04.2022
3904 Clouds 27 1016 70 10000 4.12 360 16:34 30.04.2022
3905 Clouds 25 1016 72 10000 4.12 360 15:19 30.04.2022
3906 Clouds 24 1015 78 10000 2.57 20 14:33 30.04.2022
3907 Clouds 23 1014 78 10000 1.34 351 12:36 30.04.2022
3908 Clouds 23 1014 78 10000 1.34 351 12:36 30.04.2022
3909 Clouds 23 1014 78 10000 1.79 359 11:32 30.04.2022
3910 Clouds 23 1014 78 10000 1.79 11 10:31 30.04.2022
3911 Clouds 20 1014 81 10000 2.81 343 08:34 30.04.2022
3912 Clouds 24 1016 81 10000 1.79 35 05:19 30.04.2022
3913 Clouds 28 1013 69 10000 3.6 30 00:35 30.04.2022
3914 Clouds 29 1012 64 10000 2.57 60 23:36 29.04.2022
3915 Clouds 30 1012 57 10000 4.12 30 22:30 29.04.2022
3916 Clouds 29 1012 58 10000 2.57 30 21:27 29.04.2022
3917 Clouds 29 1013 58 10000 1.34 131 20:38 29.04.2022
3918 Clouds 29 1014 55 10000 3.09 360 19:36 29.04.2022
3919 Clouds 28 1016 55 10000 2.24 35 17:48 29.04.2022
3920 Clouds 27 1016 65 10000 3.09 60 16:43 29.04.2022
3921 Clouds 24 1016 75 10000 2.24 46 14:38 29.04.2022
3922 Clouds 22 1015 83 10000 0 0 14:19 29.04.2022
3923 Clouds 21 1016 82 10000 2.43 350 12:41 29.04.2022
3924 Clouds 19 1014 80 10000 2.3 355 10:57 29.04.2022
3925 Clouds 23 1015 71 10000 2.18 1 08:18 29.04.2022
3926 Clouds 24 1015 69 10000 0.89 19 07:27 29.04.2022
3927 Clouds 24 1015 67 10000 1.34 40 06:34 29.04.2022
3928 Clouds 24 1014 80 10000 2.24 43 03:28 29.04.2022
3929 Clouds 27 1012 66 10000 3.09 150 00:18 29.04.2022
3930 Clouds 28 1012 62 10000 4.12 160 23:26 28.04.2022
3931 Clouds 28 1012 59 10000 4.12 160 22:37 28.04.2022
3932 Clouds 29 1012 57 10000 1.79 156 21:45 28.04.2022
3933 Clouds 29 1013 60 10000 4.12 60 20:49 28.04.2022
3934 Clouds 28 1014 63 10000 3.09 360 19:57 28.04.2022
3935 Clouds 28 1014 64 10000 3.09 360 19:39 28.04.2022
3936 Clouds 28 1014 64 10000 3.09 360 19:19 28.04.2022
3937 Clouds 28 1015 61 10000 4.12 30 17:56 28.04.2022
3938 Clouds 26 1016 64 10000 5.14 60 16:58 28.04.2022
3939 Clouds 26 1016 67 10000 5.14 60 16:21 28.04.2022
3940 Clouds 25 1016 69 10000 5.14 60 15:52 28.04.2022
3941 Clouds 25 1016 70 10000 5.14 60 15:21 28.04.2022
3942 Clouds 22 1015 81 10000 1.34 23 13:43 28.04.2022
3943 Clouds 18 1015 80 10000 2.42 347 12:32 28.04.2022
3944 Clouds 19 1014 83 10000 2.7 349 11:50 28.04.2022
3945 Clouds 20 1014 81 10000 2.85 358 10:28 28.04.2022
3946 Clouds 20 1014 81 10000 2.85 358 09:50 28.04.2022
3947 Clouds 21 1015 81 10000 2.82 357 07:44 28.04.2022
3948 Clouds 21 1016 82 10000 2.82 352 06:53 28.04.2022
3949 Clouds 23 1015 94 10000 0 0 05:53 28.04.2022
3950 Clouds 24 1015 88 10000 0 0 04:43 28.04.2022
3951 Clouds 25 1014 75 10000 2.24 7 02:45 28.04.2022
3952 Clouds 27 1013 72 10000 5.14 360 23:36 27.04.2022
3953 Clouds 27 1012 64 10000 2.68 16 22:22 27.04.2022
3954 Clouds 26 1012 69 10000 2.68 11 21:46 27.04.2022
3955 Clouds 28 1015 69 10000 6.17 30 20:46 27.04.2022
3956 Clouds 30 1015 58 10000 5.14 30 19:57 27.04.2022
3957 Clouds 30 1015 58 10000 5.14 30 19:36 27.04.2022
3958 Clouds 29 1015 61 10000 6.17 30 18:41 27.04.2022
3959 Clouds 28 1015 61 10000 6.17 30 18:20 27.04.2022
3960 Clouds 27 1015 69 10000 2.68 16 16:18 27.04.2022
3961 Clouds 21 1014 86 10000 1.34 355 13:21 27.04.2022
3962 Clear 23 1014 78 10000 2.24 4 11:26 27.04.2022
3963 Clear 23 1014 78 10000 1.79 5 10:50 27.04.2022
3964 Clear 23 1015 78 10000 2.24 12 08:28 27.04.2022
3965 Clear 21 1015 87 10000 3.53 352 06:41 27.04.2022
3966 Clear 26 1015 72 10000 3.13 39 02:31 27.04.2022
3967 Clouds 27 1014 67 10000 5.14 20 01:23 27.04.2022
3968 Clouds 29 1013 63 10000 4.12 360 00:27 27.04.2022
3969 Clouds 30 1012 56 10000 5.14 360 23:24 26.04.2022
3970 Clouds 30 1012 56 10000 5.14 30 22:45 26.04.2022
3971 Clouds 30 1012 57 10000 5.14 30 22:19 26.04.2022
3972 Clouds 30 1013 58 10000 5.14 360 21:19 26.04.2022
3973 Clouds 30 1013 58 10000 2.68 9 20:37 26.04.2022
3974 Clouds 29 1014 59 10000 5.14 360 19:45 26.04.2022
3975 Clouds 29 1015 59 10000 5.14 360 19:26 26.04.2022
3976 Clouds 29 1015 61 10000 5.14 40 18:31 26.04.2022
3977 Clouds 28 1016 63 10000 5.14 70 17:39 26.04.2022
3978 Clouds 25 1017 75 10000 3.6 360 15:32 26.04.2022
3979 Clouds 23 1016 87 10000 2.24 5 13:40 26.04.2022
3980 Clouds 23 1015 83 10000 2.24 4 12:47 26.04.2022
3981 Clouds 23 1015 82 10000 1.79 353 11:20 26.04.2022
3982 Clouds 23 1014 82 10000 1.34 349 10:30 26.04.2022
3983 Clouds 23 1015 81 10000 1.34 343 08:32 26.04.2022
3984 Clouds 24 1016 76 10000 2.68 26 04:39 26.04.2022
3985 Clouds 24 1015 81 10000 1.79 22 03:59 26.04.2022
3986 Clouds 27 1014 76 10000 2.24 90 00:46 26.04.2022
3987 Clouds 27 1013 73 10000 2.57 150 23:48 25.04.2022
3988 Clouds 29 1014 66 10000 2.57 360 21:49 25.04.2022
3989 Clouds 29 1014 64 10000 2.57 360 21:23 25.04.2022
3990 Clouds 29 1014 67 10000 5.66 20 19:39 25.04.2022
3991 Clouds 29 1015 64 10000 1.34 144 18:25 25.04.2022
3992 Clouds 28 1016 67 10000 3.09 90 17:39 25.04.2022
3993 Clouds 27 1016 70 10000 2.57 360 16:30 25.04.2022
3994 Clouds 25 1016 75 10000 3.09 360 15:19 25.04.2022
3995 Clouds 23 1016 85 10000 2.57 330 14:22 25.04.2022
3996 Clouds 23 1015 83 10000 1.79 348 12:40 25.04.2022
3997 Clear 23 1014 82 10000 1.79 359 10:29 25.04.2022
3998 Clear 23 1014 82 10000 2.24 357 09:36 25.04.2022
3999 Clouds 23 1015 81 10000 1.79 4 07:34 25.04.2022
4000 Clouds 24 1016 87 10000 1.79 358 05:53 25.04.2022
4001 Clouds 25 1014 84 10000 0.45 216 01:24 25.04.2022
4002 Clouds 26 1013 76 10000 3.6 150 23:54 24.04.2022
4003 Clouds 29 1013 66 10000 4.12 140 22:53 24.04.2022
4004 Clouds 29 1013 66 10000 4.12 140 22:32 24.04.2022
4005 Clouds 28 1013 68 10000 2.24 116 21:54 24.04.2022
4006 Clouds 28 1013 69 10000 2.24 113 21:20 24.04.2022
4007 Clouds 29 1014 66 10000 3.6 60 20:38 24.04.2022
4008 Clouds 29 1014 64 10000 2.57 80 19:51 24.04.2022
4009 Clouds 28 1015 64 10000 5.14 60 18:28 24.04.2022
4010 Clouds 27 1016 66 10000 2.57 360 17:40 24.04.2022
4011 Clouds 27 1016 67 10000 3.13 46 17:19 24.04.2022
4012 Clouds 26 1016 70 10000 3.09 20 16:48 24.04.2022
4013 Clouds 26 1016 70 10000 3.13 50 16:20 24.04.2022
4014 Clouds 25 1016 72 10000 3.09 360 15:31 24.04.2022
4015 Clouds 25 1016 72 10000 3.09 360 15:31 24.04.2022
4016 Clouds 23 1016 79 10000 2.57 360 14:19 24.04.2022
4017 Clouds 22 1015 83 10000 2.24 12 13:26 24.04.2022
4018 Clouds 22 1015 83 10000 2.24 12 13:26 24.04.2022
4019 Clouds 23 1015 81 10000 1.79 11 12:35 24.04.2022
4020 Clouds 23 1014 82 10000 1.79 9 11:34 24.04.2022
4021 Clouds 23 1014 82 10000 1.34 339 10:30 24.04.2022
4022 Clouds 23 1014 81 10000 1.79 1 09:29 24.04.2022
4023 Clouds 23 1016 81 10000 2.24 8 06:46 24.04.2022
4024 Clouds 24 1016 82 10000 1.79 25 03:57 24.04.2022
4025 Clouds 25 1014 76 10000 2.68 50 01:38 24.04.2022
4026 Clouds 25 1014 76 10000 2.68 50 01:38 24.04.2022
4027 Clouds 26 1013 76 8000 4.12 360 00:29 24.04.2022
4028 Clouds 28 1013 64 10000 2.24 40 23:44 23.04.2022
4029 Clouds 28 1013 63 10000 3.13 60 23:21 23.04.2022
4030 Clouds 29 1013 71 10000 5.14 360 21:51 23.04.2022
4031 Clouds 28 1013 70 10000 5.14 360 21:33 23.04.2022
4032 Clouds 29 1013 65 10000 6.17 360 20:45 23.04.2022
4033 Clouds 30 1014 62 10000 5.14 360 19:47 23.04.2022
4034 Clouds 29 1015 62 10000 5.14 360 19:19 23.04.2022
4035 Clouds 29 1015 68 10000 7.2 360 18:52 23.04.2022
4036 Clouds 28 1015 70 10000 4.12 360 17:51 23.04.2022
4037 Clouds 27 1016 71 10000 4.12 360 17:20 23.04.2022
4038 Clouds 26 1016 73 10000 5.14 360 16:40 23.04.2022
4039 Clouds 26 1015 74 10000 2.24 25 15:20 23.04.2022
4040 Clouds 22 1015 85 10000 1.79 8 12:44 23.04.2022
4041 Clouds 23 1014 84 10000 1.79 3 10:43 23.04.2022
4042 Clouds 23 1014 86 10000 1.79 358 09:30 23.04.2022
4043 Clouds 23 1016 87 10000 1.79 359 06:29 23.04.2022
4044 Clouds 22 1016 94 10000 1.34 346 03:54 23.04.2022
4045 Clouds 23 1014 95 8000 2.57 120 00:57 23.04.2022
4046 Clouds 23 1014 100 8000 3.09 90 23:29 22.04.2022
4047 Clouds 25 1014 94 10000 2.57 360 22:20 22.04.2022
4048 Clouds 26 1014 83 5000 6.17 90 21:42 22.04.2022
4049 Clouds 27 1014 80 10000 1.34 257 20:46 22.04.2022
4050 Clouds 27 1015 79 10000 1.34 289 20:26 22.04.2022
4051 Clouds 28 1015 73 8000 3.09 360 19:18 22.04.2022
4052 Clouds 29 1015 72 10000 2.57 360 18:36 22.04.2022
4053 Clouds 28 1016 72 10000 2.24 44 17:39 22.04.2022
4054 Clouds 27 1016 72 10000 3.6 360 16:32 22.04.2022
4055 Clouds 26 1016 79 10000 5.14 360 15:32 22.04.2022
4056 Clouds 24 1016 86 10000 1.79 13 14:44 22.04.2022
4057 Clouds 23 1016 88 10000 2.24 352 13:43 22.04.2022
4058 Clouds 23 1015 84 10000 1.79 14 12:57 22.04.2022
4059 Clouds 23 1015 84 10000 1.79 18 11:43 22.04.2022
4060 Clouds 23 1014 84 10000 1.79 356 11:20 22.04.2022
4061 Clouds 23 1014 86 10000 1.34 347 10:47 22.04.2022
4062 Clouds 23 1014 86 10000 1.34 14 10:27 22.04.2022
4063 Clouds 23 1014 85 10000 1.79 351 09:42 22.04.2022
4064 Clouds 23 1015 85 10000 1.34 1 08:49 22.04.2022
4065 Clouds 23 1016 86 10000 0.89 346 06:56 22.04.2022
4066 Clouds 23 1015 89 10000 1.34 291 01:49 22.04.2022
4067 Clouds 26 1014 76 10000 3.09 60 23:49 21.04.2022
4068 Clouds 24 1014 94 7000 0 0 22:59 21.04.2022
4069 Clouds 27 1015 83 10000 3.09 180 21:56 21.04.2022
4070 Clouds 27 1015 74 10000 0.89 125 20:34 21.04.2022
4071 Clouds 27 1016 80 10000 0.89 139 19:51 21.04.2022
4072 Clouds 26 1017 81 10000 1.34 80 18:34 21.04.2022
4073 Clouds 25 1017 85 10000 1.79 104 17:47 21.04.2022
4074 Clouds 23 1017 89 8000 4.12 360 16:24 21.04.2022
4075 Clouds 23 1017 90 10000 4.12 360 15:19 21.04.2022
4076 Clouds 23 1016 92 10000 2.57 30 14:31 21.04.2022
4077 Clouds 23 1015 89 10000 2.68 60 13:23 21.04.2022
4078 Clouds 23 1015 90 10000 1.79 59 12:36 21.04.2022
4079 Clouds 23 1014 90 10000 0.89 1 10:20 21.04.2022
4080 Clouds 23 1014 91 10000 1.34 3 08:53 21.04.2022
4081 Clouds 23 1015 91 10000 1.79 51 06:55 21.04.2022
4082 Clouds 23 1015 92 8000 1.34 74 04:34 21.04.2022
4083 Clouds 24 1015 88 8000 1.34 65 03:24 21.04.2022
4084 Clouds 24 1015 88 10000 1.79 65 02:45 21.04.2022
4085 Clouds 24 1015 88 10000 1.79 65 02:45 21.04.2022
4086 Clouds 26 1014 85 10000 3.6 120 00:35 21.04.2022
4087 Clouds 26 1014 84 10000 2.57 150 23:46 20.04.2022
4088 Clouds 26 1013 84 10000 2.57 150 23:21 20.04.2022
4089 Clouds 26 1013 84 10000 2.68 107 22:45 20.04.2022
4090 Clouds 27 1013 82 10000 3.13 114 21:57 20.04.2022
4091 Clouds 27 1014 81 10000 3.6 100 20:50 20.04.2022
4092 Clouds 27 1014 80 10000 3.6 100 20:22 20.04.2022
4093 Clouds 26 1014 84 10000 2.06 180 19:47 20.04.2022
4094 Clouds 26 1015 85 10000 0.89 123 18:52 20.04.2022
4095 Clouds 26 1015 82 10000 3.09 30 17:52 20.04.2022
4096 Clouds 25 1016 87 10000 1.34 65 16:39 20.04.2022
4097 Clouds 23 1015 93 10000 1.79 12 15:33 20.04.2022
4098 Clouds 22 1014 92 10000 1.34 43 12:46 20.04.2022
4099 Clouds 22 1014 92 10000 0.89 20 11:42 20.04.2022
4100 Clouds 22 1013 92 10000 1.79 358 10:44 20.04.2022
4101 Clouds 22 1013 93 10000 1.34 340 09:31 20.04.2022
4102 Clouds 23 1014 92 9583 0.89 4 08:40 20.04.2022
4103 Clouds 23 1014 92 10000 1.34 6 08:18 20.04.2022
4104 Clouds 23 1015 93 10000 0.52 330 06:23 20.04.2022
4105 Clouds 24 1014 87 10000 5.14 90 02:34 20.04.2022
4106 Clouds 26 1013 78 10000 0.89 215 00:22 20.04.2022
4107 Clouds 28 1012 70 10000 5.14 180 22:59 19.04.2022
4108 Clouds 28 1012 70 10000 5.14 180 22:59 19.04.2022
4109 Clouds 28 1012 69 10000 5.14 180 22:23 19.04.2022
4110 Clouds 27 1012 79 10000 4.63 270 21:53 19.04.2022
4111 Clouds 28 1013 76 10000 4.12 240 20:59 19.04.2022
4112 Clouds 27 1013 78 10000 4.12 240 20:37 19.04.2022
4113 Clear 26 1014 85 10000 0.89 130 19:41 19.04.2022
4114 Clouds 25 1015 82 7000 3.09 240 18:31 19.04.2022
4115 Clouds 26 1015 78 10000 3.6 270 16:55 19.04.2022
4116 Clouds 25 1015 87 10000 3.6 270 16:33 19.04.2022
4117 Clouds 25 1015 88 10000 1.34 357 15:59 19.04.2022
4118 Clouds 23 1014 93 7000 1.34 37 14:46 19.04.2022
4119 Clouds 23 1014 93 7000 1.34 37 14:46 19.04.2022
4120 Clouds 23 1013 92 10000 1.34 358 12:58 19.04.2022
4121 Clouds 23 1013 92 10000 1.34 9 12:36 19.04.2022
4122 Clouds 23 1013 92 10000 1.34 358 11:35 19.04.2022
4123 Clouds 24 1012 92 10000 0.89 342 09:51 19.04.2022
4124 Clouds 24 1013 92 10000 0.45 339 07:49 19.04.2022
4125 Clouds 23 1014 91 10000 0 0 04:26 19.04.2022
4126 Clouds 25 1014 89 10000 0.89 112 02:39 19.04.2022
4127 Clouds 24 1012 90 10000 3.09 30 23:51 18.04.2022
4128 Clouds 25 1013 89 5000 0.45 163 22:53 18.04.2022
4129 Clouds 24 1014 90 5000 4.12 240 21:26 18.04.2022
4130 Clouds 25 1014 86 8000 3.09 240 20:40 18.04.2022
4131 Clouds 25 1014 86 8000 3.09 240 20:22 18.04.2022
4132 Clouds 27 1016 92 10000 0.76 257 19:40 18.04.2022
4133 Clouds 25 1015 88 8000 0 0 18:49 18.04.2022
4134 Clouds 24 1016 92 7123 0.89 306 17:49 18.04.2022
4135 Clouds 24 1016 92 6808 0.89 297 17:19 18.04.2022
4136 Rain 24 1016 92 7000 2.44 200 16:39 18.04.2022
4137 Clouds 23 1016 93 6492 1.34 123 15:41 18.04.2022
4138 Clouds 23 1015 95 10000 1.34 109 14:27 18.04.2022
4139 Clouds 22 1015 96 8000 0.89 108 13:24 18.04.2022
4140 Clouds 23 1014 93 10000 0.89 64 12:27 18.04.2022
4141 Clouds 22 1013 92 6944 1.34 112 10:58 18.04.2022
4142 Clouds 23 1013 93 4705 0.89 339 09:53 18.04.2022
4143 Clouds 23 1013 92 9617 0.45 49 09:27 18.04.2022
4144 Clouds 22 1014 91 10000 0.89 301 07:25 18.04.2022
4145 Clouds 22 1015 91 6836 0.89 344 02:46 18.04.2022
4146 Clouds 25 1012 89 10000 2.24 123 23:30 17.04.2022
4147 Clouds 26 1013 87 10000 3.6 270 22:37 17.04.2022
4148 Clouds 26 1013 85 8000 0.89 131 21:34 17.04.2022
4149 Clouds 25 1013 85 10000 1.79 124 20:53 17.04.2022
4150 Clouds 26 1014 85 10000 2.24 119 20:19 17.04.2022
4151 Clouds 24 1016 89 8000 2.57 300 18:58 17.04.2022
4152 Thunderstorm 23 1016 100 10000 0 0 17:31 17.04.2022
4153 Clouds 23 1015 91 6000 0.89 1 15:37 17.04.2022
4154 Clouds 23 1015 91 8000 0.89 83 14:46 17.04.2022
4155 Clouds 23 1014 92 10000 2.24 64 13:37 17.04.2022
4156 Clouds 24 1014 85 10000 1.34 10 12:49 17.04.2022
4157 Clouds 23 1014 87 10000 1.59 336 10:59 17.04.2022
4158 Clouds 23 1014 87 10000 1.63 329 10:29 17.04.2022
4159 Clouds 23 1014 86 10000 1.63 329 09:55 17.04.2022
4160 Clouds 24 1014 86 10000 1.41 330 09:21 17.04.2022
4161 Clouds 24 1014 86 10000 1.41 330 08:41 17.04.2022
4162 Clouds 24 1016 83 10000 1.39 329 06:29 17.04.2022
4163 Clouds 26 1014 83 10000 0 0 02:31 17.04.2022
4164 Clouds 28 1012 74 10000 3.09 180 00:42 17.04.2022
4165 Clouds 28 1013 73 10000 4.12 150 23:38 16.04.2022
4166 Clouds 30 1013 67 10000 4.12 150 21:49 16.04.2022
4167 Clouds 29 1013 68 10000 6.17 150 20:54 16.04.2022
4168 Clouds 29 1014 71 10000 2.57 210 19:28 16.04.2022
4169 Clouds 29 1015 69 10000 2.57 80 18:43 16.04.2022
4170 Clouds 29 1016 71 10000 3.09 30 17:20 16.04.2022
4171 Clouds 27 1016 72 10000 2.68 116 15:51 16.04.2022
4172 Clouds 25 1015 84 10000 2.24 64 14:58 16.04.2022
4173 Clouds 25 1015 85 10000 1.79 65 14:40 16.04.2022
4174 Clouds 24 1015 87 10000 1.79 44 13:50 16.04.2022
4175 Clouds 23 1015 88 10000 1.34 46 13:18 16.04.2022
4176 Clouds 23 1015 88 10000 2.02 339 11:43 16.04.2022
4177 Clouds 24 1014 84 10000 1.79 55 10:33 16.04.2022
4178 Clouds 24 1014 83 10000 1.79 54 09:37 16.04.2022
4179 Clouds 24 1014 82 10000 2.24 27 08:51 16.04.2022
4180 Clouds 24 1015 82 10000 1.34 49 07:21 16.04.2022
4181 Clouds 24 1016 86 10000 1.34 355 05:38 16.04.2022
4182 Clouds 27 1014 75 10000 1.79 114 01:47 16.04.2022
4183 Clouds 28 1013 71 10000 2.24 119 23:52 15.04.2022
4184 Clouds 28 1013 70 10000 5.14 150 22:48 15.04.2022
4185 Clouds 29 1013 69 10000 5.14 150 22:28 15.04.2022
4186 Clouds 30 1013 63 10000 5.14 180 21:21 15.04.2022
4187 Clouds 30 1014 66 10000 5.14 90 20:38 15.04.2022
4188 Clouds 30 1015 65 10000 3.09 120 19:44 15.04.2022
4189 Clouds 29 1015 65 10000 3.6 60 18:59 15.04.2022
4190 Clouds 29 1016 64 10000 3.6 60 18:41 15.04.2022
4191 Clouds 29 1016 64 10000 3.6 60 18:21 15.04.2022
4192 Clouds 28 1016 69 10000 2.57 360 17:26 15.04.2022
4193 Clouds 27 1017 72 10000 2.24 67 16:25 15.04.2022
4194 Clouds 26 1017 78 10000 5.14 60 15:45 15.04.2022
4195 Clouds 23 1016 85 10000 1.79 24 13:55 15.04.2022
4196 Clouds 23 1015 87 10000 1.79 8 12:52 15.04.2022
4197 Clouds 23 1015 86 10000 1.34 6 12:24 15.04.2022
4198 Clouds 23 1015 86 10000 1.34 18 11:50 15.04.2022
4199 Clouds 23 1015 86 10000 1.34 39 10:46 15.04.2022
4200 Clouds 24 1015 85 10000 1.34 18 09:59 15.04.2022
4201 Clouds 24 1015 85 10000 1.79 26 09:22 15.04.2022
4202 Clouds 24 1015 85 10000 1.79 40 08:39 15.04.2022
4203 Clouds 24 1016 86 10000 1.79 9 06:50 15.04.2022
4204 Clouds 23 1016 89 7000 1.34 20 04:43 15.04.2022
4205 Clouds 24 1014 83 10000 2.57 90 00:46 15.04.2022
4206 Clouds 27 1014 73 10000 1.79 83 23:26 14.04.2022
4207 Clouds 28 1013 69 10000 3.6 360 22:46 14.04.2022
4208 Clouds 29 1013 69 10000 1.34 152 22:27 14.04.2022
4209 Clouds 28 1014 68 7000 1.79 145 21:50 14.04.2022
4210 Clouds 29 1015 65 10000 4.12 200 19:41 14.04.2022
4211 Clouds 29 1016 65 10000 4.12 200 19:20 14.04.2022
4212 Clouds 27 1017 66 10000 3.13 117 17:45 14.04.2022
4213 Clouds 27 1017 69 10000 5.14 60 16:51 14.04.2022
4214 Clouds 25 1017 74 10000 3.09 90 15:52 14.04.2022
4215 Clouds 22 1016 88 10000 1.34 8 13:53 14.04.2022
4216 Clouds 22 1015 90 10000 1.34 357 13:21 14.04.2022
4217 Clouds 22 1015 90 10000 1.34 45 12:32 14.04.2022
4218 Clouds 22 1014 92 10000 1.34 329 11:43 14.04.2022
4219 Clouds 22 1014 92 10000 1.34 332 11:18 14.04.2022
4220 Clouds 22 1014 91 10000 1.34 355 10:31 14.04.2022
4221 Clear 22 1014 90 10000 2.24 67 09:30 14.04.2022
4222 Clouds 24 1015 84 10000 1.79 1 08:24 14.04.2022
4223 Clouds 23 1016 89 7000 1.34 30 05:57 14.04.2022
4224 Clouds 25 1014 86 10000 1.79 23 00:59 14.04.2022
4225 Clouds 26 1014 82 8000 3.09 360 22:38 13.04.2022
4226 Clouds 27 1014 76 6000 3.09 360 21:43 13.04.2022
4227 Clouds 26 1014 78 4000 1.79 114 20:41 13.04.2022
4228 Clouds 28 1015 72 10000 5.14 180 19:49 13.04.2022
4229 Clouds 28 1016 76 10000 4.12 120 18:39 13.04.2022
4230 Clouds 27 1017 75 10000 4.12 90 17:41 13.04.2022
4231 Clouds 27 1017 75 10000 4.12 90 17:23 13.04.2022
4232 Clouds 27 1017 75 10000 2.68 79 16:18 13.04.2022
4233 Clouds 25 1017 81 10000 2.24 58 15:29 13.04.2022
4234 Clouds 24 1017 87 10000 1.79 11 14:40 13.04.2022
4235 Clouds 23 1016 88 10000 1.34 5 13:43 13.04.2022
4236 Clouds 23 1016 88 10000 1.34 357 12:52 13.04.2022
4237 Clouds 23 1015 89 10000 1.34 333 11:58 13.04.2022
4238 Clouds 23 1014 88 10000 1.79 350 10:34 13.04.2022
4239 Clouds 24 1015 87 10000 1.34 7 08:49 13.04.2022
4240 Clouds 24 1015 88 10000 1.34 12 08:23 13.04.2022
4241 Clouds 24 1016 88 10000 1.34 343 06:49 13.04.2022
4242 Clouds 24 1017 88 10000 1.79 12 06:24 13.04.2022
4243 Clouds 23 1016 92 8000 2.57 180 02:24 13.04.2022
4244 Clouds 25 1015 91 8000 2.57 120 00:20 13.04.2022
4245 Clouds 26 1015 83 10000 2.57 30 22:33 12.04.2022
4246 Clouds 28 1015 74 8000 2.57 360 21:54 12.04.2022
4247 Clouds 29 1015 68 10000 6.69 100 20:48 12.04.2022
4248 Clouds 29 1015 68 10000 6.69 100 20:20 12.04.2022
4249 Clouds 28 1016 75 10000 3.58 102 19:40 12.04.2022
4250 Clouds 30 1016 61 10000 1.79 71 18:56 12.04.2022
4251 Clouds 29 1017 65 10000 5.14 40 17:39 12.04.2022
4252 Clouds 28 1017 69 10000 3.6 60 16:47 12.04.2022
4253 Clouds 27 1018 76 10000 3.13 49 15:34 12.04.2022
4254 Clouds 25 1017 82 10000 2.57 360 14:53 12.04.2022
4255 Clouds 24 1017 82 10000 2.24 32 13:50 12.04.2022
4256 Clouds 23 1016 87 10000 0 0 13:25 12.04.2022
4257 Clouds 23 1016 87 10000 3.08 346 12:18 12.04.2022
4258 Clouds 23 1016 86 10000 3.08 346 11:35 12.04.2022
4259 Clouds 24 1015 84 10000 3.02 340 09:47 12.04.2022
4260 Clouds 24 1015 83 10000 2.87 343 08:49 12.04.2022
4261 Clouds 25 1016 78 10000 1.79 1 06:47 12.04.2022
4262 Clouds 25 1017 77 10000 2.68 20 05:40 12.04.2022
4263 Clouds 27 1016 69 10000 4.11 21 02:37 12.04.2022
4264 Clouds 29 1013 66 10000 4.12 150 23:20 11.04.2022
4265 Clouds 29 1013 66 10000 4.12 150 22:32 11.04.2022
4266 Clouds 30 1013 66 10000 3.09 90 21:22 11.04.2022
4267 Clouds 30 1014 64 10000 3.6 40 20:34 11.04.2022
4268 Clouds 29 1015 68 10000 3.6 360 19:59 11.04.2022
4269 Clouds 30 1015 65 10000 3.6 360 19:26 11.04.2022
4270 Clouds 29 1016 68 10000 1.79 146 18:53 11.04.2022
4271 Clouds 30 1016 61 10000 4.12 60 17:58 11.04.2022
4272 Clouds 30 1017 62 10000 4.12 60 17:33 11.04.2022
4273 Clouds 28 1017 70 10000 4.12 360 16:26 11.04.2022
4274 Clouds 25 1017 83 10000 1.79 20 14:42 11.04.2022
4275 Clouds 23 1016 90 10000 1.34 350 13:34 11.04.2022
4276 Clouds 24 1015 87 10000 1.79 9 12:38 11.04.2022
4277 Clouds 24 1015 85 10000 1.34 2 11:54 11.04.2022
4278 Clouds 24 1014 86 10000 0.89 321 10:35 11.04.2022
4279 Clouds 23 1014 86 10000 1.82 15 09:34 11.04.2022
4280 Clouds 23 1016 86 10000 1.77 10 07:24 11.04.2022
4281 Clouds 26 1015 84 10000 0.89 108 02:36 11.04.2022
4282 Clouds 29 1012 70 10000 4.12 190 23:22 10.04.2022
4283 Clouds 29 1013 68 10000 3.09 180 22:26 10.04.2022
4284 Clouds 30 1013 67 10000 5.14 180 21:35 10.04.2022
4285 Clouds 29 1014 68 10000 2.24 169 20:39 10.04.2022
4286 Clouds 29 1015 69 10000 1.79 130 19:46 10.04.2022
4287 Clouds 29 1015 70 10000 2.24 137 19:25 10.04.2022
4288 Clouds 29 1015 72 10000 2.57 180 18:46 10.04.2022
4289 Clouds 28 1016 75 10000 3.09 180 17:56 10.04.2022
4290 Clouds 28 1016 75 10000 3.09 180 17:56 10.04.2022
4291 Clouds 29 1016 74 10000 3.09 180 17:37 10.04.2022
4292 Clouds 28 1016 76 10000 2.57 90 16:44 10.04.2022
4293 Clouds 25 1016 79 10000 2.24 94 15:37 10.04.2022
4294 Clouds 24 1016 86 10000 0.45 17 14:25 10.04.2022
4295 Clouds 24 1015 85 10000 0.89 322 12:35 10.04.2022
4296 Clouds 24 1015 84 10000 0.89 347 11:56 10.04.2022
4297 Clouds 24 1015 83 10000 0.45 21 11:29 10.04.2022
4298 Clouds 24 1014 83 10000 0.89 17 10:56 10.04.2022
4299 Clouds 25 1014 82 10000 0.89 1 09:59 10.04.2022
4300 Clouds 25 1014 82 10000 0.89 37 09:38 10.04.2022
4301 Clouds 26 1014 81 10000 0.89 44 08:23 10.04.2022
4302 Clouds 22 1015 85 10000 0.89 1 07:35 10.04.2022
4303 Clouds 22 1016 94 10000 0 0 05:50 10.04.2022
4304 Clear 27 1015 78 10000 0.45 121 02:34 10.04.2022
4305 Clouds 28 1014 74 10000 1.34 140 00:29 10.04.2022
4306 Clouds 28 1014 72 10000 5.14 180 23:49 09.04.2022
4307 Clouds 29 1014 69 10000 5.14 180 22:48 09.04.2022
4308 Clouds 29 1015 67 10000 4.12 160 21:35 09.04.2022
4309 Clouds 29 1015 68 10000 5.14 180 20:49 09.04.2022
4310 Clouds 29 1015 68 10000 5.14 180 20:26 09.04.2022
4311 Clouds 29 1016 71 10000 3.09 180 19:42 09.04.2022
4312 Clouds 29 1017 71 10000 5.14 180 18:58 09.04.2022
4313 Clouds 28 1017 71 10000 5.14 180 18:20 09.04.2022
4314 Clouds 28 1017 72 10000 3.09 90 17:39 09.04.2022
4315 Clouds 28 1017 72 10000 3.09 90 17:39 09.04.2022
4316 Clouds 26 1018 75 10000 3.09 30 16:50 09.04.2022
4317 Clouds 25 1018 84 10000 2.68 102 15:55 09.04.2022
4318 Clouds 25 1017 82 10000 1.79 65 15:29 09.04.2022
4319 Clouds 23 1017 88 10000 0.89 351 14:27 09.04.2022
4320 Clouds 22 1017 88 10000 0.45 346 13:54 09.04.2022
4321 Clouds 24 1017 84 10000 0.89 36 12:59 09.04.2022
4322 Clouds 24 1016 83 10000 0.89 25 12:34 09.04.2022
4323 Clouds 24 1016 83 10000 0.89 32 11:21 09.04.2022
4324 Clouds 22 1015 92 10000 1.77 351 10:20 09.04.2022
4325 Clouds 22 1015 92 10000 1.77 351 09:37 09.04.2022
4326 Clouds 23 1015 91 10000 1.72 352 08:51 09.04.2022
4327 Clouds 25 1016 88 10000 1.17 11 06:48 09.04.2022
4328 Clouds 28 1014 71 10000 3.6 150 01:31 09.04.2022
4329 Clouds 29 1014 68 10000 5.14 160 23:25 08.04.2022
4330 Clouds 29 1013 69 10000 5.14 180 21:58 08.04.2022
4331 Clouds 29 1014 67 10000 5.14 170 20:47 08.04.2022
4332 Clouds 29 1015 68 10000 2.57 100 19:58 08.04.2022
4333 Clouds 29 1015 70 10000 2.57 100 19:18 08.04.2022
4334 Clouds 29 1016 68 10000 2.24 123 18:25 08.04.2022
4335 Clouds 29 1017 68 10000 1.34 135 17:38 08.04.2022
4336 Clouds 28 1017 68 10000 1.79 126 17:19 08.04.2022
4337 Clouds 28 1017 71 10000 1.34 68 16:35 08.04.2022
4338 Clouds 26 1017 80 10000 1.79 2 15:39 08.04.2022
4339 Clouds 23 1016 87 10000 0.45 344 14:52 08.04.2022
4340 Clouds 23 1016 91 10000 0.45 280 14:21 08.04.2022
4341 Clouds 22 1016 92 10000 1.79 150 13:41 08.04.2022
4342 Clouds 23 1016 92 10000 2.24 111 13:22 08.04.2022
4343 Clear 24 1015 80 10000 1.34 42 11:51 08.04.2022
4344 Clear 22 1014 86 10000 2.27 335 10:31 08.04.2022
4345 Clear 22 1015 86 10000 2.56 340 09:25 08.04.2022
4346 Clear 22 1015 85 10000 2.48 343 08:25 08.04.2022
4347 Clear 22 1016 87 10000 1.61 337 06:47 08.04.2022
4348 Clouds 24 1015 88 10000 0 0 04:32 08.04.2022
4349 Clouds 28 1013 70 10000 3.6 180 00:32 08.04.2022
4350 Clouds 29 1012 68 10000 4.12 180 23:59 07.04.2022
4351 Clouds 29 1013 65 10000 5.14 210 22:57 07.04.2022
4352 Clouds 29 1013 65 10000 5.14 210 22:37 07.04.2022
4353 Clouds 29 1013 66 10000 5.14 210 22:19 07.04.2022
4354 Clouds 29 1014 65 10000 5.14 200 21:47 07.04.2022
4355 Clouds 30 1014 64 10000 5.14 180 20:57 07.04.2022
4356 Clouds 30 1014 65 10000 5.14 180 20:28 07.04.2022
4357 Clouds 29 1016 70 10000 3.09 30 17:51 07.04.2022
4358 Clouds 28 1016 72 10000 3.09 30 17:24 07.04.2022
4359 Clouds 27 1016 76 10000 1.79 115 16:42 07.04.2022
4360 Clouds 25 1017 83 10000 2.24 104 15:58 07.04.2022
4361 Clear 25 1016 80 10000 1.34 19 14:28 07.04.2022
4362 Clouds 22 1015 91 10000 1.34 39 13:41 07.04.2022
4363 Clear 24 1014 84 10000 1.34 14 12:28 07.04.2022
4364 Clear 23 1014 88 10000 1.85 345 10:57 07.04.2022
4365 Clear 24 1013 83 10000 1.34 15 09:36 07.04.2022
4366 Clear 23 1014 85 10000 1.77 337 08:35 07.04.2022
4367 Clear 24 1016 84 10000 1.22 353 06:29 07.04.2022
4368 Clear 27 1015 78 10000 1.79 123 02:40 07.04.2022
4369 Clouds 27 1014 77 10000 2.57 150 01:27 07.04.2022
4370 Clouds 29 1013 71 10000 5.14 180 23:53 06.04.2022
4371 Clouds 29 1013 69 10000 5.14 180 22:45 06.04.2022
4372 Clouds 29 1014 69 10000 5.14 180 22:24 06.04.2022
4373 Clouds 29 1014 66 10000 6.17 180 21:18 06.04.2022
4374 Clouds 30 1014 67 10000 5.14 180 20:27 06.04.2022
4375 Clouds 29 1014 70 10000 5.14 120 19:52 06.04.2022
4376 Clouds 29 1015 68 10000 2.24 115 18:50 06.04.2022
4377 Clouds 29 1016 73 10000 2.06 50 17:51 06.04.2022
4378 Clouds 29 1016 73 10000 2.06 50 17:21 06.04.2022
4379 Clouds 28 1017 71 10000 2.57 60 16:34 06.04.2022
4380 Clouds 26 1016 79 10000 2.68 116 15:46 06.04.2022
4381 Clouds 24 1016 84 10000 1.79 35 14:20 06.04.2022
4382 Clear 23 1015 84 10000 0.89 356 12:37 06.04.2022
4383 Clear 24 1014 83 10000 1.34 9 11:48 06.04.2022
4384 Clear 23 1014 84 10000 2 349 10:42 06.04.2022
4385 Clear 23 1014 84 10000 1.95 353 10:18 06.04.2022
4386 Clear 24 1014 83 10000 1.71 352 09:26 06.04.2022
4387 Clouds 21 1015 89 10000 1.68 353 08:26 06.04.2022
4388 Clouds 22 1015 91 10000 1.69 350 07:37 06.04.2022
4389 Clouds 27 1014 75 10000 1.79 120 02:19 06.04.2022
4390 Clouds 29 1013 69 10000 5.14 180 23:50 05.04.2022
4391 Clouds 29 1014 67 10000 7.72 190 22:20 05.04.2022
4392 Clouds 30 1014 66 10000 5.14 140 21:18 05.04.2022
4393 Clouds 30 1014 66 10000 5.14 140 21:18 05.04.2022
4394 Clouds 30 1014 66 10000 5.14 140 21:18 05.04.2022
4395 Clouds 30 1014 66 10000 5.14 140 21:18 05.04.2022
4396 Clouds 30 1014 68 10000 3.09 120 20:25 05.04.2022
4397 Clouds 29 1016 72 10000 3.09 20 18:56 05.04.2022
4398 Clouds 29 1017 73 10000 2.24 132 17:31 05.04.2022
4399 Clouds 28 1016 76 10000 2.57 150 16:47 05.04.2022
4400 Clouds 27 1016 79 10000 1.79 104 15:52 05.04.2022
4401 Clouds 27 1016 80 10000 1.79 112 15:33 05.04.2022
4402 Clouds 24 1016 87 10000 1.34 30 14:18 05.04.2022
4403 Clouds 23 1015 87 10000 0.89 3 12:55 05.04.2022
4404 Clouds 24 1015 87 10000 0.89 343 11:49 05.04.2022
4405 Clouds 24 1014 88 10000 0.89 336 11:31 05.04.2022
4406 Clear 23 1014 88 10000 1.61 357 09:41 05.04.2022
4407 Clear 24 1014 86 10000 1.6 346 08:52 05.04.2022
4408 Clouds 24 1015 85 10000 1.34 102 05:28 05.04.2022
4409 Clouds 28 1012 73 10000 6.17 180 23:51 04.04.2022
4410 Clouds 29 1013 71 10000 5.14 180 22:41 04.04.2022
4411 Clouds 29 1013 69 10000 5.14 180 21:52 04.04.2022
4412 Clouds 30 1013 68 10000 5.14 180 21:21 04.04.2022
4413 Clouds 29 1013 69 10000 5.14 180 20:48 04.04.2022
4414 Clouds 29 1015 70 10000 5.14 180 19:39 04.04.2022
4415 Clouds 29 1015 71 10000 3.09 180 18:59 04.04.2022
4416 Clouds 28 1016 75 10000 3.09 180 17:54 04.04.2022
4417 Clouds 27 1016 76 10000 3.09 180 16:36 04.04.2022
4418 Clouds 26 1015 81 10000 1.34 76 15:34 04.04.2022
4419 Clouds 25 1015 85 10000 0.89 32 14:58 04.04.2022
4420 Clouds 25 1015 86 10000 0.45 352 14:40 04.04.2022
4421 Clouds 22 1014 88 10000 0.89 347 13:21 04.04.2022
4422 Clouds 24 1013 86 10000 0.89 15 11:48 04.04.2022
4423 Clouds 24 1013 85 10000 0.89 45 11:27 04.04.2022
4424 Clouds 26 1013 80 10000 0.89 132 07:46 04.04.2022
4425 Clouds 26 1013 83 10000 1.34 122 03:52 04.04.2022
4426 Clouds 28 1013 73 10000 5.14 180 00:25 04.04.2022
4427 Clouds 28 1013 69 10000 3.6 150 22:33 03.04.2022
4428 Clouds 28 1013 71 10000 5.14 180 21:38 03.04.2022
4429 Clouds 28 1014 73 10000 6.17 150 20:41 03.04.2022
4430 Clouds 28 1015 70 10000 1.79 146 19:45 03.04.2022
4431 Clouds 28 1015 72 10000 5.14 150 18:31 03.04.2022
4432 Clouds 27 1015 74 10000 2.24 121 17:44 03.04.2022
4433 Clouds 26 1016 78 10000 2.57 90 16:50 03.04.2022
4434 Clouds 26 1016 78 10000 2.57 90 16:31 03.04.2022
4435 Clouds 24 1016 85 10000 1.34 14 14:32 03.04.2022
4436 Clouds 23 1015 89 10000 1.34 3 13:45 03.04.2022
4437 Clear 24 1015 84 10000 1.34 338 12:21 03.04.2022
4438 Clear 24 1014 84 10000 0.89 329 10:58 03.04.2022
4439 Clear 24 1014 83 10000 0.89 327 09:36 03.04.2022
4440 Clear 24 1015 84 10000 1.63 333 07:37 03.04.2022
4441 Clouds 25 1015 85 10000 0.45 132 04:19 03.04.2022
4442 Clouds 28 1014 73 10000 5.14 150 00:41 03.04.2022
4443 Clouds 29 1013 66 10000 3.6 180 22:57 02.04.2022
4444 Clouds 29 1014 68 10000 5.14 180 21:57 02.04.2022
4445 Clouds 30 1014 68 10000 5.14 180 21:36 02.04.2022
4446 Clouds 30 1014 67 10000 4.12 180 20:52 02.04.2022
4447 Clouds 29 1016 65 10000 2.57 60 19:32 02.04.2022
4448 Clouds 29 1017 74 10000 1.79 159 18:21 02.04.2022
4449 Clouds 28 1018 75 10000 3.6 60 17:52 02.04.2022
4450 Clouds 27 1018 76 10000 2.57 80 16:23 02.04.2022
4451 Clouds 24 1018 85 10000 1.79 35 15:21 02.04.2022
4452 Clouds 23 1018 88 10000 1.79 57 14:47 02.04.2022
4453 Clouds 22 1017 89 10000 0.89 6 13:35 02.04.2022
4454 Clear 24 1017 82 10000 0.89 349 12:37 02.04.2022
4455 Clear 24 1016 82 10000 1.34 4 10:58 02.04.2022
4456 Clear 24 1016 81 10000 0.89 49 08:50 02.04.2022
4457 Clouds 24 1018 81 10000 1.85 4 06:50 02.04.2022
4458 Clouds 24 1017 94 10000 0 0 03:45 02.04.2022
4459 Clouds 27 1015 76 10000 4.12 150 23:56 01.04.2022
4460 Clouds 27 1015 75 10000 4.12 150 23:18 01.04.2022
4461 Clouds 29 1016 70 10000 7.2 180 21:33 01.04.2022
4462 Clouds 29 1016 66 10000 3.13 117 20:51 01.04.2022
4463 Clouds 29 1017 68 10000 3.09 140 19:57 01.04.2022
4464 Clouds 29 1017 69 10000 3.09 140 19:31 01.04.2022
4465 Clouds 29 1017 68 10000 2.68 112 18:45 01.04.2022
4466 Clouds 29 1018 69 10000 5.14 10 17:46 01.04.2022
4467 Clouds 27 1018 75 10000 3.09 60 16:48 01.04.2022
4468 Clouds 25 1018 81 10000 1.79 74 15:36 01.04.2022
4469 Clouds 23 1018 91 10000 1.34 359 14:20 01.04.2022
4470 Clouds 22 1017 92 10000 1.34 4 13:33 01.04.2022
4471 Clouds 22 1016 91 10000 1.34 316 12:32 01.04.2022
4472 Clouds 22 1016 92 10000 1.34 336 11:37 01.04.2022
4473 Clouds 22 1016 92 10000 0.89 48 10:18 01.04.2022
4474 Clouds 23 1016 83 10000 2.85 337 08:30 01.04.2022
4475 Clouds 23 1017 83 10000 2.94 339 06:54 01.04.2022
4476 Clouds 24 1017 85 10000 2.57 360 04:49 01.04.2022
4477 Clouds 24 1017 84 10000 2.57 360 04:30 01.04.2022
4478 Clouds 26 1015 75 10000 3.09 160 01:56 01.04.2022
4479 Clouds 29 1014 66 10000 5.14 180 22:58 31.03.2022
4480 Clouds 29 1014 64 10000 5.14 150 21:50 31.03.2022
4481 Clouds 30 1014 65 10000 5.14 150 21:31 31.03.2022
4482 Clouds 29 1015 68 10000 2.57 180 20:29 31.03.2022
4483 Clouds 29 1016 66 10000 3.09 10 19:48 31.03.2022
4484 Clouds 29 1017 70 10000 4.12 60 18:43 31.03.2022
4485 Clouds 29 1017 66 10000 3.6 60 17:49 31.03.2022
4486 Clouds 27 1018 73 10000 3.13 60 16:37 31.03.2022
4487 Clouds 25 1018 78 10000 5.14 360 15:37 31.03.2022
4488 Clouds 24 1018 79 10000 5.14 360 15:19 31.03.2022
4489 Clouds 23 1017 86 10000 1.79 10 14:34 31.03.2022
4490 Clear 22 1015 89 10000 1.34 351 11:43 31.03.2022
4491 Clear 22 1015 89 10000 1.79 347 10:55 31.03.2022
4492 Clear 22 1015 88 10000 1.34 3 09:44 31.03.2022
4493 Clear 22 1016 90 10000 1.34 2 07:53 31.03.2022
4494 Clouds 22 1017 92 10000 1.34 348 04:46 31.03.2022
4495 Clouds 26 1015 78 10000 2.57 360 23:37 30.03.2022
4496 Clouds 26 1015 74 10000 2.57 350 22:27 30.03.2022
4497 Clouds 26 1015 72 10000 5.14 130 21:37 30.03.2022
4498 Clouds 26 1015 75 10000 5.14 60 20:44 30.03.2022
4499 Clouds 25 1016 79 10000 6.17 50 19:59 30.03.2022
4500 Clouds 25 1017 81 10000 5.14 360 18:50 30.03.2022
4501 Clouds 27 1017 70 10000 2.57 360 17:53 30.03.2022
4502 Clouds 27 1017 72 10000 2.68 65 17:34 30.03.2022
4503 Clouds 25 1017 79 10000 5.14 60 16:51 30.03.2022
4504 Clouds 25 1017 80 10000 5.14 60 16:30 30.03.2022
4505 Clouds 24 1017 85 10000 2.24 20 14:55 30.03.2022
4506 Clouds 23 1016 91 10000 1.79 343 13:32 30.03.2022
4507 Clouds 22 1016 90 10000 1.34 351 12:36 30.03.2022
4508 Clear 23 1015 90 10000 2.24 5 10:54 30.03.2022
4509 Clouds 23 1015 91 10000 1.79 2 09:58 30.03.2022
4510 Clouds 23 1016 90 10000 1.79 3 08:29 30.03.2022
4511 Clouds 23 1017 91 10000 1.79 343 07:29 30.03.2022
4512 Clouds 22 1018 92 10000 1.79 352 05:40 30.03.2022
4513 Clouds 22 1017 92 6000 1.34 357 03:20 30.03.2022
4514 Clouds 24 1015 86 8000 3.13 67 23:32 29.03.2022
4515 Clouds 25 1015 81 8000 3.09 30 22:18 29.03.2022
4516 Clouds 27 1015 73 4000 6.17 30 21:40 29.03.2022
4517 Clouds 28 1016 71 10000 6.17 360 20:39 29.03.2022
4518 Clouds 28 1017 72 10000 5.14 360 19:34 29.03.2022
4519 Clouds 28 1018 71 10000 5.14 360 18:54 29.03.2022
4520 Clouds 28 1019 72 10000 5.14 360 17:57 29.03.2022
4521 Clouds 27 1019 74 10000 5.14 360 17:19 29.03.2022
4522 Clouds 27 1019 75 10000 5.14 360 16:53 29.03.2022
4523 Clouds 25 1018 84 10000 3.09 360 15:44 29.03.2022
4524 Clouds 23 1018 88 10000 2.57 360 14:43 29.03.2022
4525 Clouds 23 1018 88 10000 2.57 360 14:43 29.03.2022
4526 Clouds 23 1018 88 10000 1.79 342 13:36 29.03.2022
4527 Clouds 22 1017 89 10000 1.79 343 12:39 29.03.2022
4528 Clouds 22 1016 90 10000 2.68 344 11:24 29.03.2022
4529 Clouds 22 1016 91 10000 1.79 337 10:20 29.03.2022
4530 Clouds 23 1016 89 10000 2.24 352 08:52 29.03.2022
4531 Clouds 24 1018 84 10000 2.68 358 06:53 29.03.2022
4532 Clouds 24 1017 88 10000 3.6 360 02:52 29.03.2022
4533 Clouds 25 1015 93 10000 4.12 60 23:37 28.03.2022
4534 Clouds 26 1015 83 10000 3.6 360 22:57 28.03.2022
4535 Clouds 26 1015 83 10000 3.6 360 22:33 28.03.2022
4536 Clouds 27 1015 89 10000 3.09 360 21:43 28.03.2022
4537 Clouds 26 1015 85 10000 3.09 360 20:35 28.03.2022
4538 Clouds 24 1018 94 6000 3.6 360 19:48 28.03.2022
4539 Clouds 24 1018 94 6000 3.6 360 19:30 28.03.2022
4540 Clouds 25 1018 88 10000 2.57 90 18:50 28.03.2022
4541 Clouds 25 1017 53 10000 6.27 15 17:41 28.03.2022
4542 Clouds 22 1019 100 8000 2.06 50 16:48 28.03.2022
4543 Rain 22 1018 93 8000 0.89 50 14:56 28.03.2022
4544 Clouds 22 1018 92 8000 1.79 59 14:23 28.03.2022
4545 Clouds 22 1016 93 10000 0.45 113 13:18 28.03.2022
4546 Clear 22 1015 91 10000 0.89 24 11:43 28.03.2022
4547 Clear 23 1014 91 10000 1.34 26 09:55 28.03.2022
4548 Clear 23 1014 90 10000 0.89 56 09:21 28.03.2022
4549 Clouds 23 1014 89 10000 1.34 309 08:23 28.03.2022
4550 Clouds 24 1015 84 10000 2.24 297 07:59 28.03.2022
4551 Clouds 23 1015 87 10000 0.89 184 06:30 28.03.2022
4552 Clouds 27 1012 73 10000 6.17 180 00:19 28.03.2022
4553 Clouds 28 1012 73 10000 5.14 210 22:34 27.03.2022
4554 Clouds 28 1012 72 10000 5.14 180 21:42 27.03.2022
4555 Clouds 29 1013 72 10000 3.09 180 20:58 27.03.2022
4556 Clouds 28 1013 73 10000 3.09 180 20:21 27.03.2022
4557 Clouds 29 1014 71 10000 5.14 180 19:36 27.03.2022
4558 Clouds 29 1015 67 10000 3.09 130 18:30 27.03.2022
4559 Clouds 29 1015 66 10000 1.79 164 17:55 27.03.2022
4560 Clouds 29 1015 66 10000 1.34 125 17:35 27.03.2022
4561 Clouds 26 1016 79 10000 0.89 111 15:46 27.03.2022
4562 Clouds 23 1014 83 10000 0.89 341 13:57 27.03.2022
4563 Clouds 23 1015 86 10000 1.23 333 12:58 27.03.2022
4564 Clouds 21 1014 88 10000 1.35 335 11:30 27.03.2022
4565 Clouds 24 1013 83 10000 1.27 324 09:37 27.03.2022
4566 Clouds 22 1014 80 10000 0.88 263 06:54 27.03.2022
4567 Clouds 26 1013 74 10000 0.45 168 01:55 27.03.2022
4568 Clouds 26 1012 74 10000 3.09 180 00:25 27.03.2022
4569 Clouds 29 1011 68 10000 4.12 180 22:45 26.03.2022
4570 Clouds 29 1011 65 10000 4.12 180 21:50 26.03.2022
4571 Clouds 29 1012 65 10000 4.12 180 21:26 26.03.2022
4572 Clouds 29 1012 67 10000 5.14 180 19:31 26.03.2022
4573 Clouds 29 1013 68 10000 5.14 180 18:24 26.03.2022
4574 Clouds 29 1014 68 10000 5.14 180 17:33 26.03.2022
4575 Clouds 28 1015 71 10000 4.12 150 16:30 26.03.2022
4576 Clouds 28 1015 73 10000 1.79 123 15:35 26.03.2022
4577 Clouds 24 1015 81 10000 1.34 19 13:55 26.03.2022
4578 Clouds 23 1015 83 10000 1.34 3 13:19 26.03.2022
4579 Clear 23 1013 85 10000 0.89 351 11:41 26.03.2022
4580 Clear 20 1014 90 10000 1.24 322 10:29 26.03.2022
4581 Clear 20 1014 90 10000 1.74 321 08:44 26.03.2022
4582 Clear 23 1014 84 10000 1.23 348 06:30 26.03.2022
4583 Clear 24 1015 82 10000 0.9 10 05:28 26.03.2022
4584 Clouds 26 1014 74 10000 2.57 150 00:30 26.03.2022
4585 Clouds 29 1014 63 10000 5.14 180 21:51 25.03.2022
4586 Clouds 30 1014 60 10000 6.17 150 20:46 25.03.2022
4587 Clouds 30 1014 63 10000 6.17 150 20:20 25.03.2022
4588 Clouds 28 1015 69 10000 3.13 118 18:47 25.03.2022
4589 Clouds 27 1017 72 10000 3.09 120 17:47 25.03.2022
4590 Clouds 27 1017 73 10000 3.09 120 17:27 25.03.2022
4591 Clouds 27 1018 70 10000 1.79 98 16:18 25.03.2022
4592 Clouds 26 1018 74 10000 3.09 30 14:26 25.03.2022
4593 Clouds 23 1017 84 10000 1.79 52 12:57 25.03.2022
4594 Clouds 23 1016 85 10000 1.7 2 10:26 25.03.2022
4595 Clouds 24 1015 81 10000 2.24 60 09:28 25.03.2022
4596 Clouds 23 1016 84 10000 2.39 347 08:24 25.03.2022
4597 Clouds 24 1016 83 10000 2.16 350 07:28 25.03.2022
4598 Clouds 24 1017 82 10000 1.99 359 06:24 25.03.2022
4599 Clouds 27 1016 76 10000 2.24 115 01:18 25.03.2022
4600 Clouds 28 1015 69 10000 1.79 126 22:51 24.03.2022
4601 Clouds 28 1015 66 10000 1.79 128 21:45 24.03.2022
4602 Clear 29 1016 68 10000 1.79 133 20:26 24.03.2022
4603 Clear 29 1016 66 10000 2.24 126 19:47 24.03.2022
4604 Clear 29 1018 59 10000 1.79 153 17:47 24.03.2022
4605 Clear 29 1018 64 10000 1.79 117 17:19 24.03.2022
4606 Clouds 27 1020 71 10000 3.09 30 15:45 24.03.2022
4607 Clouds 25 1019 78 10000 2.68 65 14:48 24.03.2022
4608 Clouds 25 1019 79 10000 2.24 10 14:18 24.03.2022
4609 Clouds 22 1019 91 10000 1.79 331 12:52 24.03.2022
4610 Clear 22 1018 87 10000 1.79 5 11:44 24.03.2022
4611 Clear 23 1017 84 10000 2.86 357 09:53 24.03.2022
4612 Clear 23 1017 84 10000 2.83 350 08:41 24.03.2022
4613 Clear 23 1017 84 10000 2.47 343 06:49 24.03.2022
4614 Clouds 24 1017 88 10000 0 0 02:24 24.03.2022
4615 Clouds 27 1016 72 10000 5.14 180 23:20 23.03.2022
4616 Clouds 29 1015 65 10000 5.14 180 21:27 23.03.2022
4617 Clouds 29 1016 62 10000 5.14 180 20:59 23.03.2022
4618 Clouds 29 1016 64 10000 5.14 170 19:45 23.03.2022
4619 Clouds 28 1017 66 10000 5.14 90 18:36 23.03.2022
4620 Clouds 28 1018 67 10000 5.14 90 17:36 23.03.2022
4621 Clouds 28 1019 67 10000 5.14 90 16:21 23.03.2022
4622 Clouds 26 1019 76 10000 2.68 52 14:51 23.03.2022
4623 Clouds 25 1018 78 10000 1.79 45 14:24 23.03.2022
4624 Clouds 23 1017 85 10000 1.79 6 12:45 23.03.2022
4625 Clouds 24 1016 79 10000 1.79 354 09:38 23.03.2022
4626 Clear 22 1017 80 10000 2.55 338 06:41 23.03.2022
4627 Clouds 24 1018 84 10000 0 0 04:31 23.03.2022
4628 Clouds 26 1015 75 10000 0.89 120 00:29 23.03.2022
4629 Clouds 28 1015 70 10000 5.14 180 22:33 22.03.2022
4630 Clouds 29 1014 67 10000 3.6 50 21:29 22.03.2022
4631 Clouds 29 1015 67 10000 1.79 120 20:39 22.03.2022
4632 Clouds 29 1015 67 10000 3.6 150 19:41 22.03.2022
4633 Clouds 30 1015 67 10000 3.6 150 19:18 22.03.2022
4634 Clouds 30 1015 67 10000 3.6 150 19:18 22.03.2022
4635 Clouds 28 1016 67 10000 3.09 360 18:22 22.03.2022
4636 Clouds 29 1017 63 10000 5.14 60 17:29 22.03.2022
4637 Clouds 28 1017 67 10000 2.57 80 15:59 22.03.2022
4638 Clouds 27 1018 70 10000 3.13 67 15:22 22.03.2022
4639 Clouds 25 1018 79 10000 2.68 62 14:46 22.03.2022
4640 Clouds 25 1018 80 10000 2.57 360 14:26 22.03.2022
4641 Clouds 22 1017 87 10000 1.79 15 12:55 22.03.2022
4642 Clouds 23 1016 83 10000 1.34 8 11:48 22.03.2022
4643 Clouds 23 1015 82 10000 1.34 353 10:35 22.03.2022
4644 Clouds 22 1016 85 10000 2.68 352 08:24 22.03.2022
4645 Clouds 23 1017 78 10000 2.51 1 05:21 22.03.2022
4646 Clouds 23 1017 88 10000 3.6 60 03:41 22.03.2022
4647 Clouds 27 1014 75 10000 1.79 122 23:59 21.03.2022
4648 Clouds 28 1014 67 8000 3.09 100 22:29 21.03.2022
4649 Clouds 29 1014 65 10000 4.12 180 20:47 21.03.2022
4650 Clouds 29 1014 66 10000 4.12 180 20:27 21.03.2022
4651 Clouds 29 1015 65 10000 2.24 140 19:57 21.03.2022
4652 Clouds 30 1015 64 10000 2.24 137 19:25 21.03.2022
4653 Clouds 29 1016 68 10000 4.12 140 17:53 21.03.2022
4654 Clouds 29 1017 69 10000 4.12 140 17:18 21.03.2022
4655 Clouds 28 1017 70 10000 3.09 160 16:39 21.03.2022
4656 Clouds 28 1018 71 10000 3.09 100 15:48 21.03.2022
4657 Clouds 26 1018 75 10000 2.24 103 14:56 21.03.2022
4658 Clouds 25 1017 80 10000 1.79 76 13:46 21.03.2022
4659 Clouds 23 1017 86 10000 1.34 42 12:34 21.03.2022
4660 Clouds 24 1016 83 10000 0.89 351 11:44 21.03.2022
4661 Clouds 24 1015 84 10000 1.79 12 10:34 21.03.2022
4662 Clouds 24 1015 82 10000 1.34 38 08:29 21.03.2022
4663 Clouds 25 1016 80 10000 1.79 39 06:37 21.03.2022
4664 Clouds 25 1017 87 10000 0 0 02:48 21.03.2022
4665 Clouds 27 1015 77 10000 3.6 180 23:41 20.03.2022
4666 Clouds 29 1016 69 10000 3.09 150 22:43 20.03.2022
4667 Clouds 30 1015 67 10000 3.09 180 21:51 20.03.2022
4668 Clouds 30 1015 66 10000 3.09 180 21:20 20.03.2022
4669 Clouds 30 1015 66 10000 3.6 90 20:43 20.03.2022
4670 Clouds 29 1016 69 10000 2.57 300 19:57 20.03.2022
4671 Clouds 29 1016 69 10000 2.57 300 19:26 20.03.2022
4672 Clouds 28 1018 69 10000 1.79 111 17:52 20.03.2022
4673 Clouds 29 1018 69 10000 1.34 131 17:30 20.03.2022
4674 Clouds 28 1019 72 10000 4.12 60 16:52 20.03.2022
4675 Clouds 27 1019 72 10000 1.34 35 15:27 20.03.2022
4676 Clouds 25 1019 81 10000 1.79 51 13:49 20.03.2022
4677 Clouds 22 1018 94 10000 0 0 12:22 20.03.2022
4678 Clouds 23 1017 94 10000 2.28 341 10:42 20.03.2022
4679 Clouds 23 1017 94 10000 2.58 343 08:37 20.03.2022
4680 Clouds 24 1017 84 10000 2.66 348 06:55 20.03.2022
4681 Clouds 24 1018 85 10000 0 0 03:59 20.03.2022
4682 Clouds 26 1018 74 10000 1.73 47 01:29 20.03.2022
4683 Clouds 27 1017 70 10000 1.34 91 00:36 20.03.2022
4684 Clouds 29 1016 64 10000 2.57 360 22:56 19.03.2022
4685 Clouds 30 1016 62 10000 5.14 360 21:27 19.03.2022
4686 Clouds 29 1016 61 10000 5.14 30 20:19 19.03.2022
4687 Clouds 29 1019 64 10000 3.09 30 18:44 19.03.2022
4688 Clouds 29 1019 64 10000 5.14 60 17:57 19.03.2022
4689 Clouds 29 1019 63 10000 5.14 60 17:34 19.03.2022
4690 Clouds 26 1020 72 10000 3.09 90 15:43 19.03.2022
4691 Clouds 26 1020 75 10000 5.14 360 14:21 19.03.2022
4692 Clouds 23 1019 86 10000 1.79 359 12:56 19.03.2022
4693 Clouds 22 1019 86 10000 1.79 351 12:37 19.03.2022
4694 Clear 22 1019 87 10000 2.65 357 11:47 19.03.2022
4695 Clear 24 1017 81 10000 1.79 3 09:55 19.03.2022
4696 Clouds 24 1018 79 10000 1.79 16 05:48 19.03.2022
4697 Clouds 26 1018 80 10000 1.79 94 02:37 19.03.2022
4698 Clouds 26 1016 77 10000 3.09 180 00:54 19.03.2022
4699 Clouds 27 1016 75 10000 6.17 180 23:19 18.03.2022
4700 Clouds 28 1016 74 10000 5.14 180 22:23 18.03.2022
4701 Clouds 29 1016 69 10000 5.14 180 20:48 18.03.2022
4702 Clouds 30 1017 68 10000 5.14 180 19:48 18.03.2022
4703 Clouds 30 1017 68 10000 5.14 180 19:19 18.03.2022
4704 Clouds 30 1017 68 10000 5.14 180 19:19 18.03.2022
4705 Clouds 29 1018 72 10000 4.12 90 17:27 18.03.2022
4706 Clouds 29 1019 71 10000 2.24 124 16:42 18.03.2022
4707 Clouds 25 1019 79 10000 2.68 65 14:30 18.03.2022
4708 Clouds 24 1019 84 10000 2.68 53 13:41 18.03.2022
4709 Clouds 21 1018 94 10000 0 0 12:18 18.03.2022
4710 Clouds 21 1017 91 10000 2.44 356 10:27 18.03.2022
4711 Clouds 22 1017 91 10000 2.53 347 09:20 18.03.2022
4712 Clouds 24 1017 78 10000 1.34 349 07:43 18.03.2022
4713 Clouds 25 1018 74 10000 1.79 35 05:20 18.03.2022
4714 Clouds 26 1018 84 10000 0.88 20 01:55 18.03.2022
4715 Clouds 26 1017 78 10000 0 0 00:21 18.03.2022
4716 Clouds 28 1016 67 10000 4.12 150 22:54 17.03.2022
4717 Clouds 28 1016 67 10000 4.12 150 22:20 17.03.2022
4718 Clouds 28 1016 68 10000 5.14 180 21:46 17.03.2022
4719 Clouds 29 1016 67 10000 7.2 180 20:58 17.03.2022
4720 Clouds 29 1016 66 10000 7.2 180 20:29 17.03.2022
4721 Clouds 29 1017 64 10000 7.72 160 19:39 17.03.2022
4722 Clouds 30 1017 63 10000 5.14 180 18:55 17.03.2022
4723 Clouds 29 1018 67 10000 5.14 150 17:47 17.03.2022
4724 Clouds 28 1019 71 10000 5.14 150 16:29 17.03.2022
4725 Clouds 27 1019 73 10000 5.14 90 15:43 17.03.2022
4726 Clouds 27 1019 73 10000 5.14 90 15:21 17.03.2022
4727 Clouds 24 1019 85 10000 1.34 59 13:47 17.03.2022
4728 Clouds 23 1018 87 10000 1.79 62 12:47 17.03.2022
4729 Clouds 22 1018 87 10000 2.17 346 11:40 17.03.2022
4730 Clouds 23 1017 87 10000 2.1 347 10:58 17.03.2022
4731 Clouds 23 1017 87 10000 2.15 340 09:40 17.03.2022
4732 Clouds 23 1017 86 10000 1.57 341 08:20 17.03.2022
4733 Clouds 24 1018 83 10000 2.28 327 05:53 17.03.2022
4734 Clouds 24 1019 83 10000 1.86 336 05:23 17.03.2022
4735 Clouds 26 1016 77 10000 5.14 150 00:27 17.03.2022
4736 Clouds 28 1015 71 10000 6.17 180 22:57 16.03.2022
4737 Clouds 28 1015 71 10000 6.17 180 22:36 16.03.2022
4738 Clouds 29 1015 69 10000 7.2 150 21:56 16.03.2022
4739 Clouds 28 1015 68 10000 1.79 133 20:47 16.03.2022
4740 Clouds 30 1016 63 10000 5.14 360 19:24 16.03.2022
4741 Clouds 30 1017 64 10000 4.12 350 18:43 16.03.2022
4742 Clouds 29 1018 64 10000 5.14 30 17:50 16.03.2022
4743 Clouds 29 1018 67 10000 5.14 30 17:31 16.03.2022
4744 Clouds 28 1019 68 10000 5.14 30 16:35 16.03.2022
4745 Clear 26 1019 72 10000 2.24 49 14:58 16.03.2022
4746 Clouds 24 1019 83 10000 2.24 355 13:36 16.03.2022
4747 Clouds 22 1018 87 10000 2.24 351 12:55 16.03.2022
4748 Clear 22 1017 83 10000 1.79 2 11:23 16.03.2022
4749 Clear 23 1017 83 10000 2.24 3 10:32 16.03.2022
4750 Clear 23 1017 82 10000 2.24 348 09:57 16.03.2022
4751 Clear 23 1017 81 10000 1.34 348 08:24 16.03.2022
4752 Clouds 24 1018 80 10000 3.09 360 02:46 16.03.2022
4753 Clouds 28 1016 73 10000 5.14 40 22:56 15.03.2022
4754 Clouds 29 1015 75 10000 2.24 118 22:36 15.03.2022
4755 Clouds 29 1016 68 10000 5.14 150 20:59 15.03.2022
4756 Clouds 30 1017 68 10000 5.14 160 19:39 15.03.2022
4757 Clouds 29 1018 69 10000 5.14 20 17:47 15.03.2022
4758 Clouds 29 1019 68 10000 4.12 30 16:41 15.03.2022
4759 Clouds 27 1020 74 10000 4.12 30 15:38 15.03.2022
4760 Clouds 26 1020 77 10000 5.14 360 14:54 15.03.2022
4761 Clouds 24 1020 85 10000 2.68 359 13:56 15.03.2022
4762 Clouds 23 1019 87 10000 2.68 6 13:22 15.03.2022
4763 Clear 22 1018 87 10000 1.79 2 11:33 15.03.2022
4764 Clear 22 1018 86 10000 1.79 6 10:52 15.03.2022
4765 Clear 23 1018 84 10000 1.79 359 09:24 15.03.2022
4766 Clear 23 1018 84 10000 1.79 359 08:24 15.03.2022
4767 Clear 23 1018 83 10000 2.24 3 07:36 15.03.2022
4768 Clear 23 1020 85 10000 3.38 338 05:56 15.03.2022
4769 Clouds 26 1018 80 10000 5.14 360 00:31 15.03.2022
4770 Clouds 26 1017 82 10000 3.6 350 23:29 14.03.2022
4771 Clouds 26 1017 84 10000 5.14 360 22:49 14.03.2022
4772 Clouds 25 1017 84 10000 3.6 30 21:51 14.03.2022
4773 Clouds 26 1017 74 7000 3.6 30 20:55 14.03.2022
4774 Clouds 27 1017 73 7000 3.6 30 20:24 14.03.2022
4775 Clouds 28 1018 73 10000 2.24 95 19:22 14.03.2022
4776 Clouds 27 1019 69 7000 5.14 60 17:57 14.03.2022
4777 Clouds 27 1019 67 7000 5.14 60 17:39 14.03.2022
4778 Clouds 27 1020 65 10000 4.12 60 16:28 14.03.2022
4779 Clouds 26 1020 72 10000 4.12 10 14:47 14.03.2022
4780 Clouds 24 1019 83 10000 3.09 360 13:20 14.03.2022
4781 Clear 23 1018 86 10000 1.34 14 10:59 14.03.2022
4782 Clear 23 1017 85 10000 1.79 16 09:56 14.03.2022
4783 Clear 23 1017 85 10000 1.34 25 09:24 14.03.2022
4784 Clear 23 1018 86 10000 1.79 5 08:57 14.03.2022
4785 Clear 23 1018 86 10000 1.79 22 08:24 14.03.2022
4786 Clouds 24 1019 85 10000 1.79 28 05:51 14.03.2022
4787 Clouds 23 1018 94 10000 3.09 20 02:57 14.03.2022
4788 Clouds 24 1019 87 10000 1.79 23 01:33 14.03.2022
4789 Clouds 27 1017 75 10000 0 0 23:25 13.03.2022
4790 Clouds 27 1016 76 10000 0.89 91 21:40 13.03.2022
4791 Clouds 27 1016 76 10000 1.34 78 21:19 13.03.2022
4792 Clouds 27 1016 75 10000 3.09 360 20:43 13.03.2022
4793 Clouds 27 1016 74 10000 3.09 360 20:20 13.03.2022
4794 Clouds 27 1017 79 10000 1.34 122 19:40 13.03.2022
4795 Clouds 27 1017 78 10000 0.89 132 19:20 13.03.2022
4796 Clouds 27 1018 75 6000 5.14 360 18:40 13.03.2022
4797 Clouds 27 1018 73 10000 1.34 84 17:48 13.03.2022
4798 Clouds 27 1019 76 10000 0.89 108 17:22 13.03.2022
4799 Clouds 26 1019 78 10000 1.34 118 16:43 13.03.2022
4800 Clouds 26 1020 79 10000 1.79 103 16:20 13.03.2022
4801 Clouds 26 1019 81 10000 5.14 60 15:33 13.03.2022
4802 Clouds 24 1019 90 8000 1.79 7 13:53 13.03.2022
4803 Clouds 24 1018 91 8000 1.34 16 13:26 13.03.2022
4804 Clouds 23 1018 91 10000 1.34 2 12:20 13.03.2022
4805 Clouds 24 1017 90 10000 0.45 327 11:36 13.03.2022
4806 Clouds 23 1017 91 10000 0.45 98 10:48 13.03.2022
4807 Clouds 23 1017 91 10000 0.89 90 10:25 13.03.2022
4808 Clouds 24 1016 91 10000 1.34 68 09:41 13.03.2022
4809 Clouds 24 1016 92 10000 0.89 58 08:47 13.03.2022
4810 Clouds 24 1016 92 10000 1.79 56 07:47 13.03.2022
4811 Clouds 23 1017 92 10000 2.24 76 05:48 13.03.2022
4812 Clouds 25 1017 88 10000 0.89 115 02:50 13.03.2022
4813 Clouds 26 1015 78 10000 3.09 180 00:20 13.03.2022
4814 Clouds 28 1014 71 10000 5.14 180 22:44 12.03.2022
4815 Clouds 28 1014 73 8000 1.34 131 20:58 12.03.2022
4816 Clouds 28 1015 74 8000 1.79 118 19:56 12.03.2022
4817 Clouds 28 1015 74 8000 1.79 117 19:38 12.03.2022
4818 Clouds 29 1016 68 10000 1.79 143 18:27 12.03.2022
4819 Clouds 29 1016 66 10000 4.12 30 17:34 12.03.2022
4820 Clouds 28 1018 67 10000 2.24 112 16:24 12.03.2022
4821 Clouds 27 1018 72 10000 4.12 90 15:24 12.03.2022
4822 Clouds 26 1018 77 10000 2.06 30 14:50 12.03.2022
4823 Clouds 24 1017 84 10000 1.79 11 13:47 12.03.2022
4824 Clouds 23 1016 82 10000 2.24 7 11:57 12.03.2022
4825 Clouds 23 1016 82 10000 1.34 346 11:38 12.03.2022
4826 Clouds 24 1016 77 10000 1.34 24 10:58 12.03.2022
4827 Clouds 23 1015 81 10000 1.79 17 09:46 12.03.2022
4828 Clouds 23 1015 81 10000 1.79 17 09:46 12.03.2022
4829 Clouds 23 1015 82 10000 1.34 2 08:56 12.03.2022
4830 Clouds 23 1016 82 10000 1.79 25 07:27 12.03.2022
4831 Clouds 24 1017 86 10000 0 0 03:54 12.03.2022
4832 Clouds 27 1015 73 10000 4.12 160 23:56 11.03.2022
4833 Clouds 27 1015 73 10000 4.12 160 23:56 11.03.2022
4834 Clouds 27 1015 73 10000 4.12 160 23:56 11.03.2022
4835 Clouds 27 1015 73 10000 4.12 160 23:56 11.03.2022
4836 Clouds 28 1015 73 10000 4.12 160 23:18 11.03.2022
4837 Clouds 29 1015 66 10000 5.14 180 21:41 11.03.2022
4838 Clouds 29 1015 64 10000 4.12 160 20:56 11.03.2022
4839 Clouds 29 1015 64 10000 4.12 160 20:35 11.03.2022
4840 Clouds 30 1016 62 10000 5.14 180 19:52 11.03.2022
4841 Clouds 29 1017 63 10000 5.14 180 19:22 11.03.2022
4842 Clouds 29 1018 70 10000 5.14 120 17:30 11.03.2022
4843 Clouds 28 1019 71 10000 4.12 70 16:36 11.03.2022
4844 Clouds 28 1019 75 8000 3.09 40 15:53 11.03.2022
4845 Clouds 26 1019 81 10000 3.13 67 14:19 11.03.2022
4846 Clouds 23 1017 89 10000 1.34 349 12:44 11.03.2022
4847 Clouds 21 1017 92 10000 0 0 12:21 11.03.2022
4848 Clear 23 1017 90 10000 2.17 357 11:51 11.03.2022
4849 Clear 24 1016 85 10000 2.24 359 09:40 11.03.2022
4850 Clear 24 1016 84 10000 1.34 353 08:47 11.03.2022
4851 Clear 24 1016 82 10000 0.89 350 07:53 11.03.2022
4852 Clear 24 1016 82 10000 1.34 356 07:28 11.03.2022
4853 Clouds 24 1017 83 10000 1.34 2 05:44 11.03.2022
4854 Clouds 24 1017 83 10000 2.24 38 03:41 11.03.2022
4855 Clouds 26 1015 78 10000 1.34 115 23:31 10.03.2022
4856 Clouds 26 1015 81 10000 1.34 90 22:29 10.03.2022
4857 Clouds 26 1015 81 10000 0.89 141 21:27 10.03.2022
4858 Clouds 28 1015 76 10000 5.14 360 20:49 10.03.2022
4859 Clouds 29 1015 73 10000 2.57 360 19:23 10.03.2022
4860 Clouds 29 1016 68 10000 1.79 115 18:40 10.03.2022
4861 Clouds 28 1018 73 10000 5.14 90 16:54 10.03.2022
4862 Clouds 27 1019 73 10000 3.13 40 15:41 10.03.2022
4863 Clouds 25 1018 79 10000 3.09 30 14:24 10.03.2022
4864 Clouds 22 1017 89 10000 1.34 351 12:49 10.03.2022
4865 Clouds 23 1017 88 10000 0.89 346 11:39 10.03.2022
4866 Clouds 23 1016 87 10000 1.34 6 10:19 10.03.2022
4867 Clouds 23 1016 90 10000 2.49 349 08:48 10.03.2022
4868 Clear 24 1017 83 10000 0.89 351 06:36 10.03.2022
4869 Clouds 23 1017 89 10000 1.79 1 03:42 10.03.2022
4870 Clouds 25 1016 81 10000 2.68 26 00:23 10.03.2022
4871 Clouds 28 1015 68 10000 2.57 350 22:45 09.03.2022
4872 Clouds 28 1014 66 10000 3.6 60 21:48 09.03.2022
4873 Clouds 29 1014 65 10000 3.09 90 20:59 09.03.2022
4874 Clouds 29 1015 61 10000 1.34 146 19:28 09.03.2022
4875 Clouds 28 1017 70 10000 2.57 60 17:57 09.03.2022
4876 Clouds 29 1017 63 10000 2.57 60 17:23 09.03.2022
4877 Clouds 25 1018 73 10000 5.14 60 15:42 09.03.2022
4878 Clouds 25 1018 77 10000 5.14 360 14:27 09.03.2022
4879 Clouds 25 1018 77 10000 5.14 360 14:27 09.03.2022
4880 Clouds 23 1017 86 10000 2.24 355 13:50 09.03.2022
4881 Clouds 21 1016 89 10000 1.34 342 12:27 09.03.2022
4882 Clear 23 1016 84 10000 1.34 347 11:48 09.03.2022
4883 Clear 22 1015 85 10000 1.34 350 10:59 09.03.2022
4884 Clear 23 1015 84 10000 1.34 355 09:40 09.03.2022
4885 Clear 23 1015 83 10000 2.24 356 08:45 09.03.2022
4886 Clear 23 1016 83 10000 1.34 358 06:25 09.03.2022
4887 Clouds 24 1015 89 10000 1.34 3 00:59 09.03.2022
4888 Clouds 24 1015 86 10000 1.34 2 23:48 08.03.2022
4889 Clouds 25 1014 84 8000 1.34 6 22:46 08.03.2022
4890 Clouds 26 1014 76 7000 1.34 119 21:47 08.03.2022
4891 Clouds 26 1014 76 7000 0.89 123 21:19 08.03.2022
4892 Clouds 27 1014 75 8000 4.12 170 20:21 08.03.2022
4893 Clouds 29 1015 69 10000 2.57 30 18:57 08.03.2022
4894 Clouds 29 1016 68 10000 2.57 30 18:21 08.03.2022
4895 Clouds 27 1017 71 10000 5.14 60 16:42 08.03.2022
4896 Clouds 25 1018 79 10000 5.14 20 14:55 08.03.2022
4897 Clouds 23 1017 86 10000 1.34 341 13:39 08.03.2022
4898 Clouds 21 1016 91 10000 1.34 349 12:20 08.03.2022
4899 Clear 22 1016 89 10000 1.34 350 11:42 08.03.2022
4900 Clear 22 1016 89 10000 1.34 347 10:28 08.03.2022
4901 Clear 22 1015 88 10000 1.79 2 08:55 08.03.2022
4902 Clear 22 1017 90 10000 1.79 355 05:51 08.03.2022
4903 Clouds 21 1017 92 6000 1.34 347 01:53 08.03.2022
4904 Clouds 22 1016 92 6000 1.34 37 22:41 07.03.2022
4905 Clouds 23 1016 91 6000 5.14 180 21:36 07.03.2022
4906 Clouds 25 1017 83 6000 4.12 90 20:55 07.03.2022
4907 Clouds 24 1016 85 6000 4.12 90 20:29 07.03.2022
4908 Clouds 25 1018 82 8000 6.17 30 19:48 07.03.2022
4909 Clouds 24 1017 90 8000 1.79 3 18:48 07.03.2022
4910 Clouds 24 1017 88 8000 4.12 360 18:25 07.03.2022
4911 Clouds 26 1018 77 10000 5.14 360 16:56 07.03.2022
4912 Clouds 26 1018 75 10000 5.14 360 16:37 07.03.2022
4913 Clouds 24 1018 82 10000 4.12 360 14:41 07.03.2022
4914 Clouds 21 1017 88 10000 0 0 12:34 07.03.2022
4915 Clear 22 1016 87 10000 1.79 351 10:48 07.03.2022
4916 Clear 22 1016 86 10000 2.24 4 10:25 07.03.2022
4917 Clouds 22 1017 86 10000 1.79 6 07:42 07.03.2022
4918 Clouds 22 1017 93 8000 1.34 328 00:37 07.03.2022
4919 Clouds 22 1017 93 8000 1.34 332 00:19 07.03.2022
4920 Clouds 22 1017 93 6000 2.24 342 23:18 06.03.2022
4921 Clouds 22 1017 94 6000 4.12 360 22:25 06.03.2022
4922 Clouds 24 1016 84 7000 2.57 360 20:56 06.03.2022
4923 Clouds 24 1016 86 7000 2.57 360 20:28 06.03.2022
4924 Clouds 26 1017 83 7000 7.2 360 19:31 06.03.2022
4925 Clouds 27 1017 78 10000 6.17 360 18:25 06.03.2022
4926 Clouds 28 1018 73 10000 6.17 360 17:22 06.03.2022
4927 Clouds 27 1019 73 10000 7.2 360 16:52 06.03.2022
4928 Clouds 27 1019 74 10000 7.2 360 16:20 06.03.2022
4929 Clouds 25 1019 78 10000 6.17 360 15:19 06.03.2022
4930 Clouds 25 1019 79 10000 3.09 10 14:41 06.03.2022
4931 Clouds 24 1019 83 10000 5.14 10 13:47 06.03.2022
4932 Clouds 22 1018 88 10000 1.79 7 12:36 06.03.2022
4933 Clouds 23 1017 83 7928 1.79 354 11:30 06.03.2022
4934 Clouds 23 1017 83 7148 2.24 3 10:30 06.03.2022
4935 Clouds 23 1017 86 10000 2.24 351 08:51 06.03.2022
4936 Clouds 23 1017 86 10000 2.68 358 08:27 06.03.2022
4937 Clouds 23 1018 86 10000 2.24 352 06:33 06.03.2022
4938 Clouds 22 1018 87 10000 2.24 359 01:32 06.03.2022
4939 Clouds 22 1017 92 8000 4.12 360 00:33 06.03.2022
4940 Clouds 23 1016 91 8000 2.68 21 23:46 05.03.2022
4941 Clouds 24 1016 89 8000 2.24 54 23:18 05.03.2022
4942 Clouds 24 1016 94 8000 3.09 360 22:31 05.03.2022
4943 Clouds 24 1016 94 8000 5.14 30 21:24 05.03.2022
4944 Clouds 29 1015 70 8000 3.09 20 19:56 05.03.2022
4945 Clouds 29 1016 70 10000 3.6 50 18:56 05.03.2022
4946 Clouds 29 1016 70 10000 3.6 50 18:34 05.03.2022
4947 Clouds 29 1018 69 10000 2.57 60 16:57 05.03.2022
4948 Clouds 27 1018 77 10000 3.13 57 15:43 05.03.2022
4949 Clear 27 1017 77 10000 2.68 40 14:52 05.03.2022
4950 Clear 26 1017 78 10000 2.24 38 14:34 05.03.2022
4951 Clouds 24 1017 86 10000 1.79 24 13:35 05.03.2022
4952 Clouds 23 1017 89 10000 3.05 346 11:55 05.03.2022
4953 Clouds 23 1016 89 10000 3.01 348 11:20 05.03.2022
4954 Clouds 24 1015 85 10000 1.79 357 10:23 05.03.2022
4955 Clouds 24 1015 84 10000 1.79 7 09:28 05.03.2022
4956 Clouds 24 1016 87 10000 2.97 351 07:58 05.03.2022
4957 Clear 24 1017 87 10000 2.93 348 05:47 05.03.2022
4958 Clouds 22 1017 91 10000 0 0 04:33 05.03.2022
4959 Clouds 24 1015 86 10000 2.24 38 23:39 04.03.2022
4960 Clouds 25 1015 82 7000 2.57 360 22:44 04.03.2022
4961 Clouds 25 1015 82 7000 2.57 360 22:23 04.03.2022
4962 Clouds 26 1015 75 7000 6.17 60 21:24 04.03.2022
4963 Clouds 29 1015 66 7000 5.14 30 20:28 04.03.2022
4964 Clouds 29 1015 66 10000 1.79 129 19:36 04.03.2022
4965 Clouds 30 1016 62 10000 2.57 30 18:46 04.03.2022
4966 Clouds 29 1017 65 10000 2.57 30 18:20 04.03.2022
4967 Clouds 29 1017 68 10000 1.79 154 17:28 04.03.2022
4968 Clouds 26 1018 76 10000 2.57 360 15:31 04.03.2022
4969 Clouds 25 1018 78 10000 3.13 21 14:33 04.03.2022
4970 Clouds 22 1017 87 10000 0 0 13:26 04.03.2022
4971 Clear 22 1017 88 10000 3.37 344 11:54 04.03.2022
4972 Clear 23 1016 83 10000 1.79 7 10:55 04.03.2022
4973 Clear 23 1016 87 10000 3.16 343 10:18 04.03.2022
4974 Clear 24 1015 81 10000 1.79 359 08:40 04.03.2022
4975 Clear 24 1015 81 10000 1.79 359 08:40 04.03.2022
4976 Clear 24 1016 81 10000 1.34 1 07:38 04.03.2022
4977 Clouds 24 1017 84 10000 1.79 352 04:31 04.03.2022
4978 Clouds 26 1015 79 10000 1.34 73 00:38 04.03.2022
4979 Clouds 28 1015 74 10000 5.14 90 22:39 03.03.2022
4980 Clouds 28 1014 72 10000 5.14 130 21:50 03.03.2022
4981 Clouds 29 1014 71 10000 5.14 130 21:29 03.03.2022
4982 Clouds 29 1014 68 10000 1.79 146 20:18 03.03.2022
4983 Clouds 30 1016 66 10000 5.14 20 18:55 03.03.2022
4984 Clouds 30 1016 66 10000 5.14 20 18:24 03.03.2022
4985 Clouds 30 1017 63 10000 1.79 152 17:31 03.03.2022
4986 Clouds 30 1017 63 10000 1.79 152 17:31 03.03.2022
4987 Clouds 28 1018 69 10000 3.09 30 16:25 03.03.2022
4988 Clouds 27 1018 74 10000 1.79 67 15:24 03.03.2022
4989 Clouds 25 1018 80 10000 2.57 30 14:43 03.03.2022
4990 Clouds 25 1018 80 10000 2.57 30 14:24 03.03.2022
4991 Clouds 21 1016 93 10000 0 0 12:23 03.03.2022
4992 Clouds 23 1016 90 10000 2.01 357 10:48 03.03.2022
4993 Clouds 23 1016 89 10000 1.87 359 09:45 03.03.2022
4994 Clouds 24 1016 89 10000 1.66 6 08:19 03.03.2022
4995 Clouds 24 1016 87 10000 1.75 32 06:37 03.03.2022
4996 Clouds 24 1016 87 7000 1.34 46 03:21 03.03.2022
4997 Clouds 27 1014 78 10000 3.09 180 23:39 02.03.2022
4998 Clouds 27 1014 75 10000 5.14 180 22:53 02.03.2022
4999 Clouds 29 1014 72 10000 4.12 90 21:35 02.03.2022
5000 Clouds 29 1014 70 10000 4.12 180 20:55 02.03.2022
5001 Clouds 29 1014 69 10000 4.12 180 20:24 02.03.2022
5002 Clouds 30 1014 68 10000 4.12 180 19:37 02.03.2022
5003 Clouds 29 1015 66 10000 4.12 90 18:54 02.03.2022
5004 Clouds 29 1015 67 10000 4.12 90 18:26 02.03.2022
5005 Clouds 29 1016 68 10000 3.09 160 17:36 02.03.2022
5006 Clouds 28 1017 74 10000 2.24 102 16:51 02.03.2022
5007 Clouds 25 1016 81 10000 0 0 14:59 02.03.2022
5008 Clouds 24 1016 90 10000 1.79 9 13:30 02.03.2022
5009 Clouds 23 1016 92 10000 1.34 359 12:45 02.03.2022
5010 Clouds 24 1015 85 10000 0.89 344 11:59 02.03.2022
5011 Clouds 24 1014 86 10000 1.79 75 11:25 02.03.2022
5012 Clouds 25 1014 86 10000 0.89 105 10:30 02.03.2022
5013 Clouds 25 1014 86 10000 0.89 105 10:30 02.03.2022
5014 Clouds 24 1015 87 10000 0.95 2 09:31 02.03.2022
5015 Clouds 22 1015 93 10000 1.01 340 07:59 02.03.2022
5016 Clouds 24 1015 87 10000 1.02 335 07:23 02.03.2022
5017 Clouds 25 1016 83 10000 0.45 126 03:56 02.03.2022
5018 Clouds 27 1014 79 10000 3.09 180 00:40 02.03.2022
5019 Clouds 29 1013 71 10000 5.14 180 22:53 01.03.2022
5020 Clouds 29 1013 70 10000 5.14 180 22:35 01.03.2022
5021 Clouds 29 1013 70 10000 5.14 180 21:26 01.03.2022
5022 Clouds 29 1013 70 10000 6.17 180 20:37 01.03.2022
5023 Clouds 30 1013 70 10000 6.17 180 20:19 01.03.2022
5024 Clear 29 1014 73 10000 1.79 134 18:52 01.03.2022
5025 Clear 28 1015 74 10000 1.79 135 18:21 01.03.2022
5026 Clear 28 1015 74 10000 1.79 135 18:21 01.03.2022
5027 Clouds 29 1015 71 10000 4.12 180 17:37 01.03.2022
5028 Clouds 28 1017 73 10000 1.79 139 16:36 01.03.2022
5029 Clouds 27 1017 77 10000 1.79 59 15:47 01.03.2022
5030 Clouds 25 1016 81 10000 0.89 33 14:41 01.03.2022
5031 Clouds 25 1016 83 10000 0.89 42 14:23 01.03.2022
5032 Clouds 23 1015 90 10000 0.89 9 13:26 01.03.2022
5033 Clouds 22 1015 90 10000 0.89 351 12:35 01.03.2022
5034 Clear 23 1015 90 10000 1.01 350 10:52 01.03.2022
5035 Clear 24 1014 86 10000 0.89 334 09:27 01.03.2022
5036 Clear 24 1014 85 10000 0.89 355 08:19 01.03.2022
5037 Clouds 25 1015 85 10000 1.34 69 06:28 01.03.2022
5038 Clouds 25 1015 84 10000 1.34 102 02:48 01.03.2022
5039 Clouds 27 1014 80 10000 2.24 118 00:40 01.03.2022
5040 Clouds 28 1014 75 10000 5.14 180 23:35 28.02.2022
5041 Clouds 29 1013 71 10000 5.14 180 22:28 28.02.2022
5042 Clouds 29 1013 69 10000 2.57 190 21:43 28.02.2022
5043 Clouds 30 1013 65 10000 5.66 190 20:32 28.02.2022
5044 Clouds 30 1014 66 10000 1.79 145 19:42 28.02.2022
5045 Clear 29 1015 66 10000 1.79 158 18:49 28.02.2022
5046 Clouds 29 1016 67 10000 1.79 142 17:33 28.02.2022
5047 Clouds 29 1016 66 10000 2.24 119 16:54 28.02.2022
5048 Clouds 27 1017 76 10000 1.79 105 15:58 28.02.2022
5049 Clouds 24 1016 82 10000 1.79 339 14:32 28.02.2022
5050 Clouds 22 1016 87 10000 1.79 339 13:48 28.02.2022
5051 Clouds 22 1016 88 10000 1.34 356 12:53 28.02.2022
5052 Clear 22 1015 86 10000 0.89 345 11:59 28.02.2022
5053 Clear 23 1015 86 10000 0.89 334 11:19 28.02.2022
5054 Clear 23 1015 85 10000 1.34 339 10:22 28.02.2022
5055 Clear 23 1015 88 10000 1.54 350 09:43 28.02.2022
5056 Clear 24 1015 83 10000 1.34 351 08:51 28.02.2022
5057 Clouds 24 1015 82 10000 0.89 350 07:57 28.02.2022
5058 Clouds 24 1016 81 10000 0.89 342 05:53 28.02.2022
5059 Clouds 23 1017 86 10000 0.89 332 04:30 28.02.2022
5060 Clouds 24 1015 83 10000 2.68 42 00:42 28.02.2022
5061 Clouds 28 1014 67 10000 3.09 150 22:38 27.02.2022
5062 Clouds 29 1014 61 10000 2.57 60 21:58 27.02.2022
5063 Clouds 29 1014 62 10000 2.57 60 21:36 27.02.2022
5064 Clouds 29 1014 61 10000 1.34 134 20:41 27.02.2022
5065 Clouds 29 1014 60 10000 1.34 126 20:18 27.02.2022
5066 Clouds 29 1015 61 10000 4.12 330 19:43 27.02.2022
5067 Clouds 29 1015 61 10000 4.12 330 19:18 27.02.2022
5068 Clouds 28 1017 65 10000 3.6 10 17:57 27.02.2022
5069 Clouds 28 1017 66 10000 3.6 10 17:34 27.02.2022
5070 Clouds 27 1018 66 10000 3.6 30 16:22 27.02.2022
5071 Clouds 25 1019 77 10000 3.6 30 14:29 27.02.2022
5072 Clouds 21 1018 86 10000 1.79 337 12:36 27.02.2022
5073 Clear 22 1017 85 10000 1.34 351 11:46 27.02.2022
5074 Clear 22 1017 85 10000 2.24 349 10:36 27.02.2022
5075 Clear 22 1016 85 10000 2.24 358 09:58 27.02.2022
5076 Clear 22 1016 84 10000 1.34 2 09:23 27.02.2022
5077 Clear 23 1016 83 10000 1.34 347 08:44 27.02.2022
5078 Clear 22 1018 83 10000 1.79 6 05:45 27.02.2022
5079 Clouds 22 1019 84 10000 1.79 19 03:35 27.02.2022
5080 Clouds 25 1017 78 10000 4.12 360 23:52 26.02.2022
5081 Clouds 26 1017 78 10000 3.09 360 22:42 26.02.2022
5082 Clouds 25 1016 77 10000 3.09 360 21:27 26.02.2022
5083 Clouds 26 1017 76 10000 2.24 332 20:41 26.02.2022
5084 Clouds 26 1018 77 8000 6.69 360 19:55 26.02.2022
5085 Clouds 26 1018 78 8000 6.69 360 19:33 26.02.2022
5086 Clouds 28 1018 72 8000 5.14 70 18:33 26.02.2022
5087 Clouds 28 1019 66 10000 5.14 40 17:36 26.02.2022
5088 Clouds 28 1019 67 10000 2.57 40 16:39 26.02.2022
5089 Clouds 27 1020 69 10000 5.14 30 15:37 26.02.2022
5090 Clouds 27 1020 70 10000 5.14 30 15:18 26.02.2022
5091 Clouds 25 1020 78 10000 3.6 350 14:41 26.02.2022
5092 Clouds 23 1019 84 10000 2.24 10 13:53 26.02.2022
5093 Clouds 21 1019 87 10000 1.79 355 12:53 26.02.2022
5094 Clear 22 1018 85 10000 1.34 5 11:52 26.02.2022
5095 Clear 22 1018 84 10000 1.34 1 11:25 26.02.2022
5096 Clear 22 1017 84 10000 2.24 1 09:44 26.02.2022
5097 Clouds 23 1017 82 10000 1.34 7 08:28 26.02.2022
5098 Clear 23 1018 82 10000 2.24 5 06:31 26.02.2022
5099 Clouds 25 1015 83 10000 4.12 360 23:52 25.02.2022
5100 Clouds 26 1015 70 10000 2.24 117 22:34 25.02.2022
5101 Clouds 28 1015 67 10000 4.12 20 21:32 25.02.2022
5102 Clouds 29 1015 62 10000 4.12 360 20:51 25.02.2022
5103 Clouds 29 1015 61 10000 4.12 360 20:25 25.02.2022
5104 Clouds 28 1018 66 10000 5.14 360 17:57 25.02.2022
5105 Clouds 26 1019 72 10000 5.14 360 16:55 25.02.2022
5106 Clouds 25 1019 78 10000 5.14 360 15:56 25.02.2022
5107 Clouds 24 1019 80 10000 5.14 360 15:23 25.02.2022
5108 Clouds 23 1019 82 10000 4.02 3 14:55 25.02.2022
5109 Clouds 22 1019 81 10000 3.09 30 14:27 25.02.2022
5110 Clouds 21 1018 83 10000 3.09 30 13:30 25.02.2022
5111 Clouds 20 1017 85 10000 3.09 50 12:21 25.02.2022
5112 Clouds 22 1017 75 10000 0.89 17 11:22 25.02.2022
5113 Clear 22 1016 75 10000 0.89 320 10:23 25.02.2022
5114 Clear 22 1016 74 10000 0.89 357 09:46 25.02.2022
5115 Clear 21 1016 76 10000 1.34 343 08:41 25.02.2022
5116 Clear 21 1017 78 10000 1.79 329 07:31 25.02.2022
5117 Clear 22 1018 76 10000 2.24 7 05:42 25.02.2022
5118 Clouds 23 1018 78 10000 3.09 360 02:46 25.02.2022
5119 Clouds 27 1015 69 10000 6.17 360 22:47 24.02.2022
5120 Clouds 27 1015 71 10000 5.14 10 21:51 24.02.2022
5121 Clouds 27 1014 71 10000 5.14 10 21:30 24.02.2022
5122 Clouds 26 1015 74 8000 4.12 350 20:47 24.02.2022
5123 Clouds 27 1016 67 10000 6.17 350 19:32 24.02.2022
5124 Clouds 27 1017 65 10000 7.2 360 18:21 24.02.2022
5125 Clouds 27 1017 67 10000 6.17 360 17:58 24.02.2022
5126 Clouds 27 1017 67 10000 6.17 360 17:58 24.02.2022
5127 Clouds 27 1017 64 10000 6.17 360 17:21 24.02.2022
5128 Clouds 26 1018 67 10000 6.17 360 16:28 24.02.2022
5129 Clouds 25 1018 71 10000 6.17 350 15:44 24.02.2022
5130 Clouds 24 1018 75 10000 4.12 10 14:48 24.02.2022
5131 Clouds 22 1018 84 10000 3.58 3 13:59 24.02.2022
5132 Clouds 22 1018 84 10000 3.13 6 13:38 24.02.2022
5133 Clear 22 1016 81 10000 1.79 353 11:41 24.02.2022
5134 Clear 22 1016 81 10000 1.79 359 10:34 24.02.2022
5135 Clear 22 1016 84 10000 1.34 327 08:43 24.02.2022
5136 Clouds 22 1016 82 10000 1.34 344 07:26 24.02.2022
5137 Clear 23 1017 83 10000 2.24 356 05:43 24.02.2022
5138 Clouds 25 1016 75 10000 2.68 31 00:32 24.02.2022
5139 Clouds 28 1015 67 10000 5.66 360 22:25 23.02.2022
5140 Clouds 28 1015 59 10000 4.02 18 20:48 23.02.2022
5141 Clear 29 1015 59 10000 3.13 22 20:28 23.02.2022
5142 Clouds 28 1016 64 10000 5.14 30 19:35 23.02.2022
5143 Clouds 30 1017 59 10000 5.14 30 18:27 23.02.2022
5144 Clouds 28 1019 67 10000 6.17 30 16:33 23.02.2022
5145 Clouds 24 1018 81 10000 3.6 360 14:22 23.02.2022
5146 Clear 22 1018 85 10000 1.34 355 12:36 23.02.2022
5147 Clear 22 1017 85 10000 1.34 339 11:23 23.02.2022
5148 Clear 22 1017 85 10000 1.79 4 10:23 23.02.2022
5149 Clear 22 1016 85 10000 1.79 341 08:55 23.02.2022
5150 Clear 23 1017 84 10000 2.24 4 07:55 23.02.2022
5151 Clouds 23 1019 85 10000 2.68 3 03:29 23.02.2022
5152 Clouds 26 1017 73 10000 3.6 40 00:18 23.02.2022
5153 Clouds 27 1017 65 10000 5.14 50 23:34 22.02.2022
5154 Clouds 29 1016 61 10000 5.14 60 22:28 22.02.2022
5155 Clouds 29 1016 61 10000 5.14 60 22:28 22.02.2022
5156 Clouds 28 1016 62 10000 3.13 47 21:45 22.02.2022
5157 Clouds 28 1016 65 10000 3.13 118 21:21 22.02.2022
5158 Clouds 28 1016 68 10000 5.14 80 20:43 22.02.2022
5159 Clouds 27 1016 72 10000 5.14 80 20:25 22.02.2022
5160 Clouds 27 1017 67 10000 1.34 98 19:34 22.02.2022
5161 Clouds 27 1018 69 10000 3.13 67 18:42 22.02.2022
5162 Clouds 29 1020 65 10000 5.14 30 17:35 22.02.2022
5163 Clouds 27 1019 68 10000 5.14 60 16:57 22.02.2022
5164 Clouds 27 1020 68 10000 5.14 60 16:22 22.02.2022
5165 Clouds 26 1020 71 10000 5.14 360 15:31 22.02.2022
5166 Clouds 25 1020 77 10000 5.14 360 14:33 22.02.2022
5167 Clear 22 1018 86 10000 1.79 348 11:39 22.02.2022
5168 Clear 22 1018 88 10000 3.13 346 09:48 22.02.2022
5169 Clear 23 1018 84 10000 1.79 353 07:38 22.02.2022
5170 Clear 23 1018 84 10000 2.24 355 07:19 22.02.2022
5171 Clear 23 1018 84 10000 2.24 355 07:19 22.02.2022
5172 Clouds 24 1018 83 10000 2.24 15 02:51 22.02.2022
5173 Clouds 27 1016 75 8000 0.89 106 23:42 21.02.2022
5174 Clouds 27 1016 70 10000 4.12 180 22:37 21.02.2022
5175 Clouds 28 1016 71 8000 3.09 180 21:23 21.02.2022
5176 Clouds 29 1018 66 10000 7.2 360 18:58 21.02.2022
5177 Clouds 29 1018 65 10000 7.2 360 18:39 21.02.2022
5178 Clouds 28 1020 70 10000 5.14 20 16:30 21.02.2022
5179 Clouds 25 1020 78 10000 3.09 360 14:24 21.02.2022
5180 Clouds 23 1019 84 10000 1.79 2 13:40 21.02.2022
5181 Clouds 21 1018 87 10000 1.79 343 12:46 21.02.2022
5182 Clouds 21 1018 88 10000 2.57 360 12:21 21.02.2022
5183 Clouds 21 1018 88 10000 2.57 360 12:21 21.02.2022
5184 Clouds 22 1017 84 10000 1.34 352 10:29 21.02.2022
5185 Clear 23 1017 83 10000 1.34 349 07:51 21.02.2022
5186 Clouds 25 1017 78 10000 5.14 360 00:36 21.02.2022
5187 Clouds 28 1016 66 10000 4.12 90 22:32 20.02.2022
5188 Clouds 29 1016 64 10000 5.14 360 21:44 20.02.2022
5189 Clouds 29 1016 64 10000 5.14 360 21:25 20.02.2022
5190 Clouds 29 1016 63 10000 5.14 360 20:43 20.02.2022
5191 Clouds 30 1016 52 10000 6.17 360 19:51 20.02.2022
5192 Clouds 30 1017 55 10000 4.12 360 18:56 20.02.2022
5193 Clouds 29 1017 56 10000 4.12 360 18:37 20.02.2022
5194 Clouds 29 1018 61 10000 4.12 360 17:55 20.02.2022
5195 Clouds 28 1018 64 10000 4.12 360 17:23 20.02.2022
5196 Clouds 26 1019 76 10000 4.12 360 15:27 20.02.2022
5197 Clouds 22 1018 85 10000 3.13 4 13:59 20.02.2022
5198 Clouds 21 1017 89 10000 1.79 346 12:45 20.02.2022
5199 Clouds 21 1018 91 10000 3.13 346 11:50 20.02.2022
5200 Clouds 23 1016 85 10000 1.79 18 10:21 20.02.2022
5201 Clouds 22 1017 89 10000 3.07 348 09:24 20.02.2022
5202 Clouds 23 1018 85 10000 3.12 349 06:28 20.02.2022
5203 Clouds 25 1016 83 10000 0.89 100 00:32 20.02.2022
5204 Clouds 26 1016 78 8000 1.79 75 23:32 19.02.2022
5205 Clouds 27 1015 76 10000 3.09 120 22:24 19.02.2022
5206 Clouds 28 1015 73 10000 4.12 150 21:45 19.02.2022
5207 Clouds 29 1016 68 10000 3.6 30 20:26 19.02.2022
5208 Clouds 30 1016 63 10000 1.34 123 19:34 19.02.2022
5209 Clouds 30 1017 58 10000 5.14 30 18:39 19.02.2022
5210 Clouds 29 1018 61 10000 2.68 56 17:54 19.02.2022
5211 Clouds 28 1019 68 10000 4.12 30 16:47 19.02.2022
5212 Clouds 27 1019 72 10000 5.14 100 15:20 19.02.2022
5213 Clouds 25 1019 78 10000 2.57 360 14:53 19.02.2022
5214 Clouds 23 1018 84 10000 2.24 16 13:50 19.02.2022
5215 Clouds 22 1017 90 10000 3.19 342 11:40 19.02.2022
5216 Clouds 23 1016 84 10000 1.79 358 10:45 19.02.2022
5217 Clear 22 1016 85 10000 1.79 354 08:54 19.02.2022
5218 Clear 23 1017 85 10000 1.34 356 06:45 19.02.2022
5219 Clouds 25 1016 81 10000 3.13 45 23:55 18.02.2022
5220 Clouds 24 1016 90 8000 0 0 22:24 18.02.2022
5221 Clouds 30 1016 66 10000 5.14 40 21:18 18.02.2022
5222 Clouds 30 1015 58 10000 3.6 360 19:56 18.02.2022
5223 Clouds 30 1017 58 10000 5.14 360 18:51 18.02.2022
5224 Clouds 30 1017 59 10000 5.14 360 18:25 18.02.2022
5225 Clouds 29 1018 62 10000 3.09 60 17:56 18.02.2022
5226 Clouds 27 1019 72 10000 3.6 40 15:35 18.02.2022
5227 Clouds 22 1018 86 10000 2.24 16 13:56 18.02.2022
5228 Clouds 20 1017 94 10000 0 0 13:25 18.02.2022
5229 Clear 22 1017 84 10000 1.34 348 12:40 18.02.2022
5230 Clear 22 1017 83 10000 1.34 339 11:55 18.02.2022
5231 Clear 22 1016 84 10000 1.34 354 10:24 18.02.2022
5232 Clear 23 1018 86 10000 3.12 345 06:58 18.02.2022
5233 Clear 23 1018 85 10000 2.88 342 05:41 18.02.2022
5234 Clouds 24 1018 82 8000 2.57 360 23:43 17.02.2022
5235 Clouds 26 1017 76 6000 1.34 110 21:46 17.02.2022
5236 Clouds 26 1017 76 6000 1.34 100 21:20 17.02.2022
5237 Clouds 28 1017 69 8000 5.14 180 20:39 17.02.2022
5238 Clouds 29 1018 63 10000 5.14 180 19:50 17.02.2022
5239 Clouds 29 1019 64 10000 6.17 180 18:52 17.02.2022
5240 Clouds 29 1020 64 10000 5.14 90 17:55 17.02.2022
5241 Clouds 29 1021 67 10000 5.14 90 16:43 17.02.2022
5242 Clouds 27 1022 69 10000 5.14 360 15:38 17.02.2022
5243 Clouds 24 1021 81 10000 0 0 14:28 17.02.2022
5244 Clouds 21 1019 92 10000 0 0 12:43 17.02.2022
5245 Clouds 23 1020 89 10000 3.07 343 11:27 17.02.2022
5246 Clouds 23 1019 88 10000 2.8 353 09:18 17.02.2022
5247 Clouds 22 1020 90 10000 0 0 04:20 17.02.2022
5248 Clouds 25 1019 82 6000 0 0 23:21 16.02.2022
5249 Clouds 27 1019 75 8000 3.09 360 21:44 16.02.2022
5250 Clouds 31 1020 62 10000 5.14 30 19:57 16.02.2022
5251 Clouds 30 1019 55 10000 3.36 50 18:43 16.02.2022
5252 Clouds 31 1021 59 10000 5.14 360 17:53 16.02.2022
5253 Clouds 26 1021 72 10000 4.12 360 15:40 16.02.2022
5254 Clouds 26 1021 74 10000 4.12 360 15:19 16.02.2022
5255 Clouds 22 1021 93 10000 3.12 350 13:28 16.02.2022
5256 Clouds 22 1020 91 10000 2.06 360 12:19 16.02.2022
5257 Clouds 22 1019 88 10000 3.34 339 11:26 16.02.2022
5258 Clouds 22 1019 88 10000 3.34 339 10:33 16.02.2022
5259 Clouds 22 1019 93 8004 3.63 343 07:54 16.02.2022
5260 Clouds 23 1020 86 10000 3.44 342 06:26 16.02.2022
5261 Clouds 27 1017 70 10000 5.14 360 23:45 15.02.2022
5262 Clouds 27 1017 69 10000 6.17 30 22:29 15.02.2022
5263 Clouds 27 1017 66 10000 5.14 30 21:47 15.02.2022
5264 Clouds 27 1017 66 10000 5.14 30 21:27 15.02.2022
5265 Clouds 27 1017 67 10000 6.17 360 20:56 15.02.2022
5266 Clouds 28 1018 68 8000 5.14 30 19:57 15.02.2022
5267 Clouds 28 1019 58 10000 4.12 70 18:56 15.02.2022
5268 Clouds 29 1019 53 10000 4.12 70 18:22 15.02.2022
5269 Clouds 29 1019 62 10000 5.14 30 17:50 15.02.2022
5270 Clouds 29 1020 62 10000 6.17 10 16:50 15.02.2022
5271 Clear 27 1021 72 10000 6.17 360 15:28 15.02.2022
5272 Clouds 22 1019 88 8000 2.57 20 13:27 15.02.2022
5273 Clouds 21 1017 92 10000 0 0 12:37 15.02.2022
5274 Clear 22 1018 89 10000 2.81 342 11:27 15.02.2022
5275 Clear 21 1017 93 10000 2.6 346 09:31 15.02.2022
5276 Clouds 22 1018 93 10000 2.63 343 06:58 15.02.2022
5277 Clouds 23 1017 94 10000 0 0 04:54 15.02.2022
5278 Clouds 26 1016 76 10000 3.09 70 23:33 14.02.2022
5279 Clouds 28 1015 66 10000 6.17 90 21:36 14.02.2022
5280 Clouds 28 1015 74 10000 3.58 107 20:37 14.02.2022
5281 Clouds 29 1016 67 10000 2.68 112 19:34 14.02.2022
5282 Clouds 30 1016 58 10000 5.14 30 18:42 14.02.2022
5283 Clouds 29 1018 57 10000 2.57 30 17:58 14.02.2022
5284 Clouds 29 1018 57 10000 2.57 30 17:25 14.02.2022
5285 Clouds 28 1018 66 10000 2.24 35 16:19 14.02.2022
5286 Clouds 23 1018 84 10000 1.34 329 13:54 14.02.2022
5287 Clouds 21 1018 90 10000 0 0 13:26 14.02.2022
5288 Clouds 22 1017 85 10000 0.89 4 12:33 14.02.2022
5289 Clear 22 1017 79 10000 1.79 329 11:54 14.02.2022
5290 Clear 22 1015 78 10000 1.79 333 10:37 14.02.2022
5291 Clear 22 1015 77 10000 1.34 342 08:43 14.02.2022
5292 Clear 23 1016 76 10000 0.89 336 07:30 14.02.2022
5293 Clouds 25 1016 83 10000 1.34 124 01:18 14.02.2022
5294 Clouds 29 1015 67 10000 3.09 180 22:42 13.02.2022
5295 Clouds 29 1015 64 10000 3.09 180 22:24 13.02.2022
5296 Clouds 28 1015 69 10000 5.14 180 21:32 13.02.2022
5297 Clouds 29 1015 67 10000 5.14 150 20:35 13.02.2022
5298 Clouds 28 1016 69 10000 2.57 180 19:30 13.02.2022
5299 Clouds 29 1016 68 10000 2.68 118 18:46 13.02.2022
5300 Clouds 29 1016 68 10000 2.57 50 18:26 13.02.2022
5301 Clouds 26 1019 77 10000 2.57 90 15:54 13.02.2022
5302 Clouds 26 1018 79 10000 2.68 70 15:24 13.02.2022
5303 Clouds 24 1018 86 10000 3.09 30 14:22 13.02.2022
5304 Clouds 22 1017 90 10000 0.89 2 12:50 13.02.2022
5305 Clouds 22 1016 89 10000 0.89 331 11:44 13.02.2022
5306 Clouds 22 1016 90 10000 1.34 2 10:33 13.02.2022
5307 Clouds 22 1015 90 10000 1.79 357 09:45 13.02.2022
5308 Clouds 22 1016 86 10000 1.79 341 07:48 13.02.2022
5309 Clouds 26 1016 83 10000 0 0 00:35 13.02.2022
5310 Clouds 27 1016 83 10000 4.12 360 23:42 12.02.2022
5311 Clouds 27 1015 78 10000 5.14 360 22:33 12.02.2022
5312 Clouds 27 1015 76 10000 1.79 74 21:27 12.02.2022
5313 Clouds 27 1016 75 8000 4.12 90 20:34 12.02.2022
5314 Clouds 27 1017 72 10000 6.17 360 19:30 12.02.2022
5315 Clouds 28 1017 67 10000 6.17 30 18:53 12.02.2022
5316 Clouds 28 1017 66 10000 6.17 30 18:35 12.02.2022
5317 Clouds 28 1018 66 10000 5.14 30 17:19 12.02.2022
5318 Clouds 28 1019 64 10000 5.14 30 16:26 12.02.2022
5319 Clouds 27 1019 67 10000 2.68 67 15:51 12.02.2022
5320 Clouds 27 1019 67 10000 2.68 67 15:51 12.02.2022
5321 Clouds 25 1019 75 10000 2.68 36 14:31 12.02.2022
5322 Clouds 21 1018 85 10000 0 0 13:22 12.02.2022
5323 Clouds 23 1017 84 10000 2.8 351 10:42 12.02.2022
5324 Clouds 23 1017 83 10000 2.61 357 09:49 12.02.2022
5325 Clouds 23 1017 83 10000 2.75 5 09:26 12.02.2022
5326 Clouds 22 1017 93 10000 2.75 5 08:44 12.02.2022
5327 Clouds 24 1018 84 10000 2.15 346 05:33 12.02.2022
5328 Clouds 23 1016 94 10000 0 0 04:30 12.02.2022
5329 Clouds 24 1016 94 10000 0 0 02:18 12.02.2022
5330 Clouds 27 1014 75 10000 5.14 180 22:37 11.02.2022
5331 Clouds 27 1014 76 10000 5.14 180 22:18 11.02.2022
5332 Clouds 29 1014 67 10000 5.14 180 20:41 11.02.2022
5333 Clouds 29 1015 61 10000 5.14 180 19:47 11.02.2022
5334 Clouds 30 1015 59 10000 5.14 180 19:27 11.02.2022
5335 Clouds 29 1015 64 10000 5.14 180 18:26 11.02.2022
5336 Clouds 29 1017 66 10000 5.14 120 17:26 11.02.2022
5337 Clouds 28 1017 67 10000 3.09 30 16:26 11.02.2022
5338 Clouds 24 1017 79 10000 3.09 360 14:44 11.02.2022
5339 Clouds 24 1017 80 10000 3.09 360 14:23 11.02.2022
5340 Clouds 22 1017 85 10000 1.34 6 13:59 11.02.2022
5341 Clouds 22 1016 86 10000 1.34 352 13:39 11.02.2022
5342 Clear 21 1016 87 10000 2.18 335 11:47 11.02.2022
5343 Clear 22 1015 85 10000 2.14 346 09:59 11.02.2022
5344 Clear 21 1015 91 10000 1.97 345 08:49 11.02.2022
5345 Clear 21 1015 90 10000 1.9 343 08:27 11.02.2022
5346 Clouds 22 1016 83 10000 1.97 345 07:22 11.02.2022
5347 Clouds 24 1015 94 10000 0 0 02:39 11.02.2022
5348 Clouds 24 1015 94 10000 0 0 02:39 11.02.2022
5349 Clouds 24 1015 87 10000 0 0 02:18 11.02.2022
5350 Clouds 27 1013 75 10000 5.14 150 22:53 10.02.2022
5351 Clouds 28 1013 72 10000 5.14 120 21:50 10.02.2022
5352 Clouds 28 1013 72 10000 5.14 120 21:21 10.02.2022
5353 Clouds 28 1013 70 10000 5.14 180 20:45 10.02.2022
5354 Clouds 29 1014 67 10000 5.14 240 19:26 10.02.2022
5355 Clouds 29 1015 69 10000 5.14 60 18:47 10.02.2022
5356 Clouds 28 1016 71 10000 2.57 60 17:27 10.02.2022
5357 Clouds 28 1017 71 10000 2.24 107 16:55 10.02.2022
5358 Clouds 26 1017 75 10000 1.79 113 15:51 10.02.2022
5359 Clouds 26 1017 77 10000 1.79 97 15:31 10.02.2022
5360 Clear 25 1017 77 10000 1.79 50 14:48 10.02.2022
5361 Clear 25 1017 79 10000 1.79 64 14:24 10.02.2022
5362 Clouds 22 1016 86 10000 1.34 358 13:29 10.02.2022
5363 Clouds 21 1016 88 10000 0.89 347 12:50 10.02.2022
5364 Clear 22 1015 86 10000 1.34 335 11:34 10.02.2022
5365 Clear 21 1015 89 10000 2.37 338 10:55 10.02.2022
5366 Clear 22 1015 87 10000 2.34 338 09:59 10.02.2022
5367 Clear 22 1015 86 10000 2.32 337 09:24 10.02.2022
5368 Clear 22 1016 85 10000 2.06 335 07:28 10.02.2022
5369 Clouds 21 1015 94 10000 0 0 04:55 10.02.2022
5370 Clear 24 1016 80 10000 0.69 59 01:51 10.02.2022
5371 Clouds 26 1014 83 10000 3.09 180 00:49 10.02.2022
5372 Clouds 26 1014 77 10000 3.09 180 00:28 10.02.2022
5373 Clouds 27 1014 73 10000 3.09 180 23:23 09.02.2022
5374 Clouds 27 1013 72 10000 4.12 160 22:35 09.02.2022
5375 Clouds 28 1013 68 10000 3.09 150 21:51 09.02.2022
5376 Clouds 29 1013 67 10000 3.09 150 21:29 09.02.2022
5377 Clouds 28 1013 71 10000 2.57 210 20:47 09.02.2022
5378 Clouds 28 1013 70 10000 2.57 210 20:24 09.02.2022
5379 Clouds 28 1014 70 10000 2.57 90 19:46 09.02.2022
5380 Clouds 28 1014 72 10000 2.57 90 19:27 09.02.2022
5381 Clouds 27 1016 70 10000 2.06 60 17:37 09.02.2022
5382 Clouds 27 1017 76 10000 3.09 90 16:34 09.02.2022
5383 Clouds 25 1017 77 10000 3.13 70 15:40 09.02.2022
5384 Clouds 23 1016 89 10000 0 0 14:28 09.02.2022
5385 Clouds 22 1016 89 10000 1.79 38 12:28 09.02.2022
5386 Clouds 22 1016 89 10000 1.79 38 12:28 09.02.2022
5387 Clouds 23 1014 86 10000 2.24 44 10:51 09.02.2022
5388 Clouds 23 1014 85 10000 1.79 41 10:26 09.02.2022
5389 Clouds 23 1014 89 10000 1.73 354 09:35 09.02.2022
5390 Clouds 22 1015 89 10000 1.83 1 08:59 09.02.2022
5391 Clouds 23 1015 88 10000 1.99 5 07:47 09.02.2022
5392 Clouds 24 1016 83 10000 0.89 68 05:30 09.02.2022
5393 Clouds 24 1016 83 10000 0.89 68 05:30 09.02.2022
5394 Clouds 25 1016 83 10000 3.09 30 03:50 09.02.2022
5395 Clouds 27 1015 74 10000 0 0 00:23 09.02.2022
5396 Clouds 27 1014 72 10000 0.89 119 23:30 08.02.2022
5397 Clouds 28 1014 72 10000 2.57 150 22:46 08.02.2022
5398 Clouds 28 1014 72 10000 2.57 150 22:21 08.02.2022
5399 Clouds 28 1014 71 10000 0 0 21:38 08.02.2022
5400 Clouds 28 1014 72 10000 1.79 132 21:20 08.02.2022
5401 Clouds 29 1014 67 10000 2.68 117 20:41 08.02.2022
5402 Clouds 29 1014 65 10000 0 0 19:45 08.02.2022
5403 Clouds 28 1015 68 10000 2.68 115 18:34 08.02.2022
5404 Clouds 27 1016 72 10000 2.57 150 17:36 08.02.2022
5405 Clouds 26 1017 76 10000 4.12 60 16:22 08.02.2022
5406 Clouds 25 1017 78 10000 0 0 15:29 08.02.2022
5407 Clouds 25 1017 78 10000 0 0 15:29 08.02.2022
5408 Clouds 23 1017 91 10000 2.68 54 13:59 08.02.2022
5409 Clouds 20 1016 93 10000 0 0 12:41 08.02.2022
5410 Clouds 21 1015 92 10000 2.14 343 11:28 08.02.2022
5411 Clouds 23 1014 86 10000 0.89 11 09:59 08.02.2022
5412 Clouds 22 1015 92 10000 1.98 349 08:56 08.02.2022
5413 Clouds 23 1015 88 10000 0.89 340 07:37 08.02.2022
5414 Clouds 22 1016 92 10000 1.34 296 04:40 08.02.2022
5415 Clouds 22 1016 92 10000 1.34 320 04:22 08.02.2022
5416 Clouds 22 1017 92 10000 1.34 342 03:37 08.02.2022
5417 Clouds 22 1017 92 10000 1.79 339 03:18 08.02.2022
5418 Clouds 22 1017 93 10000 1.79 342 02:59 08.02.2022
5419 Clouds 22 1016 92 10000 1.79 350 02:37 08.02.2022
5420 Clouds 22 1017 92 10000 2.68 357 02:19 08.02.2022
5421 Clouds 23 1016 89 10000 2.24 6 01:55 08.02.2022
5422 Clouds 23 1016 89 10000 1.79 353 01:37 08.02.2022
5423 Clouds 23 1016 88 10000 1.79 350 01:19 08.02.2022
5424 Clouds 23 1015 91 8000 1.34 344 00:44 08.02.2022
5425 Clouds 23 1015 93 10000 1.79 356 23:45 07.02.2022
5426 Clouds 23 1015 93 10000 2.24 13 23:18 07.02.2022
5427 Clouds 24 1015 90 10000 2.24 23 22:59 07.02.2022
5428 Clouds 24 1015 87 10000 3.58 49 22:19 07.02.2022
5429 Clouds 24 1015 91 10000 0 0 21:51 07.02.2022
5430 Clouds 26 1014 84 10000 1.34 159 21:28 07.02.2022
5431 Clouds 26 1014 81 10000 5.14 120 20:52 07.02.2022
5432 Clouds 26 1014 82 10000 5.14 120 20:34 07.02.2022
5433 Clouds 28 1015 75 10000 5.14 180 19:47 07.02.2022
5434 Clouds 28 1015 75 10000 5.14 180 19:47 07.02.2022
5435 Clouds 28 1016 77 10000 1.79 150 18:58 07.02.2022
5436 Clouds 27 1017 77 10000 5.14 40 17:39 07.02.2022
5437 Clouds 27 1017 77 10000 5.14 20 16:52 07.02.2022
5438 Clouds 26 1018 80 10000 3.13 53 15:49 07.02.2022
5439 Clouds 24 1018 80 10000 1.34 19 14:41 07.02.2022
5440 Clouds 23 1017 83 10000 1.34 351 13:27 07.02.2022
5441 Clouds 21 1017 88 10000 1.79 341 12:37 07.02.2022
5442 Clouds 22 1016 86 10000 2.24 338 11:52 07.02.2022
5443 Clouds 22 1016 87 8501 2.24 330 11:24 07.02.2022
5444 Clouds 22 1015 87 8501 1.34 346 10:43 07.02.2022
5445 Clouds 22 1015 88 9165 1.34 354 10:24 07.02.2022
5446 Clouds 22 1015 88 9165 1.79 5 09:52 07.02.2022
5447 Clouds 22 1015 88 7170 1.79 351 09:18 07.02.2022
5448 Clouds 22 1015 87 10000 1.79 2 07:58 07.02.2022
5449 Clouds 22 1016 88 10000 0.89 341 06:34 07.02.2022
5450 Clouds 23 1016 86 10000 2.24 358 05:18 07.02.2022
5451 Clouds 22 1017 88 7000 1.79 9 02:38 07.02.2022
5452 Clouds 23 1015 87 8000 1.34 6 00:24 07.02.2022
5453 Clouds 24 1015 86 10000 1.79 17 23:33 06.02.2022
5454 Clouds 23 1014 94 8000 0 0 22:45 06.02.2022
5455 Clouds 24 1014 84 7000 1.79 49 21:47 06.02.2022
5456 Clouds 23 1014 87 7000 2.24 57 21:21 06.02.2022
5457 Clouds 23 1014 87 7000 2.24 57 21:21 06.02.2022
5458 Clouds 24 1015 86 8000 2.24 64 20:48 06.02.2022
5459 Clouds 24 1015 86 8000 2.68 70 20:24 06.02.2022
5460 Clouds 27 1016 69 10000 3.09 60 19:22 06.02.2022
5461 Clouds 26 1015 72 8000 3.58 53 18:34 06.02.2022
5462 Clouds 25 1017 75 10000 4.12 360 17:39 06.02.2022
5463 Clouds 25 1018 78 10000 5.14 360 16:52 06.02.2022
5464 Clouds 25 1018 78 10000 5.14 360 16:29 06.02.2022
5465 Clouds 24 1018 83 10000 4.12 360 15:47 06.02.2022
5466 Clouds 24 1018 83 10000 4.12 360 15:47 06.02.2022
5467 Clouds 24 1018 83 10000 4.12 360 15:25 06.02.2022
5468 Clouds 23 1017 89 10000 5.14 360 14:23 06.02.2022
5469 Clouds 22 1016 93 10000 2.57 360 13:23 06.02.2022
5470 Clouds 21 1015 93 10000 0 0 12:33 06.02.2022
5471 Clouds 21 1016 92 10000 3.52 345 10:37 06.02.2022
5472 Clouds 22 1015 91 10000 3.35 347 09:48 06.02.2022
5473 Clouds 22 1015 91 10000 3.62 342 08:41 06.02.2022
5474 Clouds 22 1016 90 10000 3.53 349 07:31 06.02.2022
5475 Clouds 22 1017 87 10000 3.7 347 05:28 06.02.2022
5476 Clouds 22 1017 90 10000 0 0 02:25 06.02.2022
5477 Clouds 24 1015 83 10000 3.6 20 00:49 06.02.2022
5478 Clouds 24 1015 82 10000 3.6 20 00:22 06.02.2022
5479 Clouds 28 1014 64 10000 4.48 29 21:48 05.02.2022
5480 Clouds 28 1014 65 10000 4.12 30 20:47 05.02.2022
5481 Clouds 28 1014 65 10000 4.12 30 20:22 05.02.2022
5482 Clouds 29 1015 62 10000 6.17 360 19:42 05.02.2022
5483 Clouds 29 1016 61 10000 5.14 360 18:45 05.02.2022
5484 Clouds 28 1017 65 10000 4.12 360 17:36 05.02.2022
5485 Clouds 27 1018 69 10000 5.14 360 16:24 05.02.2022
5486 Clouds 26 1018 76 10000 4.12 360 15:31 05.02.2022
5487 Clouds 20 1017 90 10000 0 0 13:55 05.02.2022
5488 Clouds 19 1017 92 10000 0 0 12:46 05.02.2022
5489 Clear 20 1017 90 10000 3 346 11:47 05.02.2022
5490 Clear 20 1016 89 10000 2.9 348 10:44 05.02.2022
5491 Clear 21 1016 88 10000 2.78 355 09:51 05.02.2022
5492 Clear 21 1016 88 10000 2.77 359 08:47 05.02.2022
5493 Clear 21 1017 86 10000 2.86 354 07:27 05.02.2022
5494 Clear 22 1017 85 10000 3.06 347 06:55 05.02.2022
5495 Clouds 23 1018 85 10000 0 0 02:43 05.02.2022
5496 Clouds 23 1018 87 10000 2.57 360 01:18 05.02.2022
5497 Clouds 25 1016 88 10000 3.09 30 00:36 05.02.2022
5498 Clouds 25 1016 84 10000 3.09 30 23:33 04.02.2022
5499 Clouds 27 1016 69 10000 5.14 360 22:50 04.02.2022
5500 Clouds 27 1016 74 10000 5.14 30 21:36 04.02.2022
5501 Clouds 27 1016 73 10000 5.14 30 21:18 04.02.2022
5502 Clouds 28 1016 69 10000 7.2 30 20:37 04.02.2022
5503 Clouds 28 1017 70 10000 7.72 360 19:19 04.02.2022
5504 Clouds 27 1020 79 10000 6.17 10 16:44 04.02.2022
5505 Clear 26 1020 80 10000 5.89 11 15:19 04.02.2022
5506 Clouds 24 1019 87 10000 3.09 330 14:40 04.02.2022
5507 Clouds 22 1018 94 10000 0 0 12:43 04.02.2022
5508 Clear 21 1018 91 10000 4.59 346 11:45 04.02.2022
5509 Clear 21 1017 91 10000 4.66 347 10:55 04.02.2022
5510 Clear 21 1017 91 10000 4.6 343 09:56 04.02.2022
5511 Clear 21 1017 91 10000 4.04 341 07:56 04.02.2022
5512 Clouds 23 1019 88 10000 0 0 03:31 04.02.2022
5513 Clouds 23 1018 88 10000 0 0 02:34 04.02.2022
5514 Clouds 25 1016 78 10000 0 0 23:35 03.02.2022
5515 Clouds 26 1016 75 10000 2.57 90 22:48 03.02.2022
5516 Clouds 25 1016 77 10000 2.24 37 21:51 03.02.2022
5517 Clouds 26 1016 73 10000 1.79 25 21:18 03.02.2022
5518 Clouds 28 1016 61 10000 1.79 96 20:21 03.02.2022
5519 Clouds 27 1017 64 10000 1.79 42 19:36 03.02.2022
5520 Clouds 26 1018 67 10000 5.14 350 18:50 03.02.2022
5521 Clouds 26 1019 70 10000 5.14 340 17:51 03.02.2022
5522 Clouds 23 1019 80 10000 3.09 360 16:48 03.02.2022
5523 Clouds 21 1017 88 10000 0 0 14:59 03.02.2022
5524 Clouds 20 1017 88 10000 0 0 13:19 03.02.2022
5525 Clouds 21 1017 91 10000 4.26 342 11:44 03.02.2022
5526 Clouds 21 1016 89 10000 5 3 08:55 03.02.2022
5527 Clouds 22 1016 91 10000 5.5 1 07:40 03.02.2022
5528 Clouds 26 1014 89 10000 2.57 150 00:34 03.02.2022
5529 Clouds 27 1014 74 10000 1.34 146 23:45 02.02.2022
5530 Clouds 28 1014 75 10000 1.34 141 22:38 02.02.2022
5531 Clouds 28 1013 72 10000 1.79 149 21:42 02.02.2022
5532 Clouds 28 1013 71 10000 1.34 140 21:24 02.02.2022
5533 Clouds 28 1014 71 10000 1.79 138 20:19 02.02.2022
5534 Clouds 29 1014 73 10000 1.34 162 19:45 02.02.2022
5535 Clouds 29 1015 68 10000 1.79 124 18:53 02.02.2022
5536 Clouds 29 1016 68 10000 1.34 131 18:22 02.02.2022
5537 Clouds 28 1016 69 10000 2.24 116 17:20 02.02.2022
5538 Clouds 28 1017 71 10000 2.24 114 16:47 02.02.2022
5539 Clouds 24 1016 83 10000 0.89 354 14:18 02.02.2022
5540 Clouds 21 1015 90 10000 1.34 345 12:26 02.02.2022
5541 Clouds 22 1016 92 10000 2.75 348 11:40 02.02.2022
5542 Clouds 23 1014 86 10000 0.89 4 10:38 02.02.2022
5543 Clouds 23 1015 87 10000 0.89 348 07:42 02.02.2022
5544 Clouds 23 1015 87 10000 3.58 60 00:34 02.02.2022
5545 Clouds 27 1013 76 10000 1.79 89 21:59 01.02.2022
5546 Clouds 28 1013 69 10000 0.89 155 20:49 01.02.2022
5547 Clouds 28 1015 66 10000 1.79 14 18:35 01.02.2022
5548 Clouds 27 1016 70 10000 1.79 59 16:43 01.02.2022
5549 Clouds 25 1016 75 10000 1.79 23 14:56 01.02.2022
5550 Clouds 22 1015 88 10000 1.34 3 12:48 01.02.2022
5551 Clouds 23 1015 84 10000 2.24 357 11:48 01.02.2022
5552 Clouds 24 1015 83 10000 1.79 2 06:57 01.02.2022
5553 Clouds 26 1013 83 10000 3.09 350 23:53 31.01.2022
5554 Clouds 26 1013 77 10000 0.45 209 23:34 31.01.2022
5555 Clouds 26 1013 77 10000 0.45 209 23:34 31.01.2022
5556 Clouds 27 1013 74 10000 0.45 231 22:26 31.01.2022
5557 Clouds 27 1013 72 10000 1.34 215 21:33 31.01.2022
5558 Clouds 27 1013 72 10000 1.34 224 20:33 31.01.2022
5559 Clouds 28 1014 72 10000 1.34 234 19:46 31.01.2022
5560 Clouds 28 1015 72 10000 0.89 157 18:29 31.01.2022
5561 Clouds 28 1015 73 10000 0.89 140 17:46 31.01.2022
5562 Clouds 27 1016 73 10000 1.79 114 16:48 31.01.2022
5563 Clouds 27 1017 75 10000 1.34 129 15:43 31.01.2022
5564 Clear 25 1016 79 10000 0.89 121 14:24 31.01.2022
5565 Clouds 18 1014 95 10000 0 0 12:39 31.01.2022
5566 Clouds 22 1016 89 10000 1.9 3 11:59 31.01.2022
5567 Clouds 22 1015 88 10000 1.74 11 10:52 31.01.2022
5568 Clouds 22 1015 87 10000 1.74 11 10:34 31.01.2022
5569 Clouds 23 1015 86 10000 1.81 10 09:27 31.01.2022
5570 Clouds 23 1015 86 10000 1.81 10 08:52 31.01.2022
5571 Clouds 23 1015 86 10000 1.81 10 08:52 31.01.2022
5572 Clouds 23 1015 85 10000 1.87 357 08:20 31.01.2022
5573 Clouds 23 1016 91 10000 1.33 9 06:21 31.01.2022
5574 Clouds 25 1016 88 10000 0 0 03:33 31.01.2022
5575 Clouds 28 1014 74 10000 1.34 126 23:19 30.01.2022
5576 Clouds 29 1013 71 10000 1.34 147 22:29 30.01.2022
5577 Clouds 30 1013 68 10000 1.34 151 21:42 30.01.2022
5578 Clouds 30 1013 67 10000 1.79 148 21:20 30.01.2022
5579 Clouds 30 1013 65 10000 1.79 148 20:49 30.01.2022
5580 Clouds 30 1013 65 10000 1.34 149 20:29 30.01.2022
5581 Clouds 29 1014 67 10000 2.24 166 19:52 30.01.2022
5582 Clouds 30 1015 64 10000 1.79 150 18:44 30.01.2022
5583 Clouds 30 1015 63 10000 1.79 124 18:20 30.01.2022
5584 Clouds 29 1016 66 10000 1.34 56 17:28 30.01.2022
5585 Clouds 28 1017 68 10000 1.34 63 16:41 30.01.2022
5586 Clouds 28 1017 70 10000 1.34 47 16:22 30.01.2022
5587 Clouds 27 1017 75 10000 1.34 21 15:52 30.01.2022
5588 Clouds 26 1017 76 10000 1.79 32 15:32 30.01.2022
5589 Clouds 23 1017 81 10000 1.34 15 14:46 30.01.2022
5590 Clouds 21 1015 91 10000 0.45 341 12:54 30.01.2022
5591 Clouds 21 1015 91 10000 0.45 324 12:33 30.01.2022
5592 Clear 22 1014 87 10000 0.89 344 10:36 30.01.2022
5593 Clear 23 1014 84 10000 0.89 328 09:56 30.01.2022
5594 Clear 22 1014 87 10000 1.59 349 08:58 30.01.2022
5595 Clear 22 1014 87 10000 1.69 343 07:55 30.01.2022
5596 Clouds 25 1015 85 10000 0.45 185 02:29 30.01.2022
5597 Clouds 26 1014 76 10000 0.89 207 01:39 30.01.2022
5598 Clouds 27 1013 72 10000 1.34 189 23:21 29.01.2022
5599 Clouds 29 1012 65 10000 1.34 191 21:59 29.01.2022
5600 Clouds 29 1012 65 10000 0.89 178 21:26 29.01.2022
5601 Clouds 29 1012 66 10000 1.34 142 20:36 29.01.2022
5602 Clouds 29 1013 66 10000 1.79 181 19:36 29.01.2022
5603 Clouds 29 1014 65 10000 1.34 165 18:58 29.01.2022
5604 Clouds 29 1014 66 10000 1.34 154 18:26 29.01.2022
5605 Clouds 28 1015 66 10000 1.79 146 17:35 29.01.2022
5606 Clouds 28 1016 67 10000 1.34 157 16:37 29.01.2022
5607 Clouds 23 1016 85 10000 0.89 301 14:24 29.01.2022
5608 Clouds 20 1015 89 10000 0.45 343 13:45 29.01.2022
5609 Clouds 20 1015 90 10000 0.89 339 13:24 29.01.2022
5610 Clouds 20 1014 89 10000 1.34 343 12:35 29.01.2022
5611 Clear 21 1014 89 10000 1.38 324 11:27 29.01.2022
5612 Clear 22 1014 87 10000 1.28 338 09:29 29.01.2022
5613 Clear 20 1015 85 10000 0.93 329 06:55 29.01.2022
5614 Clouds 26 1013 71 10000 0.89 152 00:36 29.01.2022
5615 Clouds 27 1013 70 10000 0.89 156 23:59 28.01.2022
5616 Clouds 28 1013 65 10000 0.89 130 22:51 28.01.2022
5617 Clouds 28 1013 63 10000 1.79 142 22:22 28.01.2022
5618 Clouds 29 1013 64 10000 1.34 152 21:37 28.01.2022
5619 Clouds 30 1013 63 10000 1.79 152 20:30 28.01.2022
5620 Clouds 30 1013 65 10000 1.34 126 19:31 28.01.2022
5621 Clouds 29 1014 66 10000 2.24 125 18:43 28.01.2022
5622 Clouds 28 1016 68 10000 1.79 125 16:54 28.01.2022
5623 Clouds 26 1017 77 10000 1.34 41 15:20 28.01.2022
5624 Clouds 22 1016 86 10000 1.34 2 13:50 28.01.2022
5625 Clouds 19 1015 92 10000 0 0 12:29 28.01.2022
5626 Clear 22 1015 90 10000 1.89 347 11:24 28.01.2022
5627 Clear 23 1014 86 10000 0.89 1 09:52 28.01.2022
5628 Clear 24 1015 87 10000 0.45 300 07:44 28.01.2022
5629 Clouds 24 1016 87 10000 0.89 303 06:44 28.01.2022
5630 Clouds 25 1016 83 10000 0 0 03:56 28.01.2022
5631 Clouds 26 1016 78 10000 0 0 02:31 28.01.2022
5632 Clear 24 1016 84 10000 0.19 113 01:59 28.01.2022
5633 Clear 24 1016 84 10000 0.19 113 01:30 28.01.2022
5634 Clouds 29 1014 62 10000 5.14 180 22:48 27.01.2022
5635 Clouds 30 1014 60 10000 5.14 150 21:46 27.01.2022
5636 Clouds 30 1014 60 10000 5.14 150 21:28 27.01.2022
5637 Clear 29 1014 64 10000 4.33 143 20:24 27.01.2022
5638 Clouds 29 1016 62 10000 5.14 10 18:24 27.01.2022
5639 Clouds 29 1018 62 10000 3.6 120 17:34 27.01.2022
5640 Clouds 24 1018 79 10000 2.24 17 14:34 27.01.2022
5641 Clouds 20 1018 87 10000 0 0 13:24 27.01.2022
5642 Clouds 19 1016 91 10000 0 0 12:25 27.01.2022
5643 Clear 20 1015 86 10000 2.39 340 09:56 27.01.2022
5644 Clear 19 1015 85 10000 2.43 336 08:41 27.01.2022
5645 Clear 19 1016 83 10000 2.43 337 08:18 27.01.2022
5646 Clouds 23 1016 94 10000 0 0 03:37 27.01.2022
5647 Clouds 26 1015 72 10000 1.34 115 00:25 27.01.2022
5648 Clouds 28 1014 63 10000 0.89 123 22:37 26.01.2022
5649 Clouds 29 1014 61 10000 2.24 116 21:44 26.01.2022
5650 Clouds 30 1014 60 10000 1.79 159 20:59 26.01.2022
5651 Clouds 30 1014 60 10000 1.79 159 20:35 26.01.2022
5652 Clouds 29 1015 62 10000 2.24 134 19:52 26.01.2022
5653 Clouds 29 1016 60 10000 1.79 134 18:52 26.01.2022
5654 Clouds 29 1016 61 10000 1.79 137 18:24 26.01.2022
5655 Clouds 29 1017 62 10000 1.34 146 17:39 26.01.2022
5656 Clouds 29 1017 64 10000 1.79 118 17:19 26.01.2022
5657 Clouds 27 1018 69 10000 2.24 122 16:25 26.01.2022
5658 Clouds 26 1018 75 10000 2.24 86 15:23 26.01.2022
5659 Clouds 21 1017 91 10000 1.34 11 12:44 26.01.2022
5660 Clear 22 1016 88 10000 2.98 346 10:56 26.01.2022
5661 Clear 22 1015 88 10000 2.75 348 09:58 26.01.2022
5662 Clear 22 1015 88 10000 2.75 348 09:39 26.01.2022
5663 Clear 22 1016 86 10000 2.11 336 07:28 26.01.2022
5664 Clouds 26 1014 77 10000 0.89 131 00:26 26.01.2022
5665 Clouds 30 1014 66 10000 4.12 180 23:43 25.01.2022
5666 Clouds 29 1014 66 10000 0.89 166 22:49 25.01.2022
5667 Clouds 29 1014 63 10000 0.89 168 22:19 25.01.2022
5668 Clouds 29 1014 62 10000 0.89 153 21:34 25.01.2022
5669 Clouds 29 1014 65 10000 1.34 173 20:45 25.01.2022
5670 Clouds 29 1014 65 10000 1.79 137 19:58 25.01.2022
5671 Clouds 29 1014 65 10000 1.79 137 19:58 25.01.2022
5672 Clouds 29 1014 65 10000 1.79 150 19:32 25.01.2022
5673 Clouds 28 1016 66 10000 1.34 146 17:56 25.01.2022
5674 Clouds 28 1016 67 10000 1.79 101 17:37 25.01.2022
5675 Clouds 27 1016 70 10000 1.79 127 16:35 25.01.2022
5676 Clouds 26 1017 73 10000 1.34 113 15:39 25.01.2022
5677 Clouds 26 1017 76 10000 1.79 63 15:19 25.01.2022
5678 Clouds 24 1017 79 10000 0.45 20 14:56 25.01.2022
5679 Clouds 19 1014 93 10000 0 0 12:21 25.01.2022
5680 Clear 22 1014 89 10000 1.51 1 09:35 25.01.2022
5681 Clear 22 1014 87 10000 1.45 356 07:52 25.01.2022
5682 Clear 23 1015 86 10000 1.37 354 07:21 25.01.2022
5683 Clear 22 1016 86 10000 0.76 348 05:23 25.01.2022
5684 Clouds 26 1013 76 10000 0.89 169 00:35 25.01.2022
5685 Clouds 28 1012 74 10000 4.12 150 23:36 24.01.2022
5686 Clouds 27 1013 74 10000 1.34 175 23:18 24.01.2022
5687 Clouds 28 1012 74 10000 1.34 155 22:42 24.01.2022
5688 Clouds 28 1012 74 10000 1.34 178 22:19 24.01.2022
5689 Clear 28 1012 71 10000 1.79 135 21:40 24.01.2022
5690 Clear 28 1012 72 10000 1.79 145 21:19 24.01.2022
5691 Clouds 29 1012 71 10000 1.34 149 20:26 24.01.2022
5692 Clouds 29 1012 71 10000 1.34 149 20:26 24.01.2022
5693 Clouds 29 1013 69 10000 2.24 134 19:38 24.01.2022
5694 Clouds 29 1014 70 10000 1.79 123 18:50 24.01.2022
5695 Clouds 28 1015 69 10000 1.34 148 17:26 24.01.2022
5696 Clouds 27 1015 73 10000 1.79 114 16:59 24.01.2022
5697 Clouds 27 1016 74 10000 1.34 122 16:30 24.01.2022
5698 Clouds 25 1015 78 10000 0.89 122 15:25 24.01.2022
5699 Clouds 21 1015 86 10000 1.34 16 13:58 24.01.2022
5700 Clouds 21 1014 86 10000 0.89 316 12:34 24.01.2022
5701 Clear 22 1013 81 10000 0.45 307 11:41 24.01.2022
5702 Clear 23 1013 80 10000 0.45 355 10:19 24.01.2022
5703 Clear 23 1013 79 10000 0.89 343 09:44 24.01.2022
5704 Clear 22 1013 85 10000 1.21 324 07:45 24.01.2022
5705 Clear 26 1014 73 10000 0.45 119 01:38 24.01.2022
5706 Clouds 26 1013 75 10000 0.45 139 00:50 24.01.2022
5707 Clouds 26 1013 74 10000 1.34 123 00:29 24.01.2022
5708 Clouds 28 1013 67 10000 1.34 121 22:58 23.01.2022
5709 Clouds 29 1013 65 10000 1.79 139 21:52 23.01.2022
5710 Clouds 29 1013 65 10000 1.79 113 21:27 23.01.2022
5711 Clouds 28 1013 68 10000 1.79 125 20:55 23.01.2022
5712 Clouds 28 1013 68 10000 2.68 119 20:21 23.01.2022
5713 Clouds 28 1015 67 10000 3.58 116 18:53 23.01.2022
5714 Clouds 28 1015 68 10000 2.68 112 18:22 23.01.2022
5715 Clouds 27 1016 76 10000 2.24 119 16:55 23.01.2022
5716 Clouds 25 1017 83 10000 1.34 97 15:46 23.01.2022
5717 Clouds 22 1016 84 10000 1.34 31 14:48 23.01.2022
5718 Clouds 22 1016 85 10000 1.34 2 14:18 23.01.2022
5719 Clouds 21 1015 86 10000 0.89 319 12:44 23.01.2022
5720 Clouds 19 1015 91 10000 0 0 12:19 23.01.2022
5721 Clear 20 1015 87 10000 2.38 333 11:25 23.01.2022
5722 Clear 21 1015 87 10000 2.38 333 10:57 23.01.2022
5723 Clear 19 1015 87 10000 2.13 338 10:24 23.01.2022
5724 Clear 21 1015 85 10000 1.84 336 09:26 23.01.2022
5725 Clear 21 1016 78 10000 1.3 325 06:18 23.01.2022
5726 Clouds 21 1017 88 10000 0 0 03:20 23.01.2022
5727 Clouds 24 1015 88 10000 0 0 01:36 23.01.2022
5728 Clouds 26 1015 78 10000 0 0 00:46 23.01.2022
5729 Clouds 28 1016 69 10000 5.14 180 23:58 22.01.2022
5730 Clouds 28 1015 64 10000 0.89 152 22:48 22.01.2022
5731 Clouds 29 1015 63 10000 1.34 159 22:19 22.01.2022
5732 Clouds 30 1015 57 10000 2.68 115 20:29 22.01.2022
5733 Clouds 29 1016 60 10000 2.24 110 19:37 22.01.2022
5734 Clouds 29 1017 61 10000 1.79 113 18:37 22.01.2022
5735 Clouds 29 1018 61 10000 1.79 109 17:42 22.01.2022
5736 Clouds 29 1018 61 10000 2.68 91 17:18 22.01.2022
5737 Clouds 28 1019 66 10000 2.24 101 16:22 22.01.2022
5738 Clouds 26 1019 73 10000 1.79 104 15:44 22.01.2022
5739 Clouds 24 1019 78 10000 2.24 65 14:42 22.01.2022
5740 Clouds 21 1019 90 10000 0 0 13:28 22.01.2022
5741 Clouds 22 1018 85 10000 1.34 29 12:37 22.01.2022
5742 Clouds 22 1018 85 10000 1.34 352 12:18 22.01.2022
5743 Clear 23 1017 80 10000 1.34 2 10:39 22.01.2022
5744 Clear 23 1017 80 10000 1.34 337 10:20 22.01.2022
5745 Clear 23 1017 83 10000 1.79 348 08:55 22.01.2022
5746 Clear 23 1017 82 10000 0.89 334 08:31 22.01.2022
5747 Clear 22 1018 92 10000 2.46 342 05:20 22.01.2022
5748 Clouds 26 1018 73 10000 0 0 02:39 22.01.2022
5749 Clouds 28 1016 69 10000 2.24 127 23:50 21.01.2022
5750 Clouds 28 1016 66 10000 2.24 118 22:59 21.01.2022
5751 Clouds 29 1016 64 10000 2.68 112 21:18 21.01.2022
5752 Clouds 29 1016 66 10000 1.79 142 19:30 21.01.2022
5753 Clouds 28 1018 68 10000 2.68 119 17:50 21.01.2022
5754 Clouds 26 1019 73 10000 2.24 78 15:54 21.01.2022
5755 Clouds 25 1019 79 10000 1.79 40 14:41 21.01.2022
5756 Clouds 21 1017 94 10000 0 0 12:43 21.01.2022
5757 Clouds 23 1017 83 10000 1.34 24 11:29 21.01.2022
5758 Clear 22 1017 88 10000 2.73 346 10:27 21.01.2022
5759 Clear 23 1016 85 10000 2.42 351 08:50 21.01.2022
5760 Clear 23 1017 85 10000 2.51 349 07:48 21.01.2022
5761 Clear 25 1018 74 10000 2.55 28 01:48 21.01.2022
5762 Clouds 28 1016 70 10000 1.79 117 22:47 20.01.2022
5763 Clouds 29 1015 68 10000 2.24 117 21:48 20.01.2022
5764 Clouds 29 1015 66 10000 1.79 129 21:24 20.01.2022
5765 Clouds 30 1017 64 10000 2.24 119 19:47 20.01.2022
5766 Clouds 30 1017 64 10000 2.68 115 19:18 20.01.2022
5767 Clouds 29 1018 65 10000 2.24 121 17:37 20.01.2022
5768 Clouds 27 1019 73 10000 2.68 92 15:59 20.01.2022
5769 Clouds 26 1019 75 10000 2.24 93 15:29 20.01.2022
5770 Clouds 24 1019 83 10000 2.24 76 14:18 20.01.2022
5771 Clouds 22 1018 89 10000 3.13 61 12:44 20.01.2022
5772 Clouds 22 1018 89 10000 2.24 63 12:26 20.01.2022
5773 Clear 24 1017 85 10000 0.89 48 10:58 20.01.2022
5774 Clear 24 1017 82 10000 0.89 359 09:43 20.01.2022
5775 Clear 23 1017 87 10000 2.35 347 08:37 20.01.2022
5776 Clear 23 1019 85 10000 2.38 340 06:19 20.01.2022
5777 Clouds 27 1017 74 10000 1.34 120 23:56 19.01.2022
5778 Clouds 29 1017 69 10000 1.79 117 22:37 19.01.2022
5779 Clouds 29 1016 64 10000 1.34 150 21:26 19.01.2022
5780 Clouds 30 1017 64 10000 1.79 121 20:55 19.01.2022
5781 Clouds 30 1017 64 10000 1.79 121 20:55 19.01.2022
5782 Clouds 30 1016 64 10000 2.24 112 20:30 19.01.2022
5783 Clouds 29 1018 63 10000 2.24 140 18:49 19.01.2022
5784 Clouds 28 1019 70 10000 2.24 115 17:50 19.01.2022
5785 Clouds 28 1019 71 10000 1.34 131 17:18 19.01.2022
5786 Clouds 24 1019 80 10000 2.68 18 14:55 19.01.2022
5787 Clouds 22 1018 90 10000 1.34 358 13:20 19.01.2022
5788 Clear 23 1017 82 10000 1.34 11 11:54 19.01.2022
5789 Clear 23 1017 82 10000 1.34 359 11:22 19.01.2022
5790 Clear 22 1017 88 10000 2.83 343 09:35 19.01.2022
5791 Clear 24 1017 80 10000 1.34 22 08:20 19.01.2022
5792 Clear 24 1018 82 10000 2.51 1 05:19 19.01.2022
5793 Clouds 27 1015 75 10000 0.89 133 23:53 18.01.2022
5794 Clouds 27 1015 75 10000 0.89 133 23:53 18.01.2022
5795 Clouds 27 1015 74 10000 0.89 136 23:18 18.01.2022
5796 Clouds 29 1014 66 10000 1.34 140 21:43 18.01.2022
5797 Clouds 29 1015 66 10000 1.79 140 19:57 18.01.2022
5798 Clouds 29 1015 66 10000 1.34 130 19:38 18.01.2022
5799 Clouds 29 1015 66 10000 1.79 134 19:18 18.01.2022
5800 Clouds 28 1017 71 10000 1.34 142 17:59 18.01.2022
5801 Clouds 28 1017 72 10000 1.79 119 17:27 18.01.2022
5802 Clouds 27 1017 79 10000 2.24 116 15:56 18.01.2022
5803 Clouds 26 1017 81 10000 0.89 85 15:23 18.01.2022
5804 Clouds 22 1016 86 10000 0.89 323 13:32 18.01.2022
5805 Clouds 22 1015 88 10000 1.34 2 10:49 18.01.2022
5806 Clouds 22 1015 86 10000 1.34 328 09:39 18.01.2022
5807 Clouds 24 1015 82 10000 0.45 334 07:58 18.01.2022
5808 Clouds 24 1015 80 10000 1.34 296 07:21 18.01.2022
5809 Clouds 25 1014 83 10000 0.89 233 00:21 18.01.2022
5810 Clouds 29 1014 66 10000 1.79 233 22:30 17.01.2022
5811 Clouds 29 1013 66 10000 1.34 169 21:36 17.01.2022
5812 Clouds 29 1014 63 10000 1.34 182 20:29 17.01.2022
5813 Clouds 28 1014 71 10000 1.79 166 18:42 17.01.2022
5814 Clear 28 1016 73 10000 1.34 136 17:55 17.01.2022
5815 Clouds 27 1016 76 10000 1.34 128 16:53 17.01.2022
5816 Clouds 26 1017 80 10000 0.45 208 15:24 17.01.2022
5817 Clear 25 1017 81 10000 1.34 34 14:57 17.01.2022
5818 Clouds 22 1017 89 10000 1.34 328 13:30 17.01.2022
5819 Clouds 22 1016 90 10000 0.89 342 12:57 17.01.2022
5820 Clouds 23 1016 87 10000 0.89 337 11:50 17.01.2022
5821 Clouds 23 1015 87 10000 0.45 309 10:38 17.01.2022
5822 Clouds 23 1015 87 10000 0.89 6 09:35 17.01.2022
5823 Clouds 23 1016 89 10000 1.21 332 07:47 17.01.2022
5824 Clear 23 1017 89 10000 1.1 340 07:19 17.01.2022
5825 Clouds 26 1016 76 10000 0.45 130 00:57 17.01.2022
5826 Clouds 27 1014 75 10000 0.89 160 22:31 16.01.2022
5827 Clouds 29 1014 68 10000 0.89 154 20:38 16.01.2022
5828 Clouds 28 1016 71 10000 1.79 127 18:53 16.01.2022
5829 Clouds 28 1016 71 10000 1.79 160 18:18 16.01.2022
5830 Clouds 28 1017 68 10000 2.24 105 17:25 16.01.2022
5831 Clouds 28 1017 70 10000 1.79 71 16:45 16.01.2022
5832 Clouds 24 1018 80 10000 1.34 29 14:50 16.01.2022
5833 Clouds 24 1018 81 10000 0.89 25 14:27 16.01.2022
5834 Clouds 22 1017 87 10000 1.34 12 12:49 16.01.2022
5835 Clouds 23 1016 86 10000 0.89 337 11:43 16.01.2022
5836 Clouds 23 1016 85 10000 0.89 344 10:55 16.01.2022
5837 Clouds 23 1016 85 10000 0.89 357 10:26 16.01.2022
5838 Clouds 23 1016 85 10000 0.45 332 09:52 16.01.2022
5839 Clouds 23 1016 84 10000 0.45 336 09:22 16.01.2022
5840 Clouds 24 1016 84 10000 0.45 336 08:37 16.01.2022
5841 Clouds 25 1017 82 10000 0 0 02:36 16.01.2022
5842 Clouds 29 1016 58 10000 3.09 150 23:49 15.01.2022
5843 Clouds 29 1015 64 10000 0.89 165 21:46 15.01.2022
5844 Clouds 29 1015 63 10000 1.34 171 21:19 15.01.2022
5845 Clouds 29 1015 64 10000 1.79 159 20:40 15.01.2022
5846 Clouds 29 1015 66 10000 1.34 136 19:29 15.01.2022
5847 Clouds 29 1017 66 10000 1.34 169 18:44 15.01.2022
5848 Clouds 27 1018 72 10000 1.34 20 17:25 15.01.2022
5849 Clouds 26 1018 74 10000 1.79 26 15:50 15.01.2022
5850 Clouds 22 1017 87 10000 1.34 5 13:52 15.01.2022
5851 Clear 23 1016 90 10000 1.34 29 11:46 15.01.2022
5852 Clear 23 1015 89 10000 1.34 18 10:25 15.01.2022
5853 Clouds 23 1015 91 10000 0.89 296 07:48 15.01.2022
5854 Clouds 26 1013 76 10000 2.68 215 23:50 14.01.2022
5855 Clouds 28 1012 69 10000 2.68 205 21:41 14.01.2022
5856 Clouds 29 1012 67 10000 2.24 196 20:37 14.01.2022
5857 Clouds 29 1012 65 10000 2.68 198 19:58 14.01.2022
5858 Clear 28 1013 71 10000 3.13 192 18:48 14.01.2022
5859 Clouds 28 1014 69 10000 2.24 211 17:57 14.01.2022
5860 Clouds 28 1014 72 10000 3.13 187 16:48 14.01.2022
5861 Clouds 27 1015 77 10000 2.68 224 15:33 14.01.2022
5862 Clear 26 1014 76 10000 1.34 221 14:30 14.01.2022
5863 Clouds 23 1013 85 10000 1.79 232 13:34 14.01.2022
5864 Clouds 19 1013 94 10000 0 0 12:24 14.01.2022
5865 Clear 24 1012 81 10000 1.79 232 10:47 14.01.2022
5866 Clear 25 1011 80 10000 2.24 229 08:54 14.01.2022
5867 Clear 25 1012 81 10000 2.53 235 07:56 14.01.2022
5868 Clouds 24 1013 80 10000 1.79 228 03:50 14.01.2022
5869 Clouds 26 1013 74 10000 2.68 223 00:50 14.01.2022
5870 Clouds 27 1012 67 10000 2.68 175 22:35 13.01.2022
5871 Clouds 28 1012 62 10000 1.79 206 21:30 13.01.2022
5872 Clouds 29 1012 62 10000 1.79 189 20:54 13.01.2022
5873 Clouds 29 1013 61 10000 2.24 177 19:32 13.01.2022
5874 Clouds 29 1013 66 10000 1.79 171 18:51 13.01.2022
5875 Clouds 28 1015 68 10000 1.79 177 17:23 13.01.2022
5876 Clouds 27 1016 68 10000 1.34 164 16:18 13.01.2022
5877 Clouds 25 1016 76 10000 1.34 143 15:31 13.01.2022
5878 Clouds 21 1016 90 10000 0 0 13:42 13.01.2022
5879 Clear 21 1016 90 10000 0.89 320 12:20 13.01.2022
5880 Clear 21 1015 89 10000 1.25 325 09:38 13.01.2022
5881 Clear 22 1014 87 10000 0.97 344 08:54 13.01.2022
5882 Clear 22 1015 86 10000 1.21 342 08:22 13.01.2022
5883 Clear 20 1015 91 10000 1.24 345 07:21 13.01.2022
5884 Clouds 20 1016 91 10000 1.06 325 05:56 13.01.2022
5885 Clouds 20 1016 91 10000 1.56 332 05:18 13.01.2022
5886 Clouds 23 1016 80 10000 1.79 33 01:46 13.01.2022
5887 Clouds 25 1015 74 10000 1.79 65 23:54 12.01.2022
5888 Clouds 26 1014 74 10000 1.79 66 23:34 12.01.2022
5889 Clouds 27 1014 70 10000 0.89 117 22:49 12.01.2022
5890 Clouds 29 1013 63 10000 1.34 139 21:54 12.01.2022
5891 Clouds 29 1013 62 10000 1.79 159 21:21 12.01.2022
5892 Clouds 29 1014 62 10000 1.34 150 20:53 12.01.2022
5893 Clouds 29 1014 61 10000 1.34 156 19:24 12.01.2022
5894 Clouds 28 1015 65 10000 1.79 149 18:28 12.01.2022
5895 Clouds 27 1016 69 10000 1.79 83 16:59 12.01.2022
5896 Clouds 26 1017 74 10000 2.24 48 15:53 12.01.2022
5897 Clouds 23 1017 82 10000 1.79 2 14:46 12.01.2022
5898 Clouds 21 1016 88 10000 0.89 357 12:58 12.01.2022
5899 Clouds 21 1016 88 10000 0.89 357 12:58 12.01.2022
5900 Clear 22 1015 86 10000 1.79 339 09:59 12.01.2022
5901 Clear 22 1016 84 10000 1.34 342 08:33 12.01.2022
5902 Clear 22 1017 88 10000 2.85 347 07:33 12.01.2022
5903 Clouds 22 1018 87 10000 2.43 346 05:30 12.01.2022
5904 Clouds 27 1017 74 10000 3.09 90 23:29 11.01.2022
5905 Clouds 26 1016 77 10000 2.57 90 22:41 11.01.2022
5906 Clouds 28 1016 69 10000 2.57 90 22:20 11.01.2022
5907 Clouds 30 1016 60 10000 0 0 20:40 11.01.2022
5908 Clouds 30 1016 58 10000 0 0 19:41 11.01.2022
5909 Clouds 30 1018 54 10000 4.12 60 18:22 11.01.2022
5910 Clouds 28 1019 68 10000 2.57 50 16:59 11.01.2022
5911 Clouds 28 1019 69 10000 2.57 50 16:35 11.01.2022
5912 Clouds 27 1019 65 10000 0 0 14:57 11.01.2022
5913 Clouds 27 1019 65 10000 0 0 14:39 11.01.2022
5914 Clouds 19 1018 91 10000 0 0 13:53 11.01.2022
5915 Clouds 19 1018 92 10000 0 0 13:31 11.01.2022
5916 Clouds 20 1017 93 10000 0 0 12:37 11.01.2022
5917 Clouds 21 1016 89 10000 2.42 339 10:45 11.01.2022
5918 Clouds 22 1017 88 10000 2.47 340 08:27 11.01.2022
5919 Clouds 23 1018 88 10000 0 0 04:30 11.01.2022
5920 Clouds 23 1018 88 10000 0 0 04:30 11.01.2022
5921 Clouds 26 1016 80 10000 0 0 00:28 11.01.2022
5922 Clouds 27 1016 78 10000 0 0 23:40 10.01.2022
5923 Clouds 28 1015 69 10000 5.14 150 22:43 10.01.2022
5924 Clouds 28 1015 69 10000 5.14 150 22:18 10.01.2022
5925 Clouds 30 1015 58 10000 5.14 60 21:42 10.01.2022
5926 Clouds 30 1015 57 10000 5.14 60 21:18 10.01.2022
5927 Clouds 30 1016 58 10000 5.14 360 20:55 10.01.2022
5928 Clouds 30 1016 56 10000 5.14 360 20:23 10.01.2022
5929 Clouds 29 1017 61 10000 5.14 20 19:39 10.01.2022
5930 Clouds 29 1017 61 10000 5.14 20 19:19 10.01.2022
5931 Clouds 29 1018 60 10000 4.12 360 18:47 10.01.2022
5932 Clouds 28 1021 71 10000 5.14 360 16:51 10.01.2022
5933 Clouds 28 1021 72 10000 5.14 360 16:33 10.01.2022
5934 Clouds 23 1019 84 10000 0 0 14:50 10.01.2022
5935 Clouds 21 1018 88 10000 0 0 13:35 10.01.2022
5936 Clouds 21 1018 91 10000 3.06 337 11:57 10.01.2022
5937 Clouds 21 1017 91 10000 3.07 340 10:50 10.01.2022
5938 Clouds 21 1017 90 10000 3.26 339 09:40 10.01.2022
5939 Clouds 23 1019 87 10000 3.47 348 05:52 10.01.2022
5940 Clouds 24 1020 88 10000 0 0 02:38 10.01.2022
5941 Clouds 24 1020 76 10000 4.02 9 01:21 10.01.2022
5942 Clouds 26 1019 78 10000 3.6 20 00:21 10.01.2022
5943 Clouds 28 1018 65 10000 5.14 360 22:47 09.01.2022
5944 Clouds 28 1018 64 10000 5.14 360 22:21 09.01.2022
5945 Clouds 29 1018 60 10000 5.66 30 21:41 09.01.2022
5946 Clouds 29 1018 56 10000 5.66 30 21:22 09.01.2022
5947 Clouds 29 1018 56 10000 6.17 20 20:47 09.01.2022
5948 Clouds 29 1018 56 10000 6.17 20 20:28 09.01.2022
5949 Clouds 29 1019 55 10000 5.14 20 19:41 09.01.2022
5950 Clouds 29 1019 56 10000 5.14 20 19:21 09.01.2022
5951 Clouds 28 1020 63 10000 5.14 120 18:41 09.01.2022
5952 Clouds 28 1020 64 10000 5.14 120 18:23 09.01.2022
5953 Clouds 27 1021 71 10000 6.17 360 17:30 09.01.2022
5954 Clouds 26 1022 72 10000 5.14 360 16:50 09.01.2022
5955 Clouds 26 1022 78 10000 5.14 360 15:51 09.01.2022
5956 Clouds 26 1022 79 10000 5.14 360 15:32 09.01.2022
5957 Clouds 24 1022 84 10000 4.12 350 14:39 09.01.2022
5958 Clouds 21 1021 88 10000 0 0 13:49 09.01.2022
5959 Clouds 20 1021 93 10000 0 0 12:19 09.01.2022
5960 Clouds 21 1021 91 10000 3.67 342 11:38 09.01.2022
5961 Clouds 21 1020 91 10000 3.5 349 09:55 09.01.2022
5962 Clouds 22 1020 91 10000 3.51 348 09:24 09.01.2022
5963 Clouds 22 1020 91 10000 3.55 346 08:18 09.01.2022
5964 Clear 26 1022 72 10000 3.67 360 01:31 09.01.2022
5965 Clouds 26 1019 78 10000 3.09 30 00:53 09.01.2022
5966 Clouds 27 1018 78 10000 4.12 30 23:37 08.01.2022
5967 Clouds 28 1018 67 10000 5.14 360 22:56 08.01.2022
5968 Clouds 29 1018 66 10000 5.14 360 21:32 08.01.2022
5969 Clouds 29 1019 67 10000 4.12 30 20:44 08.01.2022
5970 Clouds 29 1019 67 10000 4.12 30 20:23 08.01.2022
5971 Clouds 29 1019 66 10000 5.14 30 19:22 08.01.2022
5972 Clouds 29 1021 65 10000 4.12 360 17:43 08.01.2022
5973 Clouds 27 1021 67 10000 5.14 60 16:57 08.01.2022
5974 Clouds 26 1021 76 10000 0 0 15:35 08.01.2022
5975 Clouds 24 1020 83 10000 3.09 30 14:33 08.01.2022
5976 Clouds 22 1019 89 10000 0 0 12:35 08.01.2022
5977 Clear 23 1018 89 10000 2.96 350 10:43 08.01.2022
5978 Clear 23 1018 90 10000 2.93 348 10:23 08.01.2022
5979 Clear 23 1018 90 10000 2.93 348 10:23 08.01.2022
5980 Clear 23 1018 89 10000 2.93 348 09:34 08.01.2022
5981 Clear 23 1019 89 10000 2.12 334 06:22 08.01.2022
5982 Clear 24 1019 84 10000 2.09 11 01:46 08.01.2022
5983 Clouds 26 1017 83 8000 2.57 90 23:36 07.01.2022
5984 Clouds 29 1016 63 10000 5.14 360 21:49 07.01.2022
5985 Clouds 31 1016 51 10000 5.14 360 20:35 07.01.2022
5986 Clouds 31 1016 51 10000 5.14 360 20:35 07.01.2022
5987 Clouds 31 1016 50 10000 5.14 360 19:27 07.01.2022
5988 Clouds 31 1016 55 10000 2.57 360 18:49 07.01.2022
5989 Clouds 30 1016 55 10000 2.57 360 18:24 07.01.2022
5990 Clouds 29 1016 61 10000 4.63 360 17:24 07.01.2022
5991 Clouds 24 1019 87 10000 0 0 14:56 07.01.2022
5992 Clouds 21 1018 92 10000 0 0 13:52 07.01.2022
5993 Clouds 21 1015 91 10000 0 0 12:51 07.01.2022
5994 Clouds 22 1017 89 10000 2.5 359 11:28 07.01.2022
5995 Clouds 24 1016 94 10000 0 0 04:54 07.01.2022
5996 Clouds 25 1016 83 10000 0 0 02:53 07.01.2022
5997 Clouds 26 1017 89 10000 1.72 11 01:49 07.01.2022
5998 Clouds 25 1016 81 10000 0.87 37 01:26 07.01.2022
5999 Clouds 27 1014 78 10000 0 0 00:31 07.01.2022
6000 Clouds 29 1013 67 10000 5.14 180 22:33 06.01.2022
6001 Clouds 30 1014 64 10000 0 0 20:51 06.01.2022
6002 Clouds 30 1014 64 10000 0 0 20:18 06.01.2022
6003 Clouds 30 1015 60 10000 0 0 19:38 06.01.2022
6004 Clouds 30 1016 61 10000 5.14 90 17:51 06.01.2022
6005 Clouds 29 1016 62 10000 5.14 90 17:27 06.01.2022
6006 Clouds 28 1016 66 10000 0 0 16:38 06.01.2022
6007 Clouds 26 1016 77 10000 5.14 30 15:44 06.01.2022
6008 Clouds 26 1016 78 10000 5.14 30 15:22 06.01.2022
6009 Clouds 24 1016 85 10000 0 0 14:20 06.01.2022
6010 Clouds 22 1016 94 10000 0 0 13:39 06.01.2022
6011 Clouds 22 1016 96 10000 0 0 12:28 06.01.2022
6012 Clear 22 1016 90 10000 2.48 342 11:31 06.01.2022
6013 Clear 22 1015 90 10000 2.48 342 10:59 06.01.2022
6014 Clear 23 1015 88 10000 1.84 355 06:54 06.01.2022
6015 Clouds 26 1014 81 10000 3.09 30 00:34 06.01.2022
6016 Clouds 27 1014 77 10000 1.72 138 23:33 05.01.2022
6017 Clouds 28 1013 75 10000 2.57 120 22:48 05.01.2022
6018 Clouds 28 1013 74 10000 2.57 120 22:26 05.01.2022
6019 Clouds 29 1013 71 10000 3.6 150 21:43 05.01.2022
6020 Clouds 29 1013 67 10000 0 0 20:44 05.01.2022
6021 Clouds 29 1014 65 10000 0 0 19:42 05.01.2022
6022 Clouds 29 1015 63 10000 2.57 300 18:22 05.01.2022
6023 Clouds 29 1017 66 10000 3.6 50 16:57 05.01.2022
6024 Clouds 28 1017 69 10000 3.6 50 16:19 05.01.2022
6025 Clouds 25 1017 78 10000 2.57 10 15:19 05.01.2022
6026 Clouds 19 1016 95 10000 0 0 13:35 05.01.2022
6027 Clear 21 1016 91 10000 2.54 346 12:30 05.01.2022
6028 Clear 22 1015 87 10000 2.52 346 08:46 05.01.2022
6029 Clouds 23 1016 86 10000 2.15 340 06:46 05.01.2022
6030 Clouds 26 1018 76 10000 1.79 7 01:49 05.01.2022
6031 Clouds 27 1015 76 10000 4.12 160 23:44 04.01.2022
6032 Clouds 27 1015 76 10000 4.12 160 23:25 04.01.2022
6033 Clouds 28 1015 69 10000 0 0 21:50 04.01.2022
6034 Clouds 29 1016 65 10000 3.09 360 20:45 04.01.2022
6035 Clouds 28 1018 70 10000 5.14 360 18:41 04.01.2022
6036 Clouds 28 1019 68 10000 4.12 360 17:33 04.01.2022
6037 Clouds 25 1019 73 10000 2.88 67 16:38 04.01.2022
6038 Clouds 24 1019 78 10000 0 0 15:25 04.01.2022
6039 Clouds 21 1018 85 10000 0 0 14:38 04.01.2022
6040 Clouds 20 1017 90 10000 0 0 13:56 04.01.2022
6041 Clouds 20 1017 91 10000 0 0 12:24 04.01.2022
6042 Clear 22 1017 87 10000 1.95 355 10:24 04.01.2022
6043 Clear 23 1017 85 10000 1.96 352 08:57 04.01.2022
6044 Clouds 23 1018 84 10000 1.88 345 06:28 04.01.2022
6045 Clouds 26 1017 78 10000 0 0 00:43 04.01.2022
6046 Clouds 28 1017 69 10000 5.14 160 23:56 03.01.2022
6047 Clouds 29 1016 69 10000 6.17 180 22:22 03.01.2022
6048 Clouds 29 1017 68 10000 2.06 160 21:39 03.01.2022
6049 Clouds 30 1018 65 10000 3.09 30 20:41 03.01.2022
6050 Clouds 29 1019 67 10000 4.12 360 19:38 03.01.2022
6051 Clouds 29 1020 65 10000 0 0 18:31 03.01.2022
6052 Clouds 28 1021 69 10000 0 0 17:21 03.01.2022
6053 Clouds 27 1020 70 10000 0 0 16:53 03.01.2022
6054 Clouds 22 1021 80 10000 0 0 14:32 03.01.2022
6055 Clouds 19 1020 90 10000 0 0 12:53 03.01.2022
6056 Clear 21 1019 83 10000 2.61 330 11:50 03.01.2022
6057 Clear 22 1019 81 10000 2.54 329 10:52 03.01.2022
6058 Clear 20 1019 80 10000 2.46 333 09:28 03.01.2022
6059 Clear 22 1019 81 10000 2.4 337 07:54 03.01.2022
6060 Clouds 24 1021 79 10000 0 0 03:22 03.01.2022
6061 Clouds 27 1018 61 10000 3.97 117 23:24 02.01.2022
6062 Clouds 29 1017 57 10000 5.14 150 22:56 02.01.2022
6063 Clouds 29 1017 54 10000 0 0 21:58 02.01.2022
6064 Clouds 29 1018 56 10000 0 0 20:52 02.01.2022
6065 Clouds 29 1018 56 10000 0 0 20:30 02.01.2022
6066 Clouds 29 1018 53 10000 3.09 90 19:31 02.01.2022
6067 Clouds 29 1019 57 10000 2.57 60 18:56 02.01.2022
6068 Clouds 28 1020 60 10000 2.57 30 17:58 02.01.2022
6069 Clouds 28 1020 60 10000 2.57 30 17:39 02.01.2022
6070 Clouds 27 1020 62 10000 2.57 30 17:21 02.01.2022
6071 Clouds 26 1020 64 10000 5.14 90 16:28 02.01.2022
6072 Clouds 22 1020 79 10000 0 0 14:44 02.01.2022
6073 Clouds 20 1019 88 10000 0 0 13:37 02.01.2022
6074 Clouds 20 1018 89 10000 0 0 12:32 02.01.2022
6075 Clouds 21 1019 84 10000 2.41 348 11:49 02.01.2022
6076 Clouds 21 1019 84 10000 2.47 7 10:54 02.01.2022
6077 Clouds 21 1018 85 10000 2.69 17 09:57 02.01.2022
6078 Clouds 22 1018 81 10000 2.56 349 07:34 02.01.2022
6079 Clouds 24 1018 83 10000 0 0 02:56 02.01.2022
6080 Clouds 27 1015 68 10000 3.09 30 23:42 01.01.2022
6081 Clouds 27 1015 68 10000 3.09 30 23:24 01.01.2022
6082 Clouds 29 1015 58 10000 3.09 30 22:25 01.01.2022
6083 Clouds 30 1016 55 10000 5.14 30 21:46 01.01.2022
6084 Clouds 30 1016 55 10000 5.14 30 21:28 01.01.2022
6085 Clouds 30 1017 53 10000 2.06 30 20:25 01.01.2022
6086 Clouds 31 1018 44 10000 3.09 30 19:34 01.01.2022
6087 Clouds 30 1019 49 10000 2.57 30 18:51 01.01.2022
6088 Clouds 29 1020 56 10000 0 0 17:38 01.01.2022
6089 Clouds 28 1020 60 10000 3.09 60 16:34 01.01.2022
6090 Clouds 28 1020 60 10000 3.09 60 16:34 01.01.2022
6091 Clouds 27 1019 68 10000 4.12 360 15:33 01.01.2022
6092 Clouds 24 1018 78 10000 3.09 360 14:25 01.01.2022
6093 Clouds 21 1015 85 10000 0 0 13:36 01.01.2022
6094 Clouds 21 1014 87 10000 3.09 360 12:18 01.01.2022
6095 Clouds 21 1018 86 10000 3.31 353 11:25 01.01.2022
6096 Clouds 21 1018 86 10000 3.31 353 10:52 01.01.2022
6097 Clouds 21 1018 86 10000 3.38 353 09:47 01.01.2022
6098 Clouds 22 1018 85 10000 3.16 349 08:27 01.01.2022
6099 Clouds 22 1018 85 10000 3.16 349 07:56 01.01.2022
6100 Clouds 22 1018 84 10000 3.16 349 07:37 01.01.2022
6101 Clouds 22 1018 84 10000 3.16 349 07:37 01.01.2022
6102 Clear 22 1018 83 10000 3.08 347 06:43 01.01.2022
6103 Clouds 23 1016 83 10000 0 0 04:39 01.01.2022
6104 Clouds 23 1016 85 10000 3.09 360 03:48 01.01.2022
6105 Clouds 28 1016 64 10000 4.12 30 23:53 31.12.2021
6106 Clouds 30 1014 54 10000 5.14 60 21:56 31.12.2021
6107 Clouds 30 1014 54 10000 5.14 60 21:32 31.12.2021
6108 Clouds 30 1015 52 10000 5.14 300 19:43 31.12.2021
6109 Clouds 29 1016 58 10000 2.57 30 18:47 31.12.2021
6110 Clouds 29 1018 61 10000 5.14 30 17:49 31.12.2021
6111 Clouds 29 1018 61 10000 5.14 30 17:24 31.12.2021
6112 Clouds 28 1017 65 10000 5.14 30 16:51 31.12.2021
6113 Clouds 28 1017 67 10000 5.14 30 16:18 31.12.2021
6114 Clouds 27 1019 73 10000 4.26 49 15:42 31.12.2021
6115 Clouds 26 1019 75 10000 3.47 35 15:20 31.12.2021
6116 Clouds 25 1016 78 10000 0 0 14:37 31.12.2021
6117 Clouds 22 1016 86 10000 0 0 13:45 31.12.2021
6118 Clouds 21 1016 88 10000 2.57 360 12:50 31.12.2021
6119 Clouds 21 1016 88 10000 2.57 360 12:19 31.12.2021
6120 Clouds 21 1017 87 10000 2.33 5 11:41 31.12.2021
6121 Clouds 22 1017 87 10000 2.45 353 10:48 31.12.2021
6122 Clouds 22 1016 87 10000 2.61 354 10:25 31.12.2021
6123 Clouds 22 1016 86 10000 2.61 354 09:34 31.12.2021
6124 Clouds 22 1016 85 10000 2.76 351 08:50 31.12.2021
6125 Clear 22 1017 85 10000 2.79 350 07:53 31.12.2021
6126 Clouds 24 1017 78 10000 3.09 10 02:36 31.12.2021
6127 Clouds 28 1016 62 10000 5.14 30 23:18 30.12.2021
6128 Clouds 29 1016 57 10000 5.14 30 22:27 30.12.2021
6129 Clouds 29 1015 59 10000 1.34 121 21:39 30.12.2021
6130 Clouds 30 1015 58 10000 1.34 138 20:59 30.12.2021
6131 Clouds 29 1015 58 10000 1.79 89 20:38 30.12.2021
6132 Clouds 30 1016 57 10000 1.79 114 19:53 30.12.2021
6133 Clouds 30 1016 54 10000 3.13 62 19:28 30.12.2021
6134 Clouds 29 1017 58 10000 1.79 43 18:26 30.12.2021
6135 Clouds 28 1019 64 10000 2.24 42 16:50 30.12.2021
6136 Clouds 27 1019 70 10000 2.68 36 15:53 30.12.2021
6137 Clouds 27 1019 70 10000 2.68 36 15:53 30.12.2021
6138 Clouds 25 1020 78 10000 2.24 27 14:54 30.12.2021
6139 Clouds 25 1019 79 10000 2.24 45 14:35 30.12.2021
6140 Clouds 22 1019 89 10000 1.79 353 13:24 30.12.2021
6141 Clouds 23 1018 84 10000 1.34 347 11:45 30.12.2021
6142 Clouds 23 1017 84 10000 1.79 1 10:28 30.12.2021
6143 Clouds 24 1017 83 10000 1.34 357 09:44 30.12.2021
6144 Clear 24 1018 81 10000 1.34 346 06:56 30.12.2021
6145 Clouds 24 1019 80 10000 1.79 13 04:56 30.12.2021
6146 Clouds 23 1019 83 10000 2.57 20 03:40 30.12.2021
6147 Clouds 26 1018 73 10000 0 0 02:27 30.12.2021
6148 Clouds 28 1017 65 10000 2.57 30 23:37 29.12.2021
6149 Clouds 29 1016 63 10000 3.13 45 22:35 29.12.2021
6150 Clouds 30 1016 58 10000 1.34 123 21:55 29.12.2021
6151 Clouds 30 1015 56 10000 2.24 48 20:57 29.12.2021
6152 Clouds 30 1015 56 10000 2.68 68 20:29 29.12.2021
6153 Clouds 30 1016 56 10000 2.68 27 19:31 29.12.2021
6154 Clouds 30 1017 60 10000 2.68 45 18:36 29.12.2021
6155 Clouds 29 1018 63 10000 2.68 61 17:42 29.12.2021
6156 Clouds 29 1018 64 10000 2.24 57 17:23 29.12.2021
6157 Clouds 27 1019 70 10000 2.24 53 16:21 29.12.2021
6158 Clouds 26 1020 76 10000 3.13 40 15:21 29.12.2021
6159 Clouds 22 1019 85 10000 1.34 11 12:57 29.12.2021
6160 Clouds 22 1018 85 10000 1.34 359 12:33 29.12.2021
6161 Clouds 24 1017 84 10000 0.89 357 11:23 29.12.2021
6162 Clouds 24 1017 84 10000 1.34 4 09:30 29.12.2021
6163 Clear 23 1017 87 10000 2.8 348 07:30 29.12.2021
6164 Clear 23 1018 86 10000 2.73 342 06:32 29.12.2021
6165 Clear 23 1018 86 10000 2.59 339 05:55 29.12.2021
6166 Clouds 24 1018 83 10000 0 0 04:57 29.12.2021
6167 Clouds 28 1016 74 10000 0 0 00:43 29.12.2021
6168 Clouds 28 1016 75 10000 0.89 125 23:58 28.12.2021
6169 Clouds 29 1015 70 10000 1.34 125 22:56 28.12.2021
6170 Clouds 29 1015 69 10000 1.34 123 22:25 28.12.2021
6171 Clouds 29 1015 69 10000 1.34 123 22:25 28.12.2021
6172 Clouds 29 1015 68 10000 0.89 124 21:54 28.12.2021
6173 Clouds 29 1015 68 10000 1.34 136 21:34 28.12.2021
6174 Clouds 29 1015 68 10000 2.24 137 19:53 28.12.2021
6175 Clouds 29 1015 68 10000 1.34 168 18:54 28.12.2021
6176 Clouds 29 1015 67 10000 1.34 134 18:25 28.12.2021
6177 Clear 28 1016 67 10000 2.24 69 17:29 28.12.2021
6178 Clouds 27 1017 70 10000 1.79 48 15:53 28.12.2021
6179 Clouds 26 1017 71 10000 1.34 44 15:29 28.12.2021
6180 Clouds 24 1018 77 10000 1.79 4 14:55 28.12.2021
6181 Clouds 24 1017 78 10000 1.79 4 14:22 28.12.2021
6182 Clouds 23 1017 81 10000 0.89 349 13:58 28.12.2021
6183 Clouds 23 1017 83 10000 1.34 342 13:37 28.12.2021
6184 Clouds 21 1017 90 10000 0.89 342 12:55 28.12.2021
6185 Clouds 20 1016 96 10000 0 0 12:19 28.12.2021
6186 Clear 23 1015 84 10000 1.79 345 10:19 28.12.2021
6187 Clear 23 1015 86 10000 2.81 347 07:33 28.12.2021
6188 Clouds 23 1016 94 10000 0 0 03:34 28.12.2021
6189 Clouds 28 1012 74 10000 5.14 30 23:39 27.12.2021
6190 Clouds 29 1014 67 10000 4.02 43 22:20 27.12.2021
6191 Clouds 29 1013 64 10000 3.13 28 21:30 27.12.2021
6192 Clouds 30 1013 61 10000 3.13 18 20:32 27.12.2021
6193 Clouds 30 1014 63 10000 3.58 50 19:47 27.12.2021
6194 Clouds 29 1015 66 10000 3.13 26 18:57 27.12.2021
6195 Clouds 28 1016 68 10000 3.13 13 17:51 27.12.2021
6196 Clouds 28 1016 69 10000 3.13 30 17:28 27.12.2021
6197 Clouds 28 1016 69 10000 3.13 30 17:28 27.12.2021
6198 Clouds 26 1017 78 10000 2.68 20 15:54 27.12.2021
6199 Clouds 25 1017 81 10000 2.68 354 14:57 27.12.2021
6200 Clouds 24 1017 82 10000 2.68 1 14:21 27.12.2021
6201 Clouds 22 1016 90 10000 1.79 1 12:52 27.12.2021
6202 Clear 22 1016 91 10000 2.96 338 10:40 27.12.2021
6203 Clear 22 1015 91 10000 3.2 340 10:22 27.12.2021
6204 Clear 23 1015 90 10000 3.01 341 08:43 27.12.2021
6205 Clear 23 1016 89 10000 3.04 343 07:34 27.12.2021
6206 Clouds 24 1015 94 10000 0 0 02:29 27.12.2021
6207 Clouds 27 1015 74 10000 0 0 00:57 27.12.2021
6208 Clouds 27 1014 78 10000 1.79 107 23:43 26.12.2021
6209 Clouds 27 1014 77 10000 1.34 109 23:18 26.12.2021
6210 Clouds 29 1014 67 10000 1.34 109 21:33 26.12.2021
6211 Clouds 30 1015 66 10000 1.34 156 19:55 26.12.2021
6212 Clouds 30 1015 64 10000 1.34 152 18:39 26.12.2021
6213 Clouds 30 1015 63 10000 1.34 139 18:19 26.12.2021
6214 Clouds 27 1018 76 10000 2.24 46 15:35 26.12.2021
6215 Clouds 23 1017 87 10000 1.34 349 13:43 26.12.2021
6216 Clouds 22 1016 92 10000 0 0 13:21 26.12.2021
6217 Clouds 22 1016 90 10000 1.34 3 12:35 26.12.2021
6218 Clouds 22 1016 92 10000 2.61 348 11:18 26.12.2021
6219 Clouds 23 1016 91 10000 2.78 350 09:30 26.12.2021
6220 Clouds 23 1016 89 10000 2.71 347 08:45 26.12.2021
6221 Clouds 24 1015 86 10000 1.79 359 08:23 26.12.2021
6222 Clouds 26 1016 81 10000 1.79 14 01:50 26.12.2021
6223 Clouds 26 1014 83 10000 0 0 00:39 26.12.2021
6224 Clouds 27 1014 82 10000 0.45 26 23:35 25.12.2021
6225 Clouds 27 1013 78 10000 1.34 314 22:29 25.12.2021
6226 Clouds 30 1013 69 10000 2.24 52 21:30 25.12.2021
6227 Clouds 29 1014 68 10000 3.13 70 20:18 25.12.2021
6228 Clouds 29 1013 69 10000 1.79 28 19:18 25.12.2021
6229 Clouds 29 1015 73 10000 2.68 9 18:29 25.12.2021
6230 Clouds 29 1016 71 10000 2.24 42 16:49 25.12.2021
6231 Clouds 27 1016 78 10000 2.68 12 15:30 25.12.2021
6232 Clouds 25 1016 84 10000 1.79 16 14:22 25.12.2021
6233 Clouds 23 1016 90 10000 3.09 349 12:21 25.12.2021
6234 Clouds 23 1015 90 10000 3.31 348 10:38 25.12.2021
6235 Clouds 23 1015 91 10000 2.95 360 09:48 25.12.2021
6236 Clouds 24 1015 85 10000 1.79 4 07:27 25.12.2021
6237 Clouds 24 1016 87 10000 1.34 343 01:40 25.12.2021
6238 Clouds 25 1015 88 6000 0.89 90 00:21 25.12.2021
6239 Clouds 28 1013 76 10000 1.79 122 21:57 24.12.2021
6240 Clouds 30 1014 67 10000 2.57 20 19:27 24.12.2021
6241 Clouds 30 1015 69 10000 0 0 18:55 24.12.2021
6242 Clouds 28 1016 70 10000 3.09 30 16:44 24.12.2021
6243 Clouds 26 1016 79 10000 2.57 30 15:50 24.12.2021
6244 Clouds 26 1016 79 10000 2.57 30 15:50 24.12.2021
6245 Clouds 26 1016 79 10000 2.57 30 15:20 24.12.2021
6246 Clouds 24 1016 86 10000 0 0 14:34 24.12.2021
6247 Clouds 22 1015 95 10000 0 0 13:54 24.12.2021
6248 Clouds 21 1015 96 10000 0 0 13:32 24.12.2021
6249 Clouds 21 1014 90 10000 0 0 12:40 24.12.2021
6250 Clouds 23 1015 91 10000 2.24 353 11:43 24.12.2021
6251 Clouds 23 1015 91 10000 2.54 349 11:24 24.12.2021
6252 Clouds 23 1015 93 10000 2.54 349 10:35 24.12.2021
6253 Clouds 23 1014 93 10000 2.45 350 08:48 24.12.2021
6254 Clouds 23 1014 93 10000 2.1 348 07:58 24.12.2021
6255 Clear 24 1014 92 10000 2.45 351 06:59 24.12.2021
6256 Clouds 25 1014 89 10000 1.09 189 00:47 24.12.2021
6257 Clouds 25 1012 85 10000 2.57 180 23:50 23.12.2021
6258 Clouds 26 1012 82 10000 5.14 180 22:53 23.12.2021
6259 Clouds 26 1012 82 10000 5.14 180 22:24 23.12.2021
6260 Clouds 25 1013 83 10000 5.14 180 21:41 23.12.2021
6261 Clouds 25 1012 88 10000 4.25 159 20:31 23.12.2021
6262 Clouds 26 1014 78 8000 4.12 140 19:30 23.12.2021
6263 Clouds 26 1014 78 8000 4.12 140 19:30 23.12.2021
6264 Clouds 26 1015 83 8000 4.12 180 18:18 23.12.2021
6265 Clouds 28 1014 66 10000 3.85 154 17:45 23.12.2021
6266 Clouds 25 1016 88 8000 0 0 16:27 23.12.2021
6267 Clouds 26 1016 83 10000 0 0 15:40 23.12.2021
6268 Clouds 26 1016 83 10000 0 0 15:22 23.12.2021
6269 Clouds 24 1016 87 10000 0 0 14:40 23.12.2021
6270 Clouds 23 1016 93 10000 1.31 337 13:31 23.12.2021
6271 Clouds 23 1014 90 10000 1.49 309 11:49 23.12.2021
6272 Clouds 23 1014 90 10000 1.52 310 09:53 23.12.2021
6273 Clouds 23 1014 89 10000 1.52 310 09:34 23.12.2021
6274 Clear 24 1013 88 10000 1.36 312 08:38 23.12.2021
6275 Clouds 22 1015 88 10000 1.21 260 05:39 23.12.2021
6276 Clouds 24 1015 83 10000 1.67 204 01:31 23.12.2021
6277 Clouds 29 1013 70 10000 3.09 180 22:53 22.12.2021
6278 Clouds 29 1013 69 10000 3.09 180 22:19 22.12.2021
6279 Clouds 29 1013 68 10000 3.6 180 21:36 22.12.2021
6280 Clouds 29 1013 68 10000 3.6 180 21:18 22.12.2021
6281 Clouds 29 1013 65 10000 3.6 170 20:40 22.12.2021
6282 Clouds 29 1013 65 10000 2.57 180 19:54 22.12.2021
6283 Clouds 29 1014 68 10000 3.6 180 18:55 22.12.2021
6284 Clouds 28 1015 68 10000 2.57 90 17:38 22.12.2021
6285 Clouds 28 1016 71 10000 1.99 130 16:22 22.12.2021
6286 Clouds 22 1016 83 10000 1.29 348 14:28 22.12.2021
6287 Clouds 19 1014 88 10000 0 0 12:53 22.12.2021
6288 Clear 22 1014 88 10000 1.21 334 11:42 22.12.2021
6289 Clear 22 1013 87 10000 0.93 344 09:52 22.12.2021
6290 Clear 23 1013 85 10000 1.34 357 07:57 22.12.2021
6291 Clouds 24 1014 81 10000 1.23 17 05:54 22.12.2021
6292 Clouds 24 1014 81 10000 1.23 17 05:36 22.12.2021
6293 Clouds 24 1014 79 10000 1.05 56 05:18 22.12.2021
6294 Clouds 23 1015 90 10000 0 0 04:37 22.12.2021
6295 Clouds 24 1014 86 10000 0 0 03:49 22.12.2021
6296 Clouds 23 1014 94 10000 0 0 03:31 22.12.2021
6297 Clouds 26 1012 77 10000 0.89 137 23:48 21.12.2021
6298 Clouds 27 1011 77 10000 1.34 124 22:41 21.12.2021
6299 Clouds 28 1011 75 10000 1.34 131 21:56 21.12.2021
6300 Clouds 28 1011 75 10000 1.34 116 21:32 21.12.2021
6301 Clouds 29 1012 69 10000 1.34 149 20:24 21.12.2021
6302 Clouds 29 1012 71 10000 0.89 118 19:55 21.12.2021
6303 Clouds 29 1012 71 10000 1.34 136 19:33 21.12.2021
6304 Clouds 29 1013 71 10000 2.68 110 18:23 21.12.2021
6305 Clouds 28 1013 73 10000 1.79 69 17:58 21.12.2021
6306 Clouds 28 1014 74 10000 2.68 66 17:29 21.12.2021
6307 Clouds 26 1015 77 10000 2.24 63 15:34 21.12.2021
6308 Clouds 25 1015 82 10000 1.79 9 14:20 21.12.2021
6309 Clouds 23 1014 87 10000 1.34 6 13:41 21.12.2021
6310 Clouds 22 1014 89 10000 0.89 343 12:25 21.12.2021
6311 Clear 23 1013 85 10000 1.34 1 10:38 21.12.2021
6312 Clear 23 1013 88 10000 2.81 341 09:50 21.12.2021
6313 Clear 23 1013 88 10000 2.75 338 08:55 21.12.2021
6314 Clear 23 1014 88 10000 2.62 338 07:43 21.12.2021
6315 Clear 24 1013 85 10000 0.89 354 07:20 21.12.2021
6316 Clouds 24 1015 94 10000 0 0 03:24 21.12.2021
6317 Clear 26 1014 84 10000 2.05 33 01:20 21.12.2021
6318 Clouds 27 1013 76 10000 1.34 124 23:54 20.12.2021
6319 Clouds 29 1012 69 10000 0.89 123 22:35 20.12.2021
6320 Clouds 29 1012 67 10000 1.34 139 21:51 20.12.2021
6321 Clouds 29 1012 66 10000 1.34 112 21:24 20.12.2021
6322 Clouds 29 1013 66 10000 0.89 111 20:51 20.12.2021
6323 Clouds 29 1013 67 10000 1.79 136 20:19 20.12.2021
6324 Clouds 30 1013 65 10000 1.79 149 19:36 20.12.2021
6325 Clouds 30 1013 65 10000 1.34 138 19:18 20.12.2021
6326 Clouds 30 1014 67 10000 1.34 162 18:30 20.12.2021
6327 Clear 29 1015 69 10000 1.34 144 17:49 20.12.2021
6328 Clouds 29 1016 68 10000 1.34 90 16:45 20.12.2021
6329 Clouds 28 1016 71 10000 1.79 66 15:55 20.12.2021
6330 Clouds 27 1016 73 10000 1.79 61 15:31 20.12.2021
6331 Clouds 22 1014 92 10000 0 0 13:31 20.12.2021
6332 Clouds 23 1014 88 10000 0.89 345 11:47 20.12.2021
6333 Clouds 24 1014 86 10000 0.45 341 10:35 20.12.2021
6334 Clouds 24 1014 87 10000 0.45 1 09:38 20.12.2021
6335 Clouds 24 1014 88 10000 1.34 327 08:44 20.12.2021
6336 Clouds 24 1014 86 10000 1.34 3 08:00 20.12.2021
6337 Clouds 24 1014 88 10000 1.34 313 07:31 20.12.2021
6338 Clouds 24 1015 87 10000 0.89 345 06:32 20.12.2021
6339 Clouds 24 1015 87 10000 0.89 345 06:32 20.12.2021
6340 Clouds 24 1015 94 7000 0 0 00:19 20.12.2021
6341 Clouds 29 1014 70 10000 0 0 22:56 19.12.2021
6342 Clouds 29 1014 64 10000 0.89 124 21:58 19.12.2021
6343 Clouds 29 1014 64 10000 0.89 122 21:32 19.12.2021
6344 Clouds 29 1015 66 10000 0.89 122 20:35 19.12.2021
6345 Clouds 29 1014 64 10000 1.79 2 19:53 19.12.2021
6346 Clouds 29 1014 63 10000 2.24 18 19:32 19.12.2021
6347 Clouds 29 1016 66 10000 2.24 18 18:30 19.12.2021
6348 Clouds 28 1017 67 10000 2.24 34 17:53 19.12.2021
6349 Clouds 28 1017 68 10000 3.13 46 17:27 19.12.2021
6350 Clouds 27 1018 72 10000 3.13 37 16:27 19.12.2021
6351 Clouds 27 1018 72 10000 3.13 37 16:27 19.12.2021
6352 Clouds 26 1018 73 10000 3.58 21 15:50 19.12.2021
6353 Clouds 26 1018 74 10000 3.13 12 15:23 19.12.2021
6354 Clouds 24 1018 77 10000 3.13 28 14:44 19.12.2021
6355 Clouds 21 1017 88 10000 0 0 13:26 19.12.2021
6356 Clouds 22 1017 88 10000 1.34 5 12:47 19.12.2021
6357 Clouds 21 1017 92 10000 0 0 12:28 19.12.2021
6358 Clouds 21 1018 90 10000 3.1 335 11:30 19.12.2021
6359 Clouds 22 1016 85 10000 1.34 359 10:30 19.12.2021
6360 Clouds 22 1016 85 10000 1.34 5 09:53 19.12.2021
6361 Clouds 22 1017 88 10000 3.26 351 08:45 19.12.2021
6362 Clouds 23 1018 88 10000 2.24 352 04:45 19.12.2021
6363 Clouds 24 1017 86 10000 2.24 22 01:34 19.12.2021
6364 Clouds 24 1017 89 10000 2.24 357 00:53 19.12.2021
6365 Clouds 25 1016 88 10000 2.24 17 22:42 18.12.2021
6366 Clouds 25 1016 86 10000 1.79 354 22:20 18.12.2021
6367 Clouds 25 1016 86 10000 1.79 354 22:20 18.12.2021
6368 Clouds 26 1016 80 10000 3.13 6 21:41 18.12.2021
6369 Clouds 26 1016 83 10000 2.68 356 21:22 18.12.2021
6370 Clouds 27 1016 81 10000 2.24 76 20:20 18.12.2021
6371 Clouds 28 1016 73 10000 3.13 65 19:25 18.12.2021
6372 Clouds 27 1017 77 10000 2.24 67 18:22 18.12.2021
6373 Clouds 26 1018 78 10000 3.13 52 17:48 18.12.2021
6374 Clouds 27 1019 79 10000 3.13 45 16:26 18.12.2021
6375 Clouds 26 1019 82 10000 2.24 33 15:28 18.12.2021
6376 Clouds 25 1019 84 10000 2.68 22 14:51 18.12.2021
6377 Clouds 23 1019 88 10000 3.09 30 13:28 18.12.2021
6378 Clouds 21 1018 96 10000 3.01 333 11:23 18.12.2021
6379 Clouds 21 1018 96 10000 3.18 340 09:40 18.12.2021
6380 Clouds 21 1018 96 10000 2.83 348 08:47 18.12.2021
6381 Clouds 21 1017 96 10000 2.85 344 08:24 18.12.2021
6382 Clouds 23 1018 94 10000 4.12 20 03:58 18.12.2021
6383 Clouds 25 1016 83 10000 0 0 00:30 18.12.2021
6384 Clouds 25 1015 83 10000 0 0 23:46 17.12.2021
6385 Clouds 27 1015 76 9000 2.68 102 21:58 17.12.2021
6386 Clouds 27 1015 77 9000 1.34 111 21:19 17.12.2021
6387 Clouds 29 1015 66 10000 1.79 80 20:40 17.12.2021
6388 Clouds 29 1015 64 10000 1.34 116 19:24 17.12.2021
6389 Clouds 29 1017 64 10000 2.24 114 18:38 17.12.2021
6390 Clouds 30 1019 59 10000 4.12 20 17:33 17.12.2021
6391 Clouds 29 1018 65 10000 2.24 49 16:49 17.12.2021
6392 Clouds 29 1019 65 10000 4.12 360 16:22 17.12.2021
6393 Clouds 27 1019 77 10000 4.12 360 15:25 17.12.2021
6394 Clouds 25 1019 80 10000 2.24 22 14:40 17.12.2021
6395 Clouds 23 1018 88 10000 0 0 13:21 17.12.2021
6396 Clouds 22 1018 88 10000 2.97 342 11:50 17.12.2021
6397 Clouds 22 1017 95 10000 2.8 340 10:37 17.12.2021
6398 Clouds 23 1017 87 10000 2.68 345 09:33 17.12.2021
6399 Clouds 23 1017 87 10000 2.8 345 08:30 17.12.2021
6400 Clear 23 1018 86 10000 3.14 345 06:22 17.12.2021
6401 Clouds 24 1017 94 10000 3.09 30 02:54 17.12.2021
6402 Clouds 27 1014 78 10000 0 0 23:40 16.12.2021
6403 Clouds 27 1015 73 10000 3.13 70 22:24 16.12.2021
6404 Clouds 27 1015 73 10000 3.13 70 22:24 16.12.2021
6405 Clouds 27 1015 73 10000 3.13 70 22:24 16.12.2021
6406 Clouds 27 1015 73 10000 3.13 70 22:24 16.12.2021
6407 Clouds 27 1015 73 10000 3.13 70 22:23 16.12.2021
6408 Clouds 27 1015 73 10000 3.13 70 22:23 16.12.2021
6409 Clouds 28 1014 70 10000 2.24 85 21:44 16.12.2021
6410 Clouds 28 1014 71 10000 2.68 101 20:55 16.12.2021
6411 Clouds 28 1014 74 10000 2.68 112 20:27 16.12.2021
6412 Clouds 29 1014 67 8000 1.79 116 19:33 16.12.2021
6413 Clouds 29 1015 72 10000 0.89 148 18:37 16.12.2021
6414 Clouds 28 1016 68 10000 2.24 41 17:48 16.12.2021
6415 Clouds 28 1017 71 10000 2.24 16 16:44 16.12.2021
6416 Clouds 28 1017 72 10000 2.24 54 16:18 16.12.2021
6417 Clouds 26 1017 79 10000 2.68 12 14:23 16.12.2021
6418 Clouds 21 1017 95 10000 3.43 349 12:30 16.12.2021
6419 Clouds 20 1016 96 10000 3.45 346 11:19 16.12.2021
6420 Clouds 20 1016 96 10000 3.45 346 10:44 16.12.2021
6421 Clouds 22 1016 96 10000 3.37 343 09:50 16.12.2021
6422 Clouds 22 1017 96 10000 3.06 340 07:18 16.12.2021
6423 Clouds 22 1017 96 10000 3.1 343 06:18 16.12.2021
6424 Clouds 27 1015 78 10000 3.09 30 23:59 15.12.2021
6425 Clouds 27 1015 78 10000 3.09 30 23:20 15.12.2021
6426 Clouds 28 1014 69 10000 3.13 62 22:21 15.12.2021
6427 Clouds 28 1014 69 10000 3.13 62 22:21 15.12.2021
6428 Rain 28 1014 69 10000 1.34 51 21:45 15.12.2021
6429 Rain 28 1014 71 10000 0.45 21 21:24 15.12.2021
6430 Clouds 30 1014 63 10000 2.68 66 19:54 15.12.2021
6431 Clouds 30 1014 63 10000 2.24 11 19:19 15.12.2021
6432 Clouds 28 1015 70 10000 2.68 24 18:24 15.12.2021
6433 Clouds 29 1017 67 10000 3.13 34 17:46 15.12.2021
6434 Clouds 29 1017 67 10000 3.13 10 17:21 15.12.2021
6435 Clouds 27 1018 72 10000 2.24 43 15:49 15.12.2021
6436 Clouds 27 1018 73 10000 2.68 36 15:31 15.12.2021
6437 Clouds 26 1018 74 10000 2.68 38 14:59 15.12.2021
6438 Clouds 24 1018 84 10000 1.34 351 13:45 15.12.2021
6439 Clear 21 1017 94 10000 3.62 342 11:52 15.12.2021
6440 Clear 21 1016 95 10000 3.54 344 10:22 15.12.2021
6441 Clear 22 1017 95 10000 3.09 349 08:26 15.12.2021
6442 Clouds 23 1017 95 10000 3.36 352 05:53 15.12.2021
6443 Clouds 25 1016 83 10000 0 0 00:37 15.12.2021
6444 Clouds 27 1015 78 10000 2.57 360 23:27 14.12.2021
6445 Clouds 28 1015 69 10000 3.09 30 22:44 14.12.2021
6446 Clouds 27 1015 76 10000 0.89 209 21:43 14.12.2021
6447 Clouds 27 1015 76 10000 0.89 209 21:43 14.12.2021
6448 Clouds 27 1015 77 8000 3.13 18 20:22 14.12.2021
6449 Clouds 28 1015 70 10000 2.24 62 19:34 14.12.2021
6450 Clouds 29 1016 72 10000 1.79 25 18:38 14.12.2021
6451 Clouds 29 1017 69 10000 2.68 40 17:55 14.12.2021
6452 Clouds 29 1018 69 10000 2.68 40 16:44 14.12.2021
6453 Clouds 29 1018 69 10000 3.13 41 16:21 14.12.2021
6454 Clouds 26 1019 79 10000 2.68 13 14:32 14.12.2021
6455 Clear 24 1018 86 10000 2.68 9 12:50 14.12.2021
6456 Clear 22 1017 93 10000 3.79 344 11:25 14.12.2021
6457 Clear 22 1017 93 10000 3.79 344 10:59 14.12.2021
6458 Clear 22 1017 93 10000 3.71 344 09:54 14.12.2021
6459 Clear 22 1017 94 10000 3.72 343 08:49 14.12.2021
6460 Clear 22 1017 94 10000 3.83 343 08:21 14.12.2021
6461 Clear 24 1017 82 10000 1.79 3 07:23 14.12.2021
6462 Clouds 26 1016 78 10000 3.09 360 23:51 13.12.2021
6463 Clouds 25 1014 82 10000 1.79 3 22:26 13.12.2021
6464 Clouds 26 1014 76 7000 1.34 13 21:39 13.12.2021
6465 Clouds 26 1014 79 10000 4.92 17 20:51 13.12.2021
6466 Clouds 26 1014 79 10000 4.92 17 20:51 13.12.2021
6467 Clouds 28 1014 74 10000 0.89 323 20:21 13.12.2021
6468 Clouds 27 1015 80 10000 1.34 28 19:49 13.12.2021
6469 Clouds 29 1017 67 10000 2.24 29 17:27 13.12.2021
6470 Clouds 29 1018 69 10000 2.24 53 16:32 13.12.2021
6471 Clouds 28 1018 72 10000 2.68 33 15:43 13.12.2021
6472 Clouds 26 1018 78 10000 3.13 15 14:30 13.12.2021
6473 Clouds 25 1017 83 10000 3.13 13 13:37 13.12.2021
6474 Clear 24 1017 83 10000 2.24 3 12:39 13.12.2021
6475 Clear 24 1016 83 10000 2.24 9 11:50 13.12.2021
6476 Clear 24 1016 83 10000 2.24 8 11:29 13.12.2021
6477 Clear 24 1015 83 10000 2.68 357 10:21 13.12.2021
6478 Clear 24 1015 83 10000 2.24 357 08:43 13.12.2021
6479 Clear 25 1016 82 10000 1.79 351 06:54 13.12.2021
6480 Clear 25 1017 83 10000 2.68 359 04:52 13.12.2021
6481 Clouds 27 1015 74 10000 2.68 35 23:55 12.12.2021
6482 Clouds 30 1014 63 10000 2.68 35 21:58 12.12.2021
6483 Clouds 30 1014 64 10000 1.34 94 20:50 12.12.2021
6484 Clouds 30 1014 60 10000 2.68 27 19:35 12.12.2021
6485 Clouds 30 1016 65 10000 2.68 350 17:58 12.12.2021
6486 Clouds 29 1017 70 10000 3.13 22 16:29 12.12.2021
6487 Clouds 28 1017 72 10000 2.24 36 15:55 12.12.2021
6488 Clouds 28 1017 73 10000 3.13 31 15:28 12.12.2021
6489 Clouds 26 1017 78 10000 2.68 16 14:46 12.12.2021
6490 Clouds 25 1017 85 10000 1.34 351 13:56 12.12.2021
6491 Clouds 24 1016 84 10000 1.79 351 12:48 12.12.2021
6492 Clouds 22 1016 93 10000 3.47 341 11:45 12.12.2021
6493 Clouds 22 1016 93 10000 3.44 341 11:27 12.12.2021
6494 Clouds 22 1016 93 10000 3.44 341 10:43 12.12.2021
6495 Clouds 22 1015 93 10000 3.38 338 09:58 12.12.2021
6496 Clouds 22 1015 93 10000 3.52 341 08:44 12.12.2021
6497 Clear 24 1015 80 10000 2.24 358 06:55 12.12.2021
6498 Clear 25 1016 79 10000 1.79 10 05:28 12.12.2021
6499 Clear 25 1016 81 10000 1.79 356 04:18 12.12.2021
6500 Clouds 26 1014 78 10000 0 0 00:45 12.12.2021
6501 Clouds 28 1014 76 10000 3.13 38 22:42 11.12.2021
6502 Clouds 28 1013 75 10000 3.13 46 22:20 11.12.2021
6503 Clouds 29 1013 69 10000 3.58 49 21:25 11.12.2021
6504 Clouds 29 1013 65 10000 3.13 49 19:50 11.12.2021
6505 Clouds 30 1014 65 10000 2.68 49 19:20 11.12.2021
6506 Clouds 30 1013 66 10000 3.13 6 18:39 11.12.2021
6507 Clouds 30 1015 66 10000 3.58 50 17:41 11.12.2021
6508 Clouds 28 1016 72 10000 3.58 53 15:57 11.12.2021
6509 Clouds 28 1016 74 10000 3.13 46 15:37 11.12.2021
6510 Clouds 26 1017 79 10000 3.13 18 14:21 11.12.2021
6511 Clear 22 1016 95 10000 3.44 339 12:20 11.12.2021
6512 Clear 22 1016 95 10000 3.34 342 10:43 11.12.2021
6513 Clear 22 1015 94 10000 3.49 345 09:38 11.12.2021
6514 Clear 24 1016 83 10000 3.69 343 03:26 11.12.2021
6515 Clouds 25 1015 94 10000 0 0 00:45 11.12.2021
6516 Clear 27 1015 73 10000 4.43 5 23:40 10.12.2021
6517 Clouds 29 1013 65 10000 3.13 34 22:33 10.12.2021
6518 Clear 29 1013 61 10000 3.58 57 21:40 10.12.2021
6519 Clouds 30 1014 62 10000 2.68 66 20:22 10.12.2021
6520 Clouds 30 1015 65 10000 3.58 33 19:18 10.12.2021
6521 Clouds 29 1017 69 10000 2.24 348 17:31 10.12.2021
6522 Clouds 28 1017 71 10000 2.68 52 16:34 10.12.2021
6523 Clouds 27 1017 73 10000 3.13 6 15:43 10.12.2021
6524 Clouds 27 1017 74 10000 3.13 11 15:23 10.12.2021
6525 Clouds 24 1017 85 10000 1.79 355 13:53 10.12.2021
6526 Clouds 24 1017 86 10000 2.24 6 13:31 10.12.2021
6527 Clear 24 1016 83 10000 1.79 11 12:55 10.12.2021
6528 Clear 24 1016 84 10000 2.68 359 11:36 10.12.2021
6529 Clear 24 1015 83 10000 1.79 354 10:55 10.12.2021
6530 Clear 24 1015 82 10000 2.68 3 09:36 10.12.2021
6531 Clear 24 1015 81 10000 1.34 350 07:25 10.12.2021
6532 Clear 24 1017 83 10000 3.36 346 04:32 10.12.2021
6533 Clear 24 1018 83 10000 3.33 351 02:29 10.12.2021
6534 Clouds 28 1015 71 10000 3.6 360 23:40 09.12.2021
6535 Clouds 29 1015 63 10000 3.13 42 22:41 09.12.2021
6536 Clouds 29 1015 63 10000 2.68 44 22:21 09.12.2021
6537 Clouds 30 1014 60 10000 2.68 59 21:38 09.12.2021
6538 Clouds 30 1014 60 10000 2.68 56 20:34 09.12.2021
6539 Clouds 30 1015 63 10000 2.68 49 19:22 09.12.2021
6540 Clouds 29 1016 67 10000 1.79 19 18:59 09.12.2021
6541 Clouds 29 1016 67 10000 2.68 41 17:58 09.12.2021
6542 Clouds 29 1017 69 10000 2.24 46 17:29 09.12.2021
6543 Clouds 28 1017 70 10000 1.79 47 16:57 09.12.2021
6544 Clouds 27 1017 71 10000 1.79 13 16:20 09.12.2021
6545 Clouds 25 1019 78 10000 2.24 349 14:58 09.12.2021
6546 Clouds 22 1018 86 10000 3.13 32 13:52 09.12.2021
6547 Clear 24 1017 80 10000 1.79 334 12:47 09.12.2021
6548 Clear 23 1016 81 10000 1.34 355 11:25 09.12.2021
6549 Clear 23 1016 81 10000 1.79 341 10:19 09.12.2021
6550 Clear 21 1017 79 10000 2.93 340 06:51 09.12.2021
6551 Clear 23 1018 79 10000 2.46 343 03:49 09.12.2021
6552 Clouds 27 1015 78 10000 0 0 23:50 08.12.2021
6553 Clouds 27 1015 73 10000 0.89 129 23:31 08.12.2021
6554 Clouds 28 1015 70 10000 0.89 134 22:53 08.12.2021
6555 Clouds 29 1015 68 10000 1.34 114 21:50 08.12.2021
6556 Clouds 29 1015 70 10000 1.79 113 21:31 08.12.2021
6557 Clouds 30 1014 63 10000 1.34 157 20:30 08.12.2021
6558 Clouds 30 1015 62 10000 1.79 140 19:48 08.12.2021
6559 Clouds 29 1016 67 10000 1.79 111 18:54 08.12.2021
6560 Clouds 30 1016 66 10000 1.34 121 18:21 08.12.2021
6561 Clouds 28 1018 69 10000 1.79 103 16:44 08.12.2021
6562 Clouds 28 1018 69 10000 1.79 103 16:44 08.12.2021
6563 Clouds 27 1018 75 10000 1.79 41 15:40 08.12.2021
6564 Clouds 27 1018 75 10000 2.24 61 15:21 08.12.2021
6565 Clouds 23 1017 88 10000 0.89 354 13:21 08.12.2021
6566 Clear 23 1016 85 10000 1.34 1 10:42 08.12.2021
6567 Clear 24 1015 85 10000 1.79 353 09:32 08.12.2021
6568 Clear 24 1016 85 10000 1.79 357 07:37 08.12.2021
6569 Clouds 24 1017 85 10000 0.89 329 04:58 08.12.2021
6570 Clouds 25 1016 86 6000 1.34 1 23:56 07.12.2021
6571 Clouds 26 1015 83 8000 0.89 305 22:48 07.12.2021
6572 Clouds 28 1015 68 10000 1.79 115 21:24 07.12.2021
6573 Clouds 29 1015 69 10000 2.24 102 20:25 07.12.2021
6574 Clouds 30 1018 66 10000 3.09 20 18:57 07.12.2021
6575 Clouds 29 1018 68 10000 3.09 20 18:19 07.12.2021
6576 Clouds 29 1017 68 10000 1.79 73 17:20 07.12.2021
6577 Clouds 29 1018 71 10000 2.24 114 16:37 07.12.2021
6578 Clouds 28 1018 74 10000 2.24 39 15:37 07.12.2021
6579 Clouds 26 1019 79 10000 1.79 1 14:37 07.12.2021
6580 Clouds 24 1018 86 10000 1.79 353 13:19 07.12.2021
6581 Clouds 24 1017 84 10000 1.34 10 12:21 07.12.2021
6582 Clear 25 1017 82 10000 1.34 359 10:45 07.12.2021
6583 Clear 25 1016 82 10000 0.89 357 09:19 07.12.2021
6584 Clear 25 1017 81 10000 1.34 6 06:39 07.12.2021
6585 Clear 25 1017 81 10000 1.34 343 05:45 07.12.2021
6586 Clouds 26 1016 81 10000 0 0 00:54 07.12.2021
6587 Clouds 28 1016 72 10000 1.79 95 23:18 06.12.2021
6588 Clouds 29 1016 71 10000 2.24 114 22:39 06.12.2021
6589 Clouds 30 1016 65 10000 1.79 121 21:58 06.12.2021
6590 Clouds 30 1015 64 10000 1.79 129 21:20 06.12.2021
6591 Clouds 31 1016 65 10000 1.79 139 20:30 06.12.2021
6592 Clouds 31 1017 66 10000 1.79 125 19:24 06.12.2021
6593 Clouds 30 1018 63 10000 1.79 96 18:29 06.12.2021
6594 Clouds 30 1019 64 10000 1.79 90 17:52 06.12.2021
6595 Clouds 29 1019 68 10000 1.79 78 16:56 06.12.2021
6596 Clouds 27 1020 74 10000 3.13 54 15:45 06.12.2021
6597 Clouds 24 1019 84 10000 1.79 14 13:47 06.12.2021
6598 Clouds 24 1018 86 10000 0.89 355 12:40 06.12.2021
6599 Clouds 22 1019 94 10000 2.57 343 11:54 06.12.2021
6600 Clouds 24 1017 85 10000 0.89 355 09:35 06.12.2021
6601 Clouds 23 1018 92 10000 2.59 343 06:43 06.12.2021
6602 Clouds 25 1016 83 10000 1.34 345 23:52 05.12.2021
6603 Clouds 29 1015 70 8000 1.79 121 21:52 05.12.2021
6604 Clouds 30 1015 68 8000 1.79 116 21:24 05.12.2021
6605 Clouds 29 1015 72 10000 1.79 122 20:19 05.12.2021
6606 Clouds 29 1016 72 8000 2.24 117 19:36 05.12.2021
6607 Clouds 29 1016 73 8000 1.79 118 19:18 05.12.2021
6608 Clouds 31 1016 67 10000 1.79 109 18:20 05.12.2021
6609 Clouds 30 1018 71 10000 1.34 75 17:49 05.12.2021
6610 Clouds 29 1018 72 10000 2.24 110 16:50 05.12.2021
6611 Clouds 29 1018 73 10000 2.24 61 16:27 05.12.2021
6612 Clouds 28 1019 76 10000 2.24 73 15:49 05.12.2021
6613 Clouds 26 1019 81 10000 2.24 42 14:43 05.12.2021
6614 Clouds 26 1019 82 10000 1.79 3 14:25 05.12.2021
6615 Clouds 24 1017 86 10000 1.79 357 13:22 05.12.2021
6616 Clear 24 1017 88 10000 0.89 358 12:40 05.12.2021
6617 Clear 24 1017 85 10000 1.34 1 12:18 05.12.2021
6618 Clear 24 1016 86 10000 1.34 348 11:30 05.12.2021
6619 Clear 24 1016 86 10000 1.34 5 10:18 05.12.2021
6620 Clear 24 1016 85 10000 0.89 347 08:29 05.12.2021
6621 Clouds 24 1017 87 10000 1.34 10 03:39 05.12.2021
6622 Clouds 24 1015 91 10000 0.89 313 23:45 04.12.2021
6623 Clouds 25 1014 87 7000 2.24 13 22:18 04.12.2021
6624 Clouds 27 1013 57 10000 3.88 88 21:18 04.12.2021
6625 Clouds 29 1014 69 8000 0.89 87 20:27 04.12.2021
6626 Clouds 29 1014 70 10000 1.79 114 19:32 04.12.2021
6627 Clouds 31 1015 62 10000 2.24 70 18:21 04.12.2021
6628 Clouds 31 1016 63 10000 2.68 72 17:40 04.12.2